<?xml version='1.0' encoding='UTF-8'?><gpx version="1.1" creator="JPX - https://github.com/jenetics/jpx" xmlns="http://www.topografix.com/GPX/1/1"><trk><trkseg><trkpt lat="40.714407" lon="14.7025492"><ele>169.71428571428572</ele><time>2026-05-02T06:55:57.315Z</time></trkpt><trkpt lat="40.7143734" lon="14.7026244"><ele>170.42857142857142</ele><time>2026-05-02T06:56:00.315Z</time></trkpt><trkpt lat="40.7143695" lon="14.7027302"><ele>171.14285714285714</ele><time>2026-05-02T06:56:03.316Z</time></trkpt><trkpt lat="40.7143128" lon="14.7027762"><ele>171.85714285714286</ele><time>2026-05-02T06:56:05.315Z</time></trkpt><trkpt lat="40.7142452" lon="14.7028079"><ele>172.57142857142858</ele><time>2026-05-02T06:56:07.316Z</time></trkpt><trkpt lat="40.7141751" lon="14.7028266"><ele>173.28571428571428</ele><time>2026-05-02T06:56:09.315Z</time></trkpt><trkpt lat="40.7141156" lon="14.7027514"><ele>174.0</ele><time>2026-05-02T06:56:11.316Z</time></trkpt><trkpt lat="40.7140592" lon="14.7027048"><ele>174.16666666666666</ele><time>2026-05-02T06:56:15.315Z</time></trkpt><trkpt lat="40.7140882" lon="14.7027866"><ele>174.33333333333334</ele><time>2026-05-02T06:56:19.316Z</time></trkpt><trkpt lat="40.7141471" lon="14.7028241"><ele>174.5</ele><time>2026-05-02T06:56:21.316Z</time></trkpt><trkpt lat="40.714231" lon="14.7028354"><ele>174.66666666666669</ele><time>2026-05-02T06:56:23.315Z</time></trkpt><trkpt lat="40.714314" lon="14.7027914"><ele>174.83333333333334</ele><time>2026-05-02T06:56:25.316Z</time></trkpt><trkpt lat="40.7143765" lon="14.7027743"><ele>175.0</ele><time>2026-05-02T06:56:27.315Z</time></trkpt><trkpt lat="40.7144269" lon="14.7028638"><ele>175.0</ele><time>2026-05-02T06:56:30.316Z</time></trkpt><trkpt lat="40.7144154" lon="14.702955"><ele>175.0</ele><time>2026-05-02T06:56:32.316Z</time></trkpt><trkpt lat="40.7143302" lon="14.703006"><ele>175.0</ele><time>2026-05-02T06:56:35.316Z</time></trkpt><trkpt lat="40.7142465" lon="14.7030305"><ele>175.0</ele><time>2026-05-02T06:56:37.316Z</time></trkpt><trkpt lat="40.7141542" lon="14.7030446"><ele>175.0</ele><time>2026-05-02T06:56:39.316Z</time></trkpt><trkpt lat="40.7140951" lon="14.7030969"><ele>175.0</ele><time>2026-05-02T06:56:42.316Z</time></trkpt><trkpt lat="40.7140855" lon="14.7031867"><ele>175.0</ele><time>2026-05-02T06:56:45.316Z</time></trkpt><trkpt lat="40.7140618" lon="14.7032779"><ele>175.0</ele><time>2026-05-02T06:56:46.316Z</time></trkpt><trkpt lat="40.7140218" lon="14.7033799"><ele>175.0</ele><time>2026-05-02T06:56:47.315Z</time></trkpt><trkpt lat="40.7139546" lon="14.7034753"><ele>175.0</ele><time>2026-05-02T06:56:48.315Z</time></trkpt><trkpt lat="40.7138663" lon="14.7035572"><ele>175.0</ele><time>2026-05-02T06:56:49.315Z</time></trkpt><trkpt lat="40.7137717" lon="14.7036383"><ele>175.25</ele><time>2026-05-02T06:56:50.316Z</time></trkpt><trkpt lat="40.7136791" lon="14.7037199"><ele>175.5</ele><time>2026-05-02T06:56:51.316Z</time></trkpt><trkpt lat="40.7135904" lon="14.7038027"><ele>175.75</ele><time>2026-05-02T06:56:52.316Z</time></trkpt><trkpt lat="40.7134941" lon="14.7038906"><ele>176.0</ele><time>2026-05-02T06:56:53.316Z</time></trkpt><trkpt lat="40.7133921" lon="14.7039793"><ele>176.0</ele><time>2026-05-02T06:56:54.315Z</time></trkpt><trkpt lat="40.7132738" lon="14.7040824"><ele>176.0</ele><time>2026-05-02T06:56:55.315Z</time></trkpt><trkpt lat="40.7131438" lon="14.7042079"><ele>176.0</ele><time>2026-05-02T06:56:56.316Z</time></trkpt><trkpt lat="40.7130358" lon="14.704312"><ele>176.0</ele><time>2026-05-02T06:56:57.316Z</time></trkpt><trkpt lat="40.7129339" lon="14.7043984"><ele>176.25</ele><time>2026-05-02T06:56:58.316Z</time></trkpt><trkpt lat="40.7128426" lon="14.7044809"><ele>176.5</ele><time>2026-05-02T06:56:59.316Z</time></trkpt><trkpt lat="40.7127421" lon="14.7045747"><ele>176.75</ele><time>2026-05-02T06:57:00.316Z</time></trkpt><trkpt lat="40.7126315" lon="14.7046793"><ele>177.0</ele><time>2026-05-02T06:57:01.316Z</time></trkpt><trkpt lat="40.712501" lon="14.7047837"><ele>177.0</ele><time>2026-05-02T06:57:02.315Z</time></trkpt><trkpt lat="40.7123569" lon="14.7048807"><ele>177.0</ele><time>2026-05-02T06:57:03.315Z</time></trkpt><trkpt lat="40.7122044" lon="14.7049727"><ele>177.0</ele><time>2026-05-02T06:57:04.316Z</time></trkpt><trkpt lat="40.7120525" lon="14.7050575"><ele>178.33333333333334</ele><time>2026-05-02T06:57:05.316Z</time></trkpt><trkpt lat="40.7119014" lon="14.7051376"><ele>179.66666666666669</ele><time>2026-05-02T06:57:06.316Z</time></trkpt><trkpt lat="40.71175" lon="14.705215"><ele>181.0</ele><time>2026-05-02T06:57:07.315Z</time></trkpt><trkpt lat="40.7116023" lon="14.7052817"><ele>181.0</ele><time>2026-05-02T06:57:08.316Z</time></trkpt><trkpt lat="40.7114587" lon="14.7053383"><ele>181.0</ele><time>2026-05-02T06:57:09.316Z</time></trkpt><trkpt lat="40.7113205" lon="14.7053943"><ele>181.0</ele><time>2026-05-02T06:57:10.316Z</time></trkpt><trkpt lat="40.7111833" lon="14.7054419"><ele>181.0</ele><time>2026-05-02T06:57:11.315Z</time></trkpt><trkpt lat="40.7110507" lon="14.7054861"><ele>182.0</ele><time>2026-05-02T06:57:12.315Z</time></trkpt><trkpt lat="40.7109236" lon="14.7055272"><ele>183.0</ele><time>2026-05-02T06:57:13.315Z</time></trkpt><trkpt lat="40.7108037" lon="14.7055676"><ele>184.0</ele><time>2026-05-02T06:57:14.315Z</time></trkpt><trkpt lat="40.7106883" lon="14.7056068"><ele>185.0</ele><time>2026-05-02T06:57:15.316Z</time></trkpt><trkpt lat="40.7105784" lon="14.7056435"><ele>185.0</ele><time>2026-05-02T06:57:16.316Z</time></trkpt><trkpt lat="40.7104854" lon="14.7056744"><ele>185.0</ele><time>2026-05-02T06:57:17.316Z</time></trkpt><trkpt lat="40.7103913" lon="14.7057135"><ele>185.0</ele><time>2026-05-02T06:57:18.316Z</time></trkpt><trkpt lat="40.7102896" lon="14.7057459"><ele>185.0</ele><time>2026-05-02T06:57:19.316Z</time></trkpt><trkpt lat="40.7101809" lon="14.7057756"><ele>185.0</ele><time>2026-05-02T06:57:20.316Z</time></trkpt><trkpt lat="40.7100635" lon="14.7058116"><ele>185.75</ele><time>2026-05-02T06:57:21.315Z</time></trkpt><trkpt lat="40.7099441" lon="14.7058454"><ele>186.5</ele><time>2026-05-02T06:57:22.315Z</time></trkpt><trkpt lat="40.7098295" lon="14.7058718"><ele>187.25</ele><time>2026-05-02T06:57:23.315Z</time></trkpt><trkpt lat="40.7097228" lon="14.7058977"><ele>188.0</ele><time>2026-05-02T06:57:24.316Z</time></trkpt><trkpt lat="40.7096192" lon="14.7059274"><ele>188.0</ele><time>2026-05-02T06:57:25.316Z</time></trkpt><trkpt lat="40.7095174" lon="14.7059607"><ele>188.0</ele><time>2026-05-02T06:57:26.316Z</time></trkpt><trkpt lat="40.7094154" lon="14.7059931"><ele>188.0</ele><time>2026-05-02T06:57:27.316Z</time></trkpt><trkpt lat="40.7093133" lon="14.7060279"><ele>188.0</ele><time>2026-05-02T06:57:28.316Z</time></trkpt><trkpt lat="40.7092119" lon="14.7060598"><ele>188.0</ele><time>2026-05-02T06:57:29.316Z</time></trkpt><trkpt lat="40.7091124" lon="14.7060932"><ele>188.33333333333331</ele><time>2026-05-02T06:57:30.315Z</time></trkpt><trkpt lat="40.70902" lon="14.7061243"><ele>188.66666666666666</ele><time>2026-05-02T06:57:31.316Z</time></trkpt><trkpt lat="40.7089327" lon="14.7061516"><ele>189.0</ele><time>2026-05-02T06:57:32.316Z</time></trkpt><trkpt lat="40.7088468" lon="14.7061784"><ele>189.33333333333334</ele><time>2026-05-02T06:57:33.316Z</time></trkpt><trkpt lat="40.7087622" lon="14.7062038"><ele>189.66666666666669</ele><time>2026-05-02T06:57:34.316Z</time></trkpt><trkpt lat="40.7086814" lon="14.7062334"><ele>190.0</ele><time>2026-05-02T06:57:35.315Z</time></trkpt><trkpt lat="40.7086102" lon="14.7062588"><ele>190.0</ele><time>2026-05-02T06:57:36.315Z</time></trkpt><trkpt lat="40.7085403" lon="14.7062836"><ele>190.0</ele><time>2026-05-02T06:57:37.315Z</time></trkpt><trkpt lat="40.7084732" lon="14.7063071"><ele>190.0</ele><time>2026-05-02T06:57:38.315Z</time></trkpt><trkpt lat="40.7084065" lon="14.7063313"><ele>190.0</ele><time>2026-05-02T06:57:39.315Z</time></trkpt><trkpt lat="40.7083374" lon="14.7063537"><ele>190.0</ele><time>2026-05-02T06:57:40.316Z</time></trkpt><trkpt lat="40.7082705" lon="14.7063746"><ele>190.0</ele><time>2026-05-02T06:57:41.315Z</time></trkpt><trkpt lat="40.7082084" lon="14.7063885"><ele>190.0</ele><time>2026-05-02T06:57:42.315Z</time></trkpt><trkpt lat="40.7081454" lon="14.7064096"><ele>190.0</ele><time>2026-05-02T06:57:43.315Z</time></trkpt><trkpt lat="40.7080828" lon="14.7064388"><ele>190.0</ele><time>2026-05-02T06:57:44.315Z</time></trkpt><trkpt lat="40.7080225" lon="14.7064642"><ele>190.0</ele><time>2026-05-02T06:57:45.316Z</time></trkpt><trkpt lat="40.7079494" lon="14.7064952"><ele>190.0</ele><time>2026-05-02T06:57:46.315Z</time></trkpt><trkpt lat="40.7078612" lon="14.706527"><ele>190.0</ele><time>2026-05-02T06:57:47.315Z</time></trkpt><trkpt lat="40.7077602" lon="14.7065586"><ele>190.0</ele><time>2026-05-02T06:57:48.315Z</time></trkpt><trkpt lat="40.7076436" lon="14.7065967"><ele>190.75</ele><time>2026-05-02T06:57:49.315Z</time></trkpt><trkpt lat="40.7075119" lon="14.7066455"><ele>191.5</ele><time>2026-05-02T06:57:50.316Z</time></trkpt><trkpt lat="40.70739" lon="14.7066792"><ele>192.25</ele><time>2026-05-02T06:57:51.316Z</time></trkpt><trkpt lat="40.7072861" lon="14.7067127"><ele>193.0</ele><time>2026-05-02T06:57:52.316Z</time></trkpt><trkpt lat="40.7071742" lon="14.706751"><ele>193.0</ele><time>2026-05-02T06:57:53.316Z</time></trkpt><trkpt lat="40.7070513" lon="14.7067872"><ele>193.0</ele><time>2026-05-02T06:57:54.316Z</time></trkpt><trkpt lat="40.7069217" lon="14.7068221"><ele>193.0</ele><time>2026-05-02T06:57:55.316Z</time></trkpt><trkpt lat="40.7067887" lon="14.7068615"><ele>193.0</ele><time>2026-05-02T06:57:56.315Z</time></trkpt><trkpt lat="40.7066611" lon="14.7069018"><ele>192.75</ele><time>2026-05-02T06:57:57.315Z</time></trkpt><trkpt lat="40.7065321" lon="14.706944"><ele>192.5</ele><time>2026-05-02T06:57:58.316Z</time></trkpt><trkpt lat="40.7064017" lon="14.7069856"><ele>192.25</ele><time>2026-05-02T06:57:59.316Z</time></trkpt><trkpt lat="40.7062732" lon="14.7070269"><ele>192.0</ele><time>2026-05-02T06:58:00.316Z</time></trkpt><trkpt lat="40.7061446" lon="14.7070714"><ele>192.25</ele><time>2026-05-02T06:58:01.316Z</time></trkpt><trkpt lat="40.7060186" lon="14.7071145"><ele>192.5</ele><time>2026-05-02T06:58:02.316Z</time></trkpt><trkpt lat="40.7058967" lon="14.7071549"><ele>192.75</ele><time>2026-05-02T06:58:03.316Z</time></trkpt><trkpt lat="40.7057767" lon="14.7071966"><ele>193.0</ele><time>2026-05-02T06:58:04.315Z</time></trkpt><trkpt lat="40.7056565" lon="14.7072371"><ele>193.0</ele><time>2026-05-02T06:58:05.315Z</time></trkpt><trkpt lat="40.7055356" lon="14.7072737"><ele>193.0</ele><time>2026-05-02T06:58:06.316Z</time></trkpt><trkpt lat="40.7054135" lon="14.7073077"><ele>193.0</ele><time>2026-05-02T06:58:07.316Z</time></trkpt><trkpt lat="40.7052901" lon="14.7073436"><ele>193.0</ele><time>2026-05-02T06:58:08.315Z</time></trkpt><trkpt lat="40.705165" lon="14.7073873"><ele>193.25</ele><time>2026-05-02T06:58:09.316Z</time></trkpt><trkpt lat="40.7050366" lon="14.7074319"><ele>193.5</ele><time>2026-05-02T06:58:10.316Z</time></trkpt><trkpt lat="40.7049115" lon="14.7074784"><ele>193.75</ele><time>2026-05-02T06:58:11.316Z</time></trkpt><trkpt lat="40.7047844" lon="14.7075229"><ele>194.0</ele><time>2026-05-02T06:58:12.315Z</time></trkpt><trkpt lat="40.7046553" lon="14.7075709"><ele>194.0</ele><time>2026-05-02T06:58:13.316Z</time></trkpt><trkpt lat="40.7045288" lon="14.7076159"><ele>194.0</ele><time>2026-05-02T06:58:14.316Z</time></trkpt><trkpt lat="40.7044117" lon="14.7076595"><ele>194.0</ele><time>2026-05-02T06:58:15.315Z</time></trkpt><trkpt lat="40.7043006" lon="14.7077009"><ele>194.0</ele><time>2026-05-02T06:58:16.315Z</time></trkpt><trkpt lat="40.7041955" lon="14.7077422"><ele>194.83333333333334</ele><time>2026-05-02T06:58:17.315Z</time></trkpt><trkpt lat="40.7040968" lon="14.7077792"><ele>195.66666666666669</ele><time>2026-05-02T06:58:18.315Z</time></trkpt><trkpt lat="40.7040071" lon="14.7078116"><ele>196.5</ele><time>2026-05-02T06:58:19.316Z</time></trkpt><trkpt lat="40.7039256" lon="14.7078476"><ele>197.33333333333331</ele><time>2026-05-02T06:58:20.316Z</time></trkpt><trkpt lat="40.7038507" lon="14.7078804"><ele>198.16666666666666</ele><time>2026-05-02T06:58:21.316Z</time></trkpt><trkpt lat="40.703784" lon="14.7079074"><ele>199.0</ele><time>2026-05-02T06:58:22.315Z</time></trkpt><trkpt lat="40.7036727" lon="14.7079404"><ele>199.79999999999998</ele><time>2026-05-02T06:58:24.316Z</time></trkpt><trkpt lat="40.7035696" lon="14.7079416"><ele>200.6</ele><time>2026-05-02T06:58:26.316Z</time></trkpt><trkpt lat="40.7034661" lon="14.7079568"><ele>201.4</ele><time>2026-05-02T06:58:28.315Z</time></trkpt><trkpt lat="40.7033662" lon="14.7080528"><ele>202.2</ele><time>2026-05-02T06:58:30.316Z</time></trkpt><trkpt lat="40.7033125" lon="14.7081087"><ele>203.0</ele><time>2026-05-02T06:58:31.316Z</time></trkpt><trkpt lat="40.7032546" lon="14.7081621"><ele>203.00000000000003</ele><time>2026-05-02T06:58:32.316Z</time></trkpt><trkpt lat="40.7031919" lon="14.708204"><ele>203.0</ele><time>2026-05-02T06:58:33.316Z</time></trkpt><trkpt lat="40.7031316" lon="14.7082431"><ele>203.0</ele><time>2026-05-02T06:58:34.315Z</time></trkpt><trkpt lat="40.7030176" lon="14.708299"><ele>203.0</ele><time>2026-05-02T06:58:36.316Z</time></trkpt><trkpt lat="40.7029388" lon="14.7083246"><ele>203.00000000000003</ele><time>2026-05-02T06:58:37.317Z</time></trkpt><trkpt lat="40.7028426" lon="14.7083514"><ele>203.0</ele><time>2026-05-02T06:58:38.317Z</time></trkpt><trkpt lat="40.7027285" lon="14.7083941"><ele>203.5</ele><time>2026-05-02T06:58:39.316Z</time></trkpt><trkpt lat="40.7026032" lon="14.7084347"><ele>204.0</ele><time>2026-05-02T06:58:40.316Z</time></trkpt><trkpt lat="40.7024634" lon="14.7084814"><ele>204.5</ele><time>2026-05-02T06:58:41.317Z</time></trkpt><trkpt lat="40.702331" lon="14.7085275"><ele>205.0</ele><time>2026-05-02T06:58:42.317Z</time></trkpt><trkpt lat="40.7022131" lon="14.7085679"><ele>205.0</ele><time>2026-05-02T06:58:43.317Z</time></trkpt><trkpt lat="40.7020958" lon="14.7086069"><ele>205.0</ele><time>2026-05-02T06:58:44.316Z</time></trkpt><trkpt lat="40.7019847" lon="14.708646"><ele>205.0</ele><time>2026-05-02T06:58:45.316Z</time></trkpt><trkpt lat="40.7018813" lon="14.7086906"><ele>205.0</ele><time>2026-05-02T06:58:46.316Z</time></trkpt><trkpt lat="40.701774" lon="14.7087474"><ele>205.0</ele><time>2026-05-02T06:58:47.317Z</time></trkpt><trkpt lat="40.7016604" lon="14.7088144"><ele>205.0</ele><time>2026-05-02T06:58:48.317Z</time></trkpt><trkpt lat="40.7015357" lon="14.7088895"><ele>205.0</ele><time>2026-05-02T06:58:49.316Z</time></trkpt><trkpt lat="40.7014005" lon="14.7089633"><ele>205.0</ele><time>2026-05-02T06:58:50.316Z</time></trkpt><trkpt lat="40.7012586" lon="14.7090426"><ele>205.0</ele><time>2026-05-02T06:58:51.317Z</time></trkpt><trkpt lat="40.7011067" lon="14.7091382"><ele>205.0</ele><time>2026-05-02T06:58:52.317Z</time></trkpt><trkpt lat="40.7009351" lon="14.7092518"><ele>205.0</ele><time>2026-05-02T06:58:53.317Z</time></trkpt><trkpt lat="40.700727" lon="14.7093684"><ele>205.0</ele><time>2026-05-02T06:58:54.316Z</time></trkpt><trkpt lat="40.7005007" lon="14.7094826"><ele>205.0</ele><time>2026-05-02T06:58:55.316Z</time></trkpt><trkpt lat="40.7002893" lon="14.7095933"><ele>204.33333333333331</ele><time>2026-05-02T06:58:56.317Z</time></trkpt><trkpt lat="40.7000861" lon="14.7097033"><ele>203.66666666666669</ele><time>2026-05-02T06:58:57.316Z</time></trkpt><trkpt lat="40.6998902" lon="14.7098149"><ele>203.0</ele><time>2026-05-02T06:58:58.317Z</time></trkpt><trkpt lat="40.6997024" lon="14.7099242"><ele>203.0</ele><time>2026-05-02T06:58:59.317Z</time></trkpt><trkpt lat="40.6995134" lon="14.7100359"><ele>203.0</ele><time>2026-05-02T06:59:00.317Z</time></trkpt><trkpt lat="40.6993254" lon="14.7101464"><ele>203.0</ele><time>2026-05-02T06:59:01.316Z</time></trkpt><trkpt lat="40.6956048" lon="14.7124123"><ele>197.66666666666669</ele><time>2026-05-02T06:59:16.316Z</time></trkpt><trkpt lat="40.6954021" lon="14.7125257"><ele>192.33333333333334</ele><time>2026-05-02T06:59:17.317Z</time></trkpt><trkpt lat="40.6952179" lon="14.7126578"><ele>187.0</ele><time>2026-05-02T06:59:18.316Z</time></trkpt><trkpt lat="40.6950476" lon="14.7128233"><ele>183.0</ele><time>2026-05-02T06:59:19.317Z</time></trkpt><trkpt lat="40.6949043" lon="14.7129772"><ele>179.0</ele><time>2026-05-02T06:59:20.317Z</time></trkpt><trkpt lat="40.6947719" lon="14.7131288"><ele>175.0</ele><time>2026-05-02T06:59:21.317Z</time></trkpt><trkpt lat="40.694656" lon="14.7132684"><ele>175.0</ele><time>2026-05-02T06:59:22.317Z</time></trkpt><trkpt lat="40.6945551" lon="14.7133972"><ele>175.0</ele><time>2026-05-02T06:59:23.316Z</time></trkpt><trkpt lat="40.6944555" lon="14.7135207"><ele>175.0</ele><time>2026-05-02T06:59:24.317Z</time></trkpt><trkpt lat="40.6943599" lon="14.7136297"><ele>175.0</ele><time>2026-05-02T06:59:25.317Z</time></trkpt><trkpt lat="40.6942694" lon="14.7137331"><ele>174.4</ele><time>2026-05-02T06:59:26.317Z</time></trkpt><trkpt lat="40.694182" lon="14.7138264"><ele>173.8</ele><time>2026-05-02T06:59:27.317Z</time></trkpt><trkpt lat="40.6940911" lon="14.7139063"><ele>173.2</ele><time>2026-05-02T06:59:28.317Z</time></trkpt><trkpt lat="40.6940008" lon="14.7139751"><ele>172.6</ele><time>2026-05-02T06:59:29.317Z</time></trkpt><trkpt lat="40.6939102" lon="14.7140338"><ele>172.0</ele><time>2026-05-02T06:59:30.317Z</time></trkpt><trkpt lat="40.6938173" lon="14.714083"><ele>172.0</ele><time>2026-05-02T06:59:31.317Z</time></trkpt><trkpt lat="40.6937233" lon="14.7141218"><ele>172.0</ele><time>2026-05-02T06:59:32.317Z</time></trkpt><trkpt lat="40.6936264" lon="14.7141477"><ele>172.0</ele><time>2026-05-02T06:59:33.316Z</time></trkpt><trkpt lat="40.6935308" lon="14.7141585"><ele>172.0</ele><time>2026-05-02T06:59:34.316Z</time></trkpt><trkpt lat="40.6934346" lon="14.7141567"><ele>172.0</ele><time>2026-05-02T06:59:35.317Z</time></trkpt><trkpt lat="40.6933418" lon="14.7141475"><ele>170.0</ele><time>2026-05-02T06:59:36.317Z</time></trkpt><trkpt lat="40.6932561" lon="14.7141255"><ele>168.0</ele><time>2026-05-02T06:59:37.317Z</time></trkpt><trkpt lat="40.6931786" lon="14.7140996"><ele>166.0</ele><time>2026-05-02T06:59:38.317Z</time></trkpt><trkpt lat="40.6931088" lon="14.7140666"><ele>164.0</ele><time>2026-05-02T06:59:39.317Z</time></trkpt><trkpt lat="40.6930555" lon="14.7140161"><ele>162.0</ele><time>2026-05-02T06:59:40.317Z</time></trkpt><trkpt lat="40.6929599" lon="14.7139571"><ele>160.0</ele><time>2026-05-02T06:59:42.317Z</time></trkpt><trkpt lat="40.6928741" lon="14.714002"><ele>160.0</ele><time>2026-05-02T06:59:44.316Z</time></trkpt><trkpt lat="40.6927757" lon="14.7141048"><ele>160.0</ele><time>2026-05-02T06:59:46.317Z</time></trkpt><trkpt lat="40.6927246" lon="14.7141642"><ele>160.0</ele><time>2026-05-02T06:59:47.317Z</time></trkpt><trkpt lat="40.6926773" lon="14.7142354"><ele>160.0</ele><time>2026-05-02T06:59:48.317Z</time></trkpt><trkpt lat="40.6926284" lon="14.7143213"><ele>160.0</ele><time>2026-05-02T06:59:49.317Z</time></trkpt><trkpt lat="40.6925742" lon="14.714421"><ele>160.0</ele><time>2026-05-02T06:59:50.316Z</time></trkpt><trkpt lat="40.6925138" lon="14.7145272"><ele>160.0</ele><time>2026-05-02T06:59:51.316Z</time></trkpt><trkpt lat="40.6924499" lon="14.7146403"><ele>160.0</ele><time>2026-05-02T06:59:52.316Z</time></trkpt><trkpt lat="40.6923812" lon="14.7147495"><ele>160.0</ele><time>2026-05-02T06:59:53.317Z</time></trkpt><trkpt lat="40.692298" lon="14.7148595"><ele>160.0</ele><time>2026-05-02T06:59:54.317Z</time></trkpt><trkpt lat="40.6922015" lon="14.7149635"><ele>160.0</ele><time>2026-05-02T06:59:55.316Z</time></trkpt><trkpt lat="40.6921028" lon="14.7150662"><ele>160.0</ele><time>2026-05-02T06:59:56.316Z</time></trkpt><trkpt lat="40.6920099" lon="14.7151836"><ele>160.0</ele><time>2026-05-02T06:59:57.316Z</time></trkpt><trkpt lat="40.6919347" lon="14.7153214"><ele>160.0</ele><time>2026-05-02T06:59:58.317Z</time></trkpt><trkpt lat="40.6918729" lon="14.7154694"><ele>160.5</ele><time>2026-05-02T06:59:59.317Z</time></trkpt><trkpt lat="40.6918144" lon="14.715616"><ele>161.0</ele><time>2026-05-02T07:00:00.316Z</time></trkpt><trkpt lat="40.6917536" lon="14.7157575"><ele>161.5</ele><time>2026-05-02T07:00:01.317Z</time></trkpt><trkpt lat="40.6916844" lon="14.7158994"><ele>162.0</ele><time>2026-05-02T07:00:02.317Z</time></trkpt><trkpt lat="40.6916137" lon="14.7160424"><ele>158.75</ele><time>2026-05-02T07:00:03.317Z</time></trkpt><trkpt lat="40.6915571" lon="14.71619"><ele>155.5</ele><time>2026-05-02T07:00:04.316Z</time></trkpt><trkpt lat="40.69152" lon="14.7163457"><ele>152.25</ele><time>2026-05-02T07:00:05.316Z</time></trkpt><trkpt lat="40.691495" lon="14.7165047"><ele>149.0</ele><time>2026-05-02T07:00:06.317Z</time></trkpt><trkpt lat="40.6914633" lon="14.7166719"><ele>149.0</ele><time>2026-05-02T07:00:07.317Z</time></trkpt><trkpt lat="40.6914137" lon="14.7168363"><ele>149.0</ele><time>2026-05-02T07:00:08.317Z</time></trkpt><trkpt lat="40.6913499" lon="14.7170002"><ele>149.0</ele><time>2026-05-02T07:00:09.316Z</time></trkpt><trkpt lat="40.6912785" lon="14.7171697"><ele>149.0</ele><time>2026-05-02T07:00:10.317Z</time></trkpt><trkpt lat="40.6912019" lon="14.7173437"><ele>149.0</ele><time>2026-05-02T07:00:11.317Z</time></trkpt><trkpt lat="40.6911236" lon="14.7175076"><ele>149.0</ele><time>2026-05-02T07:00:12.317Z</time></trkpt><trkpt lat="40.6910441" lon="14.7176652"><ele>149.0</ele><time>2026-05-02T07:00:13.316Z</time></trkpt><trkpt lat="40.6909654" lon="14.7178227"><ele>149.0</ele><time>2026-05-02T07:00:14.316Z</time></trkpt><trkpt lat="40.6908696" lon="14.7179672"><ele>148.25</ele><time>2026-05-02T07:00:15.316Z</time></trkpt><trkpt lat="40.6907498" lon="14.71808"><ele>147.5</ele><time>2026-05-02T07:00:16.317Z</time></trkpt><trkpt lat="40.6906297" lon="14.7181834"><ele>146.75</ele><time>2026-05-02T07:00:17.317Z</time></trkpt><trkpt lat="40.6905169" lon="14.7183019"><ele>146.0</ele><time>2026-05-02T07:00:18.316Z</time></trkpt><trkpt lat="40.6904145" lon="14.7184375"><ele>145.75</ele><time>2026-05-02T07:00:19.316Z</time></trkpt><trkpt lat="40.6903239" lon="14.7185849"><ele>145.5</ele><time>2026-05-02T07:00:20.317Z</time></trkpt><trkpt lat="40.6902409" lon="14.7187391"><ele>145.25</ele><time>2026-05-02T07:00:21.316Z</time></trkpt><trkpt lat="40.6901635" lon="14.7188959"><ele>145.0</ele><time>2026-05-02T07:00:22.316Z</time></trkpt><trkpt lat="40.6900763" lon="14.7190439"><ele>145.0</ele><time>2026-05-02T07:00:23.317Z</time></trkpt><trkpt lat="40.6899693" lon="14.7191686"><ele>145.0</ele><time>2026-05-02T07:00:24.317Z</time></trkpt><trkpt lat="40.6898467" lon="14.7192645"><ele>145.0</ele><time>2026-05-02T07:00:25.316Z</time></trkpt><trkpt lat="40.6897161" lon="14.7193456"><ele>145.0</ele><time>2026-05-02T07:00:26.316Z</time></trkpt><trkpt lat="40.6895817" lon="14.7194279"><ele>141.0</ele><time>2026-05-02T07:00:27.316Z</time></trkpt><trkpt lat="40.6894418" lon="14.7195119"><ele>137.0</ele><time>2026-05-02T07:00:28.316Z</time></trkpt><trkpt lat="40.6892953" lon="14.7195969"><ele>133.0</ele><time>2026-05-02T07:00:29.317Z</time></trkpt><trkpt lat="40.689144" lon="14.7196813"><ele>133.0</ele><time>2026-05-02T07:00:30.317Z</time></trkpt><trkpt lat="40.6889902" lon="14.7197657"><ele>133.0</ele><time>2026-05-02T07:00:31.316Z</time></trkpt><trkpt lat="40.6888407" lon="14.7198577"><ele>133.0</ele><time>2026-05-02T07:00:32.316Z</time></trkpt><trkpt lat="40.6886962" lon="14.7199669"><ele>132.33333333333334</ele><time>2026-05-02T07:00:33.316Z</time></trkpt><trkpt lat="40.6885521" lon="14.7200902"><ele>131.66666666666666</ele><time>2026-05-02T07:00:34.316Z</time></trkpt><trkpt lat="40.6884197" lon="14.7202299"><ele>131.0</ele><time>2026-05-02T07:00:35.316Z</time></trkpt><trkpt lat="40.6883038" lon="14.7203937"><ele>131.0</ele><time>2026-05-02T07:00:36.317Z</time></trkpt><trkpt lat="40.6882086" lon="14.720569"><ele>131.0</ele><time>2026-05-02T07:00:37.317Z</time></trkpt><trkpt lat="40.6881264" lon="14.720747"><ele>131.0</ele><time>2026-05-02T07:00:38.317Z</time></trkpt><trkpt lat="40.6880495" lon="14.7209257"><ele>131.0</ele><time>2026-05-02T07:00:39.316Z</time></trkpt><trkpt lat="40.6879714" lon="14.7210972"><ele>131.0</ele><time>2026-05-02T07:00:40.316Z</time></trkpt><trkpt lat="40.6878879" lon="14.7212616"><ele>131.0</ele><time>2026-05-02T07:00:41.316Z</time></trkpt><trkpt lat="40.6877831" lon="14.7214047"><ele>132.0</ele><time>2026-05-02T07:00:42.316Z</time></trkpt><trkpt lat="40.68766" lon="14.7215233"><ele>133.0</ele><time>2026-05-02T07:00:43.317Z</time></trkpt><trkpt lat="40.6875217" lon="14.7216141"><ele>134.0</ele><time>2026-05-02T07:00:44.316Z</time></trkpt><trkpt lat="40.6873752" lon="14.7216824"><ele>134.0</ele><time>2026-05-02T07:00:45.317Z</time></trkpt><trkpt lat="40.6872283" lon="14.7217381"><ele>134.0</ele><time>2026-05-02T07:00:46.317Z</time></trkpt><trkpt lat="40.6870826" lon="14.7217857"><ele>134.0</ele><time>2026-05-02T07:00:47.317Z</time></trkpt><trkpt lat="40.6869304" lon="14.7218049"><ele>134.5</ele><time>2026-05-02T07:00:48.316Z</time></trkpt><trkpt lat="40.6867806" lon="14.7217902"><ele>135.0</ele><time>2026-05-02T07:00:49.316Z</time></trkpt><trkpt lat="40.6866402" lon="14.7217838"><ele>135.5</ele><time>2026-05-02T07:00:50.316Z</time></trkpt><trkpt lat="40.6865076" lon="14.7218157"><ele>136.0</ele><time>2026-05-02T07:00:51.317Z</time></trkpt><trkpt lat="40.6863856" lon="14.721889"><ele>131.5</ele><time>2026-05-02T07:00:52.317Z</time></trkpt><trkpt lat="40.6862768" lon="14.7219731"><ele>127.0</ele><time>2026-05-02T07:00:53.316Z</time></trkpt><trkpt lat="40.6861742" lon="14.7220552"><ele>122.5</ele><time>2026-05-02T07:00:54.317Z</time></trkpt><trkpt lat="40.6860728" lon="14.7221349"><ele>118.0</ele><time>2026-05-02T07:00:55.316Z</time></trkpt><trkpt lat="40.6859726" lon="14.7222077"><ele>118.0</ele><time>2026-05-02T07:00:56.317Z</time></trkpt><trkpt lat="40.6858684" lon="14.7222624"><ele>118.0</ele><time>2026-05-02T07:00:57.316Z</time></trkpt><trkpt lat="40.6857544" lon="14.7222881"><ele>118.0</ele><time>2026-05-02T07:00:58.317Z</time></trkpt><trkpt lat="40.6856297" lon="14.7222925"><ele>118.0</ele><time>2026-05-02T07:00:59.317Z</time></trkpt><trkpt lat="40.6854968" lon="14.7222847"><ele>118.0</ele><time>2026-05-02T07:01:00.317Z</time></trkpt><trkpt lat="40.6853534" lon="14.722268"><ele>118.0</ele><time>2026-05-02T07:01:01.316Z</time></trkpt><trkpt lat="40.6852025" lon="14.7222316"><ele>118.0</ele><time>2026-05-02T07:01:02.316Z</time></trkpt><trkpt lat="40.6850441" lon="14.7221915"><ele>116.66666666666667</ele><time>2026-05-02T07:01:03.316Z</time></trkpt><trkpt lat="40.6848825" lon="14.7221674"><ele>115.33333333333334</ele><time>2026-05-02T07:01:04.316Z</time></trkpt><trkpt lat="40.6847284" lon="14.722159"><ele>114.0</ele><time>2026-05-02T07:01:05.317Z</time></trkpt><trkpt lat="40.6845796" lon="14.7221533"><ele>114.0</ele><time>2026-05-02T07:01:06.317Z</time></trkpt><trkpt lat="40.6844347" lon="14.7221364"><ele>114.0</ele><time>2026-05-02T07:01:07.316Z</time></trkpt><trkpt lat="40.6842929" lon="14.7220994"><ele>114.0</ele><time>2026-05-02T07:01:08.317Z</time></trkpt><trkpt lat="40.6841593" lon="14.7220314"><ele>114.0</ele><time>2026-05-02T07:01:09.317Z</time></trkpt><trkpt lat="40.684034" lon="14.7219446"><ele>114.0</ele><time>2026-05-02T07:01:10.317Z</time></trkpt><trkpt lat="40.6839024" lon="14.7218603"><ele>114.0</ele><time>2026-05-02T07:01:11.317Z</time></trkpt><trkpt lat="40.6837656" lon="14.7217907"><ele>114.0</ele><time>2026-05-02T07:01:12.316Z</time></trkpt><trkpt lat="40.6836231" lon="14.7217464"><ele>114.0</ele><time>2026-05-02T07:01:13.317Z</time></trkpt><trkpt lat="40.683484" lon="14.7217387"><ele>114.0</ele><time>2026-05-02T07:01:14.316Z</time></trkpt><trkpt lat="40.6833472" lon="14.7217649"><ele>114.0</ele><time>2026-05-02T07:01:15.317Z</time></trkpt><trkpt lat="40.6832154" lon="14.7218044"><ele>114.0</ele><time>2026-05-02T07:01:16.316Z</time></trkpt><trkpt lat="40.6830861" lon="14.7218466"><ele>114.0</ele><time>2026-05-02T07:01:17.317Z</time></trkpt><trkpt lat="40.6829601" lon="14.7218914"><ele>109.0</ele><time>2026-05-02T07:01:18.317Z</time></trkpt><trkpt lat="40.6828399" lon="14.7219276"><ele>104.0</ele><time>2026-05-02T07:01:19.316Z</time></trkpt><trkpt lat="40.6827247" lon="14.7219618"><ele>99.0</ele><time>2026-05-02T07:01:20.317Z</time></trkpt><trkpt lat="40.6826134" lon="14.7219892"><ele>94.0</ele><time>2026-05-02T07:01:21.316Z</time></trkpt><trkpt lat="40.6825059" lon="14.7220119"><ele>94.0</ele><time>2026-05-02T07:01:22.316Z</time></trkpt><trkpt lat="40.6824063" lon="14.7220327"><ele>94.0</ele><time>2026-05-02T07:01:23.317Z</time></trkpt><trkpt lat="40.6823149" lon="14.7220495"><ele>94.0</ele><time>2026-05-02T07:01:24.316Z</time></trkpt><trkpt lat="40.6822286" lon="14.722061"><ele>94.0</ele><time>2026-05-02T07:01:25.316Z</time></trkpt><trkpt lat="40.6821417" lon="14.7220753"><ele>94.0</ele><time>2026-05-02T07:01:26.317Z</time></trkpt><trkpt lat="40.6820539" lon="14.7220861"><ele>94.0</ele><time>2026-05-02T07:01:27.317Z</time></trkpt><trkpt lat="40.681963" lon="14.7220946"><ele>94.0</ele><time>2026-05-02T07:01:28.317Z</time></trkpt><trkpt lat="40.681863" lon="14.7221009"><ele>94.0</ele><time>2026-05-02T07:01:29.317Z</time></trkpt><trkpt lat="40.6817474" lon="14.7221124"><ele>94.0</ele><time>2026-05-02T07:01:30.317Z</time></trkpt><trkpt lat="40.6816187" lon="14.7221449"><ele>94.0</ele><time>2026-05-02T07:01:31.316Z</time></trkpt><trkpt lat="40.68147" lon="14.7222074"><ele>92.66666666666666</ele><time>2026-05-02T07:01:32.317Z</time></trkpt><trkpt lat="40.6812911" lon="14.722298"><ele>91.33333333333333</ele><time>2026-05-02T07:01:33.316Z</time></trkpt><trkpt lat="40.681087" lon="14.7223979"><ele>90.0</ele><time>2026-05-02T07:01:34.316Z</time></trkpt><trkpt lat="40.6809099" lon="14.7224918"><ele>88.33333333333333</ele><time>2026-05-02T07:01:35.317Z</time></trkpt><trkpt lat="40.6807329" lon="14.7225712"><ele>86.66666666666666</ele><time>2026-05-02T07:01:36.316Z</time></trkpt><trkpt lat="40.6805567" lon="14.7226216"><ele>85.0</ele><time>2026-05-02T07:01:37.317Z</time></trkpt><trkpt lat="40.6803895" lon="14.7226424"><ele>86.66666666666666</ele><time>2026-05-02T07:01:38.316Z</time></trkpt><trkpt lat="40.6802261" lon="14.7226494"><ele>88.33333333333333</ele><time>2026-05-02T07:01:39.317Z</time></trkpt><trkpt lat="40.6800712" lon="14.7226507"><ele>90.0</ele><time>2026-05-02T07:01:40.317Z</time></trkpt><trkpt lat="40.6799217" lon="14.7226566"><ele>90.0</ele><time>2026-05-02T07:01:41.317Z</time></trkpt><trkpt lat="40.6797777" lon="14.7226636"><ele>90.0</ele><time>2026-05-02T07:01:42.317Z</time></trkpt><trkpt lat="40.6796127" lon="14.7226713"><ele>90.0</ele><time>2026-05-02T07:01:43.316Z</time></trkpt><trkpt lat="40.6794351" lon="14.7226807"><ele>89.0</ele><time>2026-05-02T07:01:44.317Z</time></trkpt><trkpt lat="40.6792479" lon="14.7226953"><ele>88.0</ele><time>2026-05-02T07:01:45.316Z</time></trkpt><trkpt lat="40.6790682" lon="14.722723"><ele>87.0</ele><time>2026-05-02T07:01:46.316Z</time></trkpt><trkpt lat="40.678901" lon="14.72276"><ele>95.66666666666666</ele><time>2026-05-02T07:01:47.317Z</time></trkpt><trkpt lat="40.6787428" lon="14.7228014"><ele>104.33333333333333</ele><time>2026-05-02T07:01:48.316Z</time></trkpt><trkpt lat="40.6785949" lon="14.7228397"><ele>113.0</ele><time>2026-05-02T07:01:49.317Z</time></trkpt><trkpt lat="40.6784556" lon="14.722872"><ele>113.0</ele><time>2026-05-02T07:01:50.317Z</time></trkpt><trkpt lat="40.6783257" lon="14.7229036"><ele>113.0</ele><time>2026-05-02T07:01:51.317Z</time></trkpt><trkpt lat="40.6782047" lon="14.7229311"><ele>113.0</ele><time>2026-05-02T07:01:52.316Z</time></trkpt><trkpt lat="40.6780886" lon="14.7229552"><ele>113.0</ele><time>2026-05-02T07:01:53.317Z</time></trkpt><trkpt lat="40.6779623" lon="14.7229798"><ele>113.0</ele><time>2026-05-02T07:01:54.316Z</time></trkpt><trkpt lat="40.6778293" lon="14.7230046"><ele>113.0</ele><time>2026-05-02T07:01:55.317Z</time></trkpt><trkpt lat="40.6776929" lon="14.7230377"><ele>113.0</ele><time>2026-05-02T07:01:56.316Z</time></trkpt><trkpt lat="40.6775559" lon="14.7230918"><ele>113.0</ele><time>2026-05-02T07:01:57.316Z</time></trkpt><trkpt lat="40.6774262" lon="14.7231785"><ele>117.25</ele><time>2026-05-02T07:01:58.316Z</time></trkpt><trkpt lat="40.6773027" lon="14.7232922"><ele>121.5</ele><time>2026-05-02T07:01:59.317Z</time></trkpt><trkpt lat="40.677186" lon="14.7234152"><ele>125.75</ele><time>2026-05-02T07:02:00.316Z</time></trkpt><trkpt lat="40.6770758" lon="14.7235342"><ele>130.0</ele><time>2026-05-02T07:02:01.316Z</time></trkpt><trkpt lat="40.6769668" lon="14.7236475"><ele>121.0</ele><time>2026-05-02T07:02:02.316Z</time></trkpt><trkpt lat="40.6768546" lon="14.7237644"><ele>112.0</ele><time>2026-05-02T07:02:03.317Z</time></trkpt><trkpt lat="40.676749" lon="14.7238772"><ele>103.0</ele><time>2026-05-02T07:02:04.317Z</time></trkpt><trkpt lat="40.6766517" lon="14.7239806"><ele>94.0</ele><time>2026-05-02T07:02:05.317Z</time></trkpt><trkpt lat="40.6765618" lon="14.7240745"><ele>94.0</ele><time>2026-05-02T07:02:06.316Z</time></trkpt><trkpt lat="40.676475" lon="14.7241679"><ele>94.0</ele><time>2026-05-02T07:02:07.317Z</time></trkpt><trkpt lat="40.676386" lon="14.7242624"><ele>94.0</ele><time>2026-05-02T07:02:08.317Z</time></trkpt><trkpt lat="40.6762926" lon="14.7243669"><ele>94.0</ele><time>2026-05-02T07:02:09.316Z</time></trkpt><trkpt lat="40.6761963" lon="14.7244819"><ele>94.25</ele><time>2026-05-02T07:02:10.316Z</time></trkpt><trkpt lat="40.676092" lon="14.7246018"><ele>94.5</ele><time>2026-05-02T07:02:11.317Z</time></trkpt><trkpt lat="40.6759856" lon="14.7247239"><ele>94.75</ele><time>2026-05-02T07:02:12.317Z</time></trkpt><trkpt lat="40.6758913" lon="14.7248361"><ele>95.0</ele><time>2026-05-02T07:02:13.317Z</time></trkpt><trkpt lat="40.6758013" lon="14.7249416"><ele>95.0</ele><time>2026-05-02T07:02:14.316Z</time></trkpt><trkpt lat="40.6757186" lon="14.7250397"><ele>95.0</ele><time>2026-05-02T07:02:15.316Z</time></trkpt><trkpt lat="40.6756435" lon="14.7251316"><ele>95.0</ele><time>2026-05-02T07:02:16.317Z</time></trkpt><trkpt lat="40.6755738" lon="14.7252196"><ele>95.0</ele><time>2026-05-02T07:02:17.317Z</time></trkpt><trkpt lat="40.6755073" lon="14.7253066"><ele>95.0</ele><time>2026-05-02T07:02:18.316Z</time></trkpt><trkpt lat="40.6754456" lon="14.7253852"><ele>94.5</ele><time>2026-05-02T07:02:19.317Z</time></trkpt><trkpt lat="40.6753876" lon="14.7254592"><ele>94.0</ele><time>2026-05-02T07:02:20.316Z</time></trkpt><trkpt lat="40.6753386" lon="14.7255247"><ele>93.5</ele><time>2026-05-02T07:02:21.317Z</time></trkpt><trkpt lat="40.6752896" lon="14.7255854"><ele>93.0</ele><time>2026-05-02T07:02:22.317Z</time></trkpt><trkpt lat="40.6752315" lon="14.7256515"><ele>92.5</ele><time>2026-05-02T07:02:23.316Z</time></trkpt><trkpt lat="40.6751673" lon="14.725726"><ele>92.0</ele><time>2026-05-02T07:02:24.317Z</time></trkpt><trkpt lat="40.6751005" lon="14.7258046"><ele>92.0</ele><time>2026-05-02T07:02:25.317Z</time></trkpt><trkpt lat="40.6750339" lon="14.7258775"><ele>92.0</ele><time>2026-05-02T07:02:26.317Z</time></trkpt><trkpt lat="40.674965" lon="14.7259565"><ele>92.0</ele><time>2026-05-02T07:02:27.316Z</time></trkpt><trkpt lat="40.674897" lon="14.726034"><ele>92.0</ele><time>2026-05-02T07:02:28.317Z</time></trkpt><trkpt lat="40.6748276" lon="14.7261147"><ele>92.0</ele><time>2026-05-02T07:02:29.317Z</time></trkpt><trkpt lat="40.6747497" lon="14.7262134"><ele>90.0</ele><time>2026-05-02T07:02:30.317Z</time></trkpt><trkpt lat="40.6746617" lon="14.7263191"><ele>88.0</ele><time>2026-05-02T07:02:31.317Z</time></trkpt><trkpt lat="40.6745642" lon="14.7264336"><ele>86.0</ele><time>2026-05-02T07:02:32.317Z</time></trkpt><trkpt lat="40.6744526" lon="14.7265578"><ele>84.0</ele><time>2026-05-02T07:02:33.316Z</time></trkpt><trkpt lat="40.6743308" lon="14.7267086"><ele>84.0</ele><time>2026-05-02T07:02:34.316Z</time></trkpt><trkpt lat="40.6742082" lon="14.7268838"><ele>84.0</ele><time>2026-05-02T07:02:35.316Z</time></trkpt><trkpt lat="40.6740838" lon="14.7270607"><ele>84.0</ele><time>2026-05-02T07:02:36.317Z</time></trkpt><trkpt lat="40.6739662" lon="14.7272417"><ele>87.66666666666667</ele><time>2026-05-02T07:02:37.317Z</time></trkpt><trkpt lat="40.6738568" lon="14.7274451"><ele>91.33333333333334</ele><time>2026-05-02T07:02:38.317Z</time></trkpt><trkpt lat="40.6737635" lon="14.7276733"><ele>95.0</ele><time>2026-05-02T07:02:39.317Z</time></trkpt><trkpt lat="40.6736711" lon="14.7279079"><ele>93.33333333333334</ele><time>2026-05-02T07:02:40.316Z</time></trkpt><trkpt lat="40.6735795" lon="14.7281144"><ele>91.66666666666667</ele><time>2026-05-02T07:02:41.316Z</time></trkpt><trkpt lat="40.6734831" lon="14.7283057"><ele>90.0</ele><time>2026-05-02T07:02:42.317Z</time></trkpt><trkpt lat="40.6733765" lon="14.7284656"><ele>94.25</ele><time>2026-05-02T07:02:43.316Z</time></trkpt><trkpt lat="40.6732566" lon="14.7285971"><ele>98.5</ele><time>2026-05-02T07:02:44.316Z</time></trkpt><trkpt lat="40.6731311" lon="14.7286932"><ele>102.75</ele><time>2026-05-02T07:02:45.317Z</time></trkpt><trkpt lat="40.6730084" lon="14.7287549"><ele>107.0</ele><time>2026-05-02T07:02:46.317Z</time></trkpt><trkpt lat="40.6728864" lon="14.7288016"><ele>105.0</ele><time>2026-05-02T07:02:47.317Z</time></trkpt><trkpt lat="40.6727644" lon="14.7288433"><ele>103.0</ele><time>2026-05-02T07:02:48.316Z</time></trkpt><trkpt lat="40.672641" lon="14.7288869"><ele>101.0</ele><time>2026-05-02T07:02:49.317Z</time></trkpt><trkpt lat="40.6725136" lon="14.7289305"><ele>99.0</ele><time>2026-05-02T07:02:50.317Z</time></trkpt><trkpt lat="40.6723858" lon="14.7289705"><ele>99.0</ele><time>2026-05-02T07:02:51.316Z</time></trkpt><trkpt lat="40.6722663" lon="14.7290105"><ele>99.0</ele><time>2026-05-02T07:02:52.317Z</time></trkpt><trkpt lat="40.6721498" lon="14.7290502"><ele>99.0</ele><time>2026-05-02T07:02:53.317Z</time></trkpt><trkpt lat="40.6720384" lon="14.7290991"><ele>99.0</ele><time>2026-05-02T07:02:54.316Z</time></trkpt><trkpt lat="40.6719242" lon="14.7291727"><ele>99.25</ele><time>2026-05-02T07:02:55.317Z</time></trkpt><trkpt lat="40.6718157" lon="14.7292654"><ele>99.5</ele><time>2026-05-02T07:02:56.317Z</time></trkpt><trkpt lat="40.6717222" lon="14.729384"><ele>99.75</ele><time>2026-05-02T07:02:57.317Z</time></trkpt><trkpt lat="40.6716405" lon="14.7295147"><ele>100.0</ele><time>2026-05-02T07:02:58.317Z</time></trkpt><trkpt lat="40.6715829" lon="14.7296515"><ele>100.0</ele><time>2026-05-02T07:02:59.317Z</time></trkpt><trkpt lat="40.6715446" lon="14.7297899"><ele>100.0</ele><time>2026-05-02T07:03:00.317Z</time></trkpt><trkpt lat="40.6715122" lon="14.7299342"><ele>100.0</ele><time>2026-05-02T07:03:01.316Z</time></trkpt><trkpt lat="40.6714844" lon="14.7300827"><ele>100.0</ele><time>2026-05-02T07:03:02.316Z</time></trkpt><trkpt lat="40.6714589" lon="14.7302305"><ele>101.4</ele><time>2026-05-02T07:03:03.317Z</time></trkpt><trkpt lat="40.6714336" lon="14.7303737"><ele>102.8</ele><time>2026-05-02T07:03:04.317Z</time></trkpt><trkpt lat="40.6714076" lon="14.7305122"><ele>104.19999999999999</ele><time>2026-05-02T07:03:05.317Z</time></trkpt><trkpt lat="40.6713786" lon="14.7306407"><ele>105.6</ele><time>2026-05-02T07:03:06.317Z</time></trkpt><trkpt lat="40.6713382" lon="14.730748"><ele>107.0</ele><time>2026-05-02T07:03:07.317Z</time></trkpt><trkpt lat="40.6712881" lon="14.7308369"><ele>106.99999999999999</ele><time>2026-05-02T07:03:08.317Z</time></trkpt><trkpt lat="40.6712349" lon="14.7309207"><ele>107.0</ele><time>2026-05-02T07:03:09.316Z</time></trkpt><trkpt lat="40.671181" lon="14.7310037"><ele>107.0</ele><time>2026-05-02T07:03:10.316Z</time></trkpt><trkpt lat="40.6711293" lon="14.7310893"><ele>107.0</ele><time>2026-05-02T07:03:11.317Z</time></trkpt><trkpt lat="40.6710746" lon="14.731184"><ele>106.99999999999999</ele><time>2026-05-02T07:03:12.316Z</time></trkpt><trkpt lat="40.6710308" lon="14.7313065"><ele>107.0</ele><time>2026-05-02T07:03:13.316Z</time></trkpt><trkpt lat="40.6710053" lon="14.731457"><ele>97.75</ele><time>2026-05-02T07:03:14.317Z</time></trkpt><trkpt lat="40.6710044" lon="14.7316212"><ele>88.5</ele><time>2026-05-02T07:03:15.317Z</time></trkpt><trkpt lat="40.6710264" lon="14.7317775"><ele>79.25</ele><time>2026-05-02T07:03:16.317Z</time></trkpt><trkpt lat="40.6710569" lon="14.73192"><ele>70.0</ele><time>2026-05-02T07:03:17.317Z</time></trkpt><trkpt lat="40.6710876" lon="14.7320573"><ele>78.5</ele><time>2026-05-02T07:03:18.317Z</time></trkpt><trkpt lat="40.6711231" lon="14.7321936"><ele>87.0</ele><time>2026-05-02T07:03:19.317Z</time></trkpt><trkpt lat="40.6711599" lon="14.7323384"><ele>95.5</ele><time>2026-05-02T07:03:20.317Z</time></trkpt><trkpt lat="40.6711957" lon="14.7324918"><ele>104.0</ele><time>2026-05-02T07:03:21.317Z</time></trkpt><trkpt lat="40.6712342" lon="14.7326524"><ele>99.5</ele><time>2026-05-02T07:03:22.317Z</time></trkpt><trkpt lat="40.6712729" lon="14.732827"><ele>95.0</ele><time>2026-05-02T07:03:23.317Z</time></trkpt><trkpt lat="40.6713023" lon="14.7330141"><ele>90.5</ele><time>2026-05-02T07:03:24.317Z</time></trkpt><trkpt lat="40.6713191" lon="14.7331912"><ele>86.0</ele><time>2026-05-02T07:03:25.316Z</time></trkpt><trkpt lat="40.6713342" lon="14.7333606"><ele>86.0</ele><time>2026-05-02T07:03:26.316Z</time></trkpt><trkpt lat="40.6713614" lon="14.7335237"><ele>86.0</ele><time>2026-05-02T07:03:27.317Z</time></trkpt><trkpt lat="40.6714048" lon="14.7336774"><ele>86.0</ele><time>2026-05-02T07:03:28.317Z</time></trkpt><trkpt lat="40.6714647" lon="14.7338167"><ele>86.0</ele><time>2026-05-02T07:03:29.316Z</time></trkpt><trkpt lat="40.6715359" lon="14.7339389"><ele>83.0</ele><time>2026-05-02T07:03:30.316Z</time></trkpt><trkpt lat="40.6716124" lon="14.7340543"><ele>80.0</ele><time>2026-05-02T07:03:31.317Z</time></trkpt><trkpt lat="40.6716859" lon="14.7341608"><ele>77.0</ele><time>2026-05-02T07:03:32.317Z</time></trkpt><trkpt lat="40.6717555" lon="14.7342637"><ele>74.0</ele><time>2026-05-02T07:03:33.317Z</time></trkpt><trkpt lat="40.6718263" lon="14.7343551"><ele>71.0</ele><time>2026-05-02T07:03:34.317Z</time></trkpt><trkpt lat="40.671906" lon="14.7344304"><ele>70.39999999999999</ele><time>2026-05-02T07:03:35.317Z</time></trkpt><trkpt lat="40.6719927" lon="14.7344944"><ele>69.8</ele><time>2026-05-02T07:03:36.316Z</time></trkpt><trkpt lat="40.6720808" lon="14.7345631"><ele>69.19999999999999</ele><time>2026-05-02T07:03:37.316Z</time></trkpt><trkpt lat="40.6721664" lon="14.7346259"><ele>68.6</ele><time>2026-05-02T07:03:38.316Z</time></trkpt><trkpt lat="40.6722447" lon="14.7346962"><ele>68.0</ele><time>2026-05-02T07:03:39.317Z</time></trkpt><trkpt lat="40.6723203" lon="14.7347656"><ele>68.0</ele><time>2026-05-02T07:03:40.317Z</time></trkpt><trkpt lat="40.6723882" lon="14.7348388"><ele>68.0</ele><time>2026-05-02T07:03:41.317Z</time></trkpt><trkpt lat="40.6724515" lon="14.73491"><ele>68.0</ele><time>2026-05-02T07:03:42.317Z</time></trkpt><trkpt lat="40.6725198" lon="14.7349831"><ele>68.0</ele><time>2026-05-02T07:03:43.316Z</time></trkpt><trkpt lat="40.6725855" lon="14.7350589"><ele>68.0</ele><time>2026-05-02T07:03:44.317Z</time></trkpt><trkpt lat="40.6726554" lon="14.7351323"><ele>68.0</ele><time>2026-05-02T07:03:45.317Z</time></trkpt><trkpt lat="40.6727398" lon="14.7351928"><ele>65.0</ele><time>2026-05-02T07:03:46.316Z</time></trkpt><trkpt lat="40.6728337" lon="14.7352505"><ele>62.0</ele><time>2026-05-02T07:03:47.316Z</time></trkpt><trkpt lat="40.6729329" lon="14.7352996"><ele>59.0</ele><time>2026-05-02T07:03:48.316Z</time></trkpt><trkpt lat="40.6730335" lon="14.7353499"><ele>56.0</ele><time>2026-05-02T07:03:49.316Z</time></trkpt><trkpt lat="40.6731401" lon="14.7354106"><ele>53.0</ele><time>2026-05-02T07:03:50.316Z</time></trkpt><trkpt lat="40.673241" lon="14.7354806"><ele>53.0</ele><time>2026-05-02T07:03:51.317Z</time></trkpt><trkpt lat="40.6733408" lon="14.7355453"><ele>53.0</ele><time>2026-05-02T07:03:52.317Z</time></trkpt><trkpt lat="40.6734342" lon="14.7356049"><ele>53.0</ele><time>2026-05-02T07:03:53.317Z</time></trkpt><trkpt lat="40.6735245" lon="14.7356674"><ele>53.0</ele><time>2026-05-02T07:03:54.316Z</time></trkpt><trkpt lat="40.6736137" lon="14.7357354"><ele>53.0</ele><time>2026-05-02T07:03:55.317Z</time></trkpt><trkpt lat="40.6736988" lon="14.7358106"><ele>48.199999999999996</ele><time>2026-05-02T07:03:56.317Z</time></trkpt><trkpt lat="40.673774" lon="14.735895"><ele>43.4</ele><time>2026-05-02T07:03:57.317Z</time></trkpt><trkpt lat="40.6738409" lon="14.7359798"><ele>38.599999999999994</ele><time>2026-05-02T07:03:58.317Z</time></trkpt><trkpt lat="40.6739057" lon="14.7360712"><ele>33.8</ele><time>2026-05-02T07:03:59.317Z</time></trkpt><trkpt lat="40.6739776" lon="14.7361739"><ele>29.0</ele><time>2026-05-02T07:04:00.317Z</time></trkpt><trkpt lat="40.6740632" lon="14.7362763"><ele>29.0</ele><time>2026-05-02T07:04:01.317Z</time></trkpt><trkpt lat="40.6741534" lon="14.7363457"><ele>29.0</ele><time>2026-05-02T07:04:02.317Z</time></trkpt><trkpt lat="40.6742553" lon="14.7364147"><ele>29.0</ele><time>2026-05-02T07:04:03.316Z</time></trkpt><trkpt lat="40.6743716" lon="14.7364786"><ele>29.0</ele><time>2026-05-02T07:04:04.316Z</time></trkpt><trkpt lat="40.674516" lon="14.7365459"><ele>40.0</ele><time>2026-05-02T07:04:05.317Z</time></trkpt><trkpt lat="40.6746984" lon="14.7366223"><ele>51.0</ele><time>2026-05-02T07:04:06.317Z</time></trkpt><trkpt lat="40.6749113" lon="14.7367027"><ele>62.0</ele><time>2026-05-02T07:04:07.317Z</time></trkpt><trkpt lat="40.6750988" lon="14.7367804"><ele>57.0</ele><time>2026-05-02T07:04:08.317Z</time></trkpt><trkpt lat="40.6752772" lon="14.736862"><ele>52.0</ele><time>2026-05-02T07:04:09.317Z</time></trkpt><trkpt lat="40.6754419" lon="14.736944"><ele>47.0</ele><time>2026-05-02T07:04:10.317Z</time></trkpt><trkpt lat="40.6755885" lon="14.7370502"><ele>47.0</ele><time>2026-05-02T07:04:11.316Z</time></trkpt><trkpt lat="40.6757116" lon="14.7371823"><ele>47.0</ele><time>2026-05-02T07:04:12.316Z</time></trkpt><trkpt lat="40.675815" lon="14.7373383"><ele>47.0</ele><time>2026-05-02T07:04:13.317Z</time></trkpt><trkpt lat="40.6758967" lon="14.7375128"><ele>47.0</ele><time>2026-05-02T07:04:14.316Z</time></trkpt><trkpt lat="40.6759752" lon="14.7376904"><ele>47.0</ele><time>2026-05-02T07:04:15.317Z</time></trkpt><trkpt lat="40.6760666" lon="14.73786"><ele>47.0</ele><time>2026-05-02T07:04:16.317Z</time></trkpt><trkpt lat="40.6761602" lon="14.7380083"><ele>49.75</ele><time>2026-05-02T07:04:17.317Z</time></trkpt><trkpt lat="40.6762509" lon="14.7381446"><ele>52.5</ele><time>2026-05-02T07:04:18.316Z</time></trkpt><trkpt lat="40.6763383" lon="14.7382707"><ele>55.25</ele><time>2026-05-02T07:04:19.316Z</time></trkpt><trkpt lat="40.6764211" lon="14.7383826"><ele>58.0</ele><time>2026-05-02T07:04:20.317Z</time></trkpt><trkpt lat="40.6764982" lon="14.7384863"><ele>52.8</ele><time>2026-05-02T07:04:21.317Z</time></trkpt><trkpt lat="40.6765694" lon="14.7385862"><ele>47.599999999999994</ele><time>2026-05-02T07:04:22.316Z</time></trkpt><trkpt lat="40.6766307" lon="14.7386875"><ele>42.400000000000006</ele><time>2026-05-02T07:04:23.317Z</time></trkpt><trkpt lat="40.6766868" lon="14.7387902"><ele>37.2</ele><time>2026-05-02T07:04:24.317Z</time></trkpt><trkpt lat="40.6767356" lon="14.7388965"><ele>32.0</ele><time>2026-05-02T07:04:25.317Z</time></trkpt><trkpt lat="40.6767776" lon="14.7390106"><ele>32.0</ele><time>2026-05-02T07:04:26.316Z</time></trkpt><trkpt lat="40.6768138" lon="14.7391291"><ele>32.0</ele><time>2026-05-02T07:04:27.317Z</time></trkpt><trkpt lat="40.6768481" lon="14.7392525"><ele>32.0</ele><time>2026-05-02T07:04:28.317Z</time></trkpt><trkpt lat="40.6768842" lon="14.739381"><ele>32.0</ele><time>2026-05-02T07:04:29.316Z</time></trkpt><trkpt lat="40.6769256" lon="14.7395103"><ele>32.0</ele><time>2026-05-02T07:04:30.316Z</time></trkpt><trkpt lat="40.6769657" lon="14.7396437"><ele>31.200000000000003</ele><time>2026-05-02T07:04:31.316Z</time></trkpt><trkpt lat="40.6770061" lon="14.7397784"><ele>30.400000000000002</ele><time>2026-05-02T07:04:32.317Z</time></trkpt><trkpt lat="40.6770367" lon="14.7399097"><ele>29.599999999999998</ele><time>2026-05-02T07:04:33.317Z</time></trkpt><trkpt lat="40.6770728" lon="14.7400336"><ele>28.799999999999997</ele><time>2026-05-02T07:04:34.317Z</time></trkpt><trkpt lat="40.6771038" lon="14.7401577"><ele>28.0</ele><time>2026-05-02T07:04:35.317Z</time></trkpt><trkpt lat="40.6771442" lon="14.7402696"><ele>28.000000000000004</ele><time>2026-05-02T07:04:36.316Z</time></trkpt><trkpt lat="40.6771842" lon="14.7403756"><ele>28.0</ele><time>2026-05-02T07:04:37.316Z</time></trkpt><trkpt lat="40.6772339" lon="14.7404662"><ele>28.0</ele><time>2026-05-02T07:04:38.317Z</time></trkpt><trkpt lat="40.6772879" lon="14.7405417"><ele>28.0</ele><time>2026-05-02T07:04:39.317Z</time></trkpt><trkpt lat="40.6773482" lon="14.7406129"><ele>28.000000000000004</ele><time>2026-05-02T07:04:40.316Z</time></trkpt><trkpt lat="40.6774091" lon="14.7406799"><ele>28.0</ele><time>2026-05-02T07:04:41.317Z</time></trkpt><trkpt lat="40.6774689" lon="14.7407479"><ele>28.000000000000004</ele><time>2026-05-02T07:04:42.316Z</time></trkpt><trkpt lat="40.6775222" lon="14.740812"><ele>28.0</ele><time>2026-05-02T07:04:43.316Z</time></trkpt><trkpt lat="40.6775708" lon="14.7408731"><ele>28.0</ele><time>2026-05-02T07:04:44.317Z</time></trkpt><trkpt lat="40.6776671" lon="14.7409804"><ele>28.0</ele><time>2026-05-02T07:04:46.317Z</time></trkpt><trkpt lat="40.6777158" lon="14.7410381"><ele>28.000000000000004</ele><time>2026-05-02T07:04:47.317Z</time></trkpt><trkpt lat="40.6777556" lon="14.7411131"><ele>28.0</ele><time>2026-05-02T07:04:48.317Z</time></trkpt><trkpt lat="40.677793" lon="14.7411939"><ele>35.0</ele><time>2026-05-02T07:04:49.316Z</time></trkpt><trkpt lat="40.6778218" lon="14.7412882"><ele>42.0</ele><time>2026-05-02T07:04:50.316Z</time></trkpt><trkpt lat="40.6778465" lon="14.7413877"><ele>49.0</ele><time>2026-05-02T07:04:51.316Z</time></trkpt><trkpt lat="40.6778691" lon="14.7414855"><ele>56.0</ele><time>2026-05-02T07:04:52.316Z</time></trkpt><trkpt lat="40.677888" lon="14.7415807"><ele>62.99999999999999</ele><time>2026-05-02T07:04:53.316Z</time></trkpt><trkpt lat="40.677911" lon="14.7416736"><ele>70.0</ele><time>2026-05-02T07:04:54.316Z</time></trkpt><trkpt lat="40.6779323" lon="14.7417651"><ele>70.0</ele><time>2026-05-02T07:04:55.316Z</time></trkpt><trkpt lat="40.6779513" lon="14.7418494"><ele>70.0</ele><time>2026-05-02T07:04:56.317Z</time></trkpt><trkpt lat="40.677979" lon="14.7419942"><ele>70.0</ele><time>2026-05-02T07:04:58.315Z</time></trkpt><trkpt lat="40.678" lon="14.7421137"><ele>70.0</ele><time>2026-05-02T07:05:00.317Z</time></trkpt><trkpt lat="40.6780045" lon="14.7422283"><ele>70.0</ele><time>2026-05-02T07:05:02.317Z</time></trkpt><trkpt lat="40.6779886" lon="14.7423362"><ele>70.0</ele><time>2026-05-02T07:05:04.317Z</time></trkpt><trkpt lat="40.6779376" lon="14.7424568"><ele>67.4</ele><time>2026-05-02T07:05:06.317Z</time></trkpt><trkpt lat="40.6778546" lon="14.74255"><ele>64.8</ele><time>2026-05-02T07:05:08.317Z</time></trkpt><trkpt lat="40.6777357" lon="14.7426424"><ele>62.2</ele><time>2026-05-02T07:05:10.316Z</time></trkpt><trkpt lat="40.6776847" lon="14.742717"><ele>59.6</ele><time>2026-05-02T07:05:12.317Z</time></trkpt><trkpt lat="40.6776979" lon="14.7428398"><ele>57.0</ele><time>2026-05-02T07:05:14.317Z</time></trkpt><trkpt lat="40.6777472" lon="14.74293"><ele>56.0</ele><time>2026-05-02T07:05:15.316Z</time></trkpt><trkpt lat="40.6778209" lon="14.7430231"><ele>55.0</ele><time>2026-05-02T07:05:16.317Z</time></trkpt><trkpt lat="40.6779316" lon="14.7431548"><ele>54.0</ele><time>2026-05-02T07:05:17.317Z</time></trkpt><trkpt lat="40.6780223" lon="14.7432761"><ele>53.0</ele><time>2026-05-02T07:05:18.317Z</time></trkpt><trkpt lat="40.6780993" lon="14.7434"><ele>53.0</ele><time>2026-05-02T07:05:19.316Z</time></trkpt><trkpt lat="40.678177" lon="14.7435461"><ele>53.0</ele><time>2026-05-02T07:05:20.316Z</time></trkpt><trkpt lat="40.6782414" lon="14.7437155"><ele>53.0</ele><time>2026-05-02T07:05:21.316Z</time></trkpt><trkpt lat="40.6783033" lon="14.7439075"><ele>53.0</ele><time>2026-05-02T07:05:22.317Z</time></trkpt><trkpt lat="40.6783717" lon="14.7441227"><ele>49.66666666666667</ele><time>2026-05-02T07:05:23.317Z</time></trkpt><trkpt lat="40.6784411" lon="14.7443557"><ele>46.333333333333336</ele><time>2026-05-02T07:05:24.317Z</time></trkpt><trkpt lat="40.6785171" lon="14.7445952"><ele>43.0</ele><time>2026-05-02T07:05:25.316Z</time></trkpt><trkpt lat="40.6785832" lon="14.7448569"><ele>58.5</ele><time>2026-05-02T07:05:26.316Z</time></trkpt><trkpt lat="40.6786325" lon="14.7451582"><ele>74.0</ele><time>2026-05-02T07:05:27.317Z</time></trkpt><trkpt lat="40.6786617" lon="14.7455044"><ele>74.0</ele><time>2026-05-02T07:05:28.316Z</time></trkpt><trkpt lat="40.6786894" lon="14.7458745"><ele>74.0</ele><time>2026-05-02T07:05:29.317Z</time></trkpt><trkpt lat="40.6787144" lon="14.7462379"><ele>70.5</ele><time>2026-05-02T07:05:30.316Z</time></trkpt><trkpt lat="40.6787378" lon="14.7465574"><ele>67.0</ele><time>2026-05-02T07:05:31.316Z</time></trkpt><trkpt lat="40.6787491" lon="14.7468551"><ele>67.33333333333333</ele><time>2026-05-02T07:05:32.317Z</time></trkpt><trkpt lat="40.6787308" lon="14.7471271"><ele>67.66666666666667</ele><time>2026-05-02T07:05:33.317Z</time></trkpt><trkpt lat="40.6787079" lon="14.7473711"><ele>68.0</ele><time>2026-05-02T07:05:34.317Z</time></trkpt><trkpt lat="40.6787167" lon="14.7476009"><ele>65.66666666666667</ele><time>2026-05-02T07:05:35.316Z</time></trkpt><trkpt lat="40.678758" lon="14.7478119"><ele>63.33333333333333</ele><time>2026-05-02T07:05:36.317Z</time></trkpt><trkpt lat="40.6788206" lon="14.748007"><ele>61.0</ele><time>2026-05-02T07:05:37.317Z</time></trkpt><trkpt lat="40.678896" lon="14.748187"><ele>61.0</ele><time>2026-05-02T07:05:38.317Z</time></trkpt><trkpt lat="40.6789793" lon="14.7483535"><ele>61.0</ele><time>2026-05-02T07:05:39.317Z</time></trkpt><trkpt lat="40.6790868" lon="14.7484901"><ele>61.0</ele><time>2026-05-02T07:05:40.316Z</time></trkpt><trkpt lat="40.6792134" lon="14.7485916"><ele>61.0</ele><time>2026-05-02T07:05:41.317Z</time></trkpt><trkpt lat="40.6793475" lon="14.7486628"><ele>65.0</ele><time>2026-05-02T07:05:42.317Z</time></trkpt><trkpt lat="40.6794824" lon="14.7487158"><ele>69.0</ele><time>2026-05-02T07:05:43.317Z</time></trkpt><trkpt lat="40.6796112" lon="14.7487682"><ele>73.0</ele><time>2026-05-02T07:05:44.316Z</time></trkpt><trkpt lat="40.6797444" lon="14.7488258"><ele>77.0</ele><time>2026-05-02T07:05:45.317Z</time></trkpt><trkpt lat="40.6798775" lon="14.7488759"><ele>77.0</ele><time>2026-05-02T07:05:46.317Z</time></trkpt><trkpt lat="40.6800089" lon="14.7489427"><ele>77.0</ele><time>2026-05-02T07:05:47.317Z</time></trkpt><trkpt lat="40.6801346" lon="14.7490337"><ele>77.0</ele><time>2026-05-02T07:05:48.317Z</time></trkpt><trkpt lat="40.6802432" lon="14.7491584"><ele>77.0</ele><time>2026-05-02T07:05:49.316Z</time></trkpt><trkpt lat="40.6803288" lon="14.7493161"><ele>86.66666666666667</ele><time>2026-05-02T07:05:50.316Z</time></trkpt><trkpt lat="40.6803928" lon="14.7494979"><ele>96.33333333333334</ele><time>2026-05-02T07:05:51.317Z</time></trkpt><trkpt lat="40.6804465" lon="14.7496976"><ele>106.0</ele><time>2026-05-02T07:05:52.317Z</time></trkpt><trkpt lat="40.6805088" lon="14.7499213"><ele>106.0</ele><time>2026-05-02T07:05:53.316Z</time></trkpt><trkpt lat="40.6805754" lon="14.7501651"><ele>106.0</ele><time>2026-05-02T07:05:54.316Z</time></trkpt><trkpt lat="40.6806462" lon="14.7504048"><ele>106.0</ele><time>2026-05-02T07:05:55.317Z</time></trkpt><trkpt lat="40.6807259" lon="14.7506026"><ele>98.66666666666667</ele><time>2026-05-02T07:05:56.317Z</time></trkpt><trkpt lat="40.6808218" lon="14.7507842"><ele>91.33333333333334</ele><time>2026-05-02T07:05:57.315Z</time></trkpt><trkpt lat="40.6809519" lon="14.7509385"><ele>84.0</ele><time>2026-05-02T07:05:58.316Z</time></trkpt><trkpt lat="40.6810811" lon="14.7510532"><ele>83.5</ele><time>2026-05-02T07:05:59.317Z</time></trkpt><trkpt lat="40.6812054" lon="14.7511375"><ele>83.0</ele><time>2026-05-02T07:06:00.316Z</time></trkpt><trkpt lat="40.6813166" lon="14.7512125"><ele>82.5</ele><time>2026-05-02T07:06:01.316Z</time></trkpt><trkpt lat="40.6814203" lon="14.7512779"><ele>82.0</ele><time>2026-05-02T07:06:02.317Z</time></trkpt><trkpt lat="40.6815163" lon="14.7513423"><ele>82.0</ele><time>2026-05-02T07:06:03.317Z</time></trkpt><trkpt lat="40.6816193" lon="14.7514068"><ele>82.0</ele><time>2026-05-02T07:06:04.316Z</time></trkpt><trkpt lat="40.6817062" lon="14.7514626"><ele>82.0</ele><time>2026-05-02T07:06:05.317Z</time></trkpt><trkpt lat="40.6817847" lon="14.7515116"><ele>82.0</ele><time>2026-05-02T07:06:06.317Z</time></trkpt><trkpt lat="40.6818562" lon="14.7515568"><ele>82.0</ele><time>2026-05-02T07:06:07.317Z</time></trkpt><trkpt lat="40.6819246" lon="14.7516"><ele>86.5</ele><time>2026-05-02T07:06:08.316Z</time></trkpt><trkpt lat="40.6819911" lon="14.7516468"><ele>91.0</ele><time>2026-05-02T07:06:09.317Z</time></trkpt><trkpt lat="40.6820529" lon="14.7516966"><ele>95.5</ele><time>2026-05-02T07:06:10.317Z</time></trkpt><trkpt lat="40.6821026" lon="14.7517598"><ele>100.0</ele><time>2026-05-02T07:06:11.317Z</time></trkpt><trkpt lat="40.6821517" lon="14.751834"><ele>104.50000000000001</ele><time>2026-05-02T07:06:12.317Z</time></trkpt><trkpt lat="40.6821898" lon="14.7519329"><ele>109.0</ele><time>2026-05-02T07:06:13.317Z</time></trkpt><trkpt lat="40.6822095" lon="14.7520596"><ele>109.0</ele><time>2026-05-02T07:06:14.316Z</time></trkpt><trkpt lat="40.6822352" lon="14.75219"><ele>109.0</ele><time>2026-05-02T07:06:15.317Z</time></trkpt><trkpt lat="40.682244" lon="14.7523195"><ele>109.0</ele><time>2026-05-02T07:06:16.316Z</time></trkpt><trkpt lat="40.6822497" lon="14.7524473"><ele>109.0</ele><time>2026-05-02T07:06:17.316Z</time></trkpt><trkpt lat="40.6822602" lon="14.7525746"><ele>109.0</ele><time>2026-05-02T07:06:18.317Z</time></trkpt><trkpt lat="40.6822673" lon="14.7527017"><ele>114.5</ele><time>2026-05-02T07:06:19.317Z</time></trkpt><trkpt lat="40.6822748" lon="14.7528286"><ele>120.0</ele><time>2026-05-02T07:06:20.316Z</time></trkpt><trkpt lat="40.6822553" lon="14.7546697"><ele>120.0</ele><time>2026-05-02T07:06:30.316Z</time></trkpt><trkpt lat="40.6822384" lon="14.754874"><ele>120.0</ele><time>2026-05-02T07:06:31.317Z</time></trkpt><trkpt lat="40.6822078" lon="14.7550665"><ele>120.0</ele><time>2026-05-02T07:06:32.316Z</time></trkpt><trkpt lat="40.6821661" lon="14.7552546"><ele>123.75</ele><time>2026-05-02T07:06:33.317Z</time></trkpt><trkpt lat="40.6821129" lon="14.7554193"><ele>127.5</ele><time>2026-05-02T07:06:34.317Z</time></trkpt><trkpt lat="40.6820752" lon="14.7555849"><ele>131.25</ele><time>2026-05-02T07:06:35.316Z</time></trkpt><trkpt lat="40.6820606" lon="14.7557594"><ele>135.0</ele><time>2026-05-02T07:06:36.317Z</time></trkpt><trkpt lat="40.6820549" lon="14.7559324"><ele>133.75</ele><time>2026-05-02T07:06:37.316Z</time></trkpt><trkpt lat="40.6820646" lon="14.756104"><ele>132.5</ele><time>2026-05-02T07:06:38.317Z</time></trkpt><trkpt lat="40.6820901" lon="14.7562767"><ele>131.25</ele><time>2026-05-02T07:06:39.317Z</time></trkpt><trkpt lat="40.6821283" lon="14.7564569"><ele>130.0</ele><time>2026-05-02T07:06:40.317Z</time></trkpt><trkpt lat="40.682183" lon="14.7566306"><ele>130.0</ele><time>2026-05-02T07:06:41.317Z</time></trkpt><trkpt lat="40.6822544" lon="14.7567784"><ele>130.0</ele><time>2026-05-02T07:06:42.317Z</time></trkpt><trkpt lat="40.6823273" lon="14.7569032"><ele>130.0</ele><time>2026-05-02T07:06:43.316Z</time></trkpt><trkpt lat="40.6824036" lon="14.7570405"><ele>130.0</ele><time>2026-05-02T07:06:44.317Z</time></trkpt><trkpt lat="40.6824826" lon="14.757157"><ele>131.75</ele><time>2026-05-02T07:06:45.316Z</time></trkpt><trkpt lat="40.682564" lon="14.7572642"><ele>133.5</ele><time>2026-05-02T07:06:46.317Z</time></trkpt><trkpt lat="40.6826493" lon="14.7573759"><ele>135.25</ele><time>2026-05-02T07:06:47.316Z</time></trkpt><trkpt lat="40.6827363" lon="14.757492"><ele>137.0</ele><time>2026-05-02T07:06:48.316Z</time></trkpt><trkpt lat="40.6828233" lon="14.757614"><ele>129.0</ele><time>2026-05-02T07:06:49.317Z</time></trkpt><trkpt lat="40.6829171" lon="14.7577399"><ele>121.0</ele><time>2026-05-02T07:06:50.317Z</time></trkpt><trkpt lat="40.6830117" lon="14.757855"><ele>113.0</ele><time>2026-05-02T07:06:51.317Z</time></trkpt><trkpt lat="40.6831027" lon="14.7579596"><ele>105.0</ele><time>2026-05-02T07:06:52.317Z</time></trkpt><trkpt lat="40.6831987" lon="14.7580462"><ele>105.0</ele><time>2026-05-02T07:06:53.317Z</time></trkpt><trkpt lat="40.6832967" lon="14.7581098"><ele>105.0</ele><time>2026-05-02T07:06:54.316Z</time></trkpt><trkpt lat="40.6833994" lon="14.7581675"><ele>105.0</ele><time>2026-05-02T07:06:55.316Z</time></trkpt><trkpt lat="40.6835034" lon="14.7582043"><ele>105.0</ele><time>2026-05-02T07:06:56.317Z</time></trkpt><trkpt lat="40.6836041" lon="14.7582367"><ele>105.0</ele><time>2026-05-02T07:06:57.317Z</time></trkpt><trkpt lat="40.683708" lon="14.7582698"><ele>106.5</ele><time>2026-05-02T07:06:58.317Z</time></trkpt><trkpt lat="40.6838157" lon="14.7583013"><ele>108.0</ele><time>2026-05-02T07:06:59.316Z</time></trkpt><trkpt lat="40.6839369" lon="14.7583264"><ele>109.5</ele><time>2026-05-02T07:07:00.317Z</time></trkpt><trkpt lat="40.6840674" lon="14.7583496"><ele>111.0</ele><time>2026-05-02T07:07:01.316Z</time></trkpt><trkpt lat="40.6841884" lon="14.7583702"><ele>111.0</ele><time>2026-05-02T07:07:02.316Z</time></trkpt><trkpt lat="40.6843026" lon="14.758389"><ele>111.0</ele><time>2026-05-02T07:07:03.317Z</time></trkpt><trkpt lat="40.68441" lon="14.7584115"><ele>111.0</ele><time>2026-05-02T07:07:04.317Z</time></trkpt><trkpt lat="40.684515" lon="14.7584348"><ele>111.0</ele><time>2026-05-02T07:07:05.316Z</time></trkpt><trkpt lat="40.684631" lon="14.7584707"><ele>111.0</ele><time>2026-05-02T07:07:06.316Z</time></trkpt><trkpt lat="40.6847426" lon="14.7585172"><ele>110.19999999999999</ele><time>2026-05-02T07:07:07.316Z</time></trkpt><trkpt lat="40.6848416" lon="14.7585786"><ele>109.39999999999999</ele><time>2026-05-02T07:07:08.317Z</time></trkpt><trkpt lat="40.6849207" lon="14.7586632"><ele>108.6</ele><time>2026-05-02T07:07:09.316Z</time></trkpt><trkpt lat="40.6849762" lon="14.7587754"><ele>107.8</ele><time>2026-05-02T07:07:10.317Z</time></trkpt><trkpt lat="40.6850052" lon="14.7589116"><ele>107.0</ele><time>2026-05-02T07:07:11.317Z</time></trkpt><trkpt lat="40.6850189" lon="14.7590648"><ele>107.0</ele><time>2026-05-02T07:07:12.317Z</time></trkpt><trkpt lat="40.6850307" lon="14.759222"><ele>107.0</ele><time>2026-05-02T07:07:13.317Z</time></trkpt><trkpt lat="40.6850429" lon="14.7593825"><ele>107.0</ele><time>2026-05-02T07:07:14.317Z</time></trkpt><trkpt lat="40.6850515" lon="14.7595302"><ele>107.0</ele><time>2026-05-02T07:07:15.316Z</time></trkpt><trkpt lat="40.6850623" lon="14.7596713"><ele>107.16666666666666</ele><time>2026-05-02T07:07:16.317Z</time></trkpt><trkpt lat="40.6850685" lon="14.7598073"><ele>107.33333333333333</ele><time>2026-05-02T07:07:17.316Z</time></trkpt><trkpt lat="40.6850783" lon="14.759932"><ele>107.5</ele><time>2026-05-02T07:07:18.317Z</time></trkpt><trkpt lat="40.6850849" lon="14.7600451"><ele>107.66666666666666</ele><time>2026-05-02T07:07:19.317Z</time></trkpt><trkpt lat="40.6850884" lon="14.7601504"><ele>107.83333333333333</ele><time>2026-05-02T07:07:20.317Z</time></trkpt><trkpt lat="40.685093" lon="14.7602434"><ele>108.0</ele><time>2026-05-02T07:07:21.317Z</time></trkpt><trkpt lat="40.6850983" lon="14.7603921"><ele>107.4</ele><time>2026-05-02T07:07:23.317Z</time></trkpt><trkpt lat="40.6851171" lon="14.7604866"><ele>106.80000000000001</ele><time>2026-05-02T07:07:25.317Z</time></trkpt><trkpt lat="40.6851673" lon="14.7606143"><ele>106.2</ele><time>2026-05-02T07:07:28.316Z</time></trkpt><trkpt lat="40.6851875" lon="14.7607308"><ele>105.6</ele><time>2026-05-02T07:07:31.317Z</time></trkpt><trkpt lat="40.685251" lon="14.7608873"><ele>105.0</ele><time>2026-05-02T07:07:33.317Z</time></trkpt><trkpt lat="40.6852922" lon="14.7609687"><ele>103.57142857142857</ele><time>2026-05-02T07:07:34.317Z</time></trkpt><trkpt lat="40.6853349" lon="14.7610405"><ele>102.14285714285714</ele><time>2026-05-02T07:07:35.317Z</time></trkpt><trkpt lat="40.6853841" lon="14.7611011"><ele>100.71428571428572</ele><time>2026-05-02T07:07:36.317Z</time></trkpt><trkpt lat="40.6854359" lon="14.7611593"><ele>99.28571428571428</ele><time>2026-05-02T07:07:37.316Z</time></trkpt><trkpt lat="40.6854845" lon="14.7612204"><ele>97.85714285714286</ele><time>2026-05-02T07:07:38.316Z</time></trkpt><trkpt lat="40.6855317" lon="14.7612802"><ele>96.42857142857143</ele><time>2026-05-02T07:07:39.316Z</time></trkpt><trkpt lat="40.6855719" lon="14.7613451"><ele>95.0</ele><time>2026-05-02T07:07:40.316Z</time></trkpt><trkpt lat="40.6855984" lon="14.761427"><ele>95.0</ele><time>2026-05-02T07:07:41.317Z</time></trkpt><trkpt lat="40.6856043" lon="14.7615317"><ele>95.0</ele><time>2026-05-02T07:07:42.316Z</time></trkpt><trkpt lat="40.6855809" lon="14.7616511"><ele>95.0</ele><time>2026-05-02T07:07:43.317Z</time></trkpt><trkpt lat="40.6855535" lon="14.761769"><ele>95.0</ele><time>2026-05-02T07:07:44.317Z</time></trkpt><trkpt lat="40.6854603" lon="14.7618296"><ele>95.0</ele><time>2026-05-02T07:07:45.317Z</time></trkpt><trkpt lat="40.6853636" lon="14.761851"><ele>95.0</ele><time>2026-05-02T07:07:46.317Z</time></trkpt><trkpt lat="40.6852692" lon="14.761851"><ele>95.0</ele><time>2026-05-02T07:07:47.317Z</time></trkpt><trkpt lat="40.6851755" lon="14.7618163"><ele>95.0</ele><time>2026-05-02T07:07:48.317Z</time></trkpt><trkpt lat="40.6850885" lon="14.7617663"><ele>95.0</ele><time>2026-05-02T07:07:49.316Z</time></trkpt><trkpt lat="40.6850198" lon="14.7617034"><ele>95.0</ele><time>2026-05-02T07:07:50.316Z</time></trkpt><trkpt lat="40.6849526" lon="14.7616248"><ele>96.0</ele><time>2026-05-02T07:07:51.317Z</time></trkpt><trkpt lat="40.6848945" lon="14.7615475"><ele>97.0</ele><time>2026-05-02T07:07:52.317Z</time></trkpt><trkpt lat="40.6848498" lon="14.7614719"><ele>98.0</ele><time>2026-05-02T07:07:53.317Z</time></trkpt><trkpt lat="40.684814" lon="14.7613982"><ele>99.0</ele><time>2026-05-02T07:07:54.316Z</time></trkpt><trkpt lat="40.6847839" lon="14.7612439"><ele>99.99999999999999</ele><time>2026-05-02T07:07:56.317Z</time></trkpt><trkpt lat="40.6848358" lon="14.7611388"><ele>101.0</ele><time>2026-05-02T07:07:58.316Z</time></trkpt><trkpt lat="40.6849025" lon="14.7610921"><ele>100.99999999999999</ele><time>2026-05-02T07:08:00.317Z</time></trkpt><trkpt lat="40.6849746" lon="14.7610966"><ele>101.0</ele><time>2026-05-02T07:08:03.317Z</time></trkpt><trkpt lat="40.6850426" lon="14.7611568"><ele>101.0</ele><time>2026-05-02T07:08:05.317Z</time></trkpt><trkpt lat="40.6850876" lon="14.7612154"><ele>101.0</ele><time>2026-05-02T07:08:06.316Z</time></trkpt><trkpt lat="40.6851342" lon="14.7612875"><ele>100.99999999999999</ele><time>2026-05-02T07:08:07.317Z</time></trkpt><trkpt lat="40.6851877" lon="14.7613735"><ele>101.0</ele><time>2026-05-02T07:08:08.317Z</time></trkpt><trkpt lat="40.6852478" lon="14.76147"><ele>99.8</ele><time>2026-05-02T07:08:09.317Z</time></trkpt><trkpt lat="40.685316" lon="14.7615745"><ele>98.6</ele><time>2026-05-02T07:08:10.317Z</time></trkpt><trkpt lat="40.6853878" lon="14.7616842"><ele>97.4</ele><time>2026-05-02T07:08:11.317Z</time></trkpt><trkpt lat="40.6854615" lon="14.7617972"><ele>96.2</ele><time>2026-05-02T07:08:12.317Z</time></trkpt><trkpt lat="40.6855365" lon="14.7619102"><ele>95.0</ele><time>2026-05-02T07:08:13.317Z</time></trkpt><trkpt lat="40.6856134" lon="14.7620261"><ele>92.5</ele><time>2026-05-02T07:08:14.316Z</time></trkpt><trkpt lat="40.685693" lon="14.7621469"><ele>90.0</ele><time>2026-05-02T07:08:15.316Z</time></trkpt><trkpt lat="40.6857772" lon="14.7622753"><ele>87.5</ele><time>2026-05-02T07:08:16.316Z</time></trkpt><trkpt lat="40.6858611" lon="14.762405"><ele>85.0</ele><time>2026-05-02T07:08:17.317Z</time></trkpt><trkpt lat="40.6859483" lon="14.76254"><ele>85.0</ele><time>2026-05-02T07:08:18.317Z</time></trkpt><trkpt lat="40.6860322" lon="14.7626881"><ele>85.0</ele><time>2026-05-02T07:08:19.317Z</time></trkpt><trkpt lat="40.6861112" lon="14.7628465"><ele>85.0</ele><time>2026-05-02T07:08:20.317Z</time></trkpt><trkpt lat="40.6861819" lon="14.7630112"><ele>85.0</ele><time>2026-05-02T07:08:21.317Z</time></trkpt><trkpt lat="40.6862529" lon="14.7631803"><ele>92.33333333333333</ele><time>2026-05-02T07:08:22.317Z</time></trkpt><trkpt lat="40.6863244" lon="14.7633559"><ele>99.66666666666666</ele><time>2026-05-02T07:08:23.317Z</time></trkpt><trkpt lat="40.6863957" lon="14.763532"><ele>107.0</ele><time>2026-05-02T07:08:24.316Z</time></trkpt><trkpt lat="40.686466" lon="14.7637091"><ele>108.33333333333333</ele><time>2026-05-02T07:08:25.316Z</time></trkpt><trkpt lat="40.6865385" lon="14.7638873"><ele>109.66666666666666</ele><time>2026-05-02T07:08:26.316Z</time></trkpt><trkpt lat="40.686612" lon="14.7640662"><ele>111.0</ele><time>2026-05-02T07:08:27.316Z</time></trkpt><trkpt lat="40.6866866" lon="14.7642476"><ele>116.66666666666666</ele><time>2026-05-02T07:08:28.315Z</time></trkpt><trkpt lat="40.6867609" lon="14.7644284"><ele>122.33333333333333</ele><time>2026-05-02T07:08:29.317Z</time></trkpt><trkpt lat="40.6868354" lon="14.7646068"><ele>128.0</ele><time>2026-05-02T07:08:30.317Z</time></trkpt><trkpt lat="40.6869096" lon="14.7647868"><ele>145.0</ele><time>2026-05-02T07:08:31.317Z</time></trkpt><trkpt lat="40.6869838" lon="14.7649667"><ele>162.0</ele><time>2026-05-02T07:08:32.317Z</time></trkpt><trkpt lat="40.6863214" lon="14.7689065"><ele>138.33333333333334</ele><time>2026-05-02T07:08:47.317Z</time></trkpt><trkpt lat="40.6863381" lon="14.769134"><ele>114.66666666666666</ele><time>2026-05-02T07:08:48.316Z</time></trkpt><trkpt lat="40.6863537" lon="14.7693569"><ele>91.0</ele><time>2026-05-02T07:08:49.316Z</time></trkpt><trkpt lat="40.6863708" lon="14.7695793"><ele>87.33333333333333</ele><time>2026-05-02T07:08:50.317Z</time></trkpt><trkpt lat="40.6863912" lon="14.769802"><ele>83.66666666666667</ele><time>2026-05-02T07:08:51.317Z</time></trkpt><trkpt lat="40.6864182" lon="14.7700235"><ele>80.0</ele><time>2026-05-02T07:08:52.316Z</time></trkpt><trkpt lat="40.6864562" lon="14.7702414"><ele>78.0</ele><time>2026-05-02T07:08:53.316Z</time></trkpt><trkpt lat="40.686498" lon="14.7704624"><ele>76.0</ele><time>2026-05-02T07:08:54.316Z</time></trkpt><trkpt lat="40.6865525" lon="14.7706763"><ele>74.0</ele><time>2026-05-02T07:08:55.316Z</time></trkpt><trkpt lat="40.6866214" lon="14.7708841"><ele>73.0</ele><time>2026-05-02T07:08:56.317Z</time></trkpt><trkpt lat="40.6867005" lon="14.7710892"><ele>72.0</ele><time>2026-05-02T07:08:57.316Z</time></trkpt><trkpt lat="40.686789" lon="14.7712932"><ele>71.0</ele><time>2026-05-02T07:08:58.317Z</time></trkpt><trkpt lat="40.6868888" lon="14.771492"><ele>71.33333333333334</ele><time>2026-05-02T07:08:59.317Z</time></trkpt><trkpt lat="40.6870007" lon="14.7716834"><ele>71.66666666666667</ele><time>2026-05-02T07:09:00.316Z</time></trkpt><trkpt lat="40.687119" lon="14.7718651"><ele>72.0</ele><time>2026-05-02T07:09:01.316Z</time></trkpt><trkpt lat="40.6872437" lon="14.7720315"><ele>72.0</ele><time>2026-05-02T07:09:02.316Z</time></trkpt><trkpt lat="40.6873699" lon="14.7721824"><ele>72.0</ele><time>2026-05-02T07:09:03.316Z</time></trkpt><trkpt lat="40.6875015" lon="14.772316"><ele>72.0</ele><time>2026-05-02T07:09:04.316Z</time></trkpt><trkpt lat="40.6876324" lon="14.7724328"><ele>72.0</ele><time>2026-05-02T07:09:05.317Z</time></trkpt><trkpt lat="40.6877705" lon="14.7725434"><ele>72.0</ele><time>2026-05-02T07:09:06.317Z</time></trkpt><trkpt lat="40.6879169" lon="14.7726511"><ele>72.0</ele><time>2026-05-02T07:09:07.317Z</time></trkpt><trkpt lat="40.6880662" lon="14.7727549"><ele>72.0</ele><time>2026-05-02T07:09:08.316Z</time></trkpt><trkpt lat="40.6882277" lon="14.7728468"><ele>72.0</ele><time>2026-05-02T07:09:09.317Z</time></trkpt><trkpt lat="40.688394" lon="14.7729478"><ele>72.0</ele><time>2026-05-02T07:09:10.317Z</time></trkpt><trkpt lat="40.6885683" lon="14.7730491"><ele>72.66666666666667</ele><time>2026-05-02T07:09:11.317Z</time></trkpt><trkpt lat="40.6887488" lon="14.7731544"><ele>73.33333333333334</ele><time>2026-05-02T07:09:12.317Z</time></trkpt><trkpt lat="40.6889238" lon="14.7732565"><ele>74.0</ele><time>2026-05-02T07:09:13.317Z</time></trkpt><trkpt lat="40.6890966" lon="14.7733544"><ele>74.0</ele><time>2026-05-02T07:09:14.316Z</time></trkpt><trkpt lat="40.689268" lon="14.773449"><ele>74.0</ele><time>2026-05-02T07:09:15.317Z</time></trkpt><trkpt lat="40.6894489" lon="14.773522"><ele>74.0</ele><time>2026-05-02T07:09:16.316Z</time></trkpt><trkpt lat="40.6896361" lon="14.7735746"><ele>64.0</ele><time>2026-05-02T07:09:17.317Z</time></trkpt><trkpt lat="40.6898257" lon="14.7736203"><ele>54.0</ele><time>2026-05-02T07:09:18.316Z</time></trkpt><trkpt lat="40.6900216" lon="14.7736504"><ele>44.0</ele><time>2026-05-02T07:09:19.317Z</time></trkpt><trkpt lat="40.6902191" lon="14.7736731"><ele>44.0</ele><time>2026-05-02T07:09:20.316Z</time></trkpt><trkpt lat="40.6904206" lon="14.7736922"><ele>44.0</ele><time>2026-05-02T07:09:21.316Z</time></trkpt><trkpt lat="40.6906219" lon="14.7737097"><ele>44.0</ele><time>2026-05-02T07:09:22.315Z</time></trkpt><trkpt lat="40.6908211" lon="14.7737351"><ele>44.0</ele><time>2026-05-02T07:09:23.316Z</time></trkpt><trkpt lat="40.691021" lon="14.7737731"><ele>44.0</ele><time>2026-05-02T07:09:24.317Z</time></trkpt><trkpt lat="40.691219" lon="14.7738306"><ele>44.0</ele><time>2026-05-02T07:09:25.317Z</time></trkpt><trkpt lat="40.6914077" lon="14.7739075"><ele>47.33333333333333</ele><time>2026-05-02T07:09:26.316Z</time></trkpt><trkpt lat="40.6915863" lon="14.7740001"><ele>50.666666666666664</ele><time>2026-05-02T07:09:27.317Z</time></trkpt><trkpt lat="40.6917557" lon="14.7741008"><ele>54.0</ele><time>2026-05-02T07:09:28.317Z</time></trkpt><trkpt lat="40.6919155" lon="14.7742131"><ele>50.666666666666664</ele><time>2026-05-02T07:09:29.317Z</time></trkpt><trkpt lat="40.6920671" lon="14.7743396"><ele>47.33333333333333</ele><time>2026-05-02T07:09:30.315Z</time></trkpt><trkpt lat="40.6922131" lon="14.7744812"><ele>44.0</ele><time>2026-05-02T07:09:31.316Z</time></trkpt><trkpt lat="40.6923508" lon="14.7746338"><ele>44.0</ele><time>2026-05-02T07:09:32.317Z</time></trkpt><trkpt lat="40.6924798" lon="14.7747983"><ele>44.0</ele><time>2026-05-02T07:09:33.317Z</time></trkpt><trkpt lat="40.6926002" lon="14.7749765"><ele>44.0</ele><time>2026-05-02T07:09:34.317Z</time></trkpt><trkpt lat="40.6927102" lon="14.7751633"><ele>42.0</ele><time>2026-05-02T07:09:35.316Z</time></trkpt><trkpt lat="40.6928125" lon="14.7753588"><ele>40.0</ele><time>2026-05-02T07:09:36.316Z</time></trkpt><trkpt lat="40.692906" lon="14.7755632"><ele>38.0</ele><time>2026-05-02T07:09:37.317Z</time></trkpt><trkpt lat="40.6929867" lon="14.775782"><ele>38.0</ele><time>2026-05-02T07:09:38.317Z</time></trkpt><trkpt lat="40.6930578" lon="14.7760075"><ele>38.0</ele><time>2026-05-02T07:09:39.317Z</time></trkpt><trkpt lat="40.6931272" lon="14.7762379"><ele>38.0</ele><time>2026-05-02T07:09:40.317Z</time></trkpt><trkpt lat="40.6931956" lon="14.77647"><ele>38.666666666666664</ele><time>2026-05-02T07:09:41.317Z</time></trkpt><trkpt lat="40.6932655" lon="14.7767025"><ele>39.333333333333336</ele><time>2026-05-02T07:09:42.317Z</time></trkpt><trkpt lat="40.6933344" lon="14.7769355"><ele>40.0</ele><time>2026-05-02T07:09:43.316Z</time></trkpt><trkpt lat="40.6934031" lon="14.7771694"><ele>40.333333333333336</ele><time>2026-05-02T07:09:44.317Z</time></trkpt><trkpt lat="40.6934728" lon="14.7774035"><ele>40.666666666666664</ele><time>2026-05-02T07:09:45.317Z</time></trkpt><trkpt lat="40.6935423" lon="14.7776394"><ele>41.0</ele><time>2026-05-02T07:09:46.317Z</time></trkpt><trkpt lat="40.6936117" lon="14.7778752"><ele>42.666666666666664</ele><time>2026-05-02T07:09:47.317Z</time></trkpt><trkpt lat="40.6936882" lon="14.7781165"><ele>44.333333333333336</ele><time>2026-05-02T07:09:48.317Z</time></trkpt><trkpt lat="40.6937743" lon="14.7783733"><ele>46.0</ele><time>2026-05-02T07:09:49.316Z</time></trkpt><trkpt lat="40.6938608" lon="14.7786459"><ele>46.5</ele><time>2026-05-02T07:09:50.316Z</time></trkpt><trkpt lat="40.6939471" lon="14.7789295"><ele>47.0</ele><time>2026-05-02T07:09:51.316Z</time></trkpt><trkpt lat="40.6940518" lon="14.7792058"><ele>48.5</ele><time>2026-05-02T07:09:52.315Z</time></trkpt><trkpt lat="40.6941676" lon="14.7794754"><ele>50.0</ele><time>2026-05-02T07:09:53.317Z</time></trkpt><trkpt lat="40.6942996" lon="14.7797348"><ele>49.0</ele><time>2026-05-02T07:09:54.317Z</time></trkpt><trkpt lat="40.6944411" lon="14.7799845"><ele>48.0</ele><time>2026-05-02T07:09:55.317Z</time></trkpt><trkpt lat="40.6945892" lon="14.7802267"><ele>50.0</ele><time>2026-05-02T07:09:56.317Z</time></trkpt><trkpt lat="40.6947469" lon="14.7804602"><ele>52.0</ele><time>2026-05-02T07:09:57.317Z</time></trkpt><trkpt lat="40.6949105" lon="14.7806838"><ele>52.0</ele><time>2026-05-02T07:09:58.317Z</time></trkpt><trkpt lat="40.695076" lon="14.7809019"><ele>52.0</ele><time>2026-05-02T07:09:59.317Z</time></trkpt><trkpt lat="40.6952384" lon="14.7811147"><ele>53.666666666666664</ele><time>2026-05-02T07:10:00.316Z</time></trkpt><trkpt lat="40.6953966" lon="14.7813261"><ele>55.33333333333333</ele><time>2026-05-02T07:10:01.317Z</time></trkpt><trkpt lat="40.6955521" lon="14.7815358"><ele>57.0</ele><time>2026-05-02T07:10:02.316Z</time></trkpt><trkpt lat="40.695702" lon="14.7817492"><ele>57.33333333333333</ele><time>2026-05-02T07:10:03.317Z</time></trkpt><trkpt lat="40.6958494" lon="14.781969"><ele>57.666666666666664</ele><time>2026-05-02T07:10:04.316Z</time></trkpt><trkpt lat="40.6959553" lon="14.7822269"><ele>58.0</ele><time>2026-05-02T07:10:05.316Z</time></trkpt><trkpt lat="40.6960623" lon="14.7824783"><ele>63.0</ele><time>2026-05-02T07:10:06.317Z</time></trkpt><trkpt lat="40.6961525" lon="14.7827358"><ele>68.0</ele><time>2026-05-02T07:10:07.317Z</time></trkpt><trkpt lat="40.6962349" lon="14.7829961"><ele>73.0</ele><time>2026-05-02T07:10:08.317Z</time></trkpt><trkpt lat="40.6963042" lon="14.7832568"><ele>72.33333333333333</ele><time>2026-05-02T07:10:09.317Z</time></trkpt><trkpt lat="40.6963624" lon="14.7835182"><ele>71.66666666666667</ele><time>2026-05-02T07:10:10.317Z</time></trkpt><trkpt lat="40.6964106" lon="14.7837791"><ele>71.0</ele><time>2026-05-02T07:10:11.316Z</time></trkpt><trkpt lat="40.6964582" lon="14.7840376"><ele>71.0</ele><time>2026-05-02T07:10:12.317Z</time></trkpt><trkpt lat="40.6965071" lon="14.784293"><ele>71.0</ele><time>2026-05-02T07:10:13.317Z</time></trkpt><trkpt lat="40.6965568" lon="14.7845464"><ele>71.0</ele><time>2026-05-02T07:10:14.316Z</time></trkpt><trkpt lat="40.6966037" lon="14.7847956"><ele>71.0</ele><time>2026-05-02T07:10:15.317Z</time></trkpt><trkpt lat="40.6966491" lon="14.7850429"><ele>71.0</ele><time>2026-05-02T07:10:16.317Z</time></trkpt><trkpt lat="40.6966949" lon="14.7852892"><ele>71.0</ele><time>2026-05-02T07:10:17.317Z</time></trkpt><trkpt lat="40.6967384" lon="14.7855346"><ele>71.66666666666667</ele><time>2026-05-02T07:10:18.317Z</time></trkpt><trkpt lat="40.6967838" lon="14.7857814"><ele>72.33333333333333</ele><time>2026-05-02T07:10:19.317Z</time></trkpt><trkpt lat="40.6968309" lon="14.7860283"><ele>73.0</ele><time>2026-05-02T07:10:20.316Z</time></trkpt><trkpt lat="40.6968773" lon="14.7862776"><ele>77.0</ele><time>2026-05-02T07:10:21.317Z</time></trkpt><trkpt lat="40.6969245" lon="14.7865308"><ele>81.0</ele><time>2026-05-02T07:10:22.317Z</time></trkpt><trkpt lat="40.696973" lon="14.7867875"><ele>85.0</ele><time>2026-05-02T07:10:23.316Z</time></trkpt><trkpt lat="40.6970204" lon="14.7870478"><ele>85.0</ele><time>2026-05-02T07:10:24.316Z</time></trkpt><trkpt lat="40.6970653" lon="14.7873113"><ele>85.0</ele><time>2026-05-02T07:10:25.317Z</time></trkpt><trkpt lat="40.6971064" lon="14.787577"><ele>85.0</ele><time>2026-05-02T07:10:26.317Z</time></trkpt><trkpt lat="40.6971427" lon="14.7878427"><ele>86.66666666666666</ele><time>2026-05-02T07:10:27.317Z</time></trkpt><trkpt lat="40.6971727" lon="14.788099"><ele>88.33333333333333</ele><time>2026-05-02T07:10:28.317Z</time></trkpt><trkpt lat="40.6971979" lon="14.788345"><ele>90.0</ele><time>2026-05-02T07:10:29.317Z</time></trkpt><trkpt lat="40.6972182" lon="14.7885829"><ele>92.0</ele><time>2026-05-02T07:10:30.317Z</time></trkpt><trkpt lat="40.6972335" lon="14.7888149"><ele>94.0</ele><time>2026-05-02T07:10:31.316Z</time></trkpt><trkpt lat="40.6972448" lon="14.7890429"><ele>96.0</ele><time>2026-05-02T07:10:32.316Z</time></trkpt><trkpt lat="40.6972521" lon="14.789266"><ele>96.33333333333334</ele><time>2026-05-02T07:10:33.316Z</time></trkpt><trkpt lat="40.6972553" lon="14.7894833"><ele>96.66666666666667</ele><time>2026-05-02T07:10:34.317Z</time></trkpt><trkpt lat="40.6972552" lon="14.7896951"><ele>97.0</ele><time>2026-05-02T07:10:35.316Z</time></trkpt><trkpt lat="40.6972566" lon="14.7899076"><ele>97.0</ele><time>2026-05-02T07:10:36.317Z</time></trkpt><trkpt lat="40.6972571" lon="14.7901147"><ele>97.0</ele><time>2026-05-02T07:10:37.317Z</time></trkpt><trkpt lat="40.6972534" lon="14.7903117"><ele>97.0</ele><time>2026-05-02T07:10:38.317Z</time></trkpt><trkpt lat="40.6972486" lon="14.7905043"><ele>98.0</ele><time>2026-05-02T07:10:39.317Z</time></trkpt><trkpt lat="40.6972398" lon="14.7906941"><ele>99.0</ele><time>2026-05-02T07:10:40.316Z</time></trkpt><trkpt lat="40.6972282" lon="14.7908793"><ele>100.0</ele><time>2026-05-02T07:10:41.317Z</time></trkpt><trkpt lat="40.6972163" lon="14.7910582"><ele>101.0</ele><time>2026-05-02T07:10:42.316Z</time></trkpt><trkpt lat="40.697204" lon="14.7912359"><ele>102.0</ele><time>2026-05-02T07:10:43.317Z</time></trkpt><trkpt lat="40.6971924" lon="14.7914132"><ele>103.0</ele><time>2026-05-02T07:10:44.317Z</time></trkpt><trkpt lat="40.6971825" lon="14.7915906"><ele>104.0</ele><time>2026-05-02T07:10:45.317Z</time></trkpt><trkpt lat="40.697173" lon="14.7917683"><ele>105.0</ele><time>2026-05-02T07:10:46.317Z</time></trkpt><trkpt lat="40.6971607" lon="14.7919505"><ele>106.66666666666666</ele><time>2026-05-02T07:10:47.317Z</time></trkpt><trkpt lat="40.6971408" lon="14.7921435"><ele>108.33333333333333</ele><time>2026-05-02T07:10:48.317Z</time></trkpt><trkpt lat="40.6971222" lon="14.7923458"><ele>110.0</ele><time>2026-05-02T07:10:49.317Z</time></trkpt><trkpt lat="40.6971068" lon="14.792558"><ele>111.66666666666666</ele><time>2026-05-02T07:10:50.317Z</time></trkpt><trkpt lat="40.6970938" lon="14.7927785"><ele>113.33333333333334</ele><time>2026-05-02T07:10:51.317Z</time></trkpt><trkpt lat="40.6970814" lon="14.793007"><ele>115.0</ele><time>2026-05-02T07:10:52.317Z</time></trkpt><trkpt lat="40.6970709" lon="14.793247"><ele>115.0</ele><time>2026-05-02T07:10:53.316Z</time></trkpt><trkpt lat="40.6970585" lon="14.7934965"><ele>115.0</ele><time>2026-05-02T07:10:54.317Z</time></trkpt><trkpt lat="40.6970417" lon="14.7937595"><ele>115.0</ele><time>2026-05-02T07:10:55.316Z</time></trkpt><trkpt lat="40.6970256" lon="14.7940335"><ele>115.0</ele><time>2026-05-02T07:10:56.316Z</time></trkpt><trkpt lat="40.6970097" lon="14.7943193"><ele>115.0</ele><time>2026-05-02T07:10:57.317Z</time></trkpt><trkpt lat="40.6969949" lon="14.7946209"><ele>115.0</ele><time>2026-05-02T07:10:58.316Z</time></trkpt><trkpt lat="40.6969854" lon="14.7949427"><ele>112.5</ele><time>2026-05-02T07:10:59.316Z</time></trkpt><trkpt lat="40.6969827" lon="14.7952844"><ele>110.0</ele><time>2026-05-02T07:11:00.316Z</time></trkpt><trkpt lat="40.6969837" lon="14.7956428"><ele>111.0</ele><time>2026-05-02T07:11:01.316Z</time></trkpt><trkpt lat="40.69699" lon="14.7960141"><ele>112.0</ele><time>2026-05-02T07:11:02.317Z</time></trkpt><trkpt lat="40.6970003" lon="14.7963893"><ele>112.0</ele><time>2026-05-02T07:11:03.317Z</time></trkpt><trkpt lat="40.6970163" lon="14.7967588"><ele>112.0</ele><time>2026-05-02T07:11:04.317Z</time></trkpt><trkpt lat="40.6970382" lon="14.7971206"><ele>114.0</ele><time>2026-05-02T07:11:05.318Z</time></trkpt><trkpt lat="40.697063" lon="14.7974787"><ele>116.0</ele><time>2026-05-02T07:11:06.318Z</time></trkpt><trkpt lat="40.6970931" lon="14.7978351"><ele>118.0</ele><time>2026-05-02T07:11:07.318Z</time></trkpt><trkpt lat="40.6971303" lon="14.7981892"><ele>120.0</ele><time>2026-05-02T07:11:08.318Z</time></trkpt><trkpt lat="40.697173" lon="14.7985406"><ele>122.5</ele><time>2026-05-02T07:11:09.318Z</time></trkpt><trkpt lat="40.6972199" lon="14.7988891"><ele>125.0</ele><time>2026-05-02T07:11:10.318Z</time></trkpt><trkpt lat="40.6972718" lon="14.7992312"><ele>125.0</ele><time>2026-05-02T07:11:11.318Z</time></trkpt><trkpt lat="40.6973255" lon="14.7995723"><ele>125.0</ele><time>2026-05-02T07:11:12.317Z</time></trkpt><trkpt lat="40.6973824" lon="14.7999069"><ele>125.0</ele><time>2026-05-02T07:11:13.318Z</time></trkpt><trkpt lat="40.697448" lon="14.8002393"><ele>125.0</ele><time>2026-05-02T07:11:14.318Z</time></trkpt><trkpt lat="40.6975188" lon="14.8005696"><ele>125.0</ele><time>2026-05-02T07:11:15.318Z</time></trkpt><trkpt lat="40.6975918" lon="14.8008963"><ele>125.0</ele><time>2026-05-02T07:11:16.317Z</time></trkpt><trkpt lat="40.6976664" lon="14.8012201"><ele>126.5</ele><time>2026-05-02T07:11:17.318Z</time></trkpt><trkpt lat="40.6977415" lon="14.8015438"><ele>128.0</ele><time>2026-05-02T07:11:18.318Z</time></trkpt><trkpt lat="40.6978166" lon="14.8018686"><ele>136.0</ele><time>2026-05-02T07:11:19.318Z</time></trkpt><trkpt lat="40.6978899" lon="14.8021925"><ele>144.0</ele><time>2026-05-02T07:11:20.318Z</time></trkpt><trkpt lat="40.6979606" lon="14.8025159"><ele>142.5</ele><time>2026-05-02T07:11:21.317Z</time></trkpt><trkpt lat="40.6980328" lon="14.802842"><ele>141.0</ele><time>2026-05-02T07:11:22.318Z</time></trkpt><trkpt lat="40.6981065" lon="14.8031722"><ele>139.5</ele><time>2026-05-02T07:11:23.318Z</time></trkpt><trkpt lat="40.6981804" lon="14.8035037"><ele>138.0</ele><time>2026-05-02T07:11:24.318Z</time></trkpt><trkpt lat="40.6982566" lon="14.8038368"><ele>138.0</ele><time>2026-05-02T07:11:25.318Z</time></trkpt><trkpt lat="40.6983373" lon="14.8041707"><ele>138.0</ele><time>2026-05-02T07:11:26.317Z</time></trkpt><trkpt lat="40.6984179" lon="14.8045006"><ele>140.0</ele><time>2026-05-02T07:11:27.317Z</time></trkpt><trkpt lat="40.6984964" lon="14.8048254"><ele>142.0</ele><time>2026-05-02T07:11:28.318Z</time></trkpt><trkpt lat="40.6985763" lon="14.8051461"><ele>149.5</ele><time>2026-05-02T07:11:29.318Z</time></trkpt><trkpt lat="40.6986565" lon="14.8054657"><ele>157.0</ele><time>2026-05-02T07:11:30.318Z</time></trkpt><trkpt lat="40.6987318" lon="14.8057833"><ele>156.0</ele><time>2026-05-02T07:11:31.318Z</time></trkpt><trkpt lat="40.6988064" lon="14.8060994"><ele>155.0</ele><time>2026-05-02T07:11:32.318Z</time></trkpt><trkpt lat="40.6988775" lon="14.8064146"><ele>155.0</ele><time>2026-05-02T07:11:33.318Z</time></trkpt><trkpt lat="40.6989463" lon="14.8067312"><ele>155.0</ele><time>2026-05-02T07:11:34.318Z</time></trkpt><trkpt lat="40.6990098" lon="14.807049"><ele>154.0</ele><time>2026-05-02T07:11:35.317Z</time></trkpt><trkpt lat="40.6990678" lon="14.8073686"><ele>153.0</ele><time>2026-05-02T07:11:36.318Z</time></trkpt><trkpt lat="40.69912" lon="14.8076901"><ele>156.5</ele><time>2026-05-02T07:11:37.318Z</time></trkpt><trkpt lat="40.6991673" lon="14.8080151"><ele>160.0</ele><time>2026-05-02T07:11:38.318Z</time></trkpt><trkpt lat="40.6992102" lon="14.8083409"><ele>164.0</ele><time>2026-05-02T07:11:39.318Z</time></trkpt><trkpt lat="40.699248" lon="14.8086713"><ele>168.0</ele><time>2026-05-02T07:11:40.318Z</time></trkpt><trkpt lat="40.6992787" lon="14.809004"><ele>169.0</ele><time>2026-05-02T07:11:41.318Z</time></trkpt><trkpt lat="40.6993019" lon="14.809339"><ele>170.0</ele><time>2026-05-02T07:11:42.318Z</time></trkpt><trkpt lat="40.6993178" lon="14.8096755"><ele>170.0</ele><time>2026-05-02T07:11:43.318Z</time></trkpt><trkpt lat="40.699328" lon="14.8100155"><ele>170.0</ele><time>2026-05-02T07:11:44.318Z</time></trkpt><trkpt lat="40.6993333" lon="14.8103572"><ele>169.0</ele><time>2026-05-02T07:11:45.317Z</time></trkpt><trkpt lat="40.699334" lon="14.8107033"><ele>168.0</ele><time>2026-05-02T07:11:46.317Z</time></trkpt><trkpt lat="40.6993264" lon="14.8110547"><ele>165.5</ele><time>2026-05-02T07:11:47.318Z</time></trkpt><trkpt lat="40.6993123" lon="14.8114107"><ele>163.0</ele><time>2026-05-02T07:11:48.317Z</time></trkpt><trkpt lat="40.699292" lon="14.8117681"><ele>167.0</ele><time>2026-05-02T07:11:49.318Z</time></trkpt><trkpt lat="40.6992654" lon="14.8121263"><ele>171.0</ele><time>2026-05-02T07:11:50.317Z</time></trkpt><trkpt lat="40.6992355" lon="14.8124847"><ele>175.5</ele><time>2026-05-02T07:11:51.317Z</time></trkpt><trkpt lat="40.6992049" lon="14.8128401"><ele>180.0</ele><time>2026-05-02T07:11:52.318Z</time></trkpt><trkpt lat="40.6991737" lon="14.8131969"><ele>180.5</ele><time>2026-05-02T07:11:53.318Z</time></trkpt><trkpt lat="40.6991423" lon="14.8135528"><ele>181.0</ele><time>2026-05-02T07:11:54.317Z</time></trkpt><trkpt lat="40.6984972" lon="14.8197533"><ele>181.0</ele><time>2026-05-02T07:12:11.318Z</time></trkpt><trkpt lat="40.6984789" lon="14.8201368"><ele>181.0</ele><time>2026-05-02T07:12:12.318Z</time></trkpt><trkpt lat="40.6984433" lon="14.8205082"><ele>180.0</ele><time>2026-05-02T07:12:13.317Z</time></trkpt><trkpt lat="40.6984202" lon="14.820877"><ele>179.0</ele><time>2026-05-02T07:12:14.318Z</time></trkpt><trkpt lat="40.6983903" lon="14.8212412"><ele>178.0</ele><time>2026-05-02T07:12:15.318Z</time></trkpt><trkpt lat="40.6983552" lon="14.8216067"><ele>177.0</ele><time>2026-05-02T07:12:16.317Z</time></trkpt><trkpt lat="40.6983165" lon="14.8219692"><ele>177.0</ele><time>2026-05-02T07:12:17.317Z</time></trkpt><trkpt lat="40.6982723" lon="14.82233"><ele>177.0</ele><time>2026-05-02T07:12:18.318Z</time></trkpt><trkpt lat="40.6982217" lon="14.8226907"><ele>176.5</ele><time>2026-05-02T07:12:19.317Z</time></trkpt><trkpt lat="40.6981693" lon="14.8230513"><ele>176.0</ele><time>2026-05-02T07:12:20.318Z</time></trkpt><trkpt lat="40.6981102" lon="14.8234094"><ele>175.5</ele><time>2026-05-02T07:12:21.318Z</time></trkpt><trkpt lat="40.6980454" lon="14.8237664"><ele>175.0</ele><time>2026-05-02T07:12:22.317Z</time></trkpt><trkpt lat="40.6979744" lon="14.8241218"><ele>175.0</ele><time>2026-05-02T07:12:23.318Z</time></trkpt><trkpt lat="40.6978965" lon="14.8244752"><ele>175.0</ele><time>2026-05-02T07:12:24.318Z</time></trkpt><trkpt lat="40.6978136" lon="14.8248269"><ele>174.5</ele><time>2026-05-02T07:12:25.317Z</time></trkpt><trkpt lat="40.697725" lon="14.8251764"><ele>174.0</ele><time>2026-05-02T07:12:26.317Z</time></trkpt><trkpt lat="40.6976299" lon="14.8255244"><ele>174.0</ele><time>2026-05-02T07:12:27.317Z</time></trkpt><trkpt lat="40.6975307" lon="14.8258698"><ele>174.0</ele><time>2026-05-02T07:12:28.317Z</time></trkpt><trkpt lat="40.6974264" lon="14.8262135"><ele>175.0</ele><time>2026-05-02T07:12:29.317Z</time></trkpt><trkpt lat="40.6973196" lon="14.8265537"><ele>176.0</ele><time>2026-05-02T07:12:30.317Z</time></trkpt><trkpt lat="40.6972074" lon="14.8268929"><ele>177.5</ele><time>2026-05-02T07:12:31.318Z</time></trkpt><trkpt lat="40.6970897" lon="14.8272274"><ele>179.0</ele><time>2026-05-02T07:12:32.318Z</time></trkpt><trkpt lat="40.6969643" lon="14.8275577"><ele>178.0</ele><time>2026-05-02T07:12:33.317Z</time></trkpt><trkpt lat="40.6968348" lon="14.8278851"><ele>177.0</ele><time>2026-05-02T07:12:34.318Z</time></trkpt><trkpt lat="40.6967002" lon="14.8282097"><ele>178.0</ele><time>2026-05-02T07:12:35.317Z</time></trkpt><trkpt lat="40.6965598" lon="14.8285315"><ele>179.0</ele><time>2026-05-02T07:12:36.317Z</time></trkpt><trkpt lat="40.6964134" lon="14.828848"><ele>179.0</ele><time>2026-05-02T07:12:37.317Z</time></trkpt><trkpt lat="40.6962643" lon="14.8291605"><ele>179.0</ele><time>2026-05-02T07:12:38.317Z</time></trkpt><trkpt lat="40.696105" lon="14.8294647"><ele>177.0</ele><time>2026-05-02T07:12:39.317Z</time></trkpt><trkpt lat="40.6959434" lon="14.8297663"><ele>175.0</ele><time>2026-05-02T07:12:40.317Z</time></trkpt><trkpt lat="40.6957776" lon="14.8300649"><ele>174.5</ele><time>2026-05-02T07:12:41.318Z</time></trkpt><trkpt lat="40.6956099" lon="14.8303586"><ele>174.0</ele><time>2026-05-02T07:12:42.317Z</time></trkpt><trkpt lat="40.695437" lon="14.8306483"><ele>174.0</ele><time>2026-05-02T07:12:43.317Z</time></trkpt><trkpt lat="40.6952602" lon="14.8309338"><ele>174.0</ele><time>2026-05-02T07:12:44.318Z</time></trkpt><trkpt lat="40.6950788" lon="14.8312147"><ele>170.0</ele><time>2026-05-02T07:12:45.316Z</time></trkpt><trkpt lat="40.6948942" lon="14.8314918"><ele>166.0</ele><time>2026-05-02T07:12:46.318Z</time></trkpt><trkpt lat="40.6947055" lon="14.8317639"><ele>166.0</ele><time>2026-05-02T07:12:47.317Z</time></trkpt><trkpt lat="40.6945141" lon="14.8320328"><ele>166.0</ele><time>2026-05-02T07:12:48.317Z</time></trkpt><trkpt lat="40.6943207" lon="14.8322989"><ele>165.0</ele><time>2026-05-02T07:12:49.318Z</time></trkpt><trkpt lat="40.6941261" lon="14.8325638"><ele>164.0</ele><time>2026-05-02T07:12:50.317Z</time></trkpt><trkpt lat="40.6939325" lon="14.8328295"><ele>164.0</ele><time>2026-05-02T07:12:51.318Z</time></trkpt><trkpt lat="40.6937389" lon="14.8330943"><ele>164.0</ele><time>2026-05-02T07:12:52.318Z</time></trkpt><trkpt lat="40.6935454" lon="14.8333582"><ele>161.0</ele><time>2026-05-02T07:12:53.318Z</time></trkpt><trkpt lat="40.6933507" lon="14.8336194"><ele>158.0</ele><time>2026-05-02T07:12:54.317Z</time></trkpt><trkpt lat="40.6931552" lon="14.833883"><ele>158.0</ele><time>2026-05-02T07:12:55.318Z</time></trkpt><trkpt lat="40.6929576" lon="14.8341448"><ele>158.0</ele><time>2026-05-02T07:12:56.317Z</time></trkpt><trkpt lat="40.6927588" lon="14.8344063"><ele>157.0</ele><time>2026-05-02T07:12:57.318Z</time></trkpt><trkpt lat="40.6925608" lon="14.8346681"><ele>156.0</ele><time>2026-05-02T07:12:58.318Z</time></trkpt><trkpt lat="40.692364" lon="14.83493"><ele>155.5</ele><time>2026-05-02T07:12:59.318Z</time></trkpt><trkpt lat="40.6921673" lon="14.8351928"><ele>155.0</ele><time>2026-05-02T07:13:00.317Z</time></trkpt><trkpt lat="40.6919711" lon="14.8354535"><ele>153.5</ele><time>2026-05-02T07:13:01.317Z</time></trkpt><trkpt lat="40.6917743" lon="14.8357138"><ele>152.0</ele><time>2026-05-02T07:13:02.317Z</time></trkpt><trkpt lat="40.6915774" lon="14.8359736"><ele>151.5</ele><time>2026-05-02T07:13:03.317Z</time></trkpt><trkpt lat="40.691381" lon="14.836236"><ele>151.0</ele><time>2026-05-02T07:13:04.318Z</time></trkpt><trkpt lat="40.6911857" lon="14.8364987"><ele>150.5</ele><time>2026-05-02T07:13:05.318Z</time></trkpt><trkpt lat="40.6909925" lon="14.836764"><ele>150.0</ele><time>2026-05-02T07:13:06.318Z</time></trkpt><trkpt lat="40.6908031" lon="14.8370337"><ele>150.0</ele><time>2026-05-02T07:13:07.317Z</time></trkpt><trkpt lat="40.6906165" lon="14.8373089"><ele>150.0</ele><time>2026-05-02T07:13:08.318Z</time></trkpt><trkpt lat="40.690433" lon="14.8375889"><ele>146.5</ele><time>2026-05-02T07:13:09.318Z</time></trkpt><trkpt lat="40.6902529" lon="14.8378709"><ele>143.0</ele><time>2026-05-02T07:13:10.318Z</time></trkpt><trkpt lat="40.690077" lon="14.8381566"><ele>143.0</ele><time>2026-05-02T07:13:11.318Z</time></trkpt><trkpt lat="40.689906" lon="14.8384479"><ele>143.0</ele><time>2026-05-02T07:13:12.318Z</time></trkpt><trkpt lat="40.6897393" lon="14.8387425"><ele>142.5</ele><time>2026-05-02T07:13:13.317Z</time></trkpt><trkpt lat="40.6895772" lon="14.8390409"><ele>142.0</ele><time>2026-05-02T07:13:14.317Z</time></trkpt><trkpt lat="40.6894174" lon="14.8393408"><ele>140.0</ele><time>2026-05-02T07:13:15.318Z</time></trkpt><trkpt lat="40.6892607" lon="14.8396419"><ele>138.0</ele><time>2026-05-02T07:13:16.318Z</time></trkpt><trkpt lat="40.6891026" lon="14.8399437"><ele>137.5</ele><time>2026-05-02T07:13:17.318Z</time></trkpt><trkpt lat="40.6889593" lon="14.8402655"><ele>137.0</ele><time>2026-05-02T07:13:18.318Z</time></trkpt><trkpt lat="40.6888143" lon="14.8405762"><ele>137.0</ele><time>2026-05-02T07:13:19.318Z</time></trkpt><trkpt lat="40.6886737" lon="14.8408914"><ele>137.0</ele><time>2026-05-02T07:13:20.317Z</time></trkpt><trkpt lat="40.6885356" lon="14.8412107"><ele>134.0</ele><time>2026-05-02T07:13:21.316Z</time></trkpt><trkpt lat="40.6884038" lon="14.8415333"><ele>131.0</ele><time>2026-05-02T07:13:22.317Z</time></trkpt><trkpt lat="40.6882792" lon="14.8418624"><ele>130.5</ele><time>2026-05-02T07:13:23.317Z</time></trkpt><trkpt lat="40.6881577" lon="14.8421916"><ele>130.0</ele><time>2026-05-02T07:13:24.318Z</time></trkpt><trkpt lat="40.6880383" lon="14.8425222"><ele>129.5</ele><time>2026-05-02T07:13:25.318Z</time></trkpt><trkpt lat="40.6879218" lon="14.8428545"><ele>129.0</ele><time>2026-05-02T07:13:26.317Z</time></trkpt><trkpt lat="40.6878116" lon="14.84319"><ele>128.0</ele><time>2026-05-02T07:13:27.317Z</time></trkpt><trkpt lat="40.6877034" lon="14.8435293"><ele>127.0</ele><time>2026-05-02T07:13:28.318Z</time></trkpt><trkpt lat="40.6876027" lon="14.8438728"><ele>127.0</ele><time>2026-05-02T07:13:29.317Z</time></trkpt><trkpt lat="40.6875057" lon="14.8442188"><ele>127.0</ele><time>2026-05-02T07:13:30.317Z</time></trkpt><trkpt lat="40.6874121" lon="14.844568"><ele>126.5</ele><time>2026-05-02T07:13:31.317Z</time></trkpt><trkpt lat="40.6873186" lon="14.8449159"><ele>126.0</ele><time>2026-05-02T07:13:32.317Z</time></trkpt><trkpt lat="40.6872264" lon="14.8452653"><ele>125.0</ele><time>2026-05-02T07:13:33.318Z</time></trkpt><trkpt lat="40.687136" lon="14.8456143"><ele>124.0</ele><time>2026-05-02T07:13:34.318Z</time></trkpt><trkpt lat="40.6870468" lon="14.8459634"><ele>123.0</ele><time>2026-05-02T07:13:35.317Z</time></trkpt><trkpt lat="40.6869594" lon="14.8463125"><ele>122.0</ele><time>2026-05-02T07:13:36.317Z</time></trkpt><trkpt lat="40.6868725" lon="14.8466606"><ele>120.5</ele><time>2026-05-02T07:13:37.318Z</time></trkpt><trkpt lat="40.686785" lon="14.847008"><ele>119.0</ele><time>2026-05-02T07:13:38.317Z</time></trkpt><trkpt lat="40.6866975" lon="14.8473555"><ele>115.5</ele><time>2026-05-02T07:13:39.318Z</time></trkpt><trkpt lat="40.6866088" lon="14.8477033"><ele>112.0</ele><time>2026-05-02T07:13:40.318Z</time></trkpt><trkpt lat="40.6865188" lon="14.8480504"><ele>112.0</ele><time>2026-05-02T07:13:41.318Z</time></trkpt><trkpt lat="40.6864301" lon="14.8483975"><ele>112.0</ele><time>2026-05-02T07:13:42.318Z</time></trkpt><trkpt lat="40.6863436" lon="14.8487459"><ele>112.0</ele><time>2026-05-02T07:13:43.318Z</time></trkpt><trkpt lat="40.6862582" lon="14.8490938"><ele>112.0</ele><time>2026-05-02T07:13:44.317Z</time></trkpt><trkpt lat="40.6861678" lon="14.8494396"><ele>111.0</ele><time>2026-05-02T07:13:45.317Z</time></trkpt><trkpt lat="40.6860781" lon="14.8497865"><ele>110.0</ele><time>2026-05-02T07:13:46.318Z</time></trkpt><trkpt lat="40.6859849" lon="14.8501351"><ele>109.5</ele><time>2026-05-02T07:13:47.317Z</time></trkpt><trkpt lat="40.6858876" lon="14.8504869"><ele>109.0</ele><time>2026-05-02T07:13:48.317Z</time></trkpt><trkpt lat="40.6857786" lon="14.8508428"><ele>110.5</ele><time>2026-05-02T07:13:49.317Z</time></trkpt><trkpt lat="40.6856578" lon="14.8511991"><ele>112.0</ele><time>2026-05-02T07:13:50.317Z</time></trkpt><trkpt lat="40.685524" lon="14.8515512"><ele>112.5</ele><time>2026-05-02T07:13:51.317Z</time></trkpt><trkpt lat="40.6853768" lon="14.8518938"><ele>113.0</ele><time>2026-05-02T07:13:52.318Z</time></trkpt><trkpt lat="40.6852185" lon="14.8522262"><ele>113.0</ele><time>2026-05-02T07:13:53.318Z</time></trkpt><trkpt lat="40.6850536" lon="14.8525508"><ele>113.0</ele><time>2026-05-02T07:13:54.318Z</time></trkpt><trkpt lat="40.6848834" lon="14.8528681"><ele>114.0</ele><time>2026-05-02T07:13:55.318Z</time></trkpt><trkpt lat="40.6847064" lon="14.8531789"><ele>115.0</ele><time>2026-05-02T07:13:56.318Z</time></trkpt><trkpt lat="40.6845222" lon="14.8534834"><ele>114.0</ele><time>2026-05-02T07:13:57.318Z</time></trkpt><trkpt lat="40.6843295" lon="14.8537781"><ele>113.0</ele><time>2026-05-02T07:13:58.317Z</time></trkpt><trkpt lat="40.6841271" lon="14.8540614"><ele>113.0</ele><time>2026-05-02T07:13:59.318Z</time></trkpt><trkpt lat="40.683916" lon="14.8543315"><ele>113.0</ele><time>2026-05-02T07:14:00.317Z</time></trkpt><trkpt lat="40.6836981" lon="14.854591"><ele>111.5</ele><time>2026-05-02T07:14:01.317Z</time></trkpt><trkpt lat="40.6834736" lon="14.8548402"><ele>110.0</ele><time>2026-05-02T07:14:02.318Z</time></trkpt><trkpt lat="40.6832421" lon="14.8550785"><ele>110.5</ele><time>2026-05-02T07:14:03.317Z</time></trkpt><trkpt lat="40.6830033" lon="14.8553052"><ele>111.0</ele><time>2026-05-02T07:14:04.318Z</time></trkpt><trkpt lat="40.6827577" lon="14.8555198"><ele>111.0</ele><time>2026-05-02T07:14:05.318Z</time></trkpt><trkpt lat="40.6825069" lon="14.8557237"><ele>111.0</ele><time>2026-05-02T07:14:06.317Z</time></trkpt><trkpt lat="40.6822501" lon="14.8559155"><ele>113.0</ele><time>2026-05-02T07:14:07.317Z</time></trkpt><trkpt lat="40.6819884" lon="14.8560943"><ele>115.0</ele><time>2026-05-02T07:14:08.318Z</time></trkpt><trkpt lat="40.6817214" lon="14.8562608"><ele>115.0</ele><time>2026-05-02T07:14:09.317Z</time></trkpt><trkpt lat="40.68145" lon="14.856414"><ele>115.0</ele><time>2026-05-02T07:14:10.317Z</time></trkpt><trkpt lat="40.6811733" lon="14.8565554"><ele>114.5</ele><time>2026-05-02T07:14:11.317Z</time></trkpt><trkpt lat="40.6808926" lon="14.8566841"><ele>114.0</ele><time>2026-05-02T07:14:12.318Z</time></trkpt><trkpt lat="40.680609" lon="14.8567985"><ele>114.0</ele><time>2026-05-02T07:14:13.318Z</time></trkpt><trkpt lat="40.680324" lon="14.856898"><ele>114.0</ele><time>2026-05-02T07:14:14.318Z</time></trkpt><trkpt lat="40.6800357" lon="14.8569826"><ele>114.0</ele><time>2026-05-02T07:14:15.318Z</time></trkpt><trkpt lat="40.6797453" lon="14.8570524"><ele>114.0</ele><time>2026-05-02T07:14:16.318Z</time></trkpt><trkpt lat="40.6794523" lon="14.8571093"><ele>114.0</ele><time>2026-05-02T07:14:17.318Z</time></trkpt><trkpt lat="40.6791577" lon="14.8571555"><ele>114.0</ele><time>2026-05-02T07:14:18.317Z</time></trkpt><trkpt lat="40.6788627" lon="14.8571949"><ele>115.5</ele><time>2026-05-02T07:14:19.317Z</time></trkpt><trkpt lat="40.6785681" lon="14.8572288"><ele>117.0</ele><time>2026-05-02T07:14:20.318Z</time></trkpt><trkpt lat="40.6782747" lon="14.8572603"><ele>117.0</ele><time>2026-05-02T07:14:21.318Z</time></trkpt><trkpt lat="40.6779802" lon="14.8572894"><ele>117.0</ele><time>2026-05-02T07:14:22.318Z</time></trkpt><trkpt lat="40.6776861" lon="14.8573172"><ele>118.0</ele><time>2026-05-02T07:14:23.317Z</time></trkpt><trkpt lat="40.6773909" lon="14.8573457"><ele>119.0</ele><time>2026-05-02T07:14:24.317Z</time></trkpt><trkpt lat="40.6770968" lon="14.8573723"><ele>125.0</ele><time>2026-05-02T07:14:25.318Z</time></trkpt><trkpt lat="40.6768027" lon="14.8573995"><ele>131.0</ele><time>2026-05-02T07:14:26.318Z</time></trkpt><trkpt lat="40.6765087" lon="14.8574268"><ele>112.0</ele><time>2026-05-02T07:14:27.318Z</time></trkpt><trkpt lat="40.66968" lon="14.8580949"><ele>115.5</ele><time>2026-05-02T07:14:50.318Z</time></trkpt><trkpt lat="40.6693875" lon="14.858124"><ele>119.0</ele><time>2026-05-02T07:14:51.317Z</time></trkpt><trkpt lat="40.6691084" lon="14.8581354"><ele>119.0</ele><time>2026-05-02T07:14:52.317Z</time></trkpt><trkpt lat="40.6688186" lon="14.8581592"><ele>119.0</ele><time>2026-05-02T07:14:53.318Z</time></trkpt><trkpt lat="40.6685282" lon="14.8581834"><ele>74.0</ele><time>2026-05-02T07:14:54.318Z</time></trkpt><trkpt lat="40.662698" lon="14.8591269"><ele>74.0</ele><time>2026-05-02T07:15:14.317Z</time></trkpt><trkpt lat="40.6623969" lon="14.8592471"><ele>74.0</ele><time>2026-05-02T07:15:15.318Z</time></trkpt><trkpt lat="40.6621299" lon="14.8593766"><ele>72.0</ele><time>2026-05-02T07:15:16.318Z</time></trkpt><trkpt lat="40.661861" lon="14.8595199"><ele>70.0</ele><time>2026-05-02T07:15:17.318Z</time></trkpt><trkpt lat="40.6615951" lon="14.8596775"><ele>70.0</ele><time>2026-05-02T07:15:18.318Z</time></trkpt><trkpt lat="40.6613328" lon="14.8598458"><ele>70.0</ele><time>2026-05-02T07:15:19.318Z</time></trkpt><trkpt lat="40.6610724" lon="14.8600222"><ele>70.0</ele><time>2026-05-02T07:15:20.317Z</time></trkpt><trkpt lat="40.660812" lon="14.8602009"><ele>70.0</ele><time>2026-05-02T07:15:21.317Z</time></trkpt><trkpt lat="40.6605522" lon="14.8603838"><ele>70.0</ele><time>2026-05-02T07:15:22.317Z</time></trkpt><trkpt lat="40.6602949" lon="14.8605727"><ele>70.0</ele><time>2026-05-02T07:15:23.317Z</time></trkpt><trkpt lat="40.6600395" lon="14.8607703"><ele>69.0</ele><time>2026-05-02T07:15:24.317Z</time></trkpt><trkpt lat="40.6597854" lon="14.8609721"><ele>68.0</ele><time>2026-05-02T07:15:25.317Z</time></trkpt><trkpt lat="40.6595342" lon="14.8611738"><ele>62.5</ele><time>2026-05-02T07:15:26.317Z</time></trkpt><trkpt lat="40.659285" lon="14.8613784"><ele>57.0</ele><time>2026-05-02T07:15:27.317Z</time></trkpt><trkpt lat="40.6590377" lon="14.8615869"><ele>57.0</ele><time>2026-05-02T07:15:28.317Z</time></trkpt><trkpt lat="40.6587903" lon="14.8617938"><ele>57.0</ele><time>2026-05-02T07:15:29.316Z</time></trkpt><trkpt lat="40.6585425" lon="14.8620039"><ele>54.5</ele><time>2026-05-02T07:15:30.318Z</time></trkpt><trkpt lat="40.6582993" lon="14.8622201"><ele>52.0</ele><time>2026-05-02T07:15:31.317Z</time></trkpt><trkpt lat="40.658058" lon="14.8624421"><ele>50.5</ele><time>2026-05-02T07:15:32.318Z</time></trkpt><trkpt lat="40.6578248" lon="14.8626748"><ele>49.0</ele><time>2026-05-02T07:15:33.318Z</time></trkpt><trkpt lat="40.6575973" lon="14.8629204"><ele>49.0</ele><time>2026-05-02T07:15:34.318Z</time></trkpt><trkpt lat="40.6573779" lon="14.8631764"><ele>49.0</ele><time>2026-05-02T07:15:35.317Z</time></trkpt><trkpt lat="40.657165" lon="14.8634389"><ele>48.5</ele><time>2026-05-02T07:15:36.317Z</time></trkpt><trkpt lat="40.656958" lon="14.8637124"><ele>48.0</ele><time>2026-05-02T07:15:37.317Z</time></trkpt><trkpt lat="40.6567577" lon="14.8639945"><ele>47.5</ele><time>2026-05-02T07:15:38.317Z</time></trkpt><trkpt lat="40.6565654" lon="14.8642861"><ele>47.0</ele><time>2026-05-02T07:15:39.317Z</time></trkpt><trkpt lat="40.6563821" lon="14.8645832"><ele>47.0</ele><time>2026-05-02T07:15:40.317Z</time></trkpt><trkpt lat="40.6562042" lon="14.8648907"><ele>47.0</ele><time>2026-05-02T07:15:41.317Z</time></trkpt><trkpt lat="40.6560345" lon="14.8652082"><ele>46.5</ele><time>2026-05-02T07:15:42.317Z</time></trkpt><trkpt lat="40.6558711" lon="14.8655313"><ele>46.0</ele><time>2026-05-02T07:15:43.317Z</time></trkpt><trkpt lat="40.6557141" lon="14.8658578"><ele>47.0</ele><time>2026-05-02T07:15:44.317Z</time></trkpt><trkpt lat="40.6555671" lon="14.8661912"><ele>48.0</ele><time>2026-05-02T07:15:45.317Z</time></trkpt><trkpt lat="40.6554243" lon="14.866531"><ele>45.5</ele><time>2026-05-02T07:15:46.317Z</time></trkpt><trkpt lat="40.6552824" lon="14.8668712"><ele>43.0</ele><time>2026-05-02T07:15:47.317Z</time></trkpt><trkpt lat="40.6551385" lon="14.8672093"><ele>43.0</ele><time>2026-05-02T07:15:48.317Z</time></trkpt><trkpt lat="40.654993" lon="14.8675466"><ele>43.0</ele><time>2026-05-02T07:15:49.318Z</time></trkpt><trkpt lat="40.6548503" lon="14.8678848"><ele>43.0</ele><time>2026-05-02T07:15:50.318Z</time></trkpt><trkpt lat="40.6547103" lon="14.8682233"><ele>43.0</ele><time>2026-05-02T07:15:51.318Z</time></trkpt><trkpt lat="40.6545727" lon="14.868567"><ele>41.5</ele><time>2026-05-02T07:15:52.318Z</time></trkpt><trkpt lat="40.6544339" lon="14.868911"><ele>40.0</ele><time>2026-05-02T07:15:53.318Z</time></trkpt><trkpt lat="40.6542916" lon="14.8692524"><ele>40.0</ele><time>2026-05-02T07:15:54.317Z</time></trkpt><trkpt lat="40.6541499" lon="14.869595"><ele>40.0</ele><time>2026-05-02T07:15:55.317Z</time></trkpt><trkpt lat="40.6540079" lon="14.8699379"><ele>38.5</ele><time>2026-05-02T07:15:56.317Z</time></trkpt><trkpt lat="40.6538669" lon="14.8702811"><ele>37.0</ele><time>2026-05-02T07:15:57.318Z</time></trkpt><trkpt lat="40.6537284" lon="14.8706222"><ele>34.5</ele><time>2026-05-02T07:15:58.318Z</time></trkpt><trkpt lat="40.6535892" lon="14.8709631"><ele>32.0</ele><time>2026-05-02T07:15:59.317Z</time></trkpt><trkpt lat="40.6534469" lon="14.8713026"><ele>32.0</ele><time>2026-05-02T07:16:00.318Z</time></trkpt><trkpt lat="40.6533048" lon="14.8716423"><ele>32.0</ele><time>2026-05-02T07:16:01.318Z</time></trkpt><trkpt lat="40.6531641" lon="14.8719797"><ele>31.5</ele><time>2026-05-02T07:16:02.318Z</time></trkpt><trkpt lat="40.6530249" lon="14.8723224"><ele>31.0</ele><time>2026-05-02T07:16:03.317Z</time></trkpt><trkpt lat="40.6528858" lon="14.8726649"><ele>31.0</ele><time>2026-05-02T07:16:04.317Z</time></trkpt><trkpt lat="40.6527442" lon="14.8730062"><ele>31.0</ele><time>2026-05-02T07:16:05.318Z</time></trkpt><trkpt lat="40.652601" lon="14.8733462"><ele>31.0</ele><time>2026-05-02T07:16:06.318Z</time></trkpt><trkpt lat="40.6524549" lon="14.873684"><ele>31.0</ele><time>2026-05-02T07:16:07.318Z</time></trkpt><trkpt lat="40.6523077" lon="14.8740202"><ele>32.5</ele><time>2026-05-02T07:16:08.317Z</time></trkpt><trkpt lat="40.65216" lon="14.8743557"><ele>34.0</ele><time>2026-05-02T07:16:09.317Z</time></trkpt><trkpt lat="40.6520122" lon="14.8746901"><ele>33.0</ele><time>2026-05-02T07:16:10.317Z</time></trkpt><trkpt lat="40.6518637" lon="14.8750253"><ele>32.0</ele><time>2026-05-02T07:16:11.317Z</time></trkpt><trkpt lat="40.6517155" lon="14.8753622"><ele>34.0</ele><time>2026-05-02T07:16:12.318Z</time></trkpt><trkpt lat="40.6515657" lon="14.8756996"><ele>36.0</ele><time>2026-05-02T07:16:13.318Z</time></trkpt><trkpt lat="40.6514163" lon="14.8760323"><ele>36.0</ele><time>2026-05-02T07:16:14.318Z</time></trkpt><trkpt lat="40.6512671" lon="14.8763651"><ele>36.0</ele><time>2026-05-02T07:16:15.317Z</time></trkpt><trkpt lat="40.6511178" lon="14.8766999"><ele>35.5</ele><time>2026-05-02T07:16:16.318Z</time></trkpt><trkpt lat="40.6509712" lon="14.8770347"><ele>35.0</ele><time>2026-05-02T07:16:17.317Z</time></trkpt><trkpt lat="40.650824" lon="14.8773697"><ele>35.5</ele><time>2026-05-02T07:16:18.317Z</time></trkpt><trkpt lat="40.6506766" lon="14.877707"><ele>36.0</ele><time>2026-05-02T07:16:19.317Z</time></trkpt><trkpt lat="40.6505291" lon="14.8780435"><ele>36.0</ele><time>2026-05-02T07:16:20.318Z</time></trkpt><trkpt lat="40.6503808" lon="14.8783785"><ele>36.0</ele><time>2026-05-02T07:16:21.318Z</time></trkpt><trkpt lat="40.6502327" lon="14.878715"><ele>37.0</ele><time>2026-05-02T07:16:22.318Z</time></trkpt><trkpt lat="40.6500851" lon="14.8790494"><ele>38.0</ele><time>2026-05-02T07:16:23.318Z</time></trkpt><trkpt lat="40.6499389" lon="14.8793845"><ele>38.0</ele><time>2026-05-02T07:16:24.318Z</time></trkpt><trkpt lat="40.6497925" lon="14.8797194"><ele>38.0</ele><time>2026-05-02T07:16:25.318Z</time></trkpt><trkpt lat="40.6496471" lon="14.8800553"><ele>39.0</ele><time>2026-05-02T07:16:26.318Z</time></trkpt><trkpt lat="40.6495045" lon="14.8803924"><ele>40.0</ele><time>2026-05-02T07:16:27.317Z</time></trkpt><trkpt lat="40.6493593" lon="14.880731"><ele>40.0</ele><time>2026-05-02T07:16:28.317Z</time></trkpt><trkpt lat="40.6492141" lon="14.8810662"><ele>40.0</ele><time>2026-05-02T07:16:29.318Z</time></trkpt><trkpt lat="40.6490649" lon="14.8813989"><ele>40.0</ele><time>2026-05-02T07:16:30.317Z</time></trkpt><trkpt lat="40.648916" lon="14.8817344"><ele>40.0</ele><time>2026-05-02T07:16:31.317Z</time></trkpt><trkpt lat="40.648764" lon="14.8820671"><ele>40.0</ele><time>2026-05-02T07:16:32.317Z</time></trkpt><trkpt lat="40.6486103" lon="14.8823972"><ele>40.0</ele><time>2026-05-02T07:16:33.317Z</time></trkpt><trkpt lat="40.6484576" lon="14.8827304"><ele>40.5</ele><time>2026-05-02T07:16:34.317Z</time></trkpt><trkpt lat="40.648309" lon="14.8830625"><ele>41.0</ele><time>2026-05-02T07:16:35.317Z</time></trkpt><trkpt lat="40.6481615" lon="14.8834011"><ele>41.5</ele><time>2026-05-02T07:16:36.317Z</time></trkpt><trkpt lat="40.6480128" lon="14.8837404"><ele>42.0</ele><time>2026-05-02T07:16:37.317Z</time></trkpt><trkpt lat="40.6478649" lon="14.8840782"><ele>42.0</ele><time>2026-05-02T07:16:38.318Z</time></trkpt><trkpt lat="40.6477166" lon="14.8844096"><ele>42.0</ele><time>2026-05-02T07:16:39.318Z</time></trkpt><trkpt lat="40.6475679" lon="14.8847429"><ele>42.0</ele><time>2026-05-02T07:16:40.317Z</time></trkpt><trkpt lat="40.647418" lon="14.885078"><ele>42.0</ele><time>2026-05-02T07:16:41.318Z</time></trkpt><trkpt lat="40.6472666" lon="14.8854138"><ele>43.0</ele><time>2026-05-02T07:16:42.318Z</time></trkpt><trkpt lat="40.6471181" lon="14.8857431"><ele>44.0</ele><time>2026-05-02T07:16:43.318Z</time></trkpt><trkpt lat="40.6469699" lon="14.8860642"><ele>43.5</ele><time>2026-05-02T07:16:44.317Z</time></trkpt><trkpt lat="40.6468252" lon="14.8863798"><ele>43.0</ele><time>2026-05-02T07:16:45.317Z</time></trkpt><trkpt lat="40.64669" lon="14.8866926"><ele>43.0</ele><time>2026-05-02T07:16:46.317Z</time></trkpt><trkpt lat="40.6465551" lon="14.8870003"><ele>43.0</ele><time>2026-05-02T07:16:47.316Z</time></trkpt><trkpt lat="40.6464253" lon="14.8873106"><ele>44.0</ele><time>2026-05-02T07:16:48.317Z</time></trkpt><trkpt lat="40.6462909" lon="14.8876193"><ele>45.0</ele><time>2026-05-02T07:16:49.317Z</time></trkpt><trkpt lat="40.6461553" lon="14.8879295"><ele>44.5</ele><time>2026-05-02T07:16:50.317Z</time></trkpt><trkpt lat="40.6460185" lon="14.8882403"><ele>44.0</ele><time>2026-05-02T07:16:51.317Z</time></trkpt><trkpt lat="40.6458798" lon="14.8885518"><ele>45.0</ele><time>2026-05-02T07:16:52.317Z</time></trkpt><trkpt lat="40.6457408" lon="14.8888661"><ele>46.0</ele><time>2026-05-02T07:16:53.318Z</time></trkpt><trkpt lat="40.6456023" lon="14.8891764"><ele>46.5</ele><time>2026-05-02T07:16:54.318Z</time></trkpt><trkpt lat="40.6454636" lon="14.8894862"><ele>47.0</ele><time>2026-05-02T07:16:55.318Z</time></trkpt><trkpt lat="40.6453254" lon="14.889796"><ele>45.5</ele><time>2026-05-02T07:16:56.317Z</time></trkpt><trkpt lat="40.6451871" lon="14.8901054"><ele>44.0</ele><time>2026-05-02T07:16:57.317Z</time></trkpt><trkpt lat="40.6450475" lon="14.8904163"><ele>44.0</ele><time>2026-05-02T07:16:58.317Z</time></trkpt><trkpt lat="40.6449105" lon="14.8907301"><ele>44.0</ele><time>2026-05-02T07:16:59.318Z</time></trkpt><trkpt lat="40.6447734" lon="14.8910424"><ele>45.0</ele><time>2026-05-02T07:17:00.317Z</time></trkpt><trkpt lat="40.6446367" lon="14.8913576"><ele>46.0</ele><time>2026-05-02T07:17:01.317Z</time></trkpt><trkpt lat="40.6444989" lon="14.8916701"><ele>45.0</ele><time>2026-05-02T07:17:02.318Z</time></trkpt><trkpt lat="40.6443596" lon="14.8919817"><ele>44.0</ele><time>2026-05-02T07:17:03.317Z</time></trkpt><trkpt lat="40.6442183" lon="14.8922938"><ele>43.5</ele><time>2026-05-02T07:17:04.318Z</time></trkpt><trkpt lat="40.6440778" lon="14.8926058"><ele>43.0</ele><time>2026-05-02T07:17:05.317Z</time></trkpt><trkpt lat="40.6439362" lon="14.8929156"><ele>43.0</ele><time>2026-05-02T07:17:06.318Z</time></trkpt><trkpt lat="40.6437989" lon="14.8932262"><ele>43.0</ele><time>2026-05-02T07:17:07.317Z</time></trkpt><trkpt lat="40.6436607" lon="14.8935368"><ele>42.0</ele><time>2026-05-02T07:17:08.317Z</time></trkpt><trkpt lat="40.6435211" lon="14.8938483"><ele>41.0</ele><time>2026-05-02T07:17:09.317Z</time></trkpt><trkpt lat="40.6433786" lon="14.894159"><ele>41.0</ele><time>2026-05-02T07:17:10.318Z</time></trkpt><trkpt lat="40.6432389" lon="14.8944674"><ele>41.0</ele><time>2026-05-02T07:17:11.317Z</time></trkpt><trkpt lat="40.6430981" lon="14.8947772"><ele>42.0</ele><time>2026-05-02T07:17:12.317Z</time></trkpt><trkpt lat="40.6429593" lon="14.8950894"><ele>43.0</ele><time>2026-05-02T07:17:13.317Z</time></trkpt><trkpt lat="40.6428224" lon="14.8954017"><ele>41.5</ele><time>2026-05-02T07:17:14.317Z</time></trkpt><trkpt lat="40.6426821" lon="14.8957124"><ele>40.0</ele><time>2026-05-02T07:17:15.317Z</time></trkpt><trkpt lat="40.6425401" lon="14.8960224"><ele>39.5</ele><time>2026-05-02T07:17:16.317Z</time></trkpt><trkpt lat="40.6423936" lon="14.8963335"><ele>39.0</ele><time>2026-05-02T07:17:17.317Z</time></trkpt><trkpt lat="40.6422489" lon="14.8966406"><ele>39.0</ele><time>2026-05-02T07:17:18.317Z</time></trkpt><trkpt lat="40.6421022" lon="14.8969467"><ele>39.0</ele><time>2026-05-02T07:17:19.317Z</time></trkpt><trkpt lat="40.6419585" lon="14.8972539"><ele>38.0</ele><time>2026-05-02T07:17:20.317Z</time></trkpt><trkpt lat="40.6418166" lon="14.8975643"><ele>37.0</ele><time>2026-05-02T07:17:21.317Z</time></trkpt><trkpt lat="40.6416775" lon="14.8978743"><ele>37.0</ele><time>2026-05-02T07:17:22.318Z</time></trkpt><trkpt lat="40.6415413" lon="14.8981835"><ele>37.0</ele><time>2026-05-02T07:17:23.317Z</time></trkpt><trkpt lat="40.6414032" lon="14.8984936"><ele>37.5</ele><time>2026-05-02T07:17:24.317Z</time></trkpt><trkpt lat="40.6412619" lon="14.898802"><ele>38.0</ele><time>2026-05-02T07:17:25.317Z</time></trkpt><trkpt lat="40.641119" lon="14.8991103"><ele>38.5</ele><time>2026-05-02T07:17:26.317Z</time></trkpt><trkpt lat="40.640975" lon="14.8994189"><ele>39.0</ele><time>2026-05-02T07:17:27.317Z</time></trkpt><trkpt lat="40.6408344" lon="14.8997269"><ele>39.0</ele><time>2026-05-02T07:17:28.318Z</time></trkpt><trkpt lat="40.6406916" lon="14.900036"><ele>39.0</ele><time>2026-05-02T07:17:29.317Z</time></trkpt><trkpt lat="40.6405509" lon="14.9003468"><ele>39.0</ele><time>2026-05-02T07:17:30.317Z</time></trkpt><trkpt lat="40.6404098" lon="14.9006562"><ele>39.0</ele><time>2026-05-02T07:17:31.318Z</time></trkpt><trkpt lat="40.6402674" lon="14.9009655"><ele>39.0</ele><time>2026-05-02T07:17:32.318Z</time></trkpt><trkpt lat="40.6401232" lon="14.9012754"><ele>39.0</ele><time>2026-05-02T07:17:33.318Z</time></trkpt><trkpt lat="40.6399791" lon="14.9015833"><ele>39.5</ele><time>2026-05-02T07:17:34.318Z</time></trkpt><trkpt lat="40.6398357" lon="14.9018921"><ele>40.0</ele><time>2026-05-02T07:17:35.318Z</time></trkpt><trkpt lat="40.6396911" lon="14.9022034"><ele>40.0</ele><time>2026-05-02T07:17:36.318Z</time></trkpt><trkpt lat="40.6395488" lon="14.9025149"><ele>40.0</ele><time>2026-05-02T07:17:37.318Z</time></trkpt><trkpt lat="40.6394097" lon="14.9028257"><ele>40.0</ele><time>2026-05-02T07:17:38.318Z</time></trkpt><trkpt lat="40.639273" lon="14.9031364"><ele>40.0</ele><time>2026-05-02T07:17:39.318Z</time></trkpt><trkpt lat="40.6391318" lon="14.9034475"><ele>39.5</ele><time>2026-05-02T07:17:40.317Z</time></trkpt><trkpt lat="40.63899" lon="14.9037588"><ele>39.0</ele><time>2026-05-02T07:17:41.317Z</time></trkpt><trkpt lat="40.638846" lon="14.9040683"><ele>39.5</ele><time>2026-05-02T07:17:42.317Z</time></trkpt><trkpt lat="40.638704" lon="14.9043791"><ele>40.0</ele><time>2026-05-02T07:17:43.317Z</time></trkpt><trkpt lat="40.6385614" lon="14.9046894"><ele>39.5</ele><time>2026-05-02T07:17:44.317Z</time></trkpt><trkpt lat="40.6384221" lon="14.9049997"><ele>39.0</ele><time>2026-05-02T07:17:45.317Z</time></trkpt><trkpt lat="40.638285" lon="14.9053092"><ele>39.0</ele><time>2026-05-02T07:17:46.318Z</time></trkpt><trkpt lat="40.6381446" lon="14.9056209"><ele>39.0</ele><time>2026-05-02T07:17:47.317Z</time></trkpt><trkpt lat="40.6380026" lon="14.9059315"><ele>39.5</ele><time>2026-05-02T07:17:48.317Z</time></trkpt><trkpt lat="40.6378649" lon="14.906245"><ele>40.0</ele><time>2026-05-02T07:17:49.317Z</time></trkpt><trkpt lat="40.6377284" lon="14.9065586"><ele>40.0</ele><time>2026-05-02T07:17:50.317Z</time></trkpt><trkpt lat="40.6375918" lon="14.9068724"><ele>40.0</ele><time>2026-05-02T07:17:51.317Z</time></trkpt><trkpt lat="40.6374588" lon="14.9071895"><ele>40.0</ele><time>2026-05-02T07:17:52.317Z</time></trkpt><trkpt lat="40.637332" lon="14.9075084"><ele>40.0</ele><time>2026-05-02T07:17:53.317Z</time></trkpt><trkpt lat="40.6372064" lon="14.9078281"><ele>40.0</ele><time>2026-05-02T07:17:54.318Z</time></trkpt><trkpt lat="40.637081" lon="14.9081545"><ele>40.0</ele><time>2026-05-02T07:17:55.317Z</time></trkpt><trkpt lat="40.6369613" lon="14.9084787"><ele>39.0</ele><time>2026-05-02T07:17:56.317Z</time></trkpt><trkpt lat="40.6368442" lon="14.9088029"><ele>38.0</ele><time>2026-05-02T07:17:57.317Z</time></trkpt><trkpt lat="40.636734" lon="14.9091308"><ele>37.0</ele><time>2026-05-02T07:17:58.317Z</time></trkpt><trkpt lat="40.6366213" lon="14.909462"><ele>36.0</ele><time>2026-05-02T07:17:59.317Z</time></trkpt><trkpt lat="40.6365113" lon="14.9097939"><ele>36.5</ele><time>2026-05-02T07:18:00.317Z</time></trkpt><trkpt lat="40.6364003" lon="14.9101265"><ele>37.0</ele><time>2026-05-02T07:18:01.317Z</time></trkpt><trkpt lat="40.6362865" lon="14.9104586"><ele>37.0</ele><time>2026-05-02T07:18:02.317Z</time></trkpt><trkpt lat="40.6361744" lon="14.9107885"><ele>37.0</ele><time>2026-05-02T07:18:03.317Z</time></trkpt><trkpt lat="40.6360647" lon="14.9111183"><ele>38.0</ele><time>2026-05-02T07:18:04.317Z</time></trkpt><trkpt lat="40.6359532" lon="14.9114506"><ele>39.0</ele><time>2026-05-02T07:18:05.317Z</time></trkpt><trkpt lat="40.6358419" lon="14.9117813"><ele>39.0</ele><time>2026-05-02T07:18:06.317Z</time></trkpt><trkpt lat="40.6357309" lon="14.9121137"><ele>39.0</ele><time>2026-05-02T07:18:07.317Z</time></trkpt><trkpt lat="40.6356244" lon="14.9124421"><ele>38.5</ele><time>2026-05-02T07:18:08.317Z</time></trkpt><trkpt lat="40.6355166" lon="14.9127747"><ele>38.0</ele><time>2026-05-02T07:18:09.318Z</time></trkpt><trkpt lat="40.6354114" lon="14.9131062"><ele>39.0</ele><time>2026-05-02T07:18:10.318Z</time></trkpt><trkpt lat="40.6353024" lon="14.9134384"><ele>40.0</ele><time>2026-05-02T07:18:11.318Z</time></trkpt><trkpt lat="40.6351932" lon="14.913769"><ele>40.0</ele><time>2026-05-02T07:18:12.318Z</time></trkpt><trkpt lat="40.6350841" lon="14.9141013"><ele>40.0</ele><time>2026-05-02T07:18:13.317Z</time></trkpt><trkpt lat="40.6349718" lon="14.9144308"><ele>41.0</ele><time>2026-05-02T07:18:14.317Z</time></trkpt><trkpt lat="40.634862" lon="14.91476"><ele>42.0</ele><time>2026-05-02T07:18:15.317Z</time></trkpt><trkpt lat="40.6347488" lon="14.9150865"><ele>42.0</ele><time>2026-05-02T07:18:16.318Z</time></trkpt><trkpt lat="40.6346408" lon="14.915417"><ele>42.0</ele><time>2026-05-02T07:18:17.318Z</time></trkpt><trkpt lat="40.6345309" lon="14.9157447"><ele>42.0</ele><time>2026-05-02T07:18:18.318Z</time></trkpt><trkpt lat="40.6344215" lon="14.9160738"><ele>42.0</ele><time>2026-05-02T07:18:19.318Z</time></trkpt><trkpt lat="40.6343132" lon="14.9164049"><ele>42.0</ele><time>2026-05-02T07:18:20.318Z</time></trkpt><trkpt lat="40.6342035" lon="14.916736"><ele>42.0</ele><time>2026-05-02T07:18:21.317Z</time></trkpt><trkpt lat="40.6340937" lon="14.9170668"><ele>43.0</ele><time>2026-05-02T07:18:22.317Z</time></trkpt><trkpt lat="40.6339836" lon="14.9173974"><ele>44.0</ele><time>2026-05-02T07:18:23.317Z</time></trkpt><trkpt lat="40.6338732" lon="14.9177277"><ele>44.5</ele><time>2026-05-02T07:18:24.318Z</time></trkpt><trkpt lat="40.6337607" lon="14.918057"><ele>45.0</ele><time>2026-05-02T07:18:25.317Z</time></trkpt><trkpt lat="40.6336481" lon="14.9183875"><ele>46.5</ele><time>2026-05-02T07:18:26.318Z</time></trkpt><trkpt lat="40.6335359" lon="14.9187157"><ele>48.0</ele><time>2026-05-02T07:18:27.317Z</time></trkpt><trkpt lat="40.6334239" lon="14.9190451"><ele>47.5</ele><time>2026-05-02T07:18:28.317Z</time></trkpt><trkpt lat="40.6333089" lon="14.9193741"><ele>47.0</ele><time>2026-05-02T07:18:29.317Z</time></trkpt><trkpt lat="40.6331985" lon="14.9197026"><ele>47.0</ele><time>2026-05-02T07:18:30.317Z</time></trkpt><trkpt lat="40.6330862" lon="14.9200311"><ele>47.0</ele><time>2026-05-02T07:18:31.318Z</time></trkpt><trkpt lat="40.6329749" lon="14.9203676"><ele>47.5</ele><time>2026-05-02T07:18:32.318Z</time></trkpt><trkpt lat="40.6328648" lon="14.9207018"><ele>48.0</ele><time>2026-05-02T07:18:33.317Z</time></trkpt><trkpt lat="40.6327537" lon="14.9210329"><ele>48.0</ele><time>2026-05-02T07:18:34.317Z</time></trkpt><trkpt lat="40.6326434" lon="14.9213639"><ele>48.0</ele><time>2026-05-02T07:18:35.317Z</time></trkpt><trkpt lat="40.6325332" lon="14.9216957"><ele>49.0</ele><time>2026-05-02T07:18:36.317Z</time></trkpt><trkpt lat="40.6324243" lon="14.922028"><ele>50.0</ele><time>2026-05-02T07:18:37.317Z</time></trkpt><trkpt lat="40.6323153" lon="14.9223608"><ele>51.0</ele><time>2026-05-02T07:18:38.317Z</time></trkpt><trkpt lat="40.6322075" lon="14.9226929"><ele>52.0</ele><time>2026-05-02T07:18:39.317Z</time></trkpt><trkpt lat="40.632097" lon="14.9230225"><ele>52.0</ele><time>2026-05-02T07:18:40.317Z</time></trkpt><trkpt lat="40.6319879" lon="14.9233524"><ele>52.0</ele><time>2026-05-02T07:18:41.318Z</time></trkpt><trkpt lat="40.631878" lon="14.9236832"><ele>51.5</ele><time>2026-05-02T07:18:42.318Z</time></trkpt><trkpt lat="40.6317668" lon="14.9240131"><ele>51.0</ele><time>2026-05-02T07:18:43.318Z</time></trkpt><trkpt lat="40.6316566" lon="14.9243427"><ele>51.0</ele><time>2026-05-02T07:18:44.318Z</time></trkpt><trkpt lat="40.6315454" lon="14.924673"><ele>51.0</ele><time>2026-05-02T07:18:45.318Z</time></trkpt><trkpt lat="40.6314349" lon="14.925003"><ele>52.0</ele><time>2026-05-02T07:18:46.318Z</time></trkpt><trkpt lat="40.6313253" lon="14.9253354"><ele>53.0</ele><time>2026-05-02T07:18:47.318Z</time></trkpt><trkpt lat="40.6312159" lon="14.9256654"><ele>53.0</ele><time>2026-05-02T07:18:48.318Z</time></trkpt><trkpt lat="40.6311058" lon="14.9259988"><ele>53.0</ele><time>2026-05-02T07:18:49.317Z</time></trkpt><trkpt lat="40.630996" lon="14.9263307"><ele>53.0</ele><time>2026-05-02T07:18:50.318Z</time></trkpt><trkpt lat="40.6308852" lon="14.9266627"><ele>53.0</ele><time>2026-05-02T07:18:51.317Z</time></trkpt><trkpt lat="40.6307755" lon="14.9269953"><ele>54.0</ele><time>2026-05-02T07:18:52.318Z</time></trkpt><trkpt lat="40.6306632" lon="14.9273259"><ele>55.0</ele><time>2026-05-02T07:18:53.318Z</time></trkpt><trkpt lat="40.6305537" lon="14.9276562"><ele>55.5</ele><time>2026-05-02T07:18:54.318Z</time></trkpt><trkpt lat="40.6304437" lon="14.9279869"><ele>56.0</ele><time>2026-05-02T07:18:55.317Z</time></trkpt><trkpt lat="40.63033" lon="14.9283163"><ele>56.5</ele><time>2026-05-02T07:18:56.317Z</time></trkpt><trkpt lat="40.6302155" lon="14.9286454"><ele>57.0</ele><time>2026-05-02T07:18:57.317Z</time></trkpt><trkpt lat="40.6301036" lon="14.9289745"><ele>58.0</ele><time>2026-05-02T07:18:58.318Z</time></trkpt><trkpt lat="40.6299931" lon="14.9293029"><ele>59.0</ele><time>2026-05-02T07:18:59.318Z</time></trkpt><trkpt lat="40.6298836" lon="14.9296343"><ele>59.0</ele><time>2026-05-02T07:19:00.317Z</time></trkpt><trkpt lat="40.6297738" lon="14.9299648"><ele>59.0</ele><time>2026-05-02T07:19:01.317Z</time></trkpt><trkpt lat="40.6296647" lon="14.9302961"><ele>59.0</ele><time>2026-05-02T07:19:02.317Z</time></trkpt><trkpt lat="40.629557" lon="14.9306292"><ele>59.0</ele><time>2026-05-02T07:19:03.317Z</time></trkpt><trkpt lat="40.629453" lon="14.9309606"><ele>59.0</ele><time>2026-05-02T07:19:04.317Z</time></trkpt><trkpt lat="40.6293498" lon="14.931297"><ele>59.0</ele><time>2026-05-02T07:19:05.317Z</time></trkpt><trkpt lat="40.6292536" lon="14.9316367"><ele>59.0</ele><time>2026-05-02T07:19:06.317Z</time></trkpt><trkpt lat="40.6291599" lon="14.9319768"><ele>59.0</ele><time>2026-05-02T07:19:07.317Z</time></trkpt><trkpt lat="40.6290686" lon="14.9323197"><ele>58.5</ele><time>2026-05-02T07:19:08.317Z</time></trkpt><trkpt lat="40.6289818" lon="14.9326611"><ele>58.0</ele><time>2026-05-02T07:19:09.317Z</time></trkpt><trkpt lat="40.6288987" lon="14.9330033"><ele>58.0</ele><time>2026-05-02T07:19:10.317Z</time></trkpt><trkpt lat="40.6288208" lon="14.9333494"><ele>58.0</ele><time>2026-05-02T07:19:11.317Z</time></trkpt><trkpt lat="40.6287471" lon="14.9336955"><ele>58.0</ele><time>2026-05-02T07:19:12.317Z</time></trkpt><trkpt lat="40.6286801" lon="14.9340451"><ele>58.0</ele><time>2026-05-02T07:19:13.317Z</time></trkpt><trkpt lat="40.6286209" lon="14.9343965"><ele>58.0</ele><time>2026-05-02T07:19:14.318Z</time></trkpt><trkpt lat="40.6285655" lon="14.9347511"><ele>58.0</ele><time>2026-05-02T07:19:15.318Z</time></trkpt><trkpt lat="40.6285172" lon="14.9351062"><ele>58.0</ele><time>2026-05-02T07:19:16.318Z</time></trkpt><trkpt lat="40.6284753" lon="14.9354598"><ele>58.0</ele><time>2026-05-02T07:19:17.318Z</time></trkpt><trkpt lat="40.6284357" lon="14.9358151"><ele>59.0</ele><time>2026-05-02T07:19:18.318Z</time></trkpt><trkpt lat="40.6284001" lon="14.9361751"><ele>60.0</ele><time>2026-05-02T07:19:19.317Z</time></trkpt><trkpt lat="40.6283695" lon="14.9365322"><ele>60.0</ele><time>2026-05-02T07:19:20.317Z</time></trkpt><trkpt lat="40.628345" lon="14.9368908"><ele>60.0</ele><time>2026-05-02T07:19:21.318Z</time></trkpt><trkpt lat="40.6283201" lon="14.9372509"><ele>61.5</ele><time>2026-05-02T07:19:22.317Z</time></trkpt><trkpt lat="40.6282985" lon="14.9376115"><ele>63.0</ele><time>2026-05-02T07:19:23.318Z</time></trkpt><trkpt lat="40.6282804" lon="14.9379729"><ele>63.0</ele><time>2026-05-02T07:19:24.318Z</time></trkpt><trkpt lat="40.6282598" lon="14.9383335"><ele>63.0</ele><time>2026-05-02T07:19:25.318Z</time></trkpt><trkpt lat="40.6282433" lon="14.9386925"><ele>63.5</ele><time>2026-05-02T07:19:26.318Z</time></trkpt><trkpt lat="40.6282249" lon="14.939056"><ele>64.0</ele><time>2026-05-02T07:19:27.318Z</time></trkpt><trkpt lat="40.6282062" lon="14.9394152"><ele>64.0</ele><time>2026-05-02T07:19:28.317Z</time></trkpt><trkpt lat="40.628187" lon="14.9397753"><ele>64.0</ele><time>2026-05-02T07:19:29.317Z</time></trkpt><trkpt lat="40.6281638" lon="14.9401343"><ele>64.0</ele><time>2026-05-02T07:19:30.317Z</time></trkpt><trkpt lat="40.628137" lon="14.940494"><ele>64.0</ele><time>2026-05-02T07:19:31.317Z</time></trkpt><trkpt lat="40.6281087" lon="14.9408538"><ele>64.5</ele><time>2026-05-02T07:19:32.317Z</time></trkpt><trkpt lat="40.6280773" lon="14.9412124"><ele>65.0</ele><time>2026-05-02T07:19:33.317Z</time></trkpt><trkpt lat="40.6280436" lon="14.9415701"><ele>65.0</ele><time>2026-05-02T07:19:34.317Z</time></trkpt><trkpt lat="40.6280053" lon="14.941928"><ele>65.0</ele><time>2026-05-02T07:19:35.317Z</time></trkpt><trkpt lat="40.6279627" lon="14.9422847"><ele>65.0</ele><time>2026-05-02T07:19:36.317Z</time></trkpt><trkpt lat="40.627909" lon="14.9426392"><ele>65.0</ele><time>2026-05-02T07:19:37.318Z</time></trkpt><trkpt lat="40.6278512" lon="14.9429916"><ele>64.5</ele><time>2026-05-02T07:19:38.318Z</time></trkpt><trkpt lat="40.6277846" lon="14.9433405"><ele>64.0</ele><time>2026-05-02T07:19:39.317Z</time></trkpt><trkpt lat="40.6277127" lon="14.9436858"><ele>63.5</ele><time>2026-05-02T07:19:40.317Z</time></trkpt><trkpt lat="40.6276377" lon="14.9440336"><ele>63.0</ele><time>2026-05-02T07:19:41.317Z</time></trkpt><trkpt lat="40.6275572" lon="14.9443769"><ele>63.0</ele><time>2026-05-02T07:19:42.317Z</time></trkpt><trkpt lat="40.6274715" lon="14.9447217"><ele>63.0</ele><time>2026-05-02T07:19:43.317Z</time></trkpt><trkpt lat="40.6273794" lon="14.9450605"><ele>62.5</ele><time>2026-05-02T07:19:44.317Z</time></trkpt><trkpt lat="40.6272822" lon="14.9454015"><ele>62.0</ele><time>2026-05-02T07:19:45.317Z</time></trkpt><trkpt lat="40.6271812" lon="14.945738"><ele>62.0</ele><time>2026-05-02T07:19:46.316Z</time></trkpt><trkpt lat="40.6270726" lon="14.946069"><ele>62.0</ele><time>2026-05-02T07:19:47.317Z</time></trkpt><trkpt lat="40.6269603" lon="14.9463978"><ele>61.5</ele><time>2026-05-02T07:19:48.317Z</time></trkpt><trkpt lat="40.6268431" lon="14.9467248"><ele>61.0</ele><time>2026-05-02T07:19:49.318Z</time></trkpt><trkpt lat="40.6267184" lon="14.9470516"><ele>61.0</ele><time>2026-05-02T07:19:50.318Z</time></trkpt><trkpt lat="40.6265928" lon="14.9473741"><ele>61.0</ele><time>2026-05-02T07:19:51.318Z</time></trkpt><trkpt lat="40.6264658" lon="14.9476927"><ele>61.0</ele><time>2026-05-02T07:19:52.318Z</time></trkpt><trkpt lat="40.6263367" lon="14.9480135"><ele>61.0</ele><time>2026-05-02T07:19:53.317Z</time></trkpt><trkpt lat="40.6262093" lon="14.9483338"><ele>60.5</ele><time>2026-05-02T07:19:54.318Z</time></trkpt><trkpt lat="40.6260834" lon="14.9486555"><ele>60.0</ele><time>2026-05-02T07:19:55.317Z</time></trkpt><trkpt lat="40.6259572" lon="14.9489777"><ele>60.0</ele><time>2026-05-02T07:19:56.318Z</time></trkpt><trkpt lat="40.6258324" lon="14.9493028"><ele>60.0</ele><time>2026-05-02T07:19:57.317Z</time></trkpt><trkpt lat="40.6257066" lon="14.9496233"><ele>60.0</ele><time>2026-05-02T07:19:58.317Z</time></trkpt><trkpt lat="40.6255823" lon="14.9499459"><ele>60.0</ele><time>2026-05-02T07:19:59.317Z</time></trkpt><trkpt lat="40.6254578" lon="14.9502675"><ele>60.0</ele><time>2026-05-02T07:20:00.317Z</time></trkpt><trkpt lat="40.6253355" lon="14.9505917"><ele>60.0</ele><time>2026-05-02T07:20:01.318Z</time></trkpt><trkpt lat="40.6252124" lon="14.9509174"><ele>61.0</ele><time>2026-05-02T07:20:02.318Z</time></trkpt><trkpt lat="40.625088" lon="14.9512432"><ele>62.0</ele><time>2026-05-02T07:20:03.317Z</time></trkpt><trkpt lat="40.6249629" lon="14.9515655"><ele>64.0</ele><time>2026-05-02T07:20:04.317Z</time></trkpt><trkpt lat="40.6248367" lon="14.9518848"><ele>66.0</ele><time>2026-05-02T07:20:05.318Z</time></trkpt><trkpt lat="40.6247094" lon="14.9522017"><ele>66.0</ele><time>2026-05-02T07:20:06.317Z</time></trkpt><trkpt lat="40.6245798" lon="14.952518"><ele>66.0</ele><time>2026-05-02T07:20:07.318Z</time></trkpt><trkpt lat="40.6244503" lon="14.952835"><ele>66.0</ele><time>2026-05-02T07:20:08.318Z</time></trkpt><trkpt lat="40.6243212" lon="14.9531516"><ele>66.0</ele><time>2026-05-02T07:20:09.318Z</time></trkpt><trkpt lat="40.6241904" lon="14.9534696"><ele>66.0</ele><time>2026-05-02T07:20:10.318Z</time></trkpt><trkpt lat="40.624063" lon="14.9537916"><ele>66.0</ele><time>2026-05-02T07:20:11.318Z</time></trkpt><trkpt lat="40.6239372" lon="14.9541118"><ele>67.5</ele><time>2026-05-02T07:20:12.317Z</time></trkpt><trkpt lat="40.6238158" lon="14.9544374"><ele>69.0</ele><time>2026-05-02T07:20:13.317Z</time></trkpt><trkpt lat="40.6236952" lon="14.9547626"><ele>67.0</ele><time>2026-05-02T07:20:14.317Z</time></trkpt><trkpt lat="40.6235754" lon="14.955088"><ele>65.0</ele><time>2026-05-02T07:20:15.318Z</time></trkpt><trkpt lat="40.6234599" lon="14.9554182"><ele>65.0</ele><time>2026-05-02T07:20:16.318Z</time></trkpt><trkpt lat="40.6233461" lon="14.9557502"><ele>65.0</ele><time>2026-05-02T07:20:17.317Z</time></trkpt><trkpt lat="40.623232" lon="14.9560778"><ele>65.0</ele><time>2026-05-02T07:20:18.318Z</time></trkpt><trkpt lat="40.6231221" lon="14.9564075"><ele>65.0</ele><time>2026-05-02T07:20:19.318Z</time></trkpt><trkpt lat="40.6230159" lon="14.9567401"><ele>65.0</ele><time>2026-05-02T07:20:20.318Z</time></trkpt><trkpt lat="40.6229161" lon="14.9570766"><ele>65.0</ele><time>2026-05-02T07:20:21.318Z</time></trkpt><trkpt lat="40.6228169" lon="14.957412"><ele>63.5</ele><time>2026-05-02T07:20:22.318Z</time></trkpt><trkpt lat="40.6227158" lon="14.9577496"><ele>62.0</ele><time>2026-05-02T07:20:23.318Z</time></trkpt><trkpt lat="40.6226153" lon="14.9580878"><ele>61.5</ele><time>2026-05-02T07:20:24.318Z</time></trkpt><trkpt lat="40.6225163" lon="14.9584242"><ele>61.0</ele><time>2026-05-02T07:20:25.318Z</time></trkpt><trkpt lat="40.6224204" lon="14.9587612"><ele>61.0</ele><time>2026-05-02T07:20:26.317Z</time></trkpt><trkpt lat="40.6223311" lon="14.9590993"><ele>61.0</ele><time>2026-05-02T07:20:27.317Z</time></trkpt><trkpt lat="40.6222406" lon="14.9594397"><ele>61.0</ele><time>2026-05-02T07:20:28.318Z</time></trkpt><trkpt lat="40.6221504" lon="14.9597779"><ele>61.0</ele><time>2026-05-02T07:20:29.318Z</time></trkpt><trkpt lat="40.6220618" lon="14.9601174"><ele>59.5</ele><time>2026-05-02T07:20:30.317Z</time></trkpt><trkpt lat="40.621971" lon="14.9604557"><ele>58.0</ele><time>2026-05-02T07:20:31.317Z</time></trkpt><trkpt lat="40.6218788" lon="14.9607951"><ele>58.0</ele><time>2026-05-02T07:20:32.317Z</time></trkpt><trkpt lat="40.6217878" lon="14.9611353"><ele>58.0</ele><time>2026-05-02T07:20:33.317Z</time></trkpt><trkpt lat="40.6216959" lon="14.9614734"><ele>57.5</ele><time>2026-05-02T07:20:34.318Z</time></trkpt><trkpt lat="40.6216062" lon="14.9618159"><ele>57.0</ele><time>2026-05-02T07:20:35.317Z</time></trkpt><trkpt lat="40.6215184" lon="14.9621592"><ele>57.0</ele><time>2026-05-02T07:20:36.318Z</time></trkpt><trkpt lat="40.6214355" lon="14.9625033"><ele>57.0</ele><time>2026-05-02T07:20:37.317Z</time></trkpt><trkpt lat="40.6213582" lon="14.9628514"><ele>58.0</ele><time>2026-05-02T07:20:38.318Z</time></trkpt><trkpt lat="40.6212815" lon="14.9631979"><ele>59.0</ele><time>2026-05-02T07:20:39.317Z</time></trkpt><trkpt lat="40.6212005" lon="14.9635422"><ele>59.0</ele><time>2026-05-02T07:20:40.317Z</time></trkpt><trkpt lat="40.621121" lon="14.9638853"><ele>59.0</ele><time>2026-05-02T07:20:41.317Z</time></trkpt><trkpt lat="40.6210443" lon="14.9642294"><ele>59.0</ele><time>2026-05-02T07:20:42.317Z</time></trkpt><trkpt lat="40.6209761" lon="14.9645804"><ele>59.0</ele><time>2026-05-02T07:20:43.317Z</time></trkpt><trkpt lat="40.6209141" lon="14.9649319"><ele>60.0</ele><time>2026-05-02T07:20:44.317Z</time></trkpt><trkpt lat="40.620858" lon="14.965285"><ele>61.0</ele><time>2026-05-02T07:20:45.317Z</time></trkpt><trkpt lat="40.620804" lon="14.9656398"><ele>62.0</ele><time>2026-05-02T07:20:46.317Z</time></trkpt><trkpt lat="40.6207573" lon="14.9659955"><ele>63.0</ele><time>2026-05-02T07:20:47.317Z</time></trkpt><trkpt lat="40.6207182" lon="14.9663514"><ele>63.5</ele><time>2026-05-02T07:20:48.317Z</time></trkpt><trkpt lat="40.6206833" lon="14.9667099"><ele>64.0</ele><time>2026-05-02T07:20:49.318Z</time></trkpt><trkpt lat="40.6206531" lon="14.9670685"><ele>64.0</ele><time>2026-05-02T07:20:50.318Z</time></trkpt><trkpt lat="40.6206283" lon="14.9674156"><ele>64.0</ele><time>2026-05-02T07:20:51.317Z</time></trkpt><trkpt lat="40.6206076" lon="14.9677433"><ele>64.0</ele><time>2026-05-02T07:20:52.318Z</time></trkpt><trkpt lat="40.6205913" lon="14.968061"><ele>64.0</ele><time>2026-05-02T07:20:53.317Z</time></trkpt><trkpt lat="40.6205773" lon="14.9683685"><ele>64.0</ele><time>2026-05-02T07:20:54.317Z</time></trkpt><trkpt lat="40.6205672" lon="14.9686652"><ele>64.0</ele><time>2026-05-02T07:20:55.317Z</time></trkpt><trkpt lat="40.6205569" lon="14.9689513"><ele>64.0</ele><time>2026-05-02T07:20:56.317Z</time></trkpt><trkpt lat="40.6205465" lon="14.9692256"><ele>65.0</ele><time>2026-05-02T07:20:57.317Z</time></trkpt><trkpt lat="40.6205339" lon="14.9694907"><ele>66.0</ele><time>2026-05-02T07:20:58.318Z</time></trkpt><trkpt lat="40.620521" lon="14.9697446"><ele>67.0</ele><time>2026-05-02T07:20:59.317Z</time></trkpt><trkpt lat="40.6205082" lon="14.969989"><ele>67.33333333333333</ele><time>2026-05-02T07:21:00.318Z</time></trkpt><trkpt lat="40.6204947" lon="14.9702248"><ele>67.66666666666667</ele><time>2026-05-02T07:21:01.317Z</time></trkpt><trkpt lat="40.6204832" lon="14.9704557"><ele>68.0</ele><time>2026-05-02T07:21:02.318Z</time></trkpt><trkpt lat="40.6204746" lon="14.9706796"><ele>66.66666666666667</ele><time>2026-05-02T07:21:03.317Z</time></trkpt><trkpt lat="40.620466" lon="14.970892"><ele>65.33333333333333</ele><time>2026-05-02T07:21:04.317Z</time></trkpt><trkpt lat="40.6204587" lon="14.9710936"><ele>64.0</ele><time>2026-05-02T07:21:05.317Z</time></trkpt><trkpt lat="40.6204501" lon="14.9712848"><ele>64.0</ele><time>2026-05-02T07:21:06.318Z</time></trkpt><trkpt lat="40.6204378" lon="14.9714621"><ele>64.0</ele><time>2026-05-02T07:21:07.318Z</time></trkpt><trkpt lat="40.6204212" lon="14.9716292"><ele>64.0</ele><time>2026-05-02T07:21:08.317Z</time></trkpt><trkpt lat="40.6203972" lon="14.97179"><ele>64.0</ele><time>2026-05-02T07:21:09.318Z</time></trkpt><trkpt lat="40.6203648" lon="14.9719441"><ele>64.25</ele><time>2026-05-02T07:21:10.317Z</time></trkpt><trkpt lat="40.6203209" lon="14.9720914"><ele>64.5</ele><time>2026-05-02T07:21:11.318Z</time></trkpt><trkpt lat="40.6202662" lon="14.9722324"><ele>64.75</ele><time>2026-05-02T07:21:12.318Z</time></trkpt><trkpt lat="40.6201956" lon="14.972358"><ele>65.0</ele><time>2026-05-02T07:21:13.318Z</time></trkpt><trkpt lat="40.6201112" lon="14.9724678"><ele>66.25</ele><time>2026-05-02T07:21:14.318Z</time></trkpt><trkpt lat="40.620012" lon="14.9725569"><ele>67.5</ele><time>2026-05-02T07:21:15.318Z</time></trkpt><trkpt lat="40.6199022" lon="14.9726286"><ele>68.75</ele><time>2026-05-02T07:21:16.318Z</time></trkpt><trkpt lat="40.619788" lon="14.9726874"><ele>70.0</ele><time>2026-05-02T07:21:17.317Z</time></trkpt><trkpt lat="40.6196676" lon="14.9727252"><ele>70.0</ele><time>2026-05-02T07:21:18.317Z</time></trkpt><trkpt lat="40.619541" lon="14.9727404"><ele>70.0</ele><time>2026-05-02T07:21:19.318Z</time></trkpt><trkpt lat="40.6194099" lon="14.9727306"><ele>70.0</ele><time>2026-05-02T07:21:20.317Z</time></trkpt><trkpt lat="40.6192786" lon="14.9727036"><ele>70.0</ele><time>2026-05-02T07:21:21.317Z</time></trkpt><trkpt lat="40.6191467" lon="14.9726581"><ele>69.5</ele><time>2026-05-02T07:21:22.317Z</time></trkpt><trkpt lat="40.6190106" lon="14.972606"><ele>69.0</ele><time>2026-05-02T07:21:23.318Z</time></trkpt><trkpt lat="40.6188714" lon="14.9725423"><ele>68.5</ele><time>2026-05-02T07:21:24.318Z</time></trkpt><trkpt lat="40.6187302" lon="14.9724734"><ele>68.0</ele><time>2026-05-02T07:21:25.317Z</time></trkpt><trkpt lat="40.6185881" lon="14.9723992"><ele>67.0</ele><time>2026-05-02T07:21:26.317Z</time></trkpt><trkpt lat="40.6184454" lon="14.9723219"><ele>66.0</ele><time>2026-05-02T07:21:27.318Z</time></trkpt><trkpt lat="40.6183036" lon="14.9722502"><ele>65.0</ele><time>2026-05-02T07:21:28.317Z</time></trkpt><trkpt lat="40.6181621" lon="14.9721714"><ele>65.0</ele><time>2026-05-02T07:21:29.317Z</time></trkpt><trkpt lat="40.6180199" lon="14.9720942"><ele>65.0</ele><time>2026-05-02T07:21:30.317Z</time></trkpt><trkpt lat="40.6178768" lon="14.9720207"><ele>65.0</ele><time>2026-05-02T07:21:31.318Z</time></trkpt><trkpt lat="40.617731" lon="14.9719446"><ele>64.33333333333334</ele><time>2026-05-02T07:21:32.318Z</time></trkpt><trkpt lat="40.6175849" lon="14.9718616"><ele>63.66666666666667</ele><time>2026-05-02T07:21:33.318Z</time></trkpt><trkpt lat="40.6174336" lon="14.9717758"><ele>63.0</ele><time>2026-05-02T07:21:34.318Z</time></trkpt><trkpt lat="40.6172818" lon="14.9716898"><ele>62.66666666666667</ele><time>2026-05-02T07:21:35.317Z</time></trkpt><trkpt lat="40.6171258" lon="14.9716056"><ele>62.333333333333336</ele><time>2026-05-02T07:21:36.318Z</time></trkpt><trkpt lat="40.6169685" lon="14.9715207"><ele>62.0</ele><time>2026-05-02T07:21:37.318Z</time></trkpt><trkpt lat="40.6168144" lon="14.9714332"><ele>62.0</ele><time>2026-05-02T07:21:38.317Z</time></trkpt><trkpt lat="40.6166634" lon="14.9713439"><ele>62.0</ele><time>2026-05-02T07:21:39.318Z</time></trkpt><trkpt lat="40.6165168" lon="14.9712607"><ele>62.0</ele><time>2026-05-02T07:21:40.318Z</time></trkpt><trkpt lat="40.6163752" lon="14.9711836"><ele>62.0</ele><time>2026-05-02T07:21:41.318Z</time></trkpt><trkpt lat="40.6162313" lon="14.9711135"><ele>62.0</ele><time>2026-05-02T07:21:42.317Z</time></trkpt><trkpt lat="40.6160782" lon="14.9710523"><ele>62.0</ele><time>2026-05-02T07:21:43.318Z</time></trkpt><trkpt lat="40.6159189" lon="14.9709965"><ele>62.66666666666667</ele><time>2026-05-02T07:21:44.317Z</time></trkpt><trkpt lat="40.6157559" lon="14.9709518"><ele>63.33333333333333</ele><time>2026-05-02T07:21:45.317Z</time></trkpt><trkpt lat="40.615589" lon="14.9709192"><ele>64.0</ele><time>2026-05-02T07:21:46.318Z</time></trkpt><trkpt lat="40.6154215" lon="14.9708941"><ele>64.0</ele><time>2026-05-02T07:21:47.317Z</time></trkpt><trkpt lat="40.615254" lon="14.9708889"><ele>64.0</ele><time>2026-05-02T07:21:48.318Z</time></trkpt><trkpt lat="40.6150885" lon="14.9709009"><ele>64.0</ele><time>2026-05-02T07:21:49.317Z</time></trkpt><trkpt lat="40.6149266" lon="14.9709351"><ele>64.0</ele><time>2026-05-02T07:21:50.318Z</time></trkpt><trkpt lat="40.6147644" lon="14.9709817"><ele>64.0</ele><time>2026-05-02T07:21:51.317Z</time></trkpt><trkpt lat="40.6146072" lon="14.971042"><ele>64.0</ele><time>2026-05-02T07:21:52.318Z</time></trkpt><trkpt lat="40.6144546" lon="14.9711173"><ele>63.666666666666664</ele><time>2026-05-02T07:21:53.318Z</time></trkpt><trkpt lat="40.6143112" lon="14.9712061"><ele>63.33333333333333</ele><time>2026-05-02T07:21:54.317Z</time></trkpt><trkpt lat="40.6141729" lon="14.9713042"><ele>63.0</ele><time>2026-05-02T07:21:55.317Z</time></trkpt><trkpt lat="40.6140422" lon="14.9714149"><ele>63.0</ele><time>2026-05-02T07:21:56.317Z</time></trkpt><trkpt lat="40.6139137" lon="14.9715339"><ele>63.0</ele><time>2026-05-02T07:21:57.317Z</time></trkpt><trkpt lat="40.6137886" lon="14.9716546"><ele>63.0</ele><time>2026-05-02T07:21:58.317Z</time></trkpt><trkpt lat="40.6136614" lon="14.9717741"><ele>63.0</ele><time>2026-05-02T07:21:59.317Z</time></trkpt><trkpt lat="40.6135346" lon="14.971894"><ele>63.0</ele><time>2026-05-02T07:22:00.317Z</time></trkpt><trkpt lat="40.6134096" lon="14.9720163"><ele>63.0</ele><time>2026-05-02T07:22:01.317Z</time></trkpt><trkpt lat="40.6132884" lon="14.9721251"><ele>63.0</ele><time>2026-05-02T07:22:02.318Z</time></trkpt><trkpt lat="40.613169" lon="14.9722245"><ele>63.0</ele><time>2026-05-02T07:22:03.318Z</time></trkpt><trkpt lat="40.6130506" lon="14.9723162"><ele>63.0</ele><time>2026-05-02T07:22:04.316Z</time></trkpt><trkpt lat="40.6129299" lon="14.9724009"><ele>63.0</ele><time>2026-05-02T07:22:05.317Z</time></trkpt><trkpt lat="40.6128064" lon="14.9724745"><ele>63.0</ele><time>2026-05-02T07:22:06.317Z</time></trkpt><trkpt lat="40.6126793" lon="14.9725389"><ele>63.0</ele><time>2026-05-02T07:22:07.317Z</time></trkpt><trkpt lat="40.6125423" lon="14.9725909"><ele>63.0</ele><time>2026-05-02T07:22:08.317Z</time></trkpt><trkpt lat="40.6124031" lon="14.9726297"><ele>63.0</ele><time>2026-05-02T07:22:09.317Z</time></trkpt><trkpt lat="40.6122648" lon="14.9726602"><ele>63.0</ele><time>2026-05-02T07:22:10.317Z</time></trkpt><trkpt lat="40.6121288" lon="14.9726811"><ele>63.0</ele><time>2026-05-02T07:22:11.318Z</time></trkpt><trkpt lat="40.6119954" lon="14.972699"><ele>63.0</ele><time>2026-05-02T07:22:12.318Z</time></trkpt><trkpt lat="40.611864" lon="14.972714"><ele>63.0</ele><time>2026-05-02T07:22:13.318Z</time></trkpt><trkpt lat="40.6117325" lon="14.9727253"><ele>63.0</ele><time>2026-05-02T07:22:14.317Z</time></trkpt><trkpt lat="40.6116003" lon="14.9727375"><ele>63.0</ele><time>2026-05-02T07:22:15.317Z</time></trkpt><trkpt lat="40.6114706" lon="14.9727481"><ele>63.0</ele><time>2026-05-02T07:22:16.318Z</time></trkpt><trkpt lat="40.6113387" lon="14.9727581"><ele>63.0</ele><time>2026-05-02T07:22:17.317Z</time></trkpt><trkpt lat="40.6112086" lon="14.9727701"><ele>62.5</ele><time>2026-05-02T07:22:18.317Z</time></trkpt><trkpt lat="40.6110784" lon="14.9727801"><ele>62.0</ele><time>2026-05-02T07:22:19.317Z</time></trkpt><trkpt lat="40.6109512" lon="14.9727928"><ele>61.5</ele><time>2026-05-02T07:22:20.317Z</time></trkpt><trkpt lat="40.6108253" lon="14.9728042"><ele>61.0</ele><time>2026-05-02T07:22:21.317Z</time></trkpt><trkpt lat="40.6107" lon="14.9728129"><ele>61.0</ele><time>2026-05-02T07:22:22.317Z</time></trkpt><trkpt lat="40.6105769" lon="14.9728229"><ele>61.0</ele><time>2026-05-02T07:22:23.318Z</time></trkpt><trkpt lat="40.610458" lon="14.9728315"><ele>61.0</ele><time>2026-05-02T07:22:24.318Z</time></trkpt><trkpt lat="40.6103414" lon="14.9728397"><ele>61.0</ele><time>2026-05-02T07:22:25.317Z</time></trkpt><trkpt lat="40.6102383" lon="14.972849"><ele>61.599999999999994</ele><time>2026-05-02T07:22:26.317Z</time></trkpt><trkpt lat="40.6101417" lon="14.9728591"><ele>62.199999999999996</ele><time>2026-05-02T07:22:27.318Z</time></trkpt><trkpt lat="40.6100538" lon="14.9728689"><ele>62.800000000000004</ele><time>2026-05-02T07:22:28.318Z</time></trkpt><trkpt lat="40.6099683" lon="14.972876"><ele>63.400000000000006</ele><time>2026-05-02T07:22:29.318Z</time></trkpt><trkpt lat="40.6098783" lon="14.9728842"><ele>64.0</ele><time>2026-05-02T07:22:30.318Z</time></trkpt><trkpt lat="40.6097855" lon="14.972893"><ele>64.0</ele><time>2026-05-02T07:22:31.318Z</time></trkpt><trkpt lat="40.6096919" lon="14.9729014"><ele>64.0</ele><time>2026-05-02T07:22:32.318Z</time></trkpt><trkpt lat="40.6095998" lon="14.9729094"><ele>64.0</ele><time>2026-05-02T07:22:33.317Z</time></trkpt><trkpt lat="40.6095077" lon="14.9729202"><ele>64.0</ele><time>2026-05-02T07:22:34.318Z</time></trkpt><trkpt lat="40.609418" lon="14.9729296"><ele>64.0</ele><time>2026-05-02T07:22:35.318Z</time></trkpt><trkpt lat="40.609328" lon="14.9729403"><ele>64.2</ele><time>2026-05-02T07:22:36.318Z</time></trkpt><trkpt lat="40.6092374" lon="14.9729475"><ele>64.4</ele><time>2026-05-02T07:22:37.318Z</time></trkpt><trkpt lat="40.6091439" lon="14.9729577"><ele>64.6</ele><time>2026-05-02T07:22:38.318Z</time></trkpt><trkpt lat="40.6090478" lon="14.9729653"><ele>64.8</ele><time>2026-05-02T07:22:39.317Z</time></trkpt><trkpt lat="40.6089548" lon="14.9729771"><ele>65.0</ele><time>2026-05-02T07:22:40.318Z</time></trkpt><trkpt lat="40.608862" lon="14.9729893"><ele>65.0</ele><time>2026-05-02T07:22:41.318Z</time></trkpt><trkpt lat="40.6087676" lon="14.9729999"><ele>65.0</ele><time>2026-05-02T07:22:42.317Z</time></trkpt><trkpt lat="40.6086758" lon="14.9730085"><ele>65.0</ele><time>2026-05-02T07:22:43.318Z</time></trkpt><trkpt lat="40.6085811" lon="14.9730184"><ele>65.0</ele><time>2026-05-02T07:22:44.318Z</time></trkpt><trkpt lat="40.6084798" lon="14.9730306"><ele>65.0</ele><time>2026-05-02T07:22:45.317Z</time></trkpt><trkpt lat="40.6083753" lon="14.9730436"><ele>65.0</ele><time>2026-05-02T07:22:46.317Z</time></trkpt><trkpt lat="40.6082635" lon="14.9730547"><ele>65.0</ele><time>2026-05-02T07:22:47.318Z</time></trkpt><trkpt lat="40.608146" lon="14.9730646"><ele>65.0</ele><time>2026-05-02T07:22:48.317Z</time></trkpt><trkpt lat="40.6080316" lon="14.9730723"><ele>65.0</ele><time>2026-05-02T07:22:49.317Z</time></trkpt><trkpt lat="40.6079184" lon="14.9730873"><ele>65.8</ele><time>2026-05-02T07:22:50.317Z</time></trkpt><trkpt lat="40.6078042" lon="14.9730981"><ele>66.6</ele><time>2026-05-02T07:22:51.318Z</time></trkpt><trkpt lat="40.6076901" lon="14.9731081"><ele>67.4</ele><time>2026-05-02T07:22:52.318Z</time></trkpt><trkpt lat="40.6075807" lon="14.9731181"><ele>68.2</ele><time>2026-05-02T07:22:53.318Z</time></trkpt><trkpt lat="40.6074719" lon="14.9731284"><ele>69.0</ele><time>2026-05-02T07:22:54.318Z</time></trkpt><trkpt lat="40.6073627" lon="14.9731391"><ele>69.0</ele><time>2026-05-02T07:22:55.317Z</time></trkpt><trkpt lat="40.6072517" lon="14.9731508"><ele>69.0</ele><time>2026-05-02T07:22:56.317Z</time></trkpt><trkpt lat="40.6071357" lon="14.973163"><ele>69.0</ele><time>2026-05-02T07:22:57.317Z</time></trkpt><trkpt lat="40.6070151" lon="14.973173"><ele>69.0</ele><time>2026-05-02T07:22:58.317Z</time></trkpt><trkpt lat="40.6068969" lon="14.9731851"><ele>68.5</ele><time>2026-05-02T07:22:59.317Z</time></trkpt><trkpt lat="40.6067816" lon="14.9731957"><ele>68.0</ele><time>2026-05-02T07:23:00.318Z</time></trkpt><trkpt lat="40.6066689" lon="14.9732087"><ele>67.5</ele><time>2026-05-02T07:23:01.318Z</time></trkpt><trkpt lat="40.6065561" lon="14.9732187"><ele>67.0</ele><time>2026-05-02T07:23:02.318Z</time></trkpt><trkpt lat="40.6064438" lon="14.9732307"><ele>67.0</ele><time>2026-05-02T07:23:03.318Z</time></trkpt><trkpt lat="40.6063318" lon="14.9732418"><ele>67.0</ele><time>2026-05-02T07:23:04.318Z</time></trkpt><trkpt lat="40.6062175" lon="14.9732504"><ele>67.0</ele><time>2026-05-02T07:23:05.318Z</time></trkpt><trkpt lat="40.6061015" lon="14.9732568"><ele>67.0</ele><time>2026-05-02T07:23:06.317Z</time></trkpt><trkpt lat="40.6059849" lon="14.9732667"><ele>67.0</ele><time>2026-05-02T07:23:07.318Z</time></trkpt><trkpt lat="40.6058703" lon="14.9732808"><ele>67.0</ele><time>2026-05-02T07:23:08.318Z</time></trkpt><trkpt lat="40.6057579" lon="14.9732943"><ele>67.0</ele><time>2026-05-02T07:23:09.317Z</time></trkpt><trkpt lat="40.6056459" lon="14.9733056"><ele>67.0</ele><time>2026-05-02T07:23:10.317Z</time></trkpt><trkpt lat="40.605538" lon="14.9733158"><ele>67.0</ele><time>2026-05-02T07:23:11.317Z</time></trkpt><trkpt lat="40.6054311" lon="14.973324"><ele>66.6</ele><time>2026-05-02T07:23:12.317Z</time></trkpt><trkpt lat="40.6053212" lon="14.9733305"><ele>66.2</ele><time>2026-05-02T07:23:13.317Z</time></trkpt><trkpt lat="40.605211" lon="14.9733396"><ele>65.8</ele><time>2026-05-02T07:23:14.317Z</time></trkpt><trkpt lat="40.6050975" lon="14.9733502"><ele>65.4</ele><time>2026-05-02T07:23:15.318Z</time></trkpt><trkpt lat="40.6049826" lon="14.973359"><ele>65.0</ele><time>2026-05-02T07:23:16.316Z</time></trkpt><trkpt lat="40.6048685" lon="14.9733698"><ele>64.4</ele><time>2026-05-02T07:23:17.317Z</time></trkpt><trkpt lat="40.6047578" lon="14.9733779"><ele>63.8</ele><time>2026-05-02T07:23:18.318Z</time></trkpt><trkpt lat="40.6046491" lon="14.9733895"><ele>63.2</ele><time>2026-05-02T07:23:19.318Z</time></trkpt><trkpt lat="40.6045384" lon="14.9734005"><ele>62.6</ele><time>2026-05-02T07:23:20.317Z</time></trkpt><trkpt lat="40.6044293" lon="14.9734112"><ele>62.0</ele><time>2026-05-02T07:23:21.317Z</time></trkpt><trkpt lat="40.6043212" lon="14.9734235"><ele>62.0</ele><time>2026-05-02T07:23:22.317Z</time></trkpt><trkpt lat="40.6042146" lon="14.9734411"><ele>62.0</ele><time>2026-05-02T07:23:23.317Z</time></trkpt><trkpt lat="40.6041096" lon="14.9734604"><ele>62.0</ele><time>2026-05-02T07:23:24.317Z</time></trkpt><trkpt lat="40.6040053" lon="14.9734844"><ele>62.0</ele><time>2026-05-02T07:23:25.318Z</time></trkpt><trkpt lat="40.6039004" lon="14.9735155"><ele>62.0</ele><time>2026-05-02T07:23:26.317Z</time></trkpt><trkpt lat="40.6037952" lon="14.9735518"><ele>62.0</ele><time>2026-05-02T07:23:27.317Z</time></trkpt><trkpt lat="40.6036936" lon="14.973593"><ele>62.0</ele><time>2026-05-02T07:23:28.317Z</time></trkpt><trkpt lat="40.6036002" lon="14.9736421"><ele>62.0</ele><time>2026-05-02T07:23:29.317Z</time></trkpt><trkpt lat="40.6035136" lon="14.973689"><ele>62.0</ele><time>2026-05-02T07:23:30.317Z</time></trkpt><trkpt lat="40.6034325" lon="14.9737318"><ele>62.0</ele><time>2026-05-02T07:23:31.318Z</time></trkpt><trkpt lat="40.6033611" lon="14.9737783"><ele>62.16666666666667</ele><time>2026-05-02T07:23:32.318Z</time></trkpt><trkpt lat="40.6032983" lon="14.9738219"><ele>62.333333333333336</ele><time>2026-05-02T07:23:33.318Z</time></trkpt><trkpt lat="40.6031923" lon="14.9738932"><ele>62.5</ele><time>2026-05-02T07:23:35.317Z</time></trkpt><trkpt lat="40.6031169" lon="14.9739474"><ele>62.66666666666667</ele><time>2026-05-02T07:23:37.318Z</time></trkpt><trkpt lat="40.6030359" lon="14.9740179"><ele>62.833333333333336</ele><time>2026-05-02T07:23:40.318Z</time></trkpt><trkpt lat="40.6029739" lon="14.9740728"><ele>63.0</ele><time>2026-05-02T07:23:42.318Z</time></trkpt><trkpt lat="40.6029037" lon="14.9741356"><ele>63.0</ele><time>2026-05-02T07:23:44.318Z</time></trkpt><trkpt lat="40.6028351" lon="14.9742058"><ele>63.0</ele><time>2026-05-02T07:23:46.317Z</time></trkpt><trkpt lat="40.6027598" lon="14.9742818"><ele>63.0</ele><time>2026-05-02T07:23:48.318Z</time></trkpt><trkpt lat="40.6026666" lon="14.9743652"><ele>63.0</ele><time>2026-05-02T07:23:50.319Z</time></trkpt><trkpt lat="40.6025735" lon="14.9744613"><ele>63.0</ele><time>2026-05-02T07:23:52.319Z</time></trkpt><trkpt lat="40.6024787" lon="14.9745537"><ele>63.333333333333336</ele><time>2026-05-02T07:23:54.319Z</time></trkpt><trkpt lat="40.6023932" lon="14.9746364"><ele>63.66666666666667</ele><time>2026-05-02T07:23:56.318Z</time></trkpt><trkpt lat="40.6023179" lon="14.9747108"><ele>64.0</ele><time>2026-05-02T07:23:58.319Z</time></trkpt><trkpt lat="40.6022416" lon="14.9747608"><ele>64.33333333333334</ele><time>2026-05-02T07:24:00.318Z</time></trkpt><trkpt lat="40.6021806" lon="14.9748133"><ele>64.66666666666667</ele><time>2026-05-02T07:24:03.319Z</time></trkpt><trkpt lat="40.6022143" lon="14.9748892"><ele>65.0</ele><time>2026-05-02T07:25:10.319Z</time></trkpt><trkpt lat="40.6022864" lon="14.9748305"><ele>65.0</ele><time>2026-05-02T07:25:12.319Z</time></trkpt><trkpt lat="40.6023935" lon="14.9747265"><ele>65.0</ele><time>2026-05-02T07:25:14.319Z</time></trkpt><trkpt lat="40.6024575" lon="14.9746589"><ele>65.0</ele><time>2026-05-02T07:25:15.318Z</time></trkpt><trkpt lat="40.6025301" lon="14.9745842"><ele>65.0</ele><time>2026-05-02T07:25:16.319Z</time></trkpt><trkpt lat="40.602611" lon="14.9745041"><ele>65.0</ele><time>2026-05-02T07:25:17.319Z</time></trkpt><trkpt lat="40.6026997" lon="14.9744198"><ele>65.0</ele><time>2026-05-02T07:25:18.319Z</time></trkpt><trkpt lat="40.6027907" lon="14.9743293"><ele>65.0</ele><time>2026-05-02T07:25:19.319Z</time></trkpt><trkpt lat="40.6028847" lon="14.9742327"><ele>65.0</ele><time>2026-05-02T07:25:20.319Z</time></trkpt><trkpt lat="40.6029847" lon="14.9741345"><ele>65.0</ele><time>2026-05-02T07:25:21.318Z</time></trkpt><trkpt lat="40.6030896" lon="14.9740389"><ele>64.5</ele><time>2026-05-02T07:25:22.319Z</time></trkpt><trkpt lat="40.6032009" lon="14.9739505"><ele>64.0</ele><time>2026-05-02T07:25:23.318Z</time></trkpt><trkpt lat="40.6033206" lon="14.9738657"><ele>63.5</ele><time>2026-05-02T07:25:24.318Z</time></trkpt><trkpt lat="40.6034449" lon="14.9737852"><ele>63.0</ele><time>2026-05-02T07:25:25.319Z</time></trkpt><trkpt lat="40.6035745" lon="14.973712"><ele>62.75</ele><time>2026-05-02T07:25:26.318Z</time></trkpt><trkpt lat="40.6037092" lon="14.9736496"><ele>62.5</ele><time>2026-05-02T07:25:27.319Z</time></trkpt><trkpt lat="40.6038461" lon="14.9735964"><ele>62.25</ele><time>2026-05-02T07:25:28.319Z</time></trkpt><trkpt lat="40.6039774" lon="14.9735509"><ele>62.0</ele><time>2026-05-02T07:25:29.319Z</time></trkpt><trkpt lat="40.6041066" lon="14.973515"><ele>62.0</ele><time>2026-05-02T07:25:30.318Z</time></trkpt><trkpt lat="40.6042353" lon="14.9734916"><ele>62.0</ele><time>2026-05-02T07:25:31.318Z</time></trkpt><trkpt lat="40.6043673" lon="14.9734751"><ele>62.0</ele><time>2026-05-02T07:25:32.319Z</time></trkpt><trkpt lat="40.604501" lon="14.9734639"><ele>62.0</ele><time>2026-05-02T07:25:33.318Z</time></trkpt><trkpt lat="40.6046354" lon="14.9734492"><ele>63.75</ele><time>2026-05-02T07:25:34.319Z</time></trkpt><trkpt lat="40.6047727" lon="14.9734369"><ele>65.5</ele><time>2026-05-02T07:25:35.319Z</time></trkpt><trkpt lat="40.6049135" lon="14.9734245"><ele>67.25</ele><time>2026-05-02T07:25:36.319Z</time></trkpt><trkpt lat="40.6050524" lon="14.9734155"><ele>69.0</ele><time>2026-05-02T07:25:37.318Z</time></trkpt><trkpt lat="40.6051915" lon="14.9734057"><ele>69.0</ele><time>2026-05-02T07:25:38.319Z</time></trkpt><trkpt lat="40.6053279" lon="14.9733957"><ele>69.0</ele><time>2026-05-02T07:25:39.319Z</time></trkpt><trkpt lat="40.6054569" lon="14.9733867"><ele>69.0</ele><time>2026-05-02T07:25:40.318Z</time></trkpt><trkpt lat="40.6055827" lon="14.9733769"><ele>69.0</ele><time>2026-05-02T07:25:41.319Z</time></trkpt><trkpt lat="40.6057018" lon="14.9733676"><ele>68.8</ele><time>2026-05-02T07:25:42.319Z</time></trkpt><trkpt lat="40.6058122" lon="14.9733656"><ele>68.60000000000001</ele><time>2026-05-02T07:25:43.319Z</time></trkpt><trkpt lat="40.6059123" lon="14.9733802"><ele>68.4</ele><time>2026-05-02T07:25:44.318Z</time></trkpt><trkpt lat="40.6059972" lon="14.9734151"><ele>68.2</ele><time>2026-05-02T07:25:45.318Z</time></trkpt><trkpt lat="40.6060679" lon="14.9734638"><ele>68.0</ele><time>2026-05-02T07:25:46.318Z</time></trkpt><trkpt lat="40.6061392" lon="14.973497"><ele>67.83333333333334</ele><time>2026-05-02T07:25:47.319Z</time></trkpt><trkpt lat="40.6062038" lon="14.9734826"><ele>67.66666666666667</ele><time>2026-05-02T07:25:48.319Z</time></trkpt><trkpt lat="40.6062608" lon="14.973439"><ele>67.5</ele><time>2026-05-02T07:25:49.319Z</time></trkpt><trkpt lat="40.6063274" lon="14.9733819"><ele>67.33333333333333</ele><time>2026-05-02T07:25:50.318Z</time></trkpt><trkpt lat="40.6064087" lon="14.97334"><ele>67.16666666666666</ele><time>2026-05-02T07:25:51.319Z</time></trkpt><trkpt lat="40.6065016" lon="14.9733144"><ele>67.0</ele><time>2026-05-02T07:25:52.319Z</time></trkpt><trkpt lat="40.6066016" lon="14.9732949"><ele>67.0</ele><time>2026-05-02T07:25:53.318Z</time></trkpt><trkpt lat="40.6067118" lon="14.9732768"><ele>67.0</ele><time>2026-05-02T07:25:54.318Z</time></trkpt><trkpt lat="40.6068295" lon="14.9732611"><ele>67.0</ele><time>2026-05-02T07:25:55.318Z</time></trkpt><trkpt lat="40.6069439" lon="14.9732458"><ele>67.0</ele><time>2026-05-02T07:25:56.318Z</time></trkpt><trkpt lat="40.6070534" lon="14.9732294"><ele>67.5</ele><time>2026-05-02T07:25:57.318Z</time></trkpt><trkpt lat="40.6071636" lon="14.9732104"><ele>68.0</ele><time>2026-05-02T07:25:58.318Z</time></trkpt><trkpt lat="40.6072761" lon="14.9731878"><ele>68.5</ele><time>2026-05-02T07:25:59.319Z</time></trkpt><trkpt lat="40.6073909" lon="14.9731696"><ele>69.0</ele><time>2026-05-02T07:26:00.319Z</time></trkpt><trkpt lat="40.6075076" lon="14.973154"><ele>69.0</ele><time>2026-05-02T07:26:01.319Z</time></trkpt><trkpt lat="40.6076258" lon="14.9731409"><ele>69.0</ele><time>2026-05-02T07:26:02.319Z</time></trkpt><trkpt lat="40.6077404" lon="14.9731287"><ele>69.0</ele><time>2026-05-02T07:26:03.319Z</time></trkpt><trkpt lat="40.6078513" lon="14.9731171"><ele>69.0</ele><time>2026-05-02T07:26:04.318Z</time></trkpt><trkpt lat="40.6079672" lon="14.973103"><ele>68.0</ele><time>2026-05-02T07:26:05.318Z</time></trkpt><trkpt lat="40.6080912" lon="14.9730909"><ele>67.0</ele><time>2026-05-02T07:26:06.319Z</time></trkpt><trkpt lat="40.6082211" lon="14.9730775"><ele>66.0</ele><time>2026-05-02T07:26:07.319Z</time></trkpt><trkpt lat="40.6083562" lon="14.9730652"><ele>65.0</ele><time>2026-05-02T07:26:08.319Z</time></trkpt><trkpt lat="40.6084892" lon="14.9730535"><ele>65.0</ele><time>2026-05-02T07:26:09.319Z</time></trkpt><trkpt lat="40.6086124" lon="14.9730399"><ele>65.0</ele><time>2026-05-02T07:26:10.318Z</time></trkpt><trkpt lat="40.6087236" lon="14.9730281"><ele>65.0</ele><time>2026-05-02T07:26:11.318Z</time></trkpt><trkpt lat="40.6088274" lon="14.9730165"><ele>65.0</ele><time>2026-05-02T07:26:12.318Z</time></trkpt><trkpt lat="40.608917" lon="14.9730034"><ele>65.0</ele><time>2026-05-02T07:26:13.319Z</time></trkpt><trkpt lat="40.6090017" lon="14.9729958"><ele>65.0</ele><time>2026-05-02T07:26:14.319Z</time></trkpt><trkpt lat="40.6090837" lon="14.9729904"><ele>65.0</ele><time>2026-05-02T07:26:15.319Z</time></trkpt><trkpt lat="40.6091633" lon="14.9729869"><ele>65.0</ele><time>2026-05-02T07:26:16.319Z</time></trkpt><trkpt lat="40.6092509" lon="14.9729837"><ele>65.0</ele><time>2026-05-02T07:26:17.317Z</time></trkpt><trkpt lat="40.6093499" lon="14.9729767"><ele>65.0</ele><time>2026-05-02T07:26:18.318Z</time></trkpt><trkpt lat="40.6094587" lon="14.9729699"><ele>64.75</ele><time>2026-05-02T07:26:19.319Z</time></trkpt><trkpt lat="40.6095758" lon="14.9729581"><ele>64.5</ele><time>2026-05-02T07:26:20.319Z</time></trkpt><trkpt lat="40.6097007" lon="14.9729454"><ele>64.25</ele><time>2026-05-02T07:26:21.319Z</time></trkpt><trkpt lat="40.609836" lon="14.9729336"><ele>64.0</ele><time>2026-05-02T07:26:22.319Z</time></trkpt><trkpt lat="40.6099771" lon="14.9729217"><ele>64.0</ele><time>2026-05-02T07:26:23.319Z</time></trkpt><trkpt lat="40.6101232" lon="14.9729082"><ele>64.0</ele><time>2026-05-02T07:26:24.318Z</time></trkpt><trkpt lat="40.6102748" lon="14.9728974"><ele>64.0</ele><time>2026-05-02T07:26:25.319Z</time></trkpt><trkpt lat="40.6104232" lon="14.9728884"><ele>64.0</ele><time>2026-05-02T07:26:26.319Z</time></trkpt><trkpt lat="40.6105676" lon="14.9728801"><ele>63.25</ele><time>2026-05-02T07:26:27.319Z</time></trkpt><trkpt lat="40.6107036" lon="14.9728731"><ele>62.5</ele><time>2026-05-02T07:26:28.318Z</time></trkpt><trkpt lat="40.6108384" lon="14.9728725"><ele>61.75</ele><time>2026-05-02T07:26:29.319Z</time></trkpt><trkpt lat="40.6109693" lon="14.9728716"><ele>61.0</ele><time>2026-05-02T07:26:30.318Z</time></trkpt><trkpt lat="40.611097" lon="14.9728722"><ele>61.5</ele><time>2026-05-02T07:26:31.319Z</time></trkpt><trkpt lat="40.6112261" lon="14.9728823"><ele>62.0</ele><time>2026-05-02T07:26:32.318Z</time></trkpt><trkpt lat="40.611363" lon="14.9728946"><ele>62.5</ele><time>2026-05-02T07:26:33.319Z</time></trkpt><trkpt lat="40.6115121" lon="14.9729063"><ele>63.0</ele><time>2026-05-02T07:26:34.319Z</time></trkpt><trkpt lat="40.6116607" lon="14.972917"><ele>63.0</ele><time>2026-05-02T07:26:35.318Z</time></trkpt><trkpt lat="40.6117998" lon="14.9729217"><ele>63.0</ele><time>2026-05-02T07:26:36.318Z</time></trkpt><trkpt lat="40.6119281" lon="14.9729263"><ele>63.0</ele><time>2026-05-02T07:26:37.318Z</time></trkpt><trkpt lat="40.6120479" lon="14.9729284"><ele>63.0</ele><time>2026-05-02T07:26:38.318Z</time></trkpt><trkpt lat="40.6121554" lon="14.9729331"><ele>63.0</ele><time>2026-05-02T07:26:39.318Z</time></trkpt><trkpt lat="40.6122524" lon="14.972936"><ele>63.0</ele><time>2026-05-02T07:26:40.319Z</time></trkpt><trkpt lat="40.6123446" lon="14.9729401"><ele>63.0</ele><time>2026-05-02T07:26:41.319Z</time></trkpt><trkpt lat="40.6124318" lon="14.9729427"><ele>63.0</ele><time>2026-05-02T07:26:42.318Z</time></trkpt><trkpt lat="40.6125173" lon="14.9729418"><ele>63.0</ele><time>2026-05-02T07:26:43.319Z</time></trkpt><trkpt lat="40.6126025" lon="14.9729444"><ele>63.0</ele><time>2026-05-02T07:26:44.319Z</time></trkpt><trkpt lat="40.6126875" lon="14.9729559"><ele>63.0</ele><time>2026-05-02T07:26:45.319Z</time></trkpt><trkpt lat="40.612773" lon="14.9729875"><ele>63.0</ele><time>2026-05-02T07:26:46.318Z</time></trkpt><trkpt lat="40.6128529" lon="14.9730429"><ele>63.0</ele><time>2026-05-02T07:26:47.318Z</time></trkpt><trkpt lat="40.6129277" lon="14.9731178"><ele>63.0</ele><time>2026-05-02T07:26:48.318Z</time></trkpt><trkpt lat="40.6129901" lon="14.9732068"><ele>63.0</ele><time>2026-05-02T07:26:49.318Z</time></trkpt><trkpt lat="40.6130398" lon="14.9732976"><ele>63.714285714285715</ele><time>2026-05-02T07:26:50.318Z</time></trkpt><trkpt lat="40.6130797" lon="14.9733943"><ele>64.42857142857143</ele><time>2026-05-02T07:26:51.319Z</time></trkpt><trkpt lat="40.6131032" lon="14.9734946"><ele>65.14285714285714</ele><time>2026-05-02T07:26:52.319Z</time></trkpt><trkpt lat="40.6131125" lon="14.9735903"><ele>65.85714285714286</ele><time>2026-05-02T07:26:53.319Z</time></trkpt><trkpt lat="40.6131173" lon="14.9736789"><ele>66.57142857142857</ele><time>2026-05-02T07:26:54.319Z</time></trkpt><trkpt lat="40.6131178" lon="14.9737619"><ele>67.28571428571428</ele><time>2026-05-02T07:26:55.319Z</time></trkpt><trkpt lat="40.6131159" lon="14.9738507"><ele>68.0</ele><time>2026-05-02T07:26:56.319Z</time></trkpt><trkpt lat="40.6131092" lon="14.973935"><ele>68.0</ele><time>2026-05-02T07:26:57.319Z</time></trkpt><trkpt lat="40.6130909" lon="14.9740757"><ele>68.0</ele><time>2026-05-02T07:26:59.318Z</time></trkpt><trkpt lat="40.6130657" lon="14.9742638"><ele>68.0</ele><time>2026-05-02T07:27:01.319Z</time></trkpt><trkpt lat="40.6130377" lon="14.9744002"><ele>68.0</ele><time>2026-05-02T07:27:02.319Z</time></trkpt><trkpt lat="40.6129927" lon="14.9745381"><ele>68.0</ele><time>2026-05-02T07:27:03.319Z</time></trkpt><trkpt lat="40.6129511" lon="14.9746813"><ele>68.0</ele><time>2026-05-02T07:27:04.319Z</time></trkpt><trkpt lat="40.6129127" lon="14.97483"><ele>68.0</ele><time>2026-05-02T07:27:05.319Z</time></trkpt><trkpt lat="40.6128666" lon="14.9749845"><ele>68.0</ele><time>2026-05-02T07:27:06.319Z</time></trkpt><trkpt lat="40.6128216" lon="14.9751405"><ele>68.0</ele><time>2026-05-02T07:27:07.318Z</time></trkpt><trkpt lat="40.6127781" lon="14.9752852"><ele>68.0</ele><time>2026-05-02T07:27:08.318Z</time></trkpt><trkpt lat="40.6127417" lon="14.9754171"><ele>68.0</ele><time>2026-05-02T07:27:09.319Z</time></trkpt><trkpt lat="40.6127079" lon="14.9755367"><ele>68.0</ele><time>2026-05-02T07:27:10.318Z</time></trkpt><trkpt lat="40.6126745" lon="14.9756487"><ele>68.0</ele><time>2026-05-02T07:27:11.319Z</time></trkpt><trkpt lat="40.6126461" lon="14.9757499"><ele>68.0</ele><time>2026-05-02T07:27:12.319Z</time></trkpt><trkpt lat="40.6126195" lon="14.975838"><ele>68.0</ele><time>2026-05-02T07:27:13.318Z</time></trkpt><trkpt lat="40.6125584" lon="14.9759685"><ele>68.0</ele><time>2026-05-02T07:27:15.319Z</time></trkpt><trkpt lat="40.6124785" lon="14.9760735"><ele>68.0</ele><time>2026-05-02T07:27:17.318Z</time></trkpt><trkpt lat="40.6124473" lon="14.9761485"><ele>68.0</ele><time>2026-05-02T07:27:18.319Z</time></trkpt><trkpt lat="40.6124361" lon="14.9762374"><ele>68.0</ele><time>2026-05-02T07:27:19.318Z</time></trkpt><trkpt lat="40.6124416" lon="14.9763366"><ele>68.0</ele><time>2026-05-02T07:27:20.318Z</time></trkpt><trkpt lat="40.6124448" lon="14.9764502"><ele>68.0</ele><time>2026-05-02T07:27:21.319Z</time></trkpt><trkpt lat="40.6124297" lon="14.9765665"><ele>68.0</ele><time>2026-05-02T07:27:22.319Z</time></trkpt><trkpt lat="40.6124002" lon="14.9766867"><ele>68.0</ele><time>2026-05-02T07:27:23.318Z</time></trkpt><trkpt lat="40.6123702" lon="14.9768009"><ele>68.0</ele><time>2026-05-02T07:27:24.319Z</time></trkpt><trkpt lat="40.6123422" lon="14.9769094"><ele>68.0</ele><time>2026-05-02T07:27:25.318Z</time></trkpt><trkpt lat="40.6123146" lon="14.9770155"><ele>68.0</ele><time>2026-05-02T07:27:26.318Z</time></trkpt><trkpt lat="40.612287" lon="14.9771194"><ele>68.0</ele><time>2026-05-02T07:27:27.319Z</time></trkpt><trkpt lat="40.6122611" lon="14.9772254"><ele>68.0</ele><time>2026-05-02T07:27:28.319Z</time></trkpt><trkpt lat="40.6122332" lon="14.9773328"><ele>68.0</ele><time>2026-05-02T07:27:29.318Z</time></trkpt><trkpt lat="40.6122052" lon="14.9774395"><ele>68.0</ele><time>2026-05-02T07:27:30.318Z</time></trkpt><trkpt lat="40.6121783" lon="14.9775388"><ele>68.0</ele><time>2026-05-02T07:27:31.319Z</time></trkpt><trkpt lat="40.6121541" lon="14.9776295"><ele>68.0</ele><time>2026-05-02T07:27:32.318Z</time></trkpt><trkpt lat="40.612134" lon="14.9777114"><ele>68.0</ele><time>2026-05-02T07:27:33.319Z</time></trkpt><trkpt lat="40.6121033" lon="14.977847"><ele>68.0</ele><time>2026-05-02T07:27:35.319Z</time></trkpt><trkpt lat="40.6120786" lon="14.9779626"><ele>68.0</ele><time>2026-05-02T07:27:37.318Z</time></trkpt><trkpt lat="40.6120606" lon="14.9780519"><ele>68.0</ele><time>2026-05-02T07:27:40.318Z</time></trkpt><trkpt lat="40.6120819" lon="14.9781407"><ele>68.0</ele><time>2026-05-02T07:27:43.319Z</time></trkpt><trkpt lat="40.6121876" lon="14.9782273"><ele>68.0</ele><time>2026-05-02T07:27:45.318Z</time></trkpt><trkpt lat="40.6122432" lon="14.9782872"><ele>68.0</ele><time>2026-05-02T07:27:46.319Z</time></trkpt><trkpt lat="40.6123014" lon="14.9783461"><ele>68.0</ele><time>2026-05-02T07:27:47.319Z</time></trkpt><trkpt lat="40.6123598" lon="14.9784027"><ele>68.0</ele><time>2026-05-02T07:27:48.319Z</time></trkpt><trkpt lat="40.6124101" lon="14.9784556"><ele>68.0</ele><time>2026-05-02T07:27:49.319Z</time></trkpt><trkpt lat="40.6124859" lon="14.9785205"><ele>68.33333333333334</ele><time>2026-05-02T07:27:51.319Z</time></trkpt><trkpt lat="40.612576" lon="14.9786123"><ele>68.66666666666667</ele><time>2026-05-02T07:27:53.318Z</time></trkpt><trkpt lat="40.6126412" lon="14.9786535"><ele>69.0</ele><time>2026-05-02T07:27:54.318Z</time></trkpt><trkpt lat="40.6127156" lon="14.9786759"><ele>69.33333333333333</ele><time>2026-05-02T07:27:55.319Z</time></trkpt><trkpt lat="40.6127888" lon="14.9786765"><ele>69.66666666666666</ele><time>2026-05-02T07:27:56.318Z</time></trkpt><trkpt lat="40.6128608" lon="14.9786702"><ele>70.0</ele><time>2026-05-02T07:27:57.319Z</time></trkpt><trkpt lat="40.6129253" lon="14.9786612"><ele>70.0</ele><time>2026-05-02T07:27:58.319Z</time></trkpt><trkpt lat="40.6130331" lon="14.97865"><ele>70.0</ele><time>2026-05-02T07:28:00.318Z</time></trkpt><trkpt lat="40.6131337" lon="14.9786428"><ele>70.0</ele><time>2026-05-02T07:28:02.319Z</time></trkpt><trkpt lat="40.6132289" lon="14.978649"><ele>70.0</ele><time>2026-05-02T07:28:04.319Z</time></trkpt><trkpt lat="40.6133422" lon="14.9786579"><ele>70.0</ele><time>2026-05-02T07:28:06.319Z</time></trkpt><trkpt lat="40.6134482" lon="14.9786693"><ele>70.0</ele><time>2026-05-02T07:28:08.318Z</time></trkpt><trkpt lat="40.6135514" lon="14.9787036"><ele>70.0</ele><time>2026-05-02T07:28:10.318Z</time></trkpt><trkpt lat="40.6136316" lon="14.9787253"><ele>70.0</ele><time>2026-05-02T07:28:12.319Z</time></trkpt><trkpt lat="40.6137296" lon="14.9787533"><ele>70.0</ele><time>2026-05-02T07:28:14.318Z</time></trkpt><trkpt lat="40.6137985" lon="14.9787729"><ele>70.0</ele><time>2026-05-02T07:28:15.318Z</time></trkpt><trkpt lat="40.6138742" lon="14.978806"><ele>70.0</ele><time>2026-05-02T07:28:16.319Z</time></trkpt><trkpt lat="40.6139598" lon="14.9788467"><ele>70.2</ele><time>2026-05-02T07:28:17.318Z</time></trkpt><trkpt lat="40.6140502" lon="14.9789055"><ele>70.4</ele><time>2026-05-02T07:28:18.318Z</time></trkpt><trkpt lat="40.6141467" lon="14.9789714"><ele>70.6</ele><time>2026-05-02T07:28:19.319Z</time></trkpt><trkpt lat="40.6142448" lon="14.9790485"><ele>70.8</ele><time>2026-05-02T07:28:20.319Z</time></trkpt><trkpt lat="40.6143405" lon="14.979113"><ele>71.0</ele><time>2026-05-02T07:28:21.319Z</time></trkpt><trkpt lat="40.6144199" lon="14.9791852"><ele>70.83333333333334</ele><time>2026-05-02T07:28:22.319Z</time></trkpt><trkpt lat="40.6144943" lon="14.9792584"><ele>70.66666666666667</ele><time>2026-05-02T07:28:23.318Z</time></trkpt><trkpt lat="40.6145617" lon="14.979327"><ele>70.5</ele><time>2026-05-02T07:28:24.318Z</time></trkpt><trkpt lat="40.6146271" lon="14.9793934"><ele>70.33333333333333</ele><time>2026-05-02T07:28:25.318Z</time></trkpt><trkpt lat="40.6146918" lon="14.9794592"><ele>70.16666666666666</ele><time>2026-05-02T07:28:26.318Z</time></trkpt><trkpt lat="40.6147573" lon="14.9795226"><ele>70.0</ele><time>2026-05-02T07:28:27.319Z</time></trkpt><trkpt lat="40.6148262" lon="14.9795896"><ele>70.0</ele><time>2026-05-02T07:28:28.319Z</time></trkpt><trkpt lat="40.6148918" lon="14.9796522"><ele>70.0</ele><time>2026-05-02T07:28:29.319Z</time></trkpt><trkpt lat="40.6149485" lon="14.9797085"><ele>70.0</ele><time>2026-05-02T07:28:30.319Z</time></trkpt><trkpt lat="40.6150017" lon="14.9797639"><ele>70.0</ele><time>2026-05-02T07:28:31.319Z</time></trkpt><trkpt lat="40.6150552" lon="14.9798183"><ele>70.0</ele><time>2026-05-02T07:28:32.318Z</time></trkpt><trkpt lat="40.6151058" lon="14.9798724"><ele>70.0</ele><time>2026-05-02T07:28:33.319Z</time></trkpt><trkpt lat="40.6151843" lon="14.9799566"><ele>70.0</ele><time>2026-05-02T07:28:35.319Z</time></trkpt><trkpt lat="40.6152111" lon="14.9800525"><ele>70.0</ele><time>2026-05-02T07:28:37.319Z</time></trkpt><trkpt lat="40.6152039" lon="14.9802058"><ele>70.0</ele><time>2026-05-02T07:28:39.318Z</time></trkpt><trkpt lat="40.6151934" lon="14.980298"><ele>70.0</ele><time>2026-05-02T07:28:40.318Z</time></trkpt><trkpt lat="40.6151811" lon="14.9803835"><ele>70.0</ele><time>2026-05-02T07:28:41.318Z</time></trkpt><trkpt lat="40.615165" lon="14.9804721"><ele>70.0</ele><time>2026-05-02T07:28:42.318Z</time></trkpt><trkpt lat="40.6151492" lon="14.9805597"><ele>70.0</ele><time>2026-05-02T07:28:43.319Z</time></trkpt><trkpt lat="40.6151275" lon="14.9806466"><ele>70.0</ele><time>2026-05-02T07:28:44.318Z</time></trkpt><trkpt lat="40.6151022" lon="14.9807315"><ele>70.0</ele><time>2026-05-02T07:28:45.319Z</time></trkpt><trkpt lat="40.615078" lon="14.9808198"><ele>70.0</ele><time>2026-05-02T07:28:46.319Z</time></trkpt><trkpt lat="40.6150488" lon="14.9809119"><ele>70.0</ele><time>2026-05-02T07:28:47.318Z</time></trkpt><trkpt lat="40.6150099" lon="14.981023"><ele>70.0</ele><time>2026-05-02T07:28:48.319Z</time></trkpt><trkpt lat="40.6149559" lon="14.9811442"><ele>70.0</ele><time>2026-05-02T07:28:49.319Z</time></trkpt><trkpt lat="40.6148879" lon="14.9812692"><ele>70.0</ele><time>2026-05-02T07:28:50.319Z</time></trkpt><trkpt lat="40.6148125" lon="14.9813963"><ele>70.0</ele><time>2026-05-02T07:28:51.318Z</time></trkpt><trkpt lat="40.6147335" lon="14.981524"><ele>70.0</ele><time>2026-05-02T07:28:52.319Z</time></trkpt><trkpt lat="40.6146618" lon="14.9816538"><ele>70.0</ele><time>2026-05-02T07:28:53.318Z</time></trkpt><trkpt lat="40.6145914" lon="14.9817762"><ele>70.0</ele><time>2026-05-02T07:28:54.318Z</time></trkpt><trkpt lat="40.614521" lon="14.9818918"><ele>70.0</ele><time>2026-05-02T07:28:55.319Z</time></trkpt><trkpt lat="40.6144511" lon="14.9820035"><ele>70.0</ele><time>2026-05-02T07:28:56.318Z</time></trkpt><trkpt lat="40.6143788" lon="14.9821143"><ele>69.8</ele><time>2026-05-02T07:28:57.319Z</time></trkpt><trkpt lat="40.6143044" lon="14.9822208"><ele>69.6</ele><time>2026-05-02T07:28:58.318Z</time></trkpt><trkpt lat="40.6142209" lon="14.9823212"><ele>69.4</ele><time>2026-05-02T07:28:59.318Z</time></trkpt><trkpt lat="40.6141274" lon="14.982402"><ele>69.2</ele><time>2026-05-02T07:29:00.318Z</time></trkpt><trkpt lat="40.6140341" lon="14.9824777"><ele>69.0</ele><time>2026-05-02T07:29:01.319Z</time></trkpt><trkpt lat="40.6139431" lon="14.9825514"><ele>69.0</ele><time>2026-05-02T07:29:02.318Z</time></trkpt><trkpt lat="40.6138566" lon="14.9826215"><ele>69.0</ele><time>2026-05-02T07:29:03.319Z</time></trkpt><trkpt lat="40.613774" lon="14.9826886"><ele>69.0</ele><time>2026-05-02T07:29:04.319Z</time></trkpt><trkpt lat="40.613695" lon="14.9827555"><ele>69.0</ele><time>2026-05-02T07:29:05.319Z</time></trkpt><trkpt lat="40.6136197" lon="14.9828144"><ele>69.0</ele><time>2026-05-02T07:29:06.319Z</time></trkpt><trkpt lat="40.6135438" lon="14.9828751"><ele>69.66666666666667</ele><time>2026-05-02T07:29:07.319Z</time></trkpt><trkpt lat="40.613471" lon="14.9829312"><ele>70.33333333333333</ele><time>2026-05-02T07:29:08.318Z</time></trkpt><trkpt lat="40.6134015" lon="14.9829873"><ele>71.0</ele><time>2026-05-02T07:29:09.319Z</time></trkpt><trkpt lat="40.6133322" lon="14.9830416"><ele>71.66666666666666</ele><time>2026-05-02T07:29:10.319Z</time></trkpt><trkpt lat="40.6132629" lon="14.9830944"><ele>72.33333333333333</ele><time>2026-05-02T07:29:11.318Z</time></trkpt><trkpt lat="40.6131961" lon="14.9831427"><ele>73.0</ele><time>2026-05-02T07:29:12.319Z</time></trkpt><trkpt lat="40.6131051" lon="14.9832243"><ele>73.0</ele><time>2026-05-02T07:29:14.319Z</time></trkpt><trkpt lat="40.6130465" lon="14.9832849"><ele>73.0</ele><time>2026-05-02T07:29:16.318Z</time></trkpt><trkpt lat="40.6130404" lon="14.9834058"><ele>73.0</ele><time>2026-05-02T07:29:18.318Z</time></trkpt><trkpt lat="40.6130633" lon="14.9834849"><ele>73.0</ele><time>2026-05-02T07:29:19.319Z</time></trkpt><trkpt lat="40.6131015" lon="14.9835717"><ele>73.0</ele><time>2026-05-02T07:29:20.318Z</time></trkpt><trkpt lat="40.6131468" lon="14.9836663"><ele>73.0</ele><time>2026-05-02T07:29:21.319Z</time></trkpt><trkpt lat="40.6131963" lon="14.9837667"><ele>73.16666666666666</ele><time>2026-05-02T07:29:22.318Z</time></trkpt><trkpt lat="40.6132433" lon="14.9838676"><ele>73.33333333333333</ele><time>2026-05-02T07:29:23.318Z</time></trkpt><trkpt lat="40.6132923" lon="14.9839651"><ele>73.5</ele><time>2026-05-02T07:29:24.318Z</time></trkpt><trkpt lat="40.6133361" lon="14.9840642"><ele>73.66666666666667</ele><time>2026-05-02T07:29:25.318Z</time></trkpt><trkpt lat="40.613378" lon="14.9841575"><ele>73.83333333333334</ele><time>2026-05-02T07:29:26.318Z</time></trkpt><trkpt lat="40.6134156" lon="14.9842445"><ele>74.0</ele><time>2026-05-02T07:29:27.319Z</time></trkpt><trkpt lat="40.6134568" lon="14.9843344"><ele>74.4</ele><time>2026-05-02T07:29:28.319Z</time></trkpt><trkpt lat="40.6135035" lon="14.9844366"><ele>74.80000000000001</ele><time>2026-05-02T07:29:29.319Z</time></trkpt><trkpt lat="40.6135572" lon="14.984551"><ele>75.19999999999999</ele><time>2026-05-02T07:29:30.318Z</time></trkpt><trkpt lat="40.6136135" lon="14.9846773"><ele>75.6</ele><time>2026-05-02T07:29:31.318Z</time></trkpt><trkpt lat="40.6136737" lon="14.9848092"><ele>76.0</ele><time>2026-05-02T07:29:32.318Z</time></trkpt><trkpt lat="40.6137252" lon="14.9849252"><ele>76.5</ele><time>2026-05-02T07:29:33.318Z</time></trkpt><trkpt lat="40.6137772" lon="14.9850405"><ele>77.0</ele><time>2026-05-02T07:29:34.318Z</time></trkpt><trkpt lat="40.6138355" lon="14.9851681"><ele>77.5</ele><time>2026-05-02T07:29:35.319Z</time></trkpt><trkpt lat="40.6138943" lon="14.9853032"><ele>78.0</ele><time>2026-05-02T07:29:36.318Z</time></trkpt><trkpt lat="40.6139588" lon="14.9854459"><ele>78.0</ele><time>2026-05-02T07:29:37.319Z</time></trkpt><trkpt lat="40.6140218" lon="14.9855898"><ele>78.0</ele><time>2026-05-02T07:29:38.318Z</time></trkpt><trkpt lat="40.6140821" lon="14.9857284"><ele>78.0</ele><time>2026-05-02T07:29:39.318Z</time></trkpt><trkpt lat="40.6141428" lon="14.9858659"><ele>78.0</ele><time>2026-05-02T07:29:40.318Z</time></trkpt><trkpt lat="40.6141999" lon="14.9860012"><ele>77.75</ele><time>2026-05-02T07:29:41.319Z</time></trkpt><trkpt lat="40.6142598" lon="14.9861319"><ele>77.5</ele><time>2026-05-02T07:29:42.318Z</time></trkpt><trkpt lat="40.6143211" lon="14.986263"><ele>77.25</ele><time>2026-05-02T07:29:43.318Z</time></trkpt><trkpt lat="40.6143841" lon="14.9863996"><ele>77.0</ele><time>2026-05-02T07:29:44.318Z</time></trkpt><trkpt lat="40.6144475" lon="14.9865439"><ele>77.0</ele><time>2026-05-02T07:29:45.318Z</time></trkpt><trkpt lat="40.6145128" lon="14.9866867"><ele>77.0</ele><time>2026-05-02T07:29:46.319Z</time></trkpt><trkpt lat="40.6145723" lon="14.9868252"><ele>77.0</ele><time>2026-05-02T07:29:47.318Z</time></trkpt><trkpt lat="40.6146305" lon="14.9869566"><ele>77.0</ele><time>2026-05-02T07:29:48.318Z</time></trkpt><trkpt lat="40.6146934" lon="14.9870959"><ele>77.0</ele><time>2026-05-02T07:29:49.319Z</time></trkpt><trkpt lat="40.6147545" lon="14.9872332"><ele>77.0</ele><time>2026-05-02T07:29:50.318Z</time></trkpt><trkpt lat="40.6148137" lon="14.9873713"><ele>77.0</ele><time>2026-05-02T07:29:51.318Z</time></trkpt><trkpt lat="40.6148676" lon="14.9874961"><ele>77.0</ele><time>2026-05-02T07:29:52.319Z</time></trkpt><trkpt lat="40.6149172" lon="14.9876119"><ele>77.0</ele><time>2026-05-02T07:29:53.319Z</time></trkpt><trkpt lat="40.6149564" lon="14.9877195"><ele>77.0</ele><time>2026-05-02T07:29:54.318Z</time></trkpt><trkpt lat="40.614986" lon="14.987809"><ele>77.0</ele><time>2026-05-02T07:29:55.318Z</time></trkpt><trkpt lat="40.6150032" lon="14.9879259"><ele>77.0</ele><time>2026-05-02T07:29:57.319Z</time></trkpt><trkpt lat="40.6149515" lon="14.9879927"><ele>77.0</ele><time>2026-05-02T07:30:00.318Z</time></trkpt><trkpt lat="40.6148375" lon="14.9879982"><ele>77.0</ele><time>2026-05-02T07:30:02.319Z</time></trkpt><trkpt lat="40.6147711" lon="14.9880008"><ele>77.0</ele><time>2026-05-02T07:30:03.319Z</time></trkpt><trkpt lat="40.614704" lon="14.9880056"><ele>77.0</ele><time>2026-05-02T07:30:04.318Z</time></trkpt><trkpt lat="40.6146287" lon="14.9880127"><ele>77.0</ele><time>2026-05-02T07:30:05.319Z</time></trkpt><trkpt lat="40.614547" lon="14.988023"><ele>77.0</ele><time>2026-05-02T07:30:06.317Z</time></trkpt><trkpt lat="40.6144685" lon="14.988036"><ele>77.0</ele><time>2026-05-02T07:30:07.319Z</time></trkpt><trkpt lat="40.6143906" lon="14.9880477"><ele>77.0</ele><time>2026-05-02T07:30:08.319Z</time></trkpt><trkpt lat="40.6143229" lon="14.9880605"><ele>77.33333333333334</ele><time>2026-05-02T07:30:09.319Z</time></trkpt><trkpt lat="40.614226" lon="14.9880975"><ele>77.66666666666667</ele><time>2026-05-02T07:30:11.318Z</time></trkpt><trkpt lat="40.6141795" lon="14.9881895"><ele>78.0</ele><time>2026-05-02T07:30:13.318Z</time></trkpt><trkpt lat="40.6142393" lon="14.9883079"><ele>78.33333333333333</ele><time>2026-05-02T07:30:15.318Z</time></trkpt><trkpt lat="40.6142847" lon="14.9883711"><ele>78.66666666666666</ele><time>2026-05-02T07:30:16.319Z</time></trkpt><trkpt lat="40.6143368" lon="14.9884435"><ele>79.0</ele><time>2026-05-02T07:30:17.318Z</time></trkpt><trkpt lat="40.6143938" lon="14.9885226"><ele>80.0</ele><time>2026-05-02T07:30:18.318Z</time></trkpt><trkpt lat="40.6144544" lon="14.9886075"><ele>81.0</ele><time>2026-05-02T07:30:19.319Z</time></trkpt><trkpt lat="40.6145175" lon="14.9887004"><ele>82.0</ele><time>2026-05-02T07:30:20.318Z</time></trkpt><trkpt lat="40.6145882" lon="14.9888047"><ele>83.0</ele><time>2026-05-02T07:30:21.318Z</time></trkpt><trkpt lat="40.6146687" lon="14.9889291"><ele>84.0</ele><time>2026-05-02T07:30:22.318Z</time></trkpt><trkpt lat="40.6147541" lon="14.9890618"><ele>84.75</ele><time>2026-05-02T07:30:23.318Z</time></trkpt><trkpt lat="40.6148495" lon="14.989204"><ele>85.5</ele><time>2026-05-02T07:30:24.318Z</time></trkpt><trkpt lat="40.6149419" lon="14.9893444"><ele>86.25</ele><time>2026-05-02T07:30:25.318Z</time></trkpt><trkpt lat="40.6150298" lon="14.9894746"><ele>87.0</ele><time>2026-05-02T07:30:26.318Z</time></trkpt><trkpt lat="40.6151141" lon="14.9895975"><ele>87.0</ele><time>2026-05-02T07:30:27.318Z</time></trkpt><trkpt lat="40.6151898" lon="14.9897141"><ele>87.0</ele><time>2026-05-02T07:30:28.319Z</time></trkpt><trkpt lat="40.6152604" lon="14.9898207"><ele>87.0</ele><time>2026-05-02T07:30:29.318Z</time></trkpt><trkpt lat="40.6153282" lon="14.9899185"><ele>87.0</ele><time>2026-05-02T07:30:30.318Z</time></trkpt><trkpt lat="40.6153909" lon="14.9900105"><ele>87.0</ele><time>2026-05-02T07:30:31.319Z</time></trkpt><trkpt lat="40.6154502" lon="14.9900949"><ele>90.6</ele><time>2026-05-02T07:30:32.318Z</time></trkpt><trkpt lat="40.6155051" lon="14.9901707"><ele>94.19999999999999</ele><time>2026-05-02T07:30:33.319Z</time></trkpt><trkpt lat="40.6155688" lon="14.9902382"><ele>97.8</ele><time>2026-05-02T07:30:34.319Z</time></trkpt><trkpt lat="40.615648" lon="14.9902917"><ele>101.4</ele><time>2026-05-02T07:30:35.319Z</time></trkpt><trkpt lat="40.6157554" lon="14.9903317"><ele>105.0</ele><time>2026-05-02T07:30:36.319Z</time></trkpt><trkpt lat="40.6158723" lon="14.9903864"><ele>105.0</ele><time>2026-05-02T07:30:37.319Z</time></trkpt><trkpt lat="40.6159763" lon="14.9904676"><ele>105.0</ele><time>2026-05-02T07:30:38.318Z</time></trkpt><trkpt lat="40.6160611" lon="14.9905541"><ele>105.0</ele><time>2026-05-02T07:30:39.318Z</time></trkpt><trkpt lat="40.6161355" lon="14.9906351"><ele>105.0</ele><time>2026-05-02T07:30:40.318Z</time></trkpt><trkpt lat="40.6162126" lon="14.9906804"><ele>105.0</ele><time>2026-05-02T07:30:41.319Z</time></trkpt><trkpt lat="40.6162848" lon="14.9906777"><ele>107.16666666666667</ele><time>2026-05-02T07:30:42.319Z</time></trkpt><trkpt lat="40.6163537" lon="14.9906302"><ele>109.33333333333334</ele><time>2026-05-02T07:30:43.318Z</time></trkpt><trkpt lat="40.6164181" lon="14.9905531"><ele>111.5</ele><time>2026-05-02T07:30:44.319Z</time></trkpt><trkpt lat="40.6164877" lon="14.9904803"><ele>113.66666666666667</ele><time>2026-05-02T07:30:45.319Z</time></trkpt><trkpt lat="40.61657" lon="14.9904314"><ele>115.83333333333334</ele><time>2026-05-02T07:30:46.319Z</time></trkpt><trkpt lat="40.6166612" lon="14.9904049"><ele>118.0</ele><time>2026-05-02T07:30:47.319Z</time></trkpt><trkpt lat="40.6167515" lon="14.9903841"><ele>118.00000000000001</ele><time>2026-05-02T07:30:48.319Z</time></trkpt><trkpt lat="40.6168424" lon="14.9903833"><ele>118.0</ele><time>2026-05-02T07:30:49.319Z</time></trkpt><trkpt lat="40.6169308" lon="14.9904139"><ele>118.0</ele><time>2026-05-02T07:30:50.319Z</time></trkpt><trkpt lat="40.6170188" lon="14.9904166"><ele>118.0</ele><time>2026-05-02T07:30:51.319Z</time></trkpt><trkpt lat="40.6171033" lon="14.9903824"><ele>118.00000000000001</ele><time>2026-05-02T07:30:52.319Z</time></trkpt><trkpt lat="40.617185" lon="14.9903437"><ele>118.0</ele><time>2026-05-02T07:30:53.318Z</time></trkpt><trkpt lat="40.617268" lon="14.9903042"><ele>120.83333333333334</ele><time>2026-05-02T07:30:54.319Z</time></trkpt><trkpt lat="40.6173522" lon="14.9902661"><ele>123.66666666666667</ele><time>2026-05-02T07:30:55.318Z</time></trkpt><trkpt lat="40.6174376" lon="14.9902308"><ele>126.5</ele><time>2026-05-02T07:30:56.318Z</time></trkpt><trkpt lat="40.6175171" lon="14.9901992"><ele>129.33333333333334</ele><time>2026-05-02T07:30:57.318Z</time></trkpt><trkpt lat="40.6175808" lon="14.9901802"><ele>132.16666666666666</ele><time>2026-05-02T07:30:58.319Z</time></trkpt><trkpt lat="40.6176938" lon="14.990234"><ele>135.0</ele><time>2026-05-02T07:31:00.319Z</time></trkpt><trkpt lat="40.6177487" lon="14.9902918"><ele>135.0</ele><time>2026-05-02T07:31:01.319Z</time></trkpt><trkpt lat="40.6178054" lon="14.9903644"><ele>135.0</ele><time>2026-05-02T07:31:02.318Z</time></trkpt><trkpt lat="40.6178529" lon="14.9904468"><ele>135.0</ele><time>2026-05-02T07:31:03.318Z</time></trkpt><trkpt lat="40.6178794" lon="14.9905257"><ele>135.0</ele><time>2026-05-02T07:31:04.318Z</time></trkpt><trkpt lat="40.6178515" lon="14.9906822"><ele>135.0</ele><time>2026-05-02T07:31:06.319Z</time></trkpt><trkpt lat="40.6178227" lon="14.9907705"><ele>135.0</ele><time>2026-05-02T07:31:07.319Z</time></trkpt><trkpt lat="40.6177922" lon="14.9908637"><ele>137.5</ele><time>2026-05-02T07:31:08.319Z</time></trkpt><trkpt lat="40.6177734" lon="14.9909636"><ele>140.0</ele><time>2026-05-02T07:31:09.319Z</time></trkpt><trkpt lat="40.6177585" lon="14.9910654"><ele>142.5</ele><time>2026-05-02T07:31:10.318Z</time></trkpt><trkpt lat="40.6177502" lon="14.991173"><ele>145.0</ele><time>2026-05-02T07:31:11.318Z</time></trkpt><trkpt lat="40.6177435" lon="14.991283"><ele>147.5</ele><time>2026-05-02T07:31:12.319Z</time></trkpt><trkpt lat="40.6177353" lon="14.9913923"><ele>150.0</ele><time>2026-05-02T07:31:13.318Z</time></trkpt><trkpt lat="40.6177328" lon="14.9914889"><ele>150.0</ele><time>2026-05-02T07:31:14.319Z</time></trkpt><trkpt lat="40.6176728" lon="14.9916294"><ele>150.0</ele><time>2026-05-02T07:31:16.318Z</time></trkpt><trkpt lat="40.6176172" lon="14.9916765"><ele>150.0</ele><time>2026-05-02T07:31:17.318Z</time></trkpt><trkpt lat="40.6175523" lon="14.9917113"><ele>150.0</ele><time>2026-05-02T07:31:18.319Z</time></trkpt><trkpt lat="40.6174863" lon="14.9917479"><ele>150.0</ele><time>2026-05-02T07:31:19.319Z</time></trkpt><trkpt lat="40.6174311" lon="14.9918029"><ele>150.0</ele><time>2026-05-02T07:31:20.319Z</time></trkpt><trkpt lat="40.6173919" lon="14.9918783"><ele>151.16666666666666</ele><time>2026-05-02T07:31:21.318Z</time></trkpt><trkpt lat="40.6173554" lon="14.9919491"><ele>152.33333333333334</ele><time>2026-05-02T07:31:22.318Z</time></trkpt><trkpt lat="40.6172745" lon="14.9920734"><ele>153.5</ele><time>2026-05-02T07:31:24.319Z</time></trkpt><trkpt lat="40.6171839" lon="14.9921541"><ele>154.66666666666669</ele><time>2026-05-02T07:31:26.318Z</time></trkpt><trkpt lat="40.6171182" lon="14.9922069"><ele>155.83333333333334</ele><time>2026-05-02T07:31:29.318Z</time></trkpt><trkpt lat="40.6170602" lon="14.9922594"><ele>157.0</ele><time>2026-05-02T07:35:48.318Z</time></trkpt><trkpt lat="40.6169602" lon="14.9923326"><ele>157.0</ele><time>2026-05-02T07:35:50.319Z</time></trkpt><trkpt lat="40.6168979" lon="14.9923712"><ele>157.0</ele><time>2026-05-02T07:35:51.318Z</time></trkpt><trkpt lat="40.6168247" lon="14.9924085"><ele>157.0</ele><time>2026-05-02T07:35:52.317Z</time></trkpt><trkpt lat="40.616745" lon="14.9924414"><ele>157.0</ele><time>2026-05-02T07:35:53.319Z</time></trkpt><trkpt lat="40.616664" lon="14.9924681"><ele>157.0</ele><time>2026-05-02T07:35:54.319Z</time></trkpt><trkpt lat="40.616583" lon="14.9924938"><ele>157.0</ele><time>2026-05-02T07:35:55.317Z</time></trkpt><trkpt lat="40.6164985" lon="14.9925243"><ele>159.39999999999998</ele><time>2026-05-02T07:35:56.318Z</time></trkpt><trkpt lat="40.6164073" lon="14.9925625"><ele>161.79999999999998</ele><time>2026-05-02T07:35:57.319Z</time></trkpt><trkpt lat="40.6163149" lon="14.9926138"><ele>164.2</ele><time>2026-05-02T07:35:58.319Z</time></trkpt><trkpt lat="40.6162177" lon="14.992673"><ele>166.6</ele><time>2026-05-02T07:35:59.318Z</time></trkpt><trkpt lat="40.6161171" lon="14.9927388"><ele>169.0</ele><time>2026-05-02T07:36:00.318Z</time></trkpt><trkpt lat="40.6160126" lon="14.9928182"><ele>169.0</ele><time>2026-05-02T07:36:01.319Z</time></trkpt><trkpt lat="40.6159113" lon="14.9928931"><ele>169.0</ele><time>2026-05-02T07:36:02.319Z</time></trkpt><trkpt lat="40.6158181" lon="14.9929601"><ele>169.0</ele><time>2026-05-02T07:36:03.319Z</time></trkpt><trkpt lat="40.6157272" lon="14.993022"><ele>169.0</ele><time>2026-05-02T07:36:04.319Z</time></trkpt><trkpt lat="40.6156388" lon="14.9930885"><ele>169.0</ele><time>2026-05-02T07:36:05.319Z</time></trkpt><trkpt lat="40.6155563" lon="14.9931776"><ele>169.0</ele><time>2026-05-02T07:36:06.318Z</time></trkpt><trkpt lat="40.6154789" lon="14.993279"><ele>169.0</ele><time>2026-05-02T07:36:07.319Z</time></trkpt><trkpt lat="40.6154009" lon="14.99338"><ele>169.0</ele><time>2026-05-02T07:36:08.319Z</time></trkpt><trkpt lat="40.6153236" lon="14.9934711"><ele>169.0</ele><time>2026-05-02T07:36:09.319Z</time></trkpt><trkpt lat="40.6152542" lon="14.9935445"><ele>169.0</ele><time>2026-05-02T07:36:10.319Z</time></trkpt><trkpt lat="40.6151976" lon="14.9936353"><ele>169.33333333333334</ele><time>2026-05-02T07:36:11.319Z</time></trkpt><trkpt lat="40.6151565" lon="14.9937529"><ele>169.66666666666669</ele><time>2026-05-02T07:36:12.319Z</time></trkpt><trkpt lat="40.6151073" lon="14.9938627"><ele>170.0</ele><time>2026-05-02T07:36:13.319Z</time></trkpt><trkpt lat="40.6150623" lon="14.993951"><ele>170.33333333333334</ele><time>2026-05-02T07:36:14.319Z</time></trkpt><trkpt lat="40.6150253" lon="14.9940296"><ele>170.66666666666666</ele><time>2026-05-02T07:36:15.319Z</time></trkpt><trkpt lat="40.6149801" lon="14.9941158"><ele>171.0</ele><time>2026-05-02T07:36:16.319Z</time></trkpt><trkpt lat="40.6149342" lon="14.9942164"><ele>172.4</ele><time>2026-05-02T07:36:17.319Z</time></trkpt><trkpt lat="40.6148883" lon="14.9943284"><ele>173.8</ele><time>2026-05-02T07:36:18.318Z</time></trkpt><trkpt lat="40.614845" lon="14.9944508"><ele>175.20000000000002</ele><time>2026-05-02T07:36:19.318Z</time></trkpt><trkpt lat="40.6148051" lon="14.994579"><ele>176.60000000000002</ele><time>2026-05-02T07:36:20.319Z</time></trkpt><trkpt lat="40.6147684" lon="14.9946948"><ele>178.0</ele><time>2026-05-02T07:36:21.318Z</time></trkpt><trkpt lat="40.6147384" lon="14.9948044"><ele>177.99999999999997</ele><time>2026-05-02T07:36:22.318Z</time></trkpt><trkpt lat="40.6147049" lon="14.9949015"><ele>178.0</ele><time>2026-05-02T07:36:23.319Z</time></trkpt><trkpt lat="40.6146768" lon="14.994987"><ele>178.0</ele><time>2026-05-02T07:36:24.319Z</time></trkpt><trkpt lat="40.614652" lon="14.9950711"><ele>178.0</ele><time>2026-05-02T07:36:25.319Z</time></trkpt><trkpt lat="40.6146284" lon="14.9951521"><ele>178.0</ele><time>2026-05-02T07:36:26.319Z</time></trkpt><trkpt lat="40.6146026" lon="14.9952361"><ele>177.99999999999997</ele><time>2026-05-02T07:36:27.319Z</time></trkpt><trkpt lat="40.6145784" lon="14.9953222"><ele>178.0</ele><time>2026-05-02T07:36:28.319Z</time></trkpt><trkpt lat="40.6145587" lon="14.9954064"><ele>179.0</ele><time>2026-05-02T07:36:29.319Z</time></trkpt><trkpt lat="40.6145355" lon="14.9955576"><ele>180.0</ele><time>2026-05-02T07:36:31.319Z</time></trkpt><trkpt lat="40.614518" lon="14.9957186"><ele>181.0</ele><time>2026-05-02T07:36:33.318Z</time></trkpt><trkpt lat="40.6145035" lon="14.9958607"><ele>182.0</ele><time>2026-05-02T07:36:35.319Z</time></trkpt><trkpt lat="40.6144894" lon="14.9959419"><ele>183.0</ele><time>2026-05-02T07:36:36.319Z</time></trkpt><trkpt lat="40.6144538" lon="14.9960953"><ele>181.33333333333334</ele><time>2026-05-02T07:36:38.319Z</time></trkpt><trkpt lat="40.6144039" lon="14.9962251"><ele>179.66666666666666</ele><time>2026-05-02T07:36:40.319Z</time></trkpt><trkpt lat="40.6143439" lon="14.9963729"><ele>178.0</ele><time>2026-05-02T07:36:42.319Z</time></trkpt><trkpt lat="40.6143136" lon="14.9964474"><ele>176.33333333333331</ele><time>2026-05-02T07:36:43.319Z</time></trkpt><trkpt lat="40.6142796" lon="14.996527"><ele>174.66666666666666</ele><time>2026-05-02T07:36:44.319Z</time></trkpt><trkpt lat="40.6142443" lon="14.996614"><ele>173.0</ele><time>2026-05-02T07:36:45.319Z</time></trkpt><trkpt lat="40.6142084" lon="14.9967052"><ele>173.0</ele><time>2026-05-02T07:36:46.319Z</time></trkpt><trkpt lat="40.6141769" lon="14.9967896"><ele>173.0</ele><time>2026-05-02T07:36:47.318Z</time></trkpt><trkpt lat="40.6141452" lon="14.99687"><ele>173.0</ele><time>2026-05-02T07:36:48.318Z</time></trkpt><trkpt lat="40.6141178" lon="14.996951"><ele>173.0</ele><time>2026-05-02T07:36:49.319Z</time></trkpt><trkpt lat="40.6140882" lon="14.9970254"><ele>173.0</ele><time>2026-05-02T07:36:50.319Z</time></trkpt><trkpt lat="40.6140423" lon="14.9971499"><ele>173.0</ele><time>2026-05-02T07:36:52.319Z</time></trkpt><trkpt lat="40.6139991" lon="14.9972911"><ele>173.0</ele><time>2026-05-02T07:36:54.318Z</time></trkpt><trkpt lat="40.6139767" lon="14.9973721"><ele>173.0</ele><time>2026-05-02T07:36:55.318Z</time></trkpt><trkpt lat="40.6139444" lon="14.9975397"><ele>173.0</ele><time>2026-05-02T07:36:57.318Z</time></trkpt><trkpt lat="40.6139277" lon="14.9976388"><ele>173.0</ele><time>2026-05-02T07:36:58.318Z</time></trkpt><trkpt lat="40.6138804" lon="14.9978029"><ele>173.0</ele><time>2026-05-02T07:37:00.319Z</time></trkpt><trkpt lat="40.6138566" lon="14.9978873"><ele>174.33333333333331</ele><time>2026-05-02T07:37:01.319Z</time></trkpt><trkpt lat="40.6138319" lon="14.9979702"><ele>175.66666666666666</ele><time>2026-05-02T07:37:02.319Z</time></trkpt><trkpt lat="40.6138006" lon="14.9980526"><ele>177.0</ele><time>2026-05-02T07:37:03.319Z</time></trkpt><trkpt lat="40.6137685" lon="14.9981426"><ele>178.33333333333334</ele><time>2026-05-02T07:37:04.318Z</time></trkpt><trkpt lat="40.6137354" lon="14.9982428"><ele>179.66666666666669</ele><time>2026-05-02T07:37:05.319Z</time></trkpt><trkpt lat="40.613701" lon="14.9983563"><ele>181.0</ele><time>2026-05-02T07:37:06.319Z</time></trkpt><trkpt lat="40.6136618" lon="14.9984782"><ele>178.5</ele><time>2026-05-02T07:37:07.319Z</time></trkpt><trkpt lat="40.6136251" lon="14.9986008"><ele>176.0</ele><time>2026-05-02T07:37:08.318Z</time></trkpt><trkpt lat="40.6135974" lon="14.998697"><ele>173.5</ele><time>2026-05-02T07:37:09.318Z</time></trkpt><trkpt lat="40.6135701" lon="14.9987907"><ele>171.0</ele><time>2026-05-02T07:37:10.318Z</time></trkpt><trkpt lat="40.6135401" lon="14.9988826"><ele>168.5</ele><time>2026-05-02T07:37:11.319Z</time></trkpt><trkpt lat="40.6135169" lon="14.9989732"><ele>166.0</ele><time>2026-05-02T07:37:12.319Z</time></trkpt><trkpt lat="40.6134982" lon="14.9990798"><ele>166.42857142857142</ele><time>2026-05-02T07:37:13.319Z</time></trkpt><trkpt lat="40.613487" lon="14.9991832"><ele>166.85714285714286</ele><time>2026-05-02T07:37:14.319Z</time></trkpt><trkpt lat="40.613474" lon="14.999278"><ele>167.28571428571428</ele><time>2026-05-02T07:37:15.319Z</time></trkpt><trkpt lat="40.6134602" lon="14.9993753"><ele>167.71428571428572</ele><time>2026-05-02T07:37:16.319Z</time></trkpt><trkpt lat="40.6134379" lon="14.9994661"><ele>168.14285714285714</ele><time>2026-05-02T07:37:17.319Z</time></trkpt><trkpt lat="40.6134084" lon="14.9995543"><ele>168.57142857142858</ele><time>2026-05-02T07:37:18.319Z</time></trkpt><trkpt lat="40.613383" lon="14.9996444"><ele>169.0</ele><time>2026-05-02T07:37:19.318Z</time></trkpt><trkpt lat="40.613363" lon="14.9997293"><ele>169.0</ele><time>2026-05-02T07:37:20.318Z</time></trkpt><trkpt lat="40.6133451" lon="14.9998117"><ele>169.0</ele><time>2026-05-02T07:37:21.318Z</time></trkpt><trkpt lat="40.6133416" lon="14.9999051"><ele>169.0</ele><time>2026-05-02T07:37:22.318Z</time></trkpt><trkpt lat="40.613347" lon="15.0000154"><ele>169.0</ele><time>2026-05-02T07:37:23.319Z</time></trkpt><trkpt lat="40.6133458" lon="15.0001265"><ele>169.0</ele><time>2026-05-02T07:37:24.318Z</time></trkpt><trkpt lat="40.6133411" lon="15.0002367"><ele>169.0</ele><time>2026-05-02T07:37:25.319Z</time></trkpt><trkpt lat="40.6133344" lon="15.0003416"><ele>169.0</ele><time>2026-05-02T07:37:26.319Z</time></trkpt><trkpt lat="40.6133203" lon="15.0004489"><ele>169.0</ele><time>2026-05-02T07:37:27.319Z</time></trkpt><trkpt lat="40.6132995" lon="15.0005468"><ele>169.0</ele><time>2026-05-02T07:37:28.319Z</time></trkpt><trkpt lat="40.613281" lon="15.0006505"><ele>169.0</ele><time>2026-05-02T07:37:29.319Z</time></trkpt><trkpt lat="40.6132624" lon="15.0007507"><ele>169.0</ele><time>2026-05-02T07:37:30.319Z</time></trkpt><trkpt lat="40.6132432" lon="15.0008476"><ele>169.0</ele><time>2026-05-02T07:37:31.319Z</time></trkpt><trkpt lat="40.6132208" lon="15.0009384"><ele>169.5</ele><time>2026-05-02T07:37:32.318Z</time></trkpt><trkpt lat="40.6132014" lon="15.0010289"><ele>170.0</ele><time>2026-05-02T07:37:33.318Z</time></trkpt><trkpt lat="40.6131788" lon="15.0011299"><ele>170.5</ele><time>2026-05-02T07:37:34.319Z</time></trkpt><trkpt lat="40.6131552" lon="15.001231"><ele>171.0</ele><time>2026-05-02T07:37:35.319Z</time></trkpt><trkpt lat="40.613136" lon="15.0013302"><ele>171.5</ele><time>2026-05-02T07:37:36.318Z</time></trkpt><trkpt lat="40.6131161" lon="15.001428"><ele>172.0</ele><time>2026-05-02T07:37:37.318Z</time></trkpt><trkpt lat="40.6130968" lon="15.0015372"><ele>172.0</ele><time>2026-05-02T07:37:38.318Z</time></trkpt><trkpt lat="40.6130811" lon="15.001657"><ele>172.0</ele><time>2026-05-02T07:37:39.319Z</time></trkpt><trkpt lat="40.6130673" lon="15.0017676"><ele>172.0</ele><time>2026-05-02T07:37:40.319Z</time></trkpt><trkpt lat="40.6130521" lon="15.0018717"><ele>172.0</ele><time>2026-05-02T07:37:41.319Z</time></trkpt><trkpt lat="40.6130386" lon="15.0019713"><ele>172.0</ele><time>2026-05-02T07:37:42.319Z</time></trkpt><trkpt lat="40.6130245" lon="15.0020671"><ele>172.0</ele><time>2026-05-02T07:37:43.318Z</time></trkpt><trkpt lat="40.6130093" lon="15.0021623"><ele>172.5</ele><time>2026-05-02T07:37:44.319Z</time></trkpt><trkpt lat="40.6129894" lon="15.0022582"><ele>173.0</ele><time>2026-05-02T07:37:45.319Z</time></trkpt><trkpt lat="40.6129702" lon="15.0023431"><ele>173.5</ele><time>2026-05-02T07:37:46.318Z</time></trkpt><trkpt lat="40.6129484" lon="15.0024225"><ele>174.0</ele><time>2026-05-02T07:37:47.318Z</time></trkpt><trkpt lat="40.6129167" lon="15.0025677"><ele>174.5</ele><time>2026-05-02T07:37:49.319Z</time></trkpt><trkpt lat="40.6128877" lon="15.0027067"><ele>175.0</ele><time>2026-05-02T07:37:51.319Z</time></trkpt><trkpt lat="40.612858" lon="15.0028403"><ele>175.6</ele><time>2026-05-02T07:37:53.319Z</time></trkpt><trkpt lat="40.6128411" lon="15.0029826"><ele>176.2</ele><time>2026-05-02T07:37:55.318Z</time></trkpt><trkpt lat="40.6128147" lon="15.0031212"><ele>176.8</ele><time>2026-05-02T07:37:57.318Z</time></trkpt><trkpt lat="40.6128028" lon="15.0032622"><ele>177.4</ele><time>2026-05-02T07:37:59.319Z</time></trkpt><trkpt lat="40.6127921" lon="15.0034017"><ele>178.0</ele><time>2026-05-02T07:38:01.319Z</time></trkpt><trkpt lat="40.6127769" lon="15.0035357"><ele>174.20000000000002</ele><time>2026-05-02T07:38:03.318Z</time></trkpt><trkpt lat="40.612773" lon="15.003676"><ele>170.4</ele><time>2026-05-02T07:38:05.318Z</time></trkpt><trkpt lat="40.6127693" lon="15.0038244"><ele>166.60000000000002</ele><time>2026-05-02T07:38:07.318Z</time></trkpt><trkpt lat="40.6127679" lon="15.0039081"><ele>162.8</ele><time>2026-05-02T07:38:08.319Z</time></trkpt><trkpt lat="40.6127602" lon="15.0040604"><ele>159.0</ele><time>2026-05-02T07:38:10.318Z</time></trkpt><trkpt lat="40.6127427" lon="15.0041901"><ele>159.0</ele><time>2026-05-02T07:38:12.319Z</time></trkpt><trkpt lat="40.6127139" lon="15.0043385"><ele>159.0</ele><time>2026-05-02T07:38:14.319Z</time></trkpt><trkpt lat="40.6126937" lon="15.0044181"><ele>159.0</ele><time>2026-05-02T07:38:15.319Z</time></trkpt><trkpt lat="40.6126658" lon="15.0045583"><ele>159.0</ele><time>2026-05-02T07:38:17.319Z</time></trkpt><trkpt lat="40.6126472" lon="15.0046846"><ele>159.0</ele><time>2026-05-02T07:38:19.319Z</time></trkpt><trkpt lat="40.6126464" lon="15.0048181"><ele>159.0</ele><time>2026-05-02T07:38:21.319Z</time></trkpt><trkpt lat="40.6126698" lon="15.004922"><ele>159.0</ele><time>2026-05-02T07:38:23.319Z</time></trkpt><trkpt lat="40.612665" lon="15.005012"><ele>159.0</ele><time>2026-05-02T07:38:25.319Z</time></trkpt><trkpt lat="40.6126764" lon="15.0051084"><ele>159.0</ele><time>2026-05-02T07:38:28.318Z</time></trkpt><trkpt lat="40.6126686" lon="15.0052437"><ele>159.0</ele><time>2026-05-02T07:38:52.319Z</time></trkpt><trkpt lat="40.6126534" lon="15.0054013"><ele>159.0</ele><time>2026-05-02T07:38:54.318Z</time></trkpt><trkpt lat="40.6126503" lon="15.0054883"><ele>158.8</ele><time>2026-05-02T07:38:55.318Z</time></trkpt><trkpt lat="40.6126287" lon="15.0056406"><ele>158.60000000000002</ele><time>2026-05-02T07:38:57.319Z</time></trkpt><trkpt lat="40.6126155" lon="15.0058058"><ele>158.4</ele><time>2026-05-02T07:38:59.318Z</time></trkpt><trkpt lat="40.6125996" lon="15.0058926"><ele>158.20000000000002</ele><time>2026-05-02T07:39:00.318Z</time></trkpt><trkpt lat="40.6125859" lon="15.0059797"><ele>158.0</ele><time>2026-05-02T07:39:01.318Z</time></trkpt><trkpt lat="40.6125558" lon="15.0061359"><ele>157.83333333333331</ele><time>2026-05-02T07:39:03.319Z</time></trkpt><trkpt lat="40.6125313" lon="15.0062159"><ele>157.66666666666666</ele><time>2026-05-02T07:39:04.319Z</time></trkpt><trkpt lat="40.6125148" lon="15.0063018"><ele>157.5</ele><time>2026-05-02T07:39:05.319Z</time></trkpt><trkpt lat="40.6124779" lon="15.0064585"><ele>157.33333333333334</ele><time>2026-05-02T07:39:07.319Z</time></trkpt><trkpt lat="40.6124504" lon="15.0065452"><ele>157.16666666666669</ele><time>2026-05-02T07:39:08.319Z</time></trkpt><trkpt lat="40.6124228" lon="15.0066297"><ele>157.0</ele><time>2026-05-02T07:39:09.319Z</time></trkpt><trkpt lat="40.6123784" lon="15.0067781"><ele>157.0</ele><time>2026-05-02T07:39:11.318Z</time></trkpt><trkpt lat="40.6123668" lon="15.0068688"><ele>157.0</ele><time>2026-05-02T07:39:12.318Z</time></trkpt><trkpt lat="40.6123556" lon="15.0069741"><ele>157.0</ele><time>2026-05-02T07:39:13.318Z</time></trkpt><trkpt lat="40.6123418" lon="15.007067"><ele>157.0</ele><time>2026-05-02T07:39:14.318Z</time></trkpt><trkpt lat="40.6123132" lon="15.0071739"><ele>157.0</ele><time>2026-05-02T07:39:15.318Z</time></trkpt><trkpt lat="40.6122882" lon="15.0072772"><ele>157.0</ele><time>2026-05-02T07:39:16.318Z</time></trkpt><trkpt lat="40.6122629" lon="15.0073808"><ele>157.0</ele><time>2026-05-02T07:39:17.317Z</time></trkpt><trkpt lat="40.6122323" lon="15.0074834"><ele>157.0</ele><time>2026-05-02T07:39:18.318Z</time></trkpt><trkpt lat="40.6122054" lon="15.0075823"><ele>157.0</ele><time>2026-05-02T07:39:19.318Z</time></trkpt><trkpt lat="40.6121793" lon="15.0076772"><ele>157.0</ele><time>2026-05-02T07:39:20.318Z</time></trkpt><trkpt lat="40.6121555" lon="15.0077673"><ele>157.0</ele><time>2026-05-02T07:39:21.318Z</time></trkpt><trkpt lat="40.6121287" lon="15.0078588"><ele>157.0</ele><time>2026-05-02T07:39:22.318Z</time></trkpt><trkpt lat="40.612107" lon="15.0079499"><ele>157.2</ele><time>2026-05-02T07:39:23.319Z</time></trkpt><trkpt lat="40.6120835" lon="15.0080553"><ele>157.39999999999998</ele><time>2026-05-02T07:39:24.318Z</time></trkpt><trkpt lat="40.612055" lon="15.0081725"><ele>157.60000000000002</ele><time>2026-05-02T07:39:25.319Z</time></trkpt><trkpt lat="40.6120194" lon="15.0083019"><ele>157.8</ele><time>2026-05-02T07:39:26.319Z</time></trkpt><trkpt lat="40.6119765" lon="15.0084478"><ele>158.0</ele><time>2026-05-02T07:39:27.319Z</time></trkpt><trkpt lat="40.6119311" lon="15.0086062"><ele>154.0</ele><time>2026-05-02T07:39:28.318Z</time></trkpt><trkpt lat="40.611891" lon="15.0087647"><ele>150.0</ele><time>2026-05-02T07:39:29.318Z</time></trkpt><trkpt lat="40.6118609" lon="15.0089204"><ele>146.0</ele><time>2026-05-02T07:39:30.318Z</time></trkpt><trkpt lat="40.611834" lon="15.00906"><ele>142.0</ele><time>2026-05-02T07:39:31.318Z</time></trkpt><trkpt lat="40.6118027" lon="15.0091835"><ele>141.79999999999998</ele><time>2026-05-02T07:39:32.319Z</time></trkpt><trkpt lat="40.6117689" lon="15.0093099"><ele>141.6</ele><time>2026-05-02T07:39:33.319Z</time></trkpt><trkpt lat="40.6117356" lon="15.0094412"><ele>141.39999999999998</ele><time>2026-05-02T07:39:34.319Z</time></trkpt><trkpt lat="40.6116979" lon="15.0095808"><ele>141.2</ele><time>2026-05-02T07:39:35.319Z</time></trkpt><trkpt lat="40.6116524" lon="15.0097287"><ele>141.0</ele><time>2026-05-02T07:39:36.319Z</time></trkpt><trkpt lat="40.6116126" lon="15.0098632"><ele>141.0</ele><time>2026-05-02T07:39:37.319Z</time></trkpt><trkpt lat="40.6115869" lon="15.0099795"><ele>141.0</ele><time>2026-05-02T07:39:38.319Z</time></trkpt><trkpt lat="40.6115678" lon="15.0100823"><ele>141.0</ele><time>2026-05-02T07:39:39.318Z</time></trkpt><trkpt lat="40.6115509" lon="15.0101816"><ele>141.0</ele><time>2026-05-02T07:39:40.318Z</time></trkpt><trkpt lat="40.6115354" lon="15.0102754"><ele>141.0</ele><time>2026-05-02T07:39:41.319Z</time></trkpt><trkpt lat="40.6115236" lon="15.0103624"><ele>141.0</ele><time>2026-05-02T07:39:42.319Z</time></trkpt><trkpt lat="40.6115153" lon="15.0104502"><ele>141.5</ele><time>2026-05-02T07:39:43.318Z</time></trkpt><trkpt lat="40.6115085" lon="15.0105406"><ele>142.0</ele><time>2026-05-02T07:39:44.318Z</time></trkpt><trkpt lat="40.611504" lon="15.0106337"><ele>142.5</ele><time>2026-05-02T07:39:45.318Z</time></trkpt><trkpt lat="40.6114923" lon="15.0107343"><ele>143.0</ele><time>2026-05-02T07:39:46.319Z</time></trkpt><trkpt lat="40.6114775" lon="15.0108469"><ele>143.5</ele><time>2026-05-02T07:39:47.319Z</time></trkpt><trkpt lat="40.6114656" lon="15.0109678"><ele>144.0</ele><time>2026-05-02T07:39:48.319Z</time></trkpt><trkpt lat="40.6114557" lon="15.0110929"><ele>144.0</ele><time>2026-05-02T07:39:49.319Z</time></trkpt><trkpt lat="40.6114442" lon="15.0112183"><ele>144.0</ele><time>2026-05-02T07:39:50.319Z</time></trkpt><trkpt lat="40.6114331" lon="15.0113485"><ele>144.0</ele><time>2026-05-02T07:39:51.319Z</time></trkpt><trkpt lat="40.6114223" lon="15.0114818"><ele>144.0</ele><time>2026-05-02T07:39:52.318Z</time></trkpt><trkpt lat="40.6114121" lon="15.0116141"><ele>144.0</ele><time>2026-05-02T07:39:53.318Z</time></trkpt><trkpt lat="40.6113997" lon="15.0117386"><ele>144.0</ele><time>2026-05-02T07:39:54.318Z</time></trkpt><trkpt lat="40.611389" lon="15.0118555"><ele>144.0</ele><time>2026-05-02T07:39:55.319Z</time></trkpt><trkpt lat="40.6113807" lon="15.0119674"><ele>144.0</ele><time>2026-05-02T07:39:56.319Z</time></trkpt><trkpt lat="40.6113706" lon="15.012074"><ele>144.0</ele><time>2026-05-02T07:39:57.318Z</time></trkpt><trkpt lat="40.6113574" lon="15.0121751"><ele>144.0</ele><time>2026-05-02T07:39:58.318Z</time></trkpt><trkpt lat="40.611343" lon="15.0122734"><ele>144.0</ele><time>2026-05-02T07:39:59.318Z</time></trkpt><trkpt lat="40.6113281" lon="15.0123687"><ele>144.0</ele><time>2026-05-02T07:40:00.318Z</time></trkpt><trkpt lat="40.6113123" lon="15.0124688"><ele>144.0</ele><time>2026-05-02T07:40:01.318Z</time></trkpt><trkpt lat="40.6112953" lon="15.0125823"><ele>144.0</ele><time>2026-05-02T07:40:02.319Z</time></trkpt><trkpt lat="40.6112738" lon="15.0127061"><ele>144.0</ele><time>2026-05-02T07:40:03.318Z</time></trkpt><trkpt lat="40.6112478" lon="15.0128254"><ele>144.0</ele><time>2026-05-02T07:40:04.319Z</time></trkpt><trkpt lat="40.611216" lon="15.0129503"><ele>143.4</ele><time>2026-05-02T07:40:05.319Z</time></trkpt><trkpt lat="40.6111899" lon="15.0130774"><ele>142.8</ele><time>2026-05-02T07:40:06.319Z</time></trkpt><trkpt lat="40.6111694" lon="15.0132032"><ele>142.2</ele><time>2026-05-02T07:40:07.319Z</time></trkpt><trkpt lat="40.6111501" lon="15.013336"><ele>141.6</ele><time>2026-05-02T07:40:08.319Z</time></trkpt><trkpt lat="40.611125" lon="15.0134743"><ele>141.0</ele><time>2026-05-02T07:40:09.319Z</time></trkpt><trkpt lat="40.6110928" lon="15.0136171"><ele>141.0</ele><time>2026-05-02T07:40:10.319Z</time></trkpt><trkpt lat="40.6110596" lon="15.0137543"><ele>141.0</ele><time>2026-05-02T07:40:11.319Z</time></trkpt><trkpt lat="40.6110247" lon="15.013901"><ele>141.0</ele><time>2026-05-02T07:40:12.318Z</time></trkpt><trkpt lat="40.6109907" lon="15.0140492"><ele>141.0</ele><time>2026-05-02T07:40:13.318Z</time></trkpt><trkpt lat="40.6109536" lon="15.0141897"><ele>141.0</ele><time>2026-05-02T07:40:14.318Z</time></trkpt><trkpt lat="40.6109169" lon="15.0143201"><ele>141.0</ele><time>2026-05-02T07:40:15.318Z</time></trkpt><trkpt lat="40.610881" lon="15.0144438"><ele>141.0</ele><time>2026-05-02T07:40:16.319Z</time></trkpt><trkpt lat="40.6108448" lon="15.0145657"><ele>141.0</ele><time>2026-05-02T07:40:17.319Z</time></trkpt><trkpt lat="40.6108072" lon="15.0146899"><ele>141.0</ele><time>2026-05-02T07:40:18.318Z</time></trkpt><trkpt lat="40.6107719" lon="15.0148169"><ele>141.0</ele><time>2026-05-02T07:40:19.318Z</time></trkpt><trkpt lat="40.6107366" lon="15.0149445"><ele>141.0</ele><time>2026-05-02T07:40:20.319Z</time></trkpt><trkpt lat="40.6106984" lon="15.0150686"><ele>141.0</ele><time>2026-05-02T07:40:21.319Z</time></trkpt><trkpt lat="40.6106591" lon="15.0151934"><ele>141.0</ele><time>2026-05-02T07:40:22.319Z</time></trkpt><trkpt lat="40.6106187" lon="15.0153227"><ele>141.0</ele><time>2026-05-02T07:40:23.319Z</time></trkpt><trkpt lat="40.6105864" lon="15.0154496"><ele>141.0</ele><time>2026-05-02T07:40:24.319Z</time></trkpt><trkpt lat="40.6105579" lon="15.0155792"><ele>141.0</ele><time>2026-05-02T07:40:25.319Z</time></trkpt><trkpt lat="40.610526" lon="15.0157067"><ele>141.0</ele><time>2026-05-02T07:40:26.319Z</time></trkpt><trkpt lat="40.6104936" lon="15.0158277"><ele>141.0</ele><time>2026-05-02T07:40:27.319Z</time></trkpt><trkpt lat="40.6104669" lon="15.0159346"><ele>141.0</ele><time>2026-05-02T07:40:28.319Z</time></trkpt><trkpt lat="40.6104454" lon="15.0160236"><ele>141.2</ele><time>2026-05-02T07:40:29.319Z</time></trkpt><trkpt lat="40.6103987" lon="15.0161611"><ele>141.39999999999998</ele><time>2026-05-02T07:40:31.319Z</time></trkpt><trkpt lat="40.6103589" lon="15.0163133"><ele>141.6</ele><time>2026-05-02T07:40:33.318Z</time></trkpt><trkpt lat="40.610337" lon="15.0163935"><ele>141.79999999999998</ele><time>2026-05-02T07:40:34.319Z</time></trkpt><trkpt lat="40.6102924" lon="15.0165437"><ele>142.0</ele><time>2026-05-02T07:40:36.318Z</time></trkpt><trkpt lat="40.6102688" lon="15.0167037"><ele>142.85714285714286</ele><time>2026-05-02T07:40:38.319Z</time></trkpt><trkpt lat="40.6102602" lon="15.0167879"><ele>143.7142857142857</ele><time>2026-05-02T07:40:39.319Z</time></trkpt><trkpt lat="40.6102472" lon="15.0168788"><ele>144.57142857142856</ele><time>2026-05-02T07:40:40.319Z</time></trkpt><trkpt lat="40.6102305" lon="15.0169687"><ele>145.42857142857142</ele><time>2026-05-02T07:40:41.319Z</time></trkpt><trkpt lat="40.6102161" lon="15.0170654"><ele>146.28571428571428</ele><time>2026-05-02T07:40:42.319Z</time></trkpt><trkpt lat="40.6102022" lon="15.0171558"><ele>147.14285714285714</ele><time>2026-05-02T07:40:43.319Z</time></trkpt><trkpt lat="40.6101875" lon="15.0172419"><ele>148.0</ele><time>2026-05-02T07:40:44.319Z</time></trkpt><trkpt lat="40.6101816" lon="15.0173297"><ele>148.0</ele><time>2026-05-02T07:40:45.318Z</time></trkpt><trkpt lat="40.6101802" lon="15.0174272"><ele>148.0</ele><time>2026-05-02T07:40:46.318Z</time></trkpt><trkpt lat="40.6101787" lon="15.0175273"><ele>148.0</ele><time>2026-05-02T07:40:47.318Z</time></trkpt><trkpt lat="40.6101777" lon="15.0176487"><ele>148.0</ele><time>2026-05-02T07:40:48.318Z</time></trkpt><trkpt lat="40.6101742" lon="15.017783"><ele>148.0</ele><time>2026-05-02T07:40:49.318Z</time></trkpt><trkpt lat="40.6101654" lon="15.0179327"><ele>148.0</ele><time>2026-05-02T07:40:50.318Z</time></trkpt><trkpt lat="40.6101583" lon="15.0180697"><ele>148.0</ele><time>2026-05-02T07:40:51.319Z</time></trkpt><trkpt lat="40.6101454" lon="15.0182028"><ele>148.0</ele><time>2026-05-02T07:40:52.319Z</time></trkpt><trkpt lat="40.610128" lon="15.0183432"><ele>148.0</ele><time>2026-05-02T07:40:53.319Z</time></trkpt><trkpt lat="40.6101154" lon="15.018494"><ele>148.0</ele><time>2026-05-02T07:40:54.319Z</time></trkpt><trkpt lat="40.6101097" lon="15.0186516"><ele>148.0</ele><time>2026-05-02T07:40:55.318Z</time></trkpt><trkpt lat="40.6101055" lon="15.018804"><ele>148.0</ele><time>2026-05-02T07:40:56.318Z</time></trkpt><trkpt lat="40.6100935" lon="15.0189711"><ele>148.0</ele><time>2026-05-02T07:40:57.318Z</time></trkpt><trkpt lat="40.6100801" lon="15.0191343"><ele>148.0</ele><time>2026-05-02T07:40:58.318Z</time></trkpt><trkpt lat="40.6100648" lon="15.0192992"><ele>148.75</ele><time>2026-05-02T07:40:59.318Z</time></trkpt><trkpt lat="40.6100499" lon="15.0194685"><ele>149.5</ele><time>2026-05-02T07:41:00.318Z</time></trkpt><trkpt lat="40.6100384" lon="15.0196396"><ele>150.25</ele><time>2026-05-02T07:41:01.318Z</time></trkpt><trkpt lat="40.6100219" lon="15.0198137"><ele>151.0</ele><time>2026-05-02T07:41:02.319Z</time></trkpt><trkpt lat="40.6100036" lon="15.0200014"><ele>151.5</ele><time>2026-05-02T07:41:03.319Z</time></trkpt><trkpt lat="40.609986" lon="15.0201984"><ele>152.0</ele><time>2026-05-02T07:41:04.319Z</time></trkpt><trkpt lat="40.6099723" lon="15.0203704"><ele>152.5</ele><time>2026-05-02T07:41:05.319Z</time></trkpt><trkpt lat="40.6099611" lon="15.0205369"><ele>153.0</ele><time>2026-05-02T07:41:06.318Z</time></trkpt><trkpt lat="40.6099518" lon="15.0206965"><ele>153.5</ele><time>2026-05-02T07:41:07.318Z</time></trkpt><trkpt lat="40.6099385" lon="15.0208553"><ele>154.0</ele><time>2026-05-02T07:41:08.318Z</time></trkpt><trkpt lat="40.6099244" lon="15.0210165"><ele>154.5</ele><time>2026-05-02T07:41:09.318Z</time></trkpt><trkpt lat="40.6099152" lon="15.0211738"><ele>155.0</ele><time>2026-05-02T07:41:10.319Z</time></trkpt><trkpt lat="40.6099065" lon="15.0213126"><ele>155.0</ele><time>2026-05-02T07:41:11.319Z</time></trkpt><trkpt lat="40.609897" lon="15.0214373"><ele>155.0</ele><time>2026-05-02T07:41:12.319Z</time></trkpt><trkpt lat="40.6098847" lon="15.021554"><ele>155.0</ele><time>2026-05-02T07:41:13.319Z</time></trkpt><trkpt lat="40.6098752" lon="15.0216424"><ele>155.0</ele><time>2026-05-02T07:41:14.318Z</time></trkpt><trkpt lat="40.609858" lon="15.021779"><ele>155.0</ele><time>2026-05-02T07:41:16.318Z</time></trkpt><trkpt lat="40.609851" lon="15.0219173"><ele>155.33333333333331</ele><time>2026-05-02T07:41:18.318Z</time></trkpt><trkpt lat="40.6098463" lon="15.0220047"><ele>155.66666666666666</ele><time>2026-05-02T07:41:19.319Z</time></trkpt><trkpt lat="40.6098427" lon="15.0221001"><ele>156.0</ele><time>2026-05-02T07:41:20.318Z</time></trkpt><trkpt lat="40.6098397" lon="15.0222051"><ele>156.33333333333334</ele><time>2026-05-02T07:41:21.318Z</time></trkpt><trkpt lat="40.6098423" lon="15.0223261"><ele>156.66666666666669</ele><time>2026-05-02T07:41:22.319Z</time></trkpt><trkpt lat="40.6098508" lon="15.0224566"><ele>157.0</ele><time>2026-05-02T07:41:23.319Z</time></trkpt><trkpt lat="40.6098568" lon="15.0225895"><ele>157.16666666666669</ele><time>2026-05-02T07:41:24.319Z</time></trkpt><trkpt lat="40.6098617" lon="15.0227069"><ele>157.33333333333334</ele><time>2026-05-02T07:41:25.318Z</time></trkpt><trkpt lat="40.6098682" lon="15.0228181"><ele>157.5</ele><time>2026-05-02T07:41:26.318Z</time></trkpt><trkpt lat="40.6098784" lon="15.0229258"><ele>157.66666666666666</ele><time>2026-05-02T07:41:27.318Z</time></trkpt><trkpt lat="40.6098866" lon="15.0230383"><ele>157.83333333333331</ele><time>2026-05-02T07:41:28.318Z</time></trkpt><trkpt lat="40.6098917" lon="15.0231572"><ele>158.0</ele><time>2026-05-02T07:41:29.318Z</time></trkpt><trkpt lat="40.6098974" lon="15.0232765"><ele>158.0</ele><time>2026-05-02T07:41:30.319Z</time></trkpt><trkpt lat="40.6099041" lon="15.0233931"><ele>158.0</ele><time>2026-05-02T07:41:31.319Z</time></trkpt><trkpt lat="40.609914" lon="15.0235067"><ele>158.0</ele><time>2026-05-02T07:41:32.319Z</time></trkpt><trkpt lat="40.6099226" lon="15.0236132"><ele>158.0</ele><time>2026-05-02T07:41:33.319Z</time></trkpt><trkpt lat="40.6099322" lon="15.023717"><ele>158.0</ele><time>2026-05-02T07:41:34.319Z</time></trkpt><trkpt lat="40.6099417" lon="15.0238183"><ele>158.0</ele><time>2026-05-02T07:41:35.319Z</time></trkpt><trkpt lat="40.6099506" lon="15.0239118"><ele>158.0</ele><time>2026-05-02T07:41:36.319Z</time></trkpt><trkpt lat="40.6099693" lon="15.0240596"><ele>158.0</ele><time>2026-05-02T07:41:38.319Z</time></trkpt><trkpt lat="40.6099756" lon="15.0241787"><ele>158.0</ele><time>2026-05-02T07:41:40.319Z</time></trkpt><trkpt lat="40.6099639" lon="15.0242712"><ele>158.0</ele><time>2026-05-02T07:41:42.319Z</time></trkpt><trkpt lat="40.6099575" lon="15.0243587"><ele>158.0</ele><time>2026-05-02T07:41:54.318Z</time></trkpt><trkpt lat="40.6099759" lon="15.024469"><ele>158.0</ele><time>2026-05-02T07:41:58.319Z</time></trkpt><trkpt lat="40.6100106" lon="15.0245623"><ele>158.0</ele><time>2026-05-02T07:42:06.319Z</time></trkpt><trkpt lat="40.6100177" lon="15.0246492"><ele>158.0</ele><time>2026-05-02T07:43:09.318Z</time></trkpt><trkpt lat="40.6100225" lon="15.0247998"><ele>158.0</ele><time>2026-05-02T07:43:12.319Z</time></trkpt><trkpt lat="40.6100267" lon="15.0249273"><ele>158.0</ele><time>2026-05-02T07:43:14.318Z</time></trkpt><trkpt lat="40.6100583" lon="15.0250289"><ele>158.0</ele><time>2026-05-02T07:43:16.319Z</time></trkpt><trkpt lat="40.6101286" lon="15.0250958"><ele>158.0</ele><time>2026-05-02T07:43:18.319Z</time></trkpt><trkpt lat="40.6102316" lon="15.0250865"><ele>158.0</ele><time>2026-05-02T07:43:20.318Z</time></trkpt><trkpt lat="40.6103237" lon="15.025064"><ele>158.0</ele><time>2026-05-02T07:43:22.318Z</time></trkpt><trkpt lat="40.6104078" lon="15.0250432"><ele>158.0</ele><time>2026-05-02T07:43:24.318Z</time></trkpt><trkpt lat="40.6104957" lon="15.0250263"><ele>158.0</ele><time>2026-05-02T07:43:26.319Z</time></trkpt><trkpt lat="40.6105952" lon="15.0250208"><ele>158.0</ele><time>2026-05-02T07:43:28.318Z</time></trkpt><trkpt lat="40.6106956" lon="15.0250007"><ele>159.0</ele><time>2026-05-02T07:43:30.319Z</time></trkpt><trkpt lat="40.6108081" lon="15.024982"><ele>160.0</ele><time>2026-05-02T07:43:32.319Z</time></trkpt><trkpt lat="40.6109031" lon="15.0250083"><ele>161.0</ele><time>2026-05-02T07:43:34.319Z</time></trkpt><trkpt lat="40.6109758" lon="15.0250911"><ele>162.0</ele><time>2026-05-02T07:43:36.318Z</time></trkpt><trkpt lat="40.6110184" lon="15.0252225"><ele>163.0</ele><time>2026-05-02T07:43:38.318Z</time></trkpt><trkpt lat="40.6110577" lon="15.0253717"><ele>163.0</ele><time>2026-05-02T07:43:40.318Z</time></trkpt><trkpt lat="40.6110967" lon="15.0255093"><ele>163.0</ele><time>2026-05-02T07:43:42.318Z</time></trkpt><trkpt lat="40.6111393" lon="15.025662"><ele>163.0</ele><time>2026-05-02T07:43:44.319Z</time></trkpt><trkpt lat="40.6111603" lon="15.0257476"><ele>163.0</ele><time>2026-05-02T07:43:45.319Z</time></trkpt><trkpt lat="40.6111823" lon="15.0258505"><ele>163.0</ele><time>2026-05-02T07:43:46.319Z</time></trkpt><trkpt lat="40.6111956" lon="15.0259424"><ele>166.4</ele><time>2026-05-02T07:43:47.319Z</time></trkpt><trkpt lat="40.611229" lon="15.0260662"><ele>169.8</ele><time>2026-05-02T07:43:49.318Z</time></trkpt><trkpt lat="40.6112934" lon="15.0261455"><ele>173.2</ele><time>2026-05-02T07:43:51.318Z</time></trkpt><trkpt lat="40.6113824" lon="15.0261643"><ele>176.6</ele><time>2026-05-02T07:43:53.318Z</time></trkpt><trkpt lat="40.6114691" lon="15.0261122"><ele>180.0</ele><time>2026-05-02T07:43:55.319Z</time></trkpt><trkpt lat="40.6115024" lon="15.0259871"><ele>180.0</ele><time>2026-05-02T07:43:57.319Z</time></trkpt><trkpt lat="40.6114898" lon="15.025836"><ele>180.0</ele><time>2026-05-02T07:43:59.319Z</time></trkpt><trkpt lat="40.6114598" lon="15.0256889"><ele>180.0</ele><time>2026-05-02T07:44:01.319Z</time></trkpt><trkpt lat="40.611433" lon="15.0255387"><ele>180.0</ele><time>2026-05-02T07:44:03.319Z</time></trkpt><trkpt lat="40.6114181" lon="15.0254511"><ele>180.0</ele><time>2026-05-02T07:44:04.318Z</time></trkpt><trkpt lat="40.6114103" lon="15.0253583"><ele>181.16666666666666</ele><time>2026-05-02T07:44:05.319Z</time></trkpt><trkpt lat="40.6114058" lon="15.0252544"><ele>182.33333333333334</ele><time>2026-05-02T07:44:06.319Z</time></trkpt><trkpt lat="40.6113909" lon="15.0251439"><ele>183.5</ele><time>2026-05-02T07:44:07.319Z</time></trkpt><trkpt lat="40.6113715" lon="15.0250248"><ele>184.66666666666669</ele><time>2026-05-02T07:44:08.319Z</time></trkpt><trkpt lat="40.6113565" lon="15.0249151"><ele>185.83333333333334</ele><time>2026-05-02T07:44:09.319Z</time></trkpt><trkpt lat="40.6113456" lon="15.0247739"><ele>187.0</ele><time>2026-05-02T07:44:10.318Z</time></trkpt><trkpt lat="40.6113447" lon="15.0246537"><ele>187.33333333333334</ele><time>2026-05-02T07:44:11.318Z</time></trkpt><trkpt lat="40.6113469" lon="15.0245459"><ele>187.66666666666669</ele><time>2026-05-02T07:44:12.318Z</time></trkpt><trkpt lat="40.6113544" lon="15.0244406"><ele>188.0</ele><time>2026-05-02T07:44:13.318Z</time></trkpt><trkpt lat="40.6113692" lon="15.0243344"><ele>188.33333333333334</ele><time>2026-05-02T07:44:14.318Z</time></trkpt><trkpt lat="40.6113789" lon="15.0242205"><ele>188.66666666666666</ele><time>2026-05-02T07:44:15.318Z</time></trkpt><trkpt lat="40.6113902" lon="15.0241074"><ele>189.0</ele><time>2026-05-02T07:44:16.318Z</time></trkpt><trkpt lat="40.6113992" lon="15.024001"><ele>189.0</ele><time>2026-05-02T07:44:17.319Z</time></trkpt><trkpt lat="40.6114056" lon="15.0238972"><ele>189.0</ele><time>2026-05-02T07:44:18.319Z</time></trkpt><trkpt lat="40.6114098" lon="15.0237946"><ele>189.0</ele><time>2026-05-02T07:44:19.318Z</time></trkpt><trkpt lat="40.6114205" lon="15.023691"><ele>189.0</ele><time>2026-05-02T07:44:20.319Z</time></trkpt><trkpt lat="40.6114293" lon="15.0235852"><ele>189.0</ele><time>2026-05-02T07:44:21.319Z</time></trkpt><trkpt lat="40.6114345" lon="15.023482"><ele>189.0</ele><time>2026-05-02T07:44:22.319Z</time></trkpt><trkpt lat="40.6114433" lon="15.0233831"><ele>189.2</ele><time>2026-05-02T07:44:23.319Z</time></trkpt><trkpt lat="40.6114512" lon="15.0232815"><ele>189.39999999999998</ele><time>2026-05-02T07:44:24.318Z</time></trkpt><trkpt lat="40.6114623" lon="15.0231664"><ele>189.6</ele><time>2026-05-02T07:44:25.318Z</time></trkpt><trkpt lat="40.6114745" lon="15.0230448"><ele>189.8</ele><time>2026-05-02T07:44:26.318Z</time></trkpt><trkpt lat="40.6114852" lon="15.0229163"><ele>190.0</ele><time>2026-05-02T07:44:27.319Z</time></trkpt><trkpt lat="40.611496" lon="15.022787"><ele>190.0</ele><time>2026-05-02T07:44:28.319Z</time></trkpt><trkpt lat="40.6115065" lon="15.0226574"><ele>190.0</ele><time>2026-05-02T07:44:29.319Z</time></trkpt><trkpt lat="40.6115167" lon="15.022528"><ele>190.0</ele><time>2026-05-02T07:44:30.319Z</time></trkpt><trkpt lat="40.6115275" lon="15.0223989"><ele>190.0</ele><time>2026-05-02T07:44:31.319Z</time></trkpt><trkpt lat="40.6115393" lon="15.0222719"><ele>190.0</ele><time>2026-05-02T07:44:32.318Z</time></trkpt><trkpt lat="40.6115446" lon="15.0221415"><ele>190.0</ele><time>2026-05-02T07:44:33.319Z</time></trkpt><trkpt lat="40.6115474" lon="15.0220049"><ele>190.0</ele><time>2026-05-02T07:44:34.319Z</time></trkpt><trkpt lat="40.6115512" lon="15.0218663"><ele>190.0</ele><time>2026-05-02T07:44:35.319Z</time></trkpt><trkpt lat="40.6115526" lon="15.0217271"><ele>190.0</ele><time>2026-05-02T07:44:36.318Z</time></trkpt><trkpt lat="40.6115568" lon="15.0215808"><ele>190.0</ele><time>2026-05-02T07:44:37.319Z</time></trkpt><trkpt lat="40.6115616" lon="15.0214386"><ele>190.0</ele><time>2026-05-02T07:44:38.319Z</time></trkpt><trkpt lat="40.6115709" lon="15.021303"><ele>190.0</ele><time>2026-05-02T07:44:39.319Z</time></trkpt><trkpt lat="40.6115816" lon="15.0211604"><ele>190.0</ele><time>2026-05-02T07:44:40.319Z</time></trkpt><trkpt lat="40.611604" lon="15.0210086"><ele>190.0</ele><time>2026-05-02T07:44:41.318Z</time></trkpt><trkpt lat="40.6116243" lon="15.0208606"><ele>190.0</ele><time>2026-05-02T07:44:42.319Z</time></trkpt><trkpt lat="40.6116471" lon="15.0207163"><ele>189.25</ele><time>2026-05-02T07:44:43.319Z</time></trkpt><trkpt lat="40.6116709" lon="15.0205706"><ele>188.5</ele><time>2026-05-02T07:44:44.319Z</time></trkpt><trkpt lat="40.611698" lon="15.0204211"><ele>187.75</ele><time>2026-05-02T07:44:45.319Z</time></trkpt><trkpt lat="40.6117297" lon="15.0202705"><ele>187.0</ele><time>2026-05-02T07:44:46.319Z</time></trkpt><trkpt lat="40.6117604" lon="15.0201228"><ele>187.0</ele><time>2026-05-02T07:44:47.318Z</time></trkpt><trkpt lat="40.6117887" lon="15.0199838"><ele>187.0</ele><time>2026-05-02T07:44:48.318Z</time></trkpt><trkpt lat="40.6118217" lon="15.0198609"><ele>187.0</ele><time>2026-05-02T07:44:49.318Z</time></trkpt><trkpt lat="40.6118641" lon="15.0197409"><ele>187.0</ele><time>2026-05-02T07:44:50.318Z</time></trkpt><trkpt lat="40.6119105" lon="15.019628"><ele>187.0</ele><time>2026-05-02T07:44:51.319Z</time></trkpt><trkpt lat="40.6119629" lon="15.0195208"><ele>189.0</ele><time>2026-05-02T07:44:52.319Z</time></trkpt><trkpt lat="40.6120193" lon="15.0194214"><ele>191.0</ele><time>2026-05-02T07:44:53.319Z</time></trkpt><trkpt lat="40.6120807" lon="15.0193399"><ele>193.0</ele><time>2026-05-02T07:44:54.319Z</time></trkpt><trkpt lat="40.6121417" lon="15.0192755"><ele>195.0</ele><time>2026-05-02T07:44:55.319Z</time></trkpt><trkpt lat="40.6122073" lon="15.0192346"><ele>196.99999999999997</ele><time>2026-05-02T07:44:56.318Z</time></trkpt><trkpt lat="40.6122743" lon="15.0192138"><ele>199.0</ele><time>2026-05-02T07:44:57.319Z</time></trkpt><trkpt lat="40.6123397" lon="15.0192109"><ele>198.99999999999997</ele><time>2026-05-02T07:44:58.319Z</time></trkpt><trkpt lat="40.6124052" lon="15.0192209"><ele>199.0</ele><time>2026-05-02T07:44:59.319Z</time></trkpt><trkpt lat="40.6124705" lon="15.0192437"><ele>199.0</ele><time>2026-05-02T07:45:00.318Z</time></trkpt><trkpt lat="40.6125331" lon="15.019284"><ele>199.0</ele><time>2026-05-02T07:45:01.318Z</time></trkpt><trkpt lat="40.6125923" lon="15.0193362"><ele>199.0</ele><time>2026-05-02T07:45:02.318Z</time></trkpt><trkpt lat="40.6126463" lon="15.0193958"><ele>198.99999999999997</ele><time>2026-05-02T07:45:03.318Z</time></trkpt><trkpt lat="40.6126934" lon="15.0194581"><ele>199.0</ele><time>2026-05-02T07:45:04.319Z</time></trkpt><trkpt lat="40.6127379" lon="15.0195285"><ele>198.99999999999997</ele><time>2026-05-02T07:45:05.319Z</time></trkpt><trkpt lat="40.6127829" lon="15.0196054"><ele>199.0</ele><time>2026-05-02T07:45:06.319Z</time></trkpt><trkpt lat="40.6128321" lon="15.019682"><ele>199.0</ele><time>2026-05-02T07:45:07.318Z</time></trkpt><trkpt lat="40.6128869" lon="15.0197513"><ele>199.0</ele><time>2026-05-02T07:45:08.319Z</time></trkpt><trkpt lat="40.6129356" lon="15.0198224"><ele>199.0</ele><time>2026-05-02T07:45:09.319Z</time></trkpt><trkpt lat="40.6129825" lon="15.0198908"><ele>198.99999999999997</ele><time>2026-05-02T07:45:10.319Z</time></trkpt><trkpt lat="40.6130356" lon="15.0199437"><ele>199.0</ele><time>2026-05-02T07:45:11.318Z</time></trkpt><trkpt lat="40.6130948" lon="15.0199744"><ele>202.0</ele><time>2026-05-02T07:45:12.318Z</time></trkpt><trkpt lat="40.6132111" lon="15.0199877"><ele>205.0</ele><time>2026-05-02T07:45:14.319Z</time></trkpt><trkpt lat="40.6132911" lon="15.0199093"><ele>207.99999999999997</ele><time>2026-05-02T07:45:16.319Z</time></trkpt><trkpt lat="40.6133408" lon="15.0197519"><ele>211.0</ele><time>2026-05-02T07:45:18.319Z</time></trkpt><trkpt lat="40.6133598" lon="15.0196558"><ele>214.0</ele><time>2026-05-02T07:45:19.319Z</time></trkpt><trkpt lat="40.6133702" lon="15.0195533"><ele>213.83333333333331</ele><time>2026-05-02T07:45:20.319Z</time></trkpt><trkpt lat="40.6133736" lon="15.0194418"><ele>213.66666666666666</ele><time>2026-05-02T07:45:21.319Z</time></trkpt><trkpt lat="40.6133769" lon="15.0193259"><ele>213.5</ele><time>2026-05-02T07:45:22.319Z</time></trkpt><trkpt lat="40.6133832" lon="15.0192095"><ele>213.33333333333331</ele><time>2026-05-02T07:45:23.318Z</time></trkpt><trkpt lat="40.6133852" lon="15.0190949"><ele>213.16666666666666</ele><time>2026-05-02T07:45:24.318Z</time></trkpt><trkpt lat="40.6133902" lon="15.0189865"><ele>213.0</ele><time>2026-05-02T07:45:25.318Z</time></trkpt><trkpt lat="40.6133977" lon="15.0188806"><ele>213.0</ele><time>2026-05-02T07:45:26.318Z</time></trkpt><trkpt lat="40.6134024" lon="15.0187646"><ele>213.0</ele><time>2026-05-02T07:45:27.318Z</time></trkpt><trkpt lat="40.6134063" lon="15.0186424"><ele>213.0</ele><time>2026-05-02T07:45:28.319Z</time></trkpt><trkpt lat="40.6134129" lon="15.0185137"><ele>213.0</ele><time>2026-05-02T07:45:29.319Z</time></trkpt><trkpt lat="40.6134196" lon="15.018379"><ele>213.0</ele><time>2026-05-02T07:45:30.318Z</time></trkpt><trkpt lat="40.6134273" lon="15.0182421"><ele>212.60000000000002</ele><time>2026-05-02T07:45:31.319Z</time></trkpt><trkpt lat="40.6134343" lon="15.0181014"><ele>212.20000000000002</ele><time>2026-05-02T07:45:32.319Z</time></trkpt><trkpt lat="40.6134377" lon="15.0179571"><ele>211.8</ele><time>2026-05-02T07:45:33.318Z</time></trkpt><trkpt lat="40.6134437" lon="15.017809"><ele>211.4</ele><time>2026-05-02T07:45:34.319Z</time></trkpt><trkpt lat="40.6134511" lon="15.0176539"><ele>211.0</ele><time>2026-05-02T07:45:35.319Z</time></trkpt><trkpt lat="40.6134555" lon="15.0175098"><ele>212.0</ele><time>2026-05-02T07:45:36.318Z</time></trkpt><trkpt lat="40.6134621" lon="15.0173824"><ele>213.0</ele><time>2026-05-02T07:45:37.318Z</time></trkpt><trkpt lat="40.6134695" lon="15.0172543"><ele>214.00000000000003</ele><time>2026-05-02T07:45:38.319Z</time></trkpt><trkpt lat="40.6134744" lon="15.0171138"><ele>215.0</ele><time>2026-05-02T07:45:39.319Z</time></trkpt><trkpt lat="40.6134769" lon="15.0169563"><ele>216.0</ele><time>2026-05-02T07:45:40.318Z</time></trkpt><trkpt lat="40.613484" lon="15.0168117"><ele>216.0</ele><time>2026-05-02T07:45:41.319Z</time></trkpt><trkpt lat="40.6134891" lon="15.0166911"><ele>216.0</ele><time>2026-05-02T07:45:42.318Z</time></trkpt><trkpt lat="40.6134931" lon="15.0165866"><ele>216.0</ele><time>2026-05-02T07:45:43.318Z</time></trkpt><trkpt lat="40.6135092" lon="15.0164989"><ele>216.0</ele><time>2026-05-02T07:45:44.318Z</time></trkpt><trkpt lat="40.6135726" lon="15.0163924"><ele>216.0</ele><time>2026-05-02T07:45:46.319Z</time></trkpt><trkpt lat="40.6136543" lon="15.0163888"><ele>216.0</ele><time>2026-05-02T07:45:48.319Z</time></trkpt><trkpt lat="40.6137261" lon="15.016479"><ele>220.42857142857142</ele><time>2026-05-02T07:45:50.318Z</time></trkpt><trkpt lat="40.6137556" lon="15.0165587"><ele>224.85714285714283</ele><time>2026-05-02T07:45:51.319Z</time></trkpt><trkpt lat="40.6137777" lon="15.0166377"><ele>229.28571428571428</ele><time>2026-05-02T07:45:52.319Z</time></trkpt><trkpt lat="40.6137982" lon="15.0167188"><ele>233.71428571428572</ele><time>2026-05-02T07:45:53.318Z</time></trkpt><trkpt lat="40.6138175" lon="15.0168031"><ele>238.14285714285714</ele><time>2026-05-02T07:45:54.319Z</time></trkpt><trkpt lat="40.6138382" lon="15.016888"><ele>242.57142857142858</ele><time>2026-05-02T07:45:55.319Z</time></trkpt><trkpt lat="40.6138659" lon="15.0169719"><ele>247.0</ele><time>2026-05-02T07:45:56.319Z</time></trkpt><trkpt lat="40.6138914" lon="15.0170546"><ele>247.0</ele><time>2026-05-02T07:45:57.318Z</time></trkpt><trkpt lat="40.6139386" lon="15.0171998"><ele>247.0</ele><time>2026-05-02T07:45:59.318Z</time></trkpt><trkpt lat="40.6139845" lon="15.0173451"><ele>247.0</ele><time>2026-05-02T07:46:01.318Z</time></trkpt><trkpt lat="40.6140386" lon="15.0174951"><ele>247.0</ele><time>2026-05-02T07:46:03.319Z</time></trkpt><trkpt lat="40.6140632" lon="15.0175804"><ele>247.0</ele><time>2026-05-02T07:46:04.319Z</time></trkpt><trkpt lat="40.6140875" lon="15.0176681"><ele>246.16666666666666</ele><time>2026-05-02T07:46:05.319Z</time></trkpt><trkpt lat="40.6141081" lon="15.0177549"><ele>245.33333333333331</ele><time>2026-05-02T07:46:06.318Z</time></trkpt><trkpt lat="40.6141384" lon="15.0178404"><ele>244.5</ele><time>2026-05-02T07:46:07.318Z</time></trkpt><trkpt lat="40.6141828" lon="15.0179377"><ele>243.66666666666669</ele><time>2026-05-02T07:46:08.319Z</time></trkpt><trkpt lat="40.6142229" lon="15.018033"><ele>242.83333333333334</ele><time>2026-05-02T07:46:09.318Z</time></trkpt><trkpt lat="40.6142746" lon="15.0181387"><ele>242.0</ele><time>2026-05-02T07:46:10.318Z</time></trkpt><trkpt lat="40.6143126" lon="15.0182289"><ele>241.16666666666669</ele><time>2026-05-02T07:46:11.318Z</time></trkpt><trkpt lat="40.6143442" lon="15.0183421"><ele>240.33333333333334</ele><time>2026-05-02T07:46:12.319Z</time></trkpt><trkpt lat="40.6143741" lon="15.0184665"><ele>239.5</ele><time>2026-05-02T07:46:13.319Z</time></trkpt><trkpt lat="40.6143957" lon="15.0185742"><ele>238.66666666666669</ele><time>2026-05-02T07:46:14.319Z</time></trkpt><trkpt lat="40.6144125" lon="15.018682"><ele>237.83333333333334</ele><time>2026-05-02T07:46:15.319Z</time></trkpt><trkpt lat="40.6144363" lon="15.0187843"><ele>237.0</ele><time>2026-05-02T07:46:16.319Z</time></trkpt><trkpt lat="40.6144646" lon="15.0188846"><ele>241.16666666666666</ele><time>2026-05-02T07:46:17.319Z</time></trkpt><trkpt lat="40.6144961" lon="15.0189829"><ele>245.33333333333331</ele><time>2026-05-02T07:46:18.319Z</time></trkpt><trkpt lat="40.6145347" lon="15.0190771"><ele>249.5</ele><time>2026-05-02T07:46:19.317Z</time></trkpt><trkpt lat="40.6145766" lon="15.0191711"><ele>253.66666666666666</ele><time>2026-05-02T07:46:20.318Z</time></trkpt><trkpt lat="40.6146188" lon="15.019271"><ele>257.8333333333333</ele><time>2026-05-02T07:46:21.318Z</time></trkpt><trkpt lat="40.6146569" lon="15.0193785"><ele>262.0</ele><time>2026-05-02T07:46:22.319Z</time></trkpt><trkpt lat="40.614697" lon="15.0194907"><ele>262.0</ele><time>2026-05-02T07:46:23.318Z</time></trkpt><trkpt lat="40.6147398" lon="15.0196077"><ele>262.0</ele><time>2026-05-02T07:46:24.317Z</time></trkpt><trkpt lat="40.6147858" lon="15.0197277"><ele>262.0</ele><time>2026-05-02T07:46:25.319Z</time></trkpt><trkpt lat="40.6148347" lon="15.0198517"><ele>262.0</ele><time>2026-05-02T07:46:26.319Z</time></trkpt><trkpt lat="40.614883" lon="15.0199793"><ele>262.0</ele><time>2026-05-02T07:46:27.319Z</time></trkpt><trkpt lat="40.6149214" lon="15.0201049"><ele>260.75</ele><time>2026-05-02T07:46:28.319Z</time></trkpt><trkpt lat="40.6149651" lon="15.0202309"><ele>259.5</ele><time>2026-05-02T07:46:29.319Z</time></trkpt><trkpt lat="40.6150138" lon="15.0203582"><ele>258.25</ele><time>2026-05-02T07:46:30.319Z</time></trkpt><trkpt lat="40.6150667" lon="15.0205093"><ele>257.0</ele><time>2026-05-02T07:46:31.319Z</time></trkpt><trkpt lat="40.6151189" lon="15.0206571"><ele>257.0</ele><time>2026-05-02T07:46:32.318Z</time></trkpt><trkpt lat="40.6151779" lon="15.0208105"><ele>257.0</ele><time>2026-05-02T07:46:33.318Z</time></trkpt><trkpt lat="40.6152399" lon="15.0209592"><ele>257.0</ele><time>2026-05-02T07:46:34.319Z</time></trkpt><trkpt lat="40.6152952" lon="15.0210773"><ele>257.0</ele><time>2026-05-02T07:46:35.319Z</time></trkpt><trkpt lat="40.6153452" lon="15.0211889"><ele>260.83333333333337</ele><time>2026-05-02T07:46:36.319Z</time></trkpt><trkpt lat="40.6153931" lon="15.0213032"><ele>264.6666666666667</ele><time>2026-05-02T07:46:37.318Z</time></trkpt><trkpt lat="40.6154331" lon="15.0214057"><ele>268.5</ele><time>2026-05-02T07:46:38.318Z</time></trkpt><trkpt lat="40.6154664" lon="15.0214991"><ele>272.3333333333333</ele><time>2026-05-02T07:46:39.318Z</time></trkpt><trkpt lat="40.6155006" lon="15.0215713"><ele>276.16666666666663</ele><time>2026-05-02T07:46:40.318Z</time></trkpt><trkpt lat="40.6155885" lon="15.021645"><ele>280.0</ele><time>2026-05-02T07:46:42.319Z</time></trkpt><trkpt lat="40.6156732" lon="15.0215928"><ele>280.0</ele><time>2026-05-02T07:46:44.318Z</time></trkpt><trkpt lat="40.6156917" lon="15.0214673"><ele>280.0</ele><time>2026-05-02T07:46:46.319Z</time></trkpt><trkpt lat="40.615672" lon="15.0213871"><ele>280.0</ele><time>2026-05-02T07:46:47.319Z</time></trkpt><trkpt lat="40.6156397" lon="15.0212913"><ele>280.0</ele><time>2026-05-02T07:46:48.319Z</time></trkpt><trkpt lat="40.6156089" lon="15.0211968"><ele>280.0</ele><time>2026-05-02T07:46:49.319Z</time></trkpt><trkpt lat="40.6155861" lon="15.0210918"><ele>280.0</ele><time>2026-05-02T07:46:50.318Z</time></trkpt><trkpt lat="40.6155721" lon="15.0209866"><ele>280.0</ele><time>2026-05-02T07:46:51.319Z</time></trkpt><trkpt lat="40.6155582" lon="15.0208622"><ele>280.0</ele><time>2026-05-02T07:46:52.319Z</time></trkpt><trkpt lat="40.6155512" lon="15.0207294"><ele>280.0</ele><time>2026-05-02T07:46:53.319Z</time></trkpt><trkpt lat="40.6155345" lon="15.0205917"><ele>280.0</ele><time>2026-05-02T07:46:54.319Z</time></trkpt><trkpt lat="40.615522" lon="15.020452"><ele>280.0</ele><time>2026-05-02T07:46:55.319Z</time></trkpt><trkpt lat="40.6155163" lon="15.0203163"><ele>281.6</ele><time>2026-05-02T07:46:56.319Z</time></trkpt><trkpt lat="40.6155079" lon="15.020181"><ele>283.2</ele><time>2026-05-02T07:46:57.319Z</time></trkpt><trkpt lat="40.6154996" lon="15.0200444"><ele>284.8</ele><time>2026-05-02T07:46:58.319Z</time></trkpt><trkpt lat="40.6154942" lon="15.0199059"><ele>286.4</ele><time>2026-05-02T07:46:59.319Z</time></trkpt><trkpt lat="40.615488" lon="15.0197683"><ele>288.0</ele><time>2026-05-02T07:47:00.318Z</time></trkpt><trkpt lat="40.6154845" lon="15.0196425"><ele>288.8</ele><time>2026-05-02T07:47:01.318Z</time></trkpt><trkpt lat="40.6154823" lon="15.0195185"><ele>289.6</ele><time>2026-05-02T07:47:02.318Z</time></trkpt><trkpt lat="40.6154816" lon="15.0194004"><ele>290.4</ele><time>2026-05-02T07:47:03.319Z</time></trkpt><trkpt lat="40.615485" lon="15.0192806"><ele>291.2</ele><time>2026-05-02T07:47:04.318Z</time></trkpt><trkpt lat="40.6154907" lon="15.0191573"><ele>292.0</ele><time>2026-05-02T07:47:05.318Z</time></trkpt><trkpt lat="40.6155001" lon="15.0190317"><ele>292.5</ele><time>2026-05-02T07:47:06.318Z</time></trkpt><trkpt lat="40.6155138" lon="15.0189038"><ele>293.0</ele><time>2026-05-02T07:47:07.318Z</time></trkpt><trkpt lat="40.615528" lon="15.0187804"><ele>293.5</ele><time>2026-05-02T07:47:08.318Z</time></trkpt><trkpt lat="40.615542" lon="15.0186692"><ele>294.0</ele><time>2026-05-02T07:47:09.319Z</time></trkpt><trkpt lat="40.6155577" lon="15.0185626"><ele>294.5</ele><time>2026-05-02T07:47:10.318Z</time></trkpt><trkpt lat="40.6155777" lon="15.0184618"><ele>295.0</ele><time>2026-05-02T07:47:11.318Z</time></trkpt><trkpt lat="40.6156016" lon="15.0183653"><ele>295.8333333333333</ele><time>2026-05-02T07:47:12.318Z</time></trkpt><trkpt lat="40.6156317" lon="15.018265"><ele>296.66666666666663</ele><time>2026-05-02T07:47:13.319Z</time></trkpt><trkpt lat="40.6156712" lon="15.0181678"><ele>297.5</ele><time>2026-05-02T07:47:14.319Z</time></trkpt><trkpt lat="40.6157219" lon="15.0180665"><ele>298.3333333333333</ele><time>2026-05-02T07:47:15.318Z</time></trkpt><trkpt lat="40.6157778" lon="15.0179777"><ele>299.1666666666667</ele><time>2026-05-02T07:47:16.318Z</time></trkpt><trkpt lat="40.6158295" lon="15.0178885"><ele>300.0</ele><time>2026-05-02T07:47:17.319Z</time></trkpt><trkpt lat="40.6158669" lon="15.0177979"><ele>300.0</ele><time>2026-05-02T07:47:18.319Z</time></trkpt><trkpt lat="40.6158899" lon="15.017708"><ele>300.0</ele><time>2026-05-02T07:47:19.318Z</time></trkpt><trkpt lat="40.615897" lon="15.0176189"><ele>300.0</ele><time>2026-05-02T07:47:20.318Z</time></trkpt><trkpt lat="40.6158914" lon="15.0175206"><ele>300.0</ele><time>2026-05-02T07:47:21.318Z</time></trkpt><trkpt lat="40.6158797" lon="15.0173988"><ele>300.0</ele><time>2026-05-02T07:47:22.319Z</time></trkpt><trkpt lat="40.6158675" lon="15.0172731"><ele>300.0</ele><time>2026-05-02T07:47:23.319Z</time></trkpt><trkpt lat="40.6158489" lon="15.0171462"><ele>300.8</ele><time>2026-05-02T07:47:24.319Z</time></trkpt><trkpt lat="40.6158322" lon="15.017023"><ele>301.6</ele><time>2026-05-02T07:47:25.319Z</time></trkpt><trkpt lat="40.6158232" lon="15.0169087"><ele>302.4</ele><time>2026-05-02T07:47:26.319Z</time></trkpt><trkpt lat="40.6158138" lon="15.0167849"><ele>303.2</ele><time>2026-05-02T07:47:27.319Z</time></trkpt><trkpt lat="40.6158063" lon="15.0166615"><ele>304.0</ele><time>2026-05-02T07:47:28.319Z</time></trkpt><trkpt lat="40.615801" lon="15.0165477"><ele>304.16666666666663</ele><time>2026-05-02T07:47:29.318Z</time></trkpt><trkpt lat="40.6157957" lon="15.0164398"><ele>304.3333333333333</ele><time>2026-05-02T07:47:30.318Z</time></trkpt><trkpt lat="40.6157962" lon="15.0163329"><ele>304.5</ele><time>2026-05-02T07:47:31.319Z</time></trkpt><trkpt lat="40.6157959" lon="15.0162302"><ele>304.6666666666667</ele><time>2026-05-02T07:47:32.319Z</time></trkpt><trkpt lat="40.6157978" lon="15.0161353"><ele>304.83333333333337</ele><time>2026-05-02T07:47:33.319Z</time></trkpt><trkpt lat="40.615807" lon="15.0159903"><ele>305.0</ele><time>2026-05-02T07:47:35.319Z</time></trkpt><trkpt lat="40.6158701" lon="15.015906"><ele>305.0</ele><time>2026-05-02T07:47:37.319Z</time></trkpt><trkpt lat="40.6159658" lon="15.0159068"><ele>305.0</ele><time>2026-05-02T07:47:39.319Z</time></trkpt><trkpt lat="40.6160569" lon="15.0159842"><ele>305.0</ele><time>2026-05-02T07:47:41.32Z</time></trkpt><trkpt lat="40.616123" lon="15.0161103"><ele>305.0</ele><time>2026-05-02T07:47:43.319Z</time></trkpt><trkpt lat="40.616151" lon="15.0161879"><ele>305.0</ele><time>2026-05-02T07:47:44.32Z</time></trkpt><trkpt lat="40.6161756" lon="15.0162724"><ele>307.5</ele><time>2026-05-02T07:47:45.32Z</time></trkpt><trkpt lat="40.6161948" lon="15.0163669"><ele>310.0</ele><time>2026-05-02T07:47:46.32Z</time></trkpt><trkpt lat="40.6162158" lon="15.0164554"><ele>312.5</ele><time>2026-05-02T07:47:47.319Z</time></trkpt><trkpt lat="40.6162453" lon="15.0165311"><ele>315.0</ele><time>2026-05-02T07:47:48.319Z</time></trkpt><trkpt lat="40.6163277" lon="15.0166306"><ele>317.5</ele><time>2026-05-02T07:47:50.32Z</time></trkpt><trkpt lat="40.6164195" lon="15.0166465"><ele>320.0</ele><time>2026-05-02T07:47:52.32Z</time></trkpt><trkpt lat="40.6165185" lon="15.0166126"><ele>320.0</ele><time>2026-05-02T07:47:54.319Z</time></trkpt><trkpt lat="40.6166285" lon="15.0165315"><ele>320.0</ele><time>2026-05-02T07:47:56.32Z</time></trkpt><trkpt lat="40.6167391" lon="15.0164787"><ele>320.0</ele><time>2026-05-02T07:47:58.32Z</time></trkpt><trkpt lat="40.6168025" lon="15.0164714"><ele>320.0</ele><time>2026-05-02T07:47:59.32Z</time></trkpt><trkpt lat="40.6169147" lon="15.0164691"><ele>320.0</ele><time>2026-05-02T07:48:01.319Z</time></trkpt><trkpt lat="40.6169995" lon="15.01642"><ele>320.0</ele><time>2026-05-02T07:48:03.32Z</time></trkpt><trkpt lat="40.6170495" lon="15.0163172"><ele>320.0</ele><time>2026-05-02T07:48:05.32Z</time></trkpt><trkpt lat="40.6170493" lon="15.016163"><ele>320.0</ele><time>2026-05-02T07:48:07.319Z</time></trkpt><trkpt lat="40.6170404" lon="15.0160715"><ele>320.0</ele><time>2026-05-02T07:48:08.318Z</time></trkpt><trkpt lat="40.6170254" lon="15.0159777"><ele>320.0</ele><time>2026-05-02T07:48:09.319Z</time></trkpt><trkpt lat="40.6170052" lon="15.0158801"><ele>320.0</ele><time>2026-05-02T07:48:10.32Z</time></trkpt><trkpt lat="40.616989" lon="15.0157831"><ele>320.33333333333337</ele><time>2026-05-02T07:48:11.32Z</time></trkpt><trkpt lat="40.6169732" lon="15.0156832"><ele>320.6666666666667</ele><time>2026-05-02T07:48:12.319Z</time></trkpt><trkpt lat="40.6169567" lon="15.0155752"><ele>321.0</ele><time>2026-05-02T07:48:13.32Z</time></trkpt><trkpt lat="40.6169393" lon="15.0154559"><ele>321.3333333333333</ele><time>2026-05-02T07:48:14.32Z</time></trkpt><trkpt lat="40.6169206" lon="15.0153345"><ele>321.66666666666663</ele><time>2026-05-02T07:48:15.32Z</time></trkpt><trkpt lat="40.6168992" lon="15.0152071"><ele>322.0</ele><time>2026-05-02T07:48:16.32Z</time></trkpt><trkpt lat="40.6168807" lon="15.0150655"><ele>322.25</ele><time>2026-05-02T07:48:17.319Z</time></trkpt><trkpt lat="40.6168678" lon="15.0149159"><ele>322.5</ele><time>2026-05-02T07:48:18.319Z</time></trkpt><trkpt lat="40.6168559" lon="15.0147544"><ele>322.75</ele><time>2026-05-02T07:48:19.319Z</time></trkpt><trkpt lat="40.6168455" lon="15.0145833"><ele>323.0</ele><time>2026-05-02T07:48:20.32Z</time></trkpt><trkpt lat="40.6168364" lon="15.0144018"><ele>323.0</ele><time>2026-05-02T07:48:21.32Z</time></trkpt><trkpt lat="40.6168277" lon="15.0142309"><ele>323.0</ele><time>2026-05-02T07:48:22.318Z</time></trkpt><trkpt lat="40.6168214" lon="15.0140672"><ele>323.0</ele><time>2026-05-02T07:48:23.319Z</time></trkpt><trkpt lat="40.6168151" lon="15.0139125"><ele>323.0</ele><time>2026-05-02T07:48:24.319Z</time></trkpt><trkpt lat="40.6168057" lon="15.0137648"><ele>323.79999999999995</ele><time>2026-05-02T07:48:25.319Z</time></trkpt><trkpt lat="40.6167965" lon="15.0136335"><ele>324.6</ele><time>2026-05-02T07:48:26.32Z</time></trkpt><trkpt lat="40.616789" lon="15.0135146"><ele>325.4</ele><time>2026-05-02T07:48:27.32Z</time></trkpt><trkpt lat="40.6167837" lon="15.0134139"><ele>326.20000000000005</ele><time>2026-05-02T07:48:28.32Z</time></trkpt><trkpt lat="40.6167951" lon="15.0132691"><ele>327.0</ele><time>2026-05-02T07:48:30.319Z</time></trkpt><trkpt lat="40.6168393" lon="15.0131886"><ele>327.5</ele><time>2026-05-02T07:48:32.319Z</time></trkpt><trkpt lat="40.6169279" lon="15.0131481"><ele>328.0</ele><time>2026-05-02T07:48:34.32Z</time></trkpt><trkpt lat="40.6170069" lon="15.0131336"><ele>328.5</ele><time>2026-05-02T07:48:36.319Z</time></trkpt><trkpt lat="40.6170839" lon="15.0131096"><ele>329.0</ele><time>2026-05-02T07:48:38.319Z</time></trkpt><trkpt lat="40.6171795" lon="15.013102"><ele>329.5</ele><time>2026-05-02T07:48:40.319Z</time></trkpt><trkpt lat="40.6172735" lon="15.0130915"><ele>330.0</ele><time>2026-05-02T07:48:42.319Z</time></trkpt><trkpt lat="40.6173755" lon="15.013091"><ele>329.2</ele><time>2026-05-02T07:48:44.319Z</time></trkpt><trkpt lat="40.6174687" lon="15.0130858"><ele>328.4</ele><time>2026-05-02T07:48:46.32Z</time></trkpt><trkpt lat="40.6175556" lon="15.0130946"><ele>327.6</ele><time>2026-05-02T07:48:48.319Z</time></trkpt><trkpt lat="40.6176438" lon="15.0130966"><ele>326.8</ele><time>2026-05-02T07:48:50.32Z</time></trkpt><trkpt lat="40.6177648" lon="15.013083"><ele>326.0</ele><time>2026-05-02T07:48:52.32Z</time></trkpt><trkpt lat="40.6178374" lon="15.0130781"><ele>326.0</ele><time>2026-05-02T07:48:53.32Z</time></trkpt><trkpt lat="40.6179099" lon="15.0130785"><ele>326.0</ele><time>2026-05-02T07:48:54.32Z</time></trkpt><trkpt lat="40.6179845" lon="15.0130793"><ele>326.0</ele><time>2026-05-02T07:48:55.32Z</time></trkpt><trkpt lat="40.6180622" lon="15.0130794"><ele>326.0</ele><time>2026-05-02T07:48:56.32Z</time></trkpt><trkpt lat="40.6181337" lon="15.013078"><ele>326.0</ele><time>2026-05-02T07:48:57.32Z</time></trkpt><trkpt lat="40.6182041" lon="15.0130741"><ele>326.0</ele><time>2026-05-02T07:48:58.319Z</time></trkpt><trkpt lat="40.6182761" lon="15.0130698"><ele>326.0</ele><time>2026-05-02T07:48:59.319Z</time></trkpt><trkpt lat="40.6183507" lon="15.0130657"><ele>326.0</ele><time>2026-05-02T07:49:00.32Z</time></trkpt><trkpt lat="40.6184314" lon="15.0130599"><ele>326.0</ele><time>2026-05-02T07:49:01.32Z</time></trkpt><trkpt lat="40.6185104" lon="15.0130578"><ele>326.0</ele><time>2026-05-02T07:49:02.32Z</time></trkpt><trkpt lat="40.6185894" lon="15.0130532"><ele>326.0</ele><time>2026-05-02T07:49:03.32Z</time></trkpt><trkpt lat="40.6186649" lon="15.0130464"><ele>326.0</ele><time>2026-05-02T07:49:04.32Z</time></trkpt><trkpt lat="40.6187402" lon="15.0130428"><ele>326.0</ele><time>2026-05-02T07:49:05.32Z</time></trkpt><trkpt lat="40.6188142" lon="15.0130481"><ele>329.4</ele><time>2026-05-02T07:49:06.32Z</time></trkpt><trkpt lat="40.6188895" lon="15.0130539"><ele>332.8</ele><time>2026-05-02T07:49:07.32Z</time></trkpt><trkpt lat="40.6189551" lon="15.0130663"><ele>336.2</ele><time>2026-05-02T07:49:08.32Z</time></trkpt><trkpt lat="40.6190666" lon="15.0131126"><ele>339.59999999999997</ele><time>2026-05-02T07:49:10.32Z</time></trkpt><trkpt lat="40.6191351" lon="15.0132045"><ele>343.0</ele><time>2026-05-02T07:49:12.32Z</time></trkpt><trkpt lat="40.6191679" lon="15.0133568"><ele>343.0</ele><time>2026-05-02T07:49:14.32Z</time></trkpt><trkpt lat="40.619178" lon="15.0134492"><ele>343.0</ele><time>2026-05-02T07:49:15.319Z</time></trkpt><trkpt lat="40.6191943" lon="15.0135463"><ele>343.0</ele><time>2026-05-02T07:49:16.319Z</time></trkpt><trkpt lat="40.6192138" lon="15.0136471"><ele>343.0</ele><time>2026-05-02T07:49:17.319Z</time></trkpt><trkpt lat="40.6192347" lon="15.01375"><ele>343.0</ele><time>2026-05-02T07:49:18.319Z</time></trkpt><trkpt lat="40.6192716" lon="15.0138454"><ele>343.0</ele><time>2026-05-02T07:49:19.319Z</time></trkpt><trkpt lat="40.6193217" lon="15.0139441"><ele>343.0</ele><time>2026-05-02T07:49:20.319Z</time></trkpt><trkpt lat="40.6193821" lon="15.0140354"><ele>343.0</ele><time>2026-05-02T07:49:21.319Z</time></trkpt><trkpt lat="40.6194436" lon="15.0141185"><ele>343.0</ele><time>2026-05-02T07:49:22.319Z</time></trkpt><trkpt lat="40.6195097" lon="15.0142028"><ele>343.0</ele><time>2026-05-02T07:49:23.32Z</time></trkpt><trkpt lat="40.6195799" lon="15.0142853"><ele>343.0</ele><time>2026-05-02T07:49:24.32Z</time></trkpt><trkpt lat="40.6196565" lon="15.0143676"><ele>346.79999999999995</ele><time>2026-05-02T07:49:25.32Z</time></trkpt><trkpt lat="40.6197332" lon="15.0144498"><ele>350.6</ele><time>2026-05-02T07:49:26.32Z</time></trkpt><trkpt lat="40.6198098" lon="15.0145276"><ele>354.4</ele><time>2026-05-02T07:49:27.32Z</time></trkpt><trkpt lat="40.6198867" lon="15.0146056"><ele>358.20000000000005</ele><time>2026-05-02T07:49:28.32Z</time></trkpt><trkpt lat="40.6199564" lon="15.0146711"><ele>362.0</ele><time>2026-05-02T07:49:29.32Z</time></trkpt><trkpt lat="40.6200202" lon="15.0147311"><ele>362.0</ele><time>2026-05-02T07:49:30.32Z</time></trkpt><trkpt lat="40.6200794" lon="15.0147917"><ele>362.0</ele><time>2026-05-02T07:49:31.32Z</time></trkpt><trkpt lat="40.6201342" lon="15.0148559"><ele>362.0</ele><time>2026-05-02T07:49:32.32Z</time></trkpt><trkpt lat="40.6201847" lon="15.0149232"><ele>362.0</ele><time>2026-05-02T07:49:33.32Z</time></trkpt><trkpt lat="40.6202308" lon="15.0149829"><ele>362.0</ele><time>2026-05-02T07:49:34.319Z</time></trkpt><trkpt lat="40.6202733" lon="15.0150476"><ele>362.0</ele><time>2026-05-02T07:49:35.32Z</time></trkpt><trkpt lat="40.6203102" lon="15.0151223"><ele>362.0</ele><time>2026-05-02T07:49:36.32Z</time></trkpt><trkpt lat="40.6203448" lon="15.015209"><ele>365.5</ele><time>2026-05-02T07:49:37.319Z</time></trkpt><trkpt lat="40.6203844" lon="15.0152993"><ele>369.0</ele><time>2026-05-02T07:49:38.32Z</time></trkpt><trkpt lat="40.6204197" lon="15.0153915"><ele>372.5</ele><time>2026-05-02T07:49:39.32Z</time></trkpt><trkpt lat="40.6204499" lon="15.0154851"><ele>376.0</ele><time>2026-05-02T07:49:40.32Z</time></trkpt><trkpt lat="40.6204769" lon="15.0155801"><ele>379.5</ele><time>2026-05-02T07:49:41.32Z</time></trkpt><trkpt lat="40.6204967" lon="15.0156766"><ele>383.0</ele><time>2026-05-02T07:49:42.32Z</time></trkpt><trkpt lat="40.6205243" lon="15.0157728"><ele>382.2857142857143</ele><time>2026-05-02T07:49:43.32Z</time></trkpt><trkpt lat="40.6205546" lon="15.0158581"><ele>381.57142857142856</ele><time>2026-05-02T07:49:44.32Z</time></trkpt><trkpt lat="40.6205961" lon="15.0159333"><ele>380.8571428571429</ele><time>2026-05-02T07:49:45.32Z</time></trkpt><trkpt lat="40.6206391" lon="15.0160006"><ele>380.1428571428571</ele><time>2026-05-02T07:49:46.32Z</time></trkpt><trkpt lat="40.6206867" lon="15.0160603"><ele>379.42857142857144</ele><time>2026-05-02T07:49:47.319Z</time></trkpt><trkpt lat="40.6207419" lon="15.0161129"><ele>378.7142857142857</ele><time>2026-05-02T07:49:48.319Z</time></trkpt><trkpt lat="40.6208004" lon="15.0161576"><ele>378.0</ele><time>2026-05-02T07:49:49.32Z</time></trkpt><trkpt lat="40.6208609" lon="15.0161992"><ele>378.0</ele><time>2026-05-02T07:49:50.32Z</time></trkpt><trkpt lat="40.6209693" lon="15.0162671"><ele>378.0</ele><time>2026-05-02T07:49:52.32Z</time></trkpt><trkpt lat="40.6210613" lon="15.0163645"><ele>378.0</ele><time>2026-05-02T07:49:54.32Z</time></trkpt><trkpt lat="40.6211439" lon="15.0164802"><ele>378.0</ele><time>2026-05-02T07:49:56.319Z</time></trkpt><trkpt lat="40.6211916" lon="15.0165635"><ele>378.0</ele><time>2026-05-02T07:49:58.319Z</time></trkpt><trkpt lat="40.6211576" lon="15.0164672"><ele>378.0</ele><time>2026-05-02T07:50:12.32Z</time></trkpt><trkpt lat="40.6210953" lon="15.0164023"><ele>378.0</ele><time>2026-05-02T07:50:15.32Z</time></trkpt><trkpt lat="40.6210534" lon="15.0163351"><ele>378.0</ele><time>2026-05-02T07:50:24.319Z</time></trkpt><trkpt lat="40.6211041" lon="15.0163906"><ele>378.0</ele><time>2026-05-02T07:50:47.319Z</time></trkpt><trkpt lat="40.6211699" lon="15.0164949"><ele>378.0</ele><time>2026-05-02T07:50:49.318Z</time></trkpt><trkpt lat="40.6212351" lon="15.0166366"><ele>378.0</ele><time>2026-05-02T07:50:51.32Z</time></trkpt><trkpt lat="40.6212932" lon="15.0167716"><ele>379.5</ele><time>2026-05-02T07:50:53.32Z</time></trkpt><trkpt lat="40.6213594" lon="15.0169068"><ele>381.0</ele><time>2026-05-02T07:50:55.32Z</time></trkpt><trkpt lat="40.6213997" lon="15.0169811"><ele>382.5</ele><time>2026-05-02T07:50:56.32Z</time></trkpt><trkpt lat="40.6214369" lon="15.0170533"><ele>384.0</ele><time>2026-05-02T07:50:57.32Z</time></trkpt><trkpt lat="40.6214771" lon="15.0171189"><ele>385.5</ele><time>2026-05-02T07:50:58.32Z</time></trkpt><trkpt lat="40.6215643" lon="15.0172359"><ele>387.0</ele><time>2026-05-02T07:51:00.319Z</time></trkpt><trkpt lat="40.6216175" lon="15.0172932"><ele>387.0</ele><time>2026-05-02T07:51:01.32Z</time></trkpt><trkpt lat="40.6216766" lon="15.0173435"><ele>387.0</ele><time>2026-05-02T07:51:02.319Z</time></trkpt><trkpt lat="40.6217349" lon="15.0173834"><ele>387.0</ele><time>2026-05-02T07:51:03.319Z</time></trkpt><trkpt lat="40.6218384" lon="15.0174258"><ele>387.0</ele><time>2026-05-02T07:51:05.319Z</time></trkpt><trkpt lat="40.6219214" lon="15.0174044"><ele>387.0</ele><time>2026-05-02T07:51:07.319Z</time></trkpt><trkpt lat="40.6219924" lon="15.0173464"><ele>387.0</ele><time>2026-05-02T07:51:09.32Z</time></trkpt><trkpt lat="40.6220395" lon="15.0172354"><ele>387.0</ele><time>2026-05-02T07:51:11.32Z</time></trkpt><trkpt lat="40.6220413" lon="15.0171119"><ele>387.0</ele><time>2026-05-02T07:51:13.32Z</time></trkpt><trkpt lat="40.6220077" lon="15.0169634"><ele>387.0</ele><time>2026-05-02T07:51:15.319Z</time></trkpt><trkpt lat="40.6219874" lon="15.0168817"><ele>387.0</ele><time>2026-05-02T07:51:16.319Z</time></trkpt><trkpt lat="40.6219675" lon="15.0167991"><ele>387.0</ele><time>2026-05-02T07:51:17.319Z</time></trkpt><trkpt lat="40.6219333" lon="15.0166511"><ele>387.6</ele><time>2026-05-02T07:51:19.32Z</time></trkpt><trkpt lat="40.6219012" lon="15.0165282"><ele>388.20000000000005</ele><time>2026-05-02T07:51:21.319Z</time></trkpt><trkpt lat="40.6218791" lon="15.0164412"><ele>388.8</ele><time>2026-05-02T07:51:23.32Z</time></trkpt><trkpt lat="40.6218524" lon="15.0163138"><ele>389.4</ele><time>2026-05-02T07:51:58.32Z</time></trkpt><trkpt lat="40.6218171" lon="15.0161652"><ele>390.0</ele><time>2026-05-02T07:52:00.32Z</time></trkpt><trkpt lat="40.621798" lon="15.0160745"><ele>390.0</ele><time>2026-05-02T07:52:01.32Z</time></trkpt><trkpt lat="40.6217784" lon="15.0159857"><ele>390.0</ele><time>2026-05-02T07:52:02.32Z</time></trkpt><trkpt lat="40.6217644" lon="15.0158995"><ele>390.0</ele><time>2026-05-02T07:52:03.32Z</time></trkpt><trkpt lat="40.6217429" lon="15.0157952"><ele>390.0</ele><time>2026-05-02T07:52:04.32Z</time></trkpt><trkpt lat="40.6217185" lon="15.0156839"><ele>390.0</ele><time>2026-05-02T07:52:05.32Z</time></trkpt><trkpt lat="40.6216905" lon="15.0155573"><ele>390.0</ele><time>2026-05-02T07:52:06.319Z</time></trkpt><trkpt lat="40.6216684" lon="15.0154587"><ele>390.7142857142857</ele><time>2026-05-02T07:52:07.319Z</time></trkpt><trkpt lat="40.6216481" lon="15.0153619"><ele>391.42857142857144</ele><time>2026-05-02T07:52:08.319Z</time></trkpt><trkpt lat="40.6216358" lon="15.0152655"><ele>392.1428571428571</ele><time>2026-05-02T07:52:09.32Z</time></trkpt><trkpt lat="40.6216227" lon="15.0151664"><ele>392.8571428571429</ele><time>2026-05-02T07:52:10.32Z</time></trkpt><trkpt lat="40.6216042" lon="15.0150672"><ele>393.5714285714286</ele><time>2026-05-02T07:52:11.319Z</time></trkpt><trkpt lat="40.6215861" lon="15.0149738"><ele>394.2857142857143</ele><time>2026-05-02T07:52:12.32Z</time></trkpt><trkpt lat="40.6215632" lon="15.0148909"><ele>395.0</ele><time>2026-05-02T07:52:13.319Z</time></trkpt><trkpt lat="40.6215389" lon="15.0148138"><ele>395.6</ele><time>2026-05-02T07:52:14.32Z</time></trkpt><trkpt lat="40.6214853" lon="15.0146595"><ele>396.2</ele><time>2026-05-02T07:52:16.319Z</time></trkpt><trkpt lat="40.6214337" lon="15.0145049"><ele>396.79999999999995</ele><time>2026-05-02T07:52:18.32Z</time></trkpt><trkpt lat="40.6214065" lon="15.0144274"><ele>397.4</ele><time>2026-05-02T07:52:19.319Z</time></trkpt><trkpt lat="40.6213633" lon="15.0142884"><ele>398.0</ele><time>2026-05-02T07:52:21.319Z</time></trkpt><trkpt lat="40.6213222" lon="15.0141636"><ele>397.49999999999994</ele><time>2026-05-02T07:52:23.32Z</time></trkpt><trkpt lat="40.621283" lon="15.0140443"><ele>397.0</ele><time>2026-05-02T07:52:25.319Z</time></trkpt><trkpt lat="40.6212476" lon="15.0139214"><ele>396.5</ele><time>2026-05-02T07:52:27.32Z</time></trkpt><trkpt lat="40.6212122" lon="15.0138117"><ele>396.0</ele><time>2026-05-02T07:52:29.319Z</time></trkpt><trkpt lat="40.6211853" lon="15.0137206"><ele>395.49999999999994</ele><time>2026-05-02T07:52:31.319Z</time></trkpt><trkpt lat="40.6211582" lon="15.0136403"><ele>395.0</ele><time>2026-05-02T07:52:33.32Z</time></trkpt><trkpt lat="40.6211086" lon="15.013536"><ele>394.7142857142857</ele><time>2026-05-02T07:52:35.32Z</time></trkpt><trkpt lat="40.6210756" lon="15.0134638"><ele>394.42857142857144</ele><time>2026-05-02T07:52:36.32Z</time></trkpt><trkpt lat="40.621042" lon="15.0133858"><ele>394.14285714285717</ele><time>2026-05-02T07:52:37.319Z</time></trkpt><trkpt lat="40.6210101" lon="15.013313"><ele>393.8571428571429</ele><time>2026-05-02T07:52:38.32Z</time></trkpt><trkpt lat="40.6209783" lon="15.0132393"><ele>393.57142857142856</ele><time>2026-05-02T07:52:39.319Z</time></trkpt><trkpt lat="40.6209123" lon="15.0130992"><ele>393.28571428571433</ele><time>2026-05-02T07:52:41.319Z</time></trkpt><trkpt lat="40.620882" lon="15.0130256"><ele>393.0</ele><time>2026-05-02T07:52:42.319Z</time></trkpt><trkpt lat="40.6208317" lon="15.012891"><ele>393.0</ele><time>2026-05-02T07:52:44.319Z</time></trkpt><trkpt lat="40.6207956" lon="15.0127693"><ele>393.0</ele><time>2026-05-02T07:52:46.32Z</time></trkpt><trkpt lat="40.6207768" lon="15.0126527"><ele>393.0</ele><time>2026-05-02T07:52:48.319Z</time></trkpt><trkpt lat="40.6207616" lon="15.012558"><ele>393.0</ele><time>2026-05-02T07:52:50.32Z</time></trkpt><trkpt lat="40.6207457" lon="15.0124752"><ele>393.0</ele><time>2026-05-02T07:52:52.319Z</time></trkpt><trkpt lat="40.6207499" lon="15.0123844"><ele>393.0</ele><time>2026-05-02T07:53:04.32Z</time></trkpt><trkpt lat="40.6207582" lon="15.0125238"><ele>393.0</ele><time>2026-05-02T07:53:15.32Z</time></trkpt><trkpt lat="40.6207737" lon="15.0126104"><ele>393.0</ele><time>2026-05-02T07:53:16.319Z</time></trkpt><trkpt lat="40.6207941" lon="15.0127043"><ele>393.0</ele><time>2026-05-02T07:53:17.319Z</time></trkpt><trkpt lat="40.6208142" lon="15.0127946"><ele>393.0</ele><time>2026-05-02T07:53:18.32Z</time></trkpt><trkpt lat="40.6208363" lon="15.0128725"><ele>393.0</ele><time>2026-05-02T07:53:19.32Z</time></trkpt><trkpt lat="40.6208647" lon="15.0129519"><ele>393.0</ele><time>2026-05-02T07:53:20.32Z</time></trkpt><trkpt lat="40.6209285" lon="15.0130937"><ele>393.0</ele><time>2026-05-02T07:53:22.32Z</time></trkpt><trkpt lat="40.6209631" lon="15.0131764"><ele>393.0</ele><time>2026-05-02T07:53:23.32Z</time></trkpt><trkpt lat="40.6210009" lon="15.013268"><ele>393.0</ele><time>2026-05-02T07:53:24.32Z</time></trkpt><trkpt lat="40.6210442" lon="15.0133674"><ele>393.0</ele><time>2026-05-02T07:53:25.32Z</time></trkpt><trkpt lat="40.6210894" lon="15.0134778"><ele>393.0</ele><time>2026-05-02T07:53:26.32Z</time></trkpt><trkpt lat="40.6211354" lon="15.0135964"><ele>393.0</ele><time>2026-05-02T07:53:27.32Z</time></trkpt><trkpt lat="40.6211801" lon="15.0137167"><ele>393.4</ele><time>2026-05-02T07:53:28.32Z</time></trkpt><trkpt lat="40.6212239" lon="15.0138445"><ele>393.79999999999995</ele><time>2026-05-02T07:53:29.32Z</time></trkpt><trkpt lat="40.6212598" lon="15.0139647"><ele>394.2</ele><time>2026-05-02T07:53:30.319Z</time></trkpt><trkpt lat="40.6212922" lon="15.0140759"><ele>394.6</ele><time>2026-05-02T07:53:31.319Z</time></trkpt><trkpt lat="40.6213237" lon="15.0141778"><ele>395.0</ele><time>2026-05-02T07:53:32.319Z</time></trkpt><trkpt lat="40.6213545" lon="15.0142764"><ele>395.49999999999994</ele><time>2026-05-02T07:53:33.32Z</time></trkpt><trkpt lat="40.6213912" lon="15.0143766"><ele>396.0</ele><time>2026-05-02T07:53:34.32Z</time></trkpt><trkpt lat="40.6214251" lon="15.0144793"><ele>396.5</ele><time>2026-05-02T07:53:35.319Z</time></trkpt><trkpt lat="40.6214603" lon="15.0145793"><ele>397.0</ele><time>2026-05-02T07:53:36.32Z</time></trkpt><trkpt lat="40.6214959" lon="15.0146784"><ele>397.49999999999994</ele><time>2026-05-02T07:53:37.319Z</time></trkpt><trkpt lat="40.6215345" lon="15.0147825"><ele>398.0</ele><time>2026-05-02T07:53:38.32Z</time></trkpt><trkpt lat="40.62157" lon="15.0148846"><ele>398.0</ele><time>2026-05-02T07:53:39.32Z</time></trkpt><trkpt lat="40.621598" lon="15.0149841"><ele>398.0</ele><time>2026-05-02T07:53:40.32Z</time></trkpt><trkpt lat="40.6216194" lon="15.0150781"><ele>398.0</ele><time>2026-05-02T07:53:41.319Z</time></trkpt><trkpt lat="40.621634" lon="15.0151656"><ele>398.0</ele><time>2026-05-02T07:53:42.319Z</time></trkpt><trkpt lat="40.6216563" lon="15.0153219"><ele>398.0</ele><time>2026-05-02T07:53:44.319Z</time></trkpt><trkpt lat="40.6216792" lon="15.0154603"><ele>397.4</ele><time>2026-05-02T07:53:46.319Z</time></trkpt><trkpt lat="40.6217032" lon="15.0155812"><ele>396.79999999999995</ele><time>2026-05-02T07:53:48.319Z</time></trkpt><trkpt lat="40.6217276" lon="15.0156976"><ele>396.2</ele><time>2026-05-02T07:53:50.32Z</time></trkpt><trkpt lat="40.6217559" lon="15.0158319"><ele>395.6</ele><time>2026-05-02T07:53:52.32Z</time></trkpt><trkpt lat="40.6217871" lon="15.0159631"><ele>395.0</ele><time>2026-05-02T07:53:54.32Z</time></trkpt><trkpt lat="40.621809" lon="15.0160788"><ele>394.99999999999994</ele><time>2026-05-02T07:53:56.319Z</time></trkpt><trkpt lat="40.6218278" lon="15.0161757"><ele>395.0</ele><time>2026-05-02T07:53:58.318Z</time></trkpt><trkpt lat="40.6218437" lon="15.016285"><ele>395.0</ele><time>2026-05-02T07:54:35.319Z</time></trkpt><trkpt lat="40.6218923" lon="15.0163668"><ele>395.0</ele><time>2026-05-02T07:54:38.32Z</time></trkpt><trkpt lat="40.6219588" lon="15.0163745"><ele>394.99999999999994</ele><time>2026-05-02T07:54:40.32Z</time></trkpt><trkpt lat="40.6220572" lon="15.0163366"><ele>395.0</ele><time>2026-05-02T07:54:42.32Z</time></trkpt><trkpt lat="40.6221629" lon="15.0163147"><ele>395.0</ele><time>2026-05-02T07:54:44.32Z</time></trkpt><trkpt lat="40.6222851" lon="15.0162916"><ele>395.0</ele><time>2026-05-02T07:54:46.32Z</time></trkpt><trkpt lat="40.6223881" lon="15.0162798"><ele>395.0</ele><time>2026-05-02T07:54:48.319Z</time></trkpt><trkpt lat="40.6224826" lon="15.0162666"><ele>395.0</ele><time>2026-05-02T07:54:50.319Z</time></trkpt><trkpt lat="40.622574" lon="15.0162527"><ele>395.0</ele><time>2026-05-02T07:54:52.319Z</time></trkpt><trkpt lat="40.6226847" lon="15.0162294"><ele>395.0</ele><time>2026-05-02T07:54:54.32Z</time></trkpt><trkpt lat="40.6227997" lon="15.0161991"><ele>395.0</ele><time>2026-05-02T07:54:56.32Z</time></trkpt><trkpt lat="40.6229102" lon="15.016173"><ele>395.0</ele><time>2026-05-02T07:54:58.32Z</time></trkpt><trkpt lat="40.6230191" lon="15.0161471"><ele>395.0</ele><time>2026-05-02T07:55:00.32Z</time></trkpt><trkpt lat="40.6231247" lon="15.0161179"><ele>395.0</ele><time>2026-05-02T07:55:02.319Z</time></trkpt><trkpt lat="40.6232255" lon="15.0160987"><ele>393.8333333333333</ele><time>2026-05-02T07:55:04.32Z</time></trkpt><trkpt lat="40.6233319" lon="15.0160804"><ele>392.66666666666663</ele><time>2026-05-02T07:55:06.319Z</time></trkpt><trkpt lat="40.6234315" lon="15.0160507"><ele>391.5</ele><time>2026-05-02T07:55:08.319Z</time></trkpt><trkpt lat="40.6235116" lon="15.0160326"><ele>390.33333333333337</ele><time>2026-05-02T07:55:10.319Z</time></trkpt><trkpt lat="40.6235896" lon="15.0160195"><ele>389.1666666666667</ele><time>2026-05-02T07:55:13.319Z</time></trkpt><trkpt lat="40.6236451" lon="15.01606"><ele>388.0</ele><time>2026-05-02T07:55:25.32Z</time></trkpt><trkpt lat="40.6235899" lon="15.0160119"><ele>388.0</ele><time>2026-05-02T07:55:42.319Z</time></trkpt><trkpt lat="40.623501" lon="15.0160488"><ele>388.0</ele><time>2026-05-02T07:55:45.32Z</time></trkpt><trkpt lat="40.6234149" lon="15.016073"><ele>388.0</ele><time>2026-05-02T07:55:48.319Z</time></trkpt><trkpt lat="40.6233299" lon="15.0161045"><ele>388.0</ele><time>2026-05-02T07:55:50.32Z</time></trkpt><trkpt lat="40.6232392" lon="15.01612"><ele>388.0</ele><time>2026-05-02T07:55:52.32Z</time></trkpt><trkpt lat="40.6231429" lon="15.0161252"><ele>388.0</ele><time>2026-05-02T07:55:54.32Z</time></trkpt><trkpt lat="40.6230436" lon="15.0161505"><ele>388.0</ele><time>2026-05-02T07:55:56.32Z</time></trkpt><trkpt lat="40.6229375" lon="15.0161798"><ele>388.0</ele><time>2026-05-02T07:55:58.319Z</time></trkpt><trkpt lat="40.6228342" lon="15.0161972"><ele>388.0</ele><time>2026-05-02T07:56:00.32Z</time></trkpt><trkpt lat="40.622722" lon="15.0162251"><ele>388.0</ele><time>2026-05-02T07:56:02.319Z</time></trkpt><trkpt lat="40.6225939" lon="15.0162536"><ele>389.1666666666667</ele><time>2026-05-02T07:56:04.319Z</time></trkpt><trkpt lat="40.6225313" lon="15.0162697"><ele>390.33333333333337</ele><time>2026-05-02T07:56:05.32Z</time></trkpt><trkpt lat="40.6224131" lon="15.0162948"><ele>391.5</ele><time>2026-05-02T07:56:07.32Z</time></trkpt><trkpt lat="40.6223482" lon="15.0163058"><ele>392.66666666666663</ele><time>2026-05-02T07:56:08.319Z</time></trkpt><trkpt lat="40.6222785" lon="15.0163154"><ele>393.8333333333333</ele><time>2026-05-02T07:56:09.319Z</time></trkpt><trkpt lat="40.6222102" lon="15.016324"><ele>395.0</ele><time>2026-05-02T07:56:10.32Z</time></trkpt><trkpt lat="40.6221009" lon="15.0163413"><ele>394.99999999999994</ele><time>2026-05-02T07:56:12.32Z</time></trkpt><trkpt lat="40.6220091" lon="15.0163561"><ele>395.0</ele><time>2026-05-02T07:56:14.32Z</time></trkpt><trkpt lat="40.6219371" lon="15.0163904"><ele>395.0</ele><time>2026-05-02T07:56:16.32Z</time></trkpt><trkpt lat="40.6218988" lon="15.0165108"><ele>395.0</ele><time>2026-05-02T07:56:19.319Z</time></trkpt><trkpt lat="40.62192" lon="15.0166111"><ele>394.99999999999994</ele><time>2026-05-02T07:56:21.319Z</time></trkpt><trkpt lat="40.6219467" lon="15.0167375"><ele>395.0</ele><time>2026-05-02T07:56:23.32Z</time></trkpt><trkpt lat="40.6219764" lon="15.0168664"><ele>394.5</ele><time>2026-05-02T07:56:25.319Z</time></trkpt><trkpt lat="40.6220127" lon="15.0170251"><ele>394.0</ele><time>2026-05-02T07:56:27.32Z</time></trkpt><trkpt lat="40.6220478" lon="15.0171608"><ele>393.5</ele><time>2026-05-02T07:56:29.319Z</time></trkpt><trkpt lat="40.6220786" lon="15.0173015"><ele>393.0</ele><time>2026-05-02T07:56:31.32Z</time></trkpt><trkpt lat="40.6220962" lon="15.0174417"><ele>392.4</ele><time>2026-05-02T07:56:33.32Z</time></trkpt><trkpt lat="40.6221005" lon="15.0175757"><ele>391.79999999999995</ele><time>2026-05-02T07:56:35.32Z</time></trkpt><trkpt lat="40.6220963" lon="15.0177446"><ele>391.2</ele><time>2026-05-02T07:56:37.32Z</time></trkpt><trkpt lat="40.6220954" lon="15.017836"><ele>390.6</ele><time>2026-05-02T07:56:38.32Z</time></trkpt><trkpt lat="40.6221006" lon="15.0179404"><ele>390.0</ele><time>2026-05-02T07:56:39.32Z</time></trkpt><trkpt lat="40.6221082" lon="15.0180573"><ele>390.0</ele><time>2026-05-02T07:56:40.319Z</time></trkpt><trkpt lat="40.6221191" lon="15.0181657"><ele>390.0</ele><time>2026-05-02T07:56:41.319Z</time></trkpt><trkpt lat="40.6221315" lon="15.018274"><ele>390.0</ele><time>2026-05-02T07:56:42.319Z</time></trkpt><trkpt lat="40.6221429" lon="15.018399"><ele>390.0</ele><time>2026-05-02T07:56:43.319Z</time></trkpt><trkpt lat="40.6221524" lon="15.0185285"><ele>390.0</ele><time>2026-05-02T07:56:44.32Z</time></trkpt><trkpt lat="40.6221621" lon="15.018647"><ele>389.6</ele><time>2026-05-02T07:56:45.32Z</time></trkpt><trkpt lat="40.6221723" lon="15.0187567"><ele>389.2</ele><time>2026-05-02T07:56:46.32Z</time></trkpt><trkpt lat="40.6221854" lon="15.0188678"><ele>388.79999999999995</ele><time>2026-05-02T07:56:47.32Z</time></trkpt><trkpt lat="40.6222037" lon="15.0189871"><ele>388.4</ele><time>2026-05-02T07:56:48.32Z</time></trkpt><trkpt lat="40.6222243" lon="15.019115"><ele>388.0</ele><time>2026-05-02T07:56:49.32Z</time></trkpt><trkpt lat="40.6222454" lon="15.0192508"><ele>388.0</ele><time>2026-05-02T07:56:50.32Z</time></trkpt><trkpt lat="40.6222655" lon="15.0193839"><ele>388.0</ele><time>2026-05-02T07:56:51.32Z</time></trkpt><trkpt lat="40.6222862" lon="15.0195108"><ele>388.0</ele><time>2026-05-02T07:56:52.32Z</time></trkpt><trkpt lat="40.6223074" lon="15.0196372"><ele>388.0</ele><time>2026-05-02T07:56:53.32Z</time></trkpt><trkpt lat="40.6223309" lon="15.0197687"><ele>388.0</ele><time>2026-05-02T07:56:54.32Z</time></trkpt><trkpt lat="40.622356" lon="15.0199068"><ele>388.25</ele><time>2026-05-02T07:56:55.32Z</time></trkpt><trkpt lat="40.6223823" lon="15.0200496"><ele>388.5</ele><time>2026-05-02T07:56:56.32Z</time></trkpt><trkpt lat="40.6224102" lon="15.0201974"><ele>388.75</ele><time>2026-05-02T07:56:57.319Z</time></trkpt><trkpt lat="40.6224397" lon="15.0203506"><ele>389.0</ele><time>2026-05-02T07:56:58.32Z</time></trkpt><trkpt lat="40.6224713" lon="15.0205064"><ele>389.0</ele><time>2026-05-02T07:56:59.32Z</time></trkpt><trkpt lat="40.6225035" lon="15.0206778"><ele>389.0</ele><time>2026-05-02T07:57:00.32Z</time></trkpt><trkpt lat="40.6225385" lon="15.0208695"><ele>389.0</ele><time>2026-05-02T07:57:01.319Z</time></trkpt><trkpt lat="40.622575" lon="15.0210553"><ele>389.0</ele><time>2026-05-02T07:57:02.32Z</time></trkpt><trkpt lat="40.6226064" lon="15.0212089"><ele>389.25</ele><time>2026-05-02T07:57:03.32Z</time></trkpt><trkpt lat="40.622636" lon="15.021362"><ele>389.5</ele><time>2026-05-02T07:57:04.32Z</time></trkpt><trkpt lat="40.622665" lon="15.0215182"><ele>389.75</ele><time>2026-05-02T07:57:05.32Z</time></trkpt><trkpt lat="40.6226955" lon="15.0216745"><ele>390.0</ele><time>2026-05-02T07:57:06.319Z</time></trkpt><trkpt lat="40.6227252" lon="15.0218194"><ele>389.8</ele><time>2026-05-02T07:57:07.32Z</time></trkpt><trkpt lat="40.6227515" lon="15.0219634"><ele>389.6</ele><time>2026-05-02T07:57:08.319Z</time></trkpt><trkpt lat="40.6227792" lon="15.0220992"><ele>389.4</ele><time>2026-05-02T07:57:09.319Z</time></trkpt><trkpt lat="40.6228064" lon="15.0222316"><ele>389.2</ele><time>2026-05-02T07:57:10.319Z</time></trkpt><trkpt lat="40.6228324" lon="15.0223606"><ele>389.0</ele><time>2026-05-02T07:57:11.319Z</time></trkpt><trkpt lat="40.622858" lon="15.0224879"><ele>389.4</ele><time>2026-05-02T07:57:12.319Z</time></trkpt><trkpt lat="40.622889" lon="15.0226141"><ele>389.79999999999995</ele><time>2026-05-02T07:57:13.319Z</time></trkpt><trkpt lat="40.6229196" lon="15.0227518"><ele>390.20000000000005</ele><time>2026-05-02T07:57:14.32Z</time></trkpt><trkpt lat="40.6229478" lon="15.02289"><ele>390.6</ele><time>2026-05-02T07:57:15.32Z</time></trkpt><trkpt lat="40.6229763" lon="15.0230289"><ele>391.0</ele><time>2026-05-02T07:57:16.32Z</time></trkpt><trkpt lat="40.6230054" lon="15.023168"><ele>391.0</ele><time>2026-05-02T07:57:17.319Z</time></trkpt><trkpt lat="40.623038" lon="15.0233112"><ele>391.0</ele><time>2026-05-02T07:57:18.32Z</time></trkpt><trkpt lat="40.623077" lon="15.0234659"><ele>391.0</ele><time>2026-05-02T07:57:19.32Z</time></trkpt><trkpt lat="40.6231096" lon="15.0236149"><ele>391.0</ele><time>2026-05-02T07:57:20.319Z</time></trkpt><trkpt lat="40.62314" lon="15.0237498"><ele>391.8</ele><time>2026-05-02T07:57:21.319Z</time></trkpt><trkpt lat="40.6231692" lon="15.0238807"><ele>392.6</ele><time>2026-05-02T07:57:22.319Z</time></trkpt><trkpt lat="40.6231956" lon="15.0240119"><ele>393.4</ele><time>2026-05-02T07:57:23.319Z</time></trkpt><trkpt lat="40.6232167" lon="15.0241444"><ele>394.2</ele><time>2026-05-02T07:57:24.319Z</time></trkpt><trkpt lat="40.6232318" lon="15.0242696"><ele>395.0</ele><time>2026-05-02T07:57:25.319Z</time></trkpt><trkpt lat="40.6232476" lon="15.0243939"><ele>396.16666666666663</ele><time>2026-05-02T07:57:26.319Z</time></trkpt><trkpt lat="40.6232635" lon="15.0245177"><ele>397.3333333333333</ele><time>2026-05-02T07:57:27.319Z</time></trkpt><trkpt lat="40.623273" lon="15.0246292"><ele>398.5</ele><time>2026-05-02T07:57:28.319Z</time></trkpt><trkpt lat="40.6232787" lon="15.0247383"><ele>399.66666666666663</ele><time>2026-05-02T07:57:29.32Z</time></trkpt><trkpt lat="40.6232919" lon="15.0248283"><ele>400.8333333333333</ele><time>2026-05-02T07:57:30.32Z</time></trkpt><trkpt lat="40.6233134" lon="15.024911"><ele>402.0</ele><time>2026-05-02T07:57:31.32Z</time></trkpt><trkpt lat="40.6233492" lon="15.0249944"><ele>402.1666666666667</ele><time>2026-05-02T07:57:32.32Z</time></trkpt><trkpt lat="40.6234008" lon="15.0250888"><ele>402.33333333333337</ele><time>2026-05-02T07:57:33.32Z</time></trkpt><trkpt lat="40.6234526" lon="15.0251839"><ele>402.5</ele><time>2026-05-02T07:57:34.32Z</time></trkpt><trkpt lat="40.6235014" lon="15.025274"><ele>402.6666666666667</ele><time>2026-05-02T07:57:35.32Z</time></trkpt><trkpt lat="40.6235422" lon="15.0253538"><ele>402.83333333333337</ele><time>2026-05-02T07:57:36.319Z</time></trkpt><trkpt lat="40.6235778" lon="15.0254226"><ele>403.0</ele><time>2026-05-02T07:57:37.319Z</time></trkpt><trkpt lat="40.6236469" lon="15.0255273"><ele>402.33333333333337</ele><time>2026-05-02T07:57:39.319Z</time></trkpt><trkpt lat="40.6237358" lon="15.0255908"><ele>401.6666666666667</ele><time>2026-05-02T07:57:41.32Z</time></trkpt><trkpt lat="40.6238199" lon="15.0256822"><ele>401.0</ele><time>2026-05-02T07:57:43.32Z</time></trkpt><trkpt lat="40.6238557" lon="15.0257562"><ele>400.33333333333337</ele><time>2026-05-02T07:57:44.32Z</time></trkpt><trkpt lat="40.6238929" lon="15.0258451"><ele>399.6666666666667</ele><time>2026-05-02T07:57:45.32Z</time></trkpt><trkpt lat="40.6239369" lon="15.0259463"><ele>399.0</ele><time>2026-05-02T07:57:46.32Z</time></trkpt><trkpt lat="40.6239867" lon="15.0260524"><ele>399.0</ele><time>2026-05-02T07:57:47.32Z</time></trkpt><trkpt lat="40.6240471" lon="15.0261677"><ele>399.0</ele><time>2026-05-02T07:57:48.32Z</time></trkpt><trkpt lat="40.6241102" lon="15.0262948"><ele>399.0</ele><time>2026-05-02T07:57:49.319Z</time></trkpt><trkpt lat="40.6241757" lon="15.0264382"><ele>399.0</ele><time>2026-05-02T07:57:50.319Z</time></trkpt><trkpt lat="40.6242394" lon="15.0265706"><ele>398.6</ele><time>2026-05-02T07:57:51.32Z</time></trkpt><trkpt lat="40.6242927" lon="15.0266895"><ele>398.2</ele><time>2026-05-02T07:57:52.32Z</time></trkpt><trkpt lat="40.6243421" lon="15.0267962"><ele>397.8</ele><time>2026-05-02T07:57:53.32Z</time></trkpt><trkpt lat="40.6243911" lon="15.0268962"><ele>397.40000000000003</ele><time>2026-05-02T07:57:54.32Z</time></trkpt><trkpt lat="40.6244401" lon="15.0269928"><ele>397.0</ele><time>2026-05-02T07:57:55.32Z</time></trkpt><trkpt lat="40.6244911" lon="15.0270874"><ele>395.6</ele><time>2026-05-02T07:57:56.319Z</time></trkpt><trkpt lat="40.624546" lon="15.027185"><ele>394.20000000000005</ele><time>2026-05-02T07:57:57.32Z</time></trkpt><trkpt lat="40.624601" lon="15.0272848"><ele>392.8</ele><time>2026-05-02T07:57:58.319Z</time></trkpt><trkpt lat="40.6246578" lon="15.0273916"><ele>391.4</ele><time>2026-05-02T07:57:59.32Z</time></trkpt><trkpt lat="40.624713" lon="15.0274979"><ele>390.0</ele><time>2026-05-02T07:58:00.32Z</time></trkpt><trkpt lat="40.6247667" lon="15.027596"><ele>390.0</ele><time>2026-05-02T07:58:01.32Z</time></trkpt><trkpt lat="40.6248171" lon="15.0276878"><ele>390.0</ele><time>2026-05-02T07:58:02.32Z</time></trkpt><trkpt lat="40.6248657" lon="15.0277827"><ele>390.0</ele><time>2026-05-02T07:58:03.319Z</time></trkpt><trkpt lat="40.6249137" lon="15.0278806"><ele>390.0</ele><time>2026-05-02T07:58:04.319Z</time></trkpt><trkpt lat="40.6249632" lon="15.0279736"><ele>390.0</ele><time>2026-05-02T07:58:05.319Z</time></trkpt><trkpt lat="40.6250092" lon="15.0280665"><ele>390.0</ele><time>2026-05-02T07:58:06.319Z</time></trkpt><trkpt lat="40.6250591" lon="15.0281573"><ele>390.0</ele><time>2026-05-02T07:58:07.32Z</time></trkpt><trkpt lat="40.6251129" lon="15.0282478"><ele>390.0</ele><time>2026-05-02T07:58:08.32Z</time></trkpt><trkpt lat="40.6251682" lon="15.0283383"><ele>390.0</ele><time>2026-05-02T07:58:09.319Z</time></trkpt><trkpt lat="40.6252296" lon="15.0284261"><ele>390.0</ele><time>2026-05-02T07:58:10.32Z</time></trkpt><trkpt lat="40.6252895" lon="15.0285109"><ele>390.0</ele><time>2026-05-02T07:58:11.32Z</time></trkpt><trkpt lat="40.6253496" lon="15.0285903"><ele>390.0</ele><time>2026-05-02T07:58:12.32Z</time></trkpt><trkpt lat="40.625407" lon="15.0286713"><ele>388.3333333333333</ele><time>2026-05-02T07:58:13.32Z</time></trkpt><trkpt lat="40.6254677" lon="15.028747"><ele>386.6666666666667</ele><time>2026-05-02T07:58:14.32Z</time></trkpt><trkpt lat="40.6255238" lon="15.0288254"><ele>385.0</ele><time>2026-05-02T07:58:15.319Z</time></trkpt><trkpt lat="40.6255799" lon="15.0289028"><ele>383.33333333333337</ele><time>2026-05-02T07:58:16.32Z</time></trkpt><trkpt lat="40.6256369" lon="15.0289797"><ele>381.6666666666667</ele><time>2026-05-02T07:58:17.32Z</time></trkpt><trkpt lat="40.6256937" lon="15.029059"><ele>380.0</ele><time>2026-05-02T07:58:18.32Z</time></trkpt><trkpt lat="40.6257521" lon="15.029138"><ele>379.6666666666667</ele><time>2026-05-02T07:58:19.319Z</time></trkpt><trkpt lat="40.6258099" lon="15.029218"><ele>379.33333333333337</ele><time>2026-05-02T07:58:20.32Z</time></trkpt><trkpt lat="40.6258718" lon="15.0293019"><ele>379.0</ele><time>2026-05-02T07:58:21.32Z</time></trkpt><trkpt lat="40.6259362" lon="15.0293844"><ele>378.6666666666667</ele><time>2026-05-02T07:58:22.32Z</time></trkpt><trkpt lat="40.6259988" lon="15.0294678"><ele>378.3333333333333</ele><time>2026-05-02T07:58:23.32Z</time></trkpt><trkpt lat="40.6260622" lon="15.029546"><ele>378.0</ele><time>2026-05-02T07:58:24.32Z</time></trkpt><trkpt lat="40.6261287" lon="15.029622"><ele>376.8333333333333</ele><time>2026-05-02T07:58:25.319Z</time></trkpt><trkpt lat="40.6261956" lon="15.0296931"><ele>375.6666666666667</ele><time>2026-05-02T07:58:26.319Z</time></trkpt><trkpt lat="40.6262645" lon="15.0297526"><ele>374.5</ele><time>2026-05-02T07:58:27.319Z</time></trkpt><trkpt lat="40.6263339" lon="15.0297999"><ele>373.33333333333337</ele><time>2026-05-02T07:58:28.319Z</time></trkpt><trkpt lat="40.6264077" lon="15.029838"><ele>372.1666666666667</ele><time>2026-05-02T07:58:29.319Z</time></trkpt><trkpt lat="40.6264842" lon="15.0298705"><ele>371.0</ele><time>2026-05-02T07:58:30.319Z</time></trkpt><trkpt lat="40.626567" lon="15.0299002"><ele>371.0</ele><time>2026-05-02T07:58:31.319Z</time></trkpt><trkpt lat="40.6266645" lon="15.0299186"><ele>371.0</ele><time>2026-05-02T07:58:32.319Z</time></trkpt><trkpt lat="40.6267764" lon="15.0299234"><ele>371.0</ele><time>2026-05-02T07:58:33.319Z</time></trkpt><trkpt lat="40.626903" lon="15.0299163"><ele>371.0</ele><time>2026-05-02T07:58:34.319Z</time></trkpt><trkpt lat="40.627045" lon="15.029909"><ele>367.0</ele><time>2026-05-02T07:58:35.319Z</time></trkpt><trkpt lat="40.6271972" lon="15.0299034"><ele>363.0</ele><time>2026-05-02T07:58:36.32Z</time></trkpt><trkpt lat="40.6273556" lon="15.0299013"><ele>359.0</ele><time>2026-05-02T07:58:37.32Z</time></trkpt><trkpt lat="40.6275259" lon="15.0298966"><ele>359.0</ele><time>2026-05-02T07:58:38.32Z</time></trkpt><trkpt lat="40.6277017" lon="15.0298927"><ele>359.0</ele><time>2026-05-02T07:58:39.32Z</time></trkpt><trkpt lat="40.6278669" lon="15.029889"><ele>359.0</ele><time>2026-05-02T07:58:40.32Z</time></trkpt><trkpt lat="40.6280249" lon="15.0298855"><ele>358.25</ele><time>2026-05-02T07:58:41.32Z</time></trkpt><trkpt lat="40.6281719" lon="15.0298816"><ele>357.5</ele><time>2026-05-02T07:58:42.319Z</time></trkpt><trkpt lat="40.6283112" lon="15.0298799"><ele>356.75</ele><time>2026-05-02T07:58:43.319Z</time></trkpt><trkpt lat="40.6284441" lon="15.0298765"><ele>356.0</ele><time>2026-05-02T07:58:44.319Z</time></trkpt><trkpt lat="40.6285697" lon="15.0298771"><ele>355.0</ele><time>2026-05-02T07:58:45.319Z</time></trkpt><trkpt lat="40.6286916" lon="15.0298788"><ele>354.0</ele><time>2026-05-02T07:58:46.319Z</time></trkpt><trkpt lat="40.6288083" lon="15.0298779"><ele>353.0</ele><time>2026-05-02T07:58:47.319Z</time></trkpt><trkpt lat="40.6289211" lon="15.0298779"><ele>352.0</ele><time>2026-05-02T07:58:48.319Z</time></trkpt><trkpt lat="40.6290317" lon="15.0298764"><ele>352.0</ele><time>2026-05-02T07:58:49.319Z</time></trkpt><trkpt lat="40.6291365" lon="15.0298762"><ele>352.0</ele><time>2026-05-02T07:58:50.319Z</time></trkpt><trkpt lat="40.6292379" lon="15.0298766"><ele>352.0</ele><time>2026-05-02T07:58:51.32Z</time></trkpt><trkpt lat="40.6293295" lon="15.0298773"><ele>352.0</ele><time>2026-05-02T07:58:52.319Z</time></trkpt><trkpt lat="40.6294177" lon="15.0298809"><ele>352.0</ele><time>2026-05-02T07:58:53.32Z</time></trkpt><trkpt lat="40.6295009" lon="15.0298843"><ele>352.20000000000005</ele><time>2026-05-02T07:58:54.32Z</time></trkpt><trkpt lat="40.6295899" lon="15.0298802"><ele>352.4</ele><time>2026-05-02T07:58:55.32Z</time></trkpt><trkpt lat="40.6296874" lon="15.0298711"><ele>352.6</ele><time>2026-05-02T07:58:56.32Z</time></trkpt><trkpt lat="40.6297919" lon="15.0298657"><ele>352.79999999999995</ele><time>2026-05-02T07:58:57.32Z</time></trkpt><trkpt lat="40.6298954" lon="15.0298613"><ele>353.0</ele><time>2026-05-02T07:58:58.32Z</time></trkpt><trkpt lat="40.6299911" lon="15.0298617"><ele>353.0</ele><time>2026-05-02T07:58:59.32Z</time></trkpt><trkpt lat="40.63007" lon="15.0298664"><ele>353.0</ele><time>2026-05-02T07:59:00.32Z</time></trkpt><trkpt lat="40.6301333" lon="15.0298877"><ele>353.0</ele><time>2026-05-02T07:59:01.32Z</time></trkpt><trkpt lat="40.6302233" lon="15.0300076"><ele>353.0</ele><time>2026-05-02T07:59:03.32Z</time></trkpt><trkpt lat="40.6302472" lon="15.0301045"><ele>353.0</ele><time>2026-05-02T07:59:04.32Z</time></trkpt><trkpt lat="40.6302675" lon="15.0302191"><ele>353.0</ele><time>2026-05-02T07:59:05.319Z</time></trkpt><trkpt lat="40.6302841" lon="15.0303388"><ele>353.6666666666667</ele><time>2026-05-02T07:59:06.319Z</time></trkpt><trkpt lat="40.6303037" lon="15.0304539"><ele>354.33333333333337</ele><time>2026-05-02T07:59:07.319Z</time></trkpt><trkpt lat="40.6303242" lon="15.0305652"><ele>355.0</ele><time>2026-05-02T07:59:08.319Z</time></trkpt><trkpt lat="40.630341" lon="15.0306771"><ele>355.6666666666667</ele><time>2026-05-02T07:59:09.32Z</time></trkpt><trkpt lat="40.6303571" lon="15.0307897"><ele>356.3333333333333</ele><time>2026-05-02T07:59:10.32Z</time></trkpt><trkpt lat="40.6303713" lon="15.0309049"><ele>357.0</ele><time>2026-05-02T07:59:11.319Z</time></trkpt><trkpt lat="40.6303912" lon="15.0310132"><ele>358.40000000000003</ele><time>2026-05-02T07:59:12.319Z</time></trkpt><trkpt lat="40.6304073" lon="15.0311147"><ele>359.8</ele><time>2026-05-02T07:59:13.32Z</time></trkpt><trkpt lat="40.630424" lon="15.0312009"><ele>361.2</ele><time>2026-05-02T07:59:14.319Z</time></trkpt><trkpt lat="40.6304965" lon="15.0312955"><ele>362.6</ele><time>2026-05-02T07:59:16.319Z</time></trkpt><trkpt lat="40.6305912" lon="15.0312663"><ele>364.0</ele><time>2026-05-02T07:59:18.319Z</time></trkpt><trkpt lat="40.6307036" lon="15.0311837"><ele>364.0</ele><time>2026-05-02T07:59:20.319Z</time></trkpt><trkpt lat="40.6307667" lon="15.0311404"><ele>364.0</ele><time>2026-05-02T07:59:21.319Z</time></trkpt><trkpt lat="40.6308289" lon="15.031092"><ele>364.0</ele><time>2026-05-02T07:59:22.319Z</time></trkpt><trkpt lat="40.6308944" lon="15.0310486"><ele>364.0</ele><time>2026-05-02T07:59:23.32Z</time></trkpt><trkpt lat="40.6309609" lon="15.0310094"><ele>364.0</ele><time>2026-05-02T07:59:24.32Z</time></trkpt><trkpt lat="40.631028" lon="15.0309674"><ele>364.0</ele><time>2026-05-02T07:59:25.32Z</time></trkpt><trkpt lat="40.6310956" lon="15.030922"><ele>364.0</ele><time>2026-05-02T07:59:26.32Z</time></trkpt><trkpt lat="40.6311644" lon="15.0308801"><ele>363.5</ele><time>2026-05-02T07:59:27.32Z</time></trkpt><trkpt lat="40.6312355" lon="15.0308343"><ele>363.0</ele><time>2026-05-02T07:59:28.319Z</time></trkpt><trkpt lat="40.6313054" lon="15.0307877"><ele>362.5</ele><time>2026-05-02T07:59:29.319Z</time></trkpt><trkpt lat="40.631368" lon="15.0307474"><ele>362.0</ele><time>2026-05-02T07:59:30.32Z</time></trkpt><trkpt lat="40.6314298" lon="15.0307024"><ele>361.5</ele><time>2026-05-02T07:59:31.32Z</time></trkpt><trkpt lat="40.6314885" lon="15.0306683"><ele>361.0</ele><time>2026-05-02T07:59:32.319Z</time></trkpt><trkpt lat="40.6316012" lon="15.0305947"><ele>360.42857142857144</ele><time>2026-05-02T07:59:34.319Z</time></trkpt><trkpt lat="40.6316614" lon="15.0305549"><ele>359.85714285714283</ele><time>2026-05-02T07:59:35.32Z</time></trkpt><trkpt lat="40.6317254" lon="15.0305176"><ele>359.2857142857143</ele><time>2026-05-02T07:59:36.32Z</time></trkpt><trkpt lat="40.6317877" lon="15.030478"><ele>358.7142857142857</ele><time>2026-05-02T07:59:37.32Z</time></trkpt><trkpt lat="40.6318498" lon="15.030437"><ele>358.1428571428571</ele><time>2026-05-02T07:59:38.32Z</time></trkpt><trkpt lat="40.6319146" lon="15.030396"><ele>357.57142857142856</ele><time>2026-05-02T07:59:39.32Z</time></trkpt><trkpt lat="40.6319803" lon="15.0303542"><ele>357.0</ele><time>2026-05-02T07:59:40.32Z</time></trkpt><trkpt lat="40.6320488" lon="15.0303109"><ele>355.8</ele><time>2026-05-02T07:59:41.319Z</time></trkpt><trkpt lat="40.6321219" lon="15.0302663"><ele>354.6</ele><time>2026-05-02T07:59:42.319Z</time></trkpt><trkpt lat="40.6322087" lon="15.0302124"><ele>353.40000000000003</ele><time>2026-05-02T07:59:43.32Z</time></trkpt><trkpt lat="40.632299" lon="15.0301596"><ele>352.20000000000005</ele><time>2026-05-02T07:59:44.32Z</time></trkpt><trkpt lat="40.6323792" lon="15.0301097"><ele>351.0</ele><time>2026-05-02T07:59:45.32Z</time></trkpt><trkpt lat="40.6324579" lon="15.0300615"><ele>351.0</ele><time>2026-05-02T07:59:46.319Z</time></trkpt><trkpt lat="40.6325363" lon="15.0300195"><ele>351.0</ele><time>2026-05-02T07:59:47.319Z</time></trkpt><trkpt lat="40.632622" lon="15.0299898"><ele>351.0</ele><time>2026-05-02T07:59:48.32Z</time></trkpt><trkpt lat="40.6327227" lon="15.0299835"><ele>351.0</ele><time>2026-05-02T07:59:49.319Z</time></trkpt><trkpt lat="40.6328362" lon="15.0299993"><ele>351.0</ele><time>2026-05-02T07:59:50.32Z</time></trkpt><trkpt lat="40.6329628" lon="15.030029"><ele>350.4</ele><time>2026-05-02T07:59:51.32Z</time></trkpt><trkpt lat="40.6330812" lon="15.0300583"><ele>349.8</ele><time>2026-05-02T07:59:52.32Z</time></trkpt><trkpt lat="40.6331915" lon="15.0300811"><ele>349.2</ele><time>2026-05-02T07:59:53.32Z</time></trkpt><trkpt lat="40.6332954" lon="15.0301037"><ele>348.59999999999997</ele><time>2026-05-02T07:59:54.32Z</time></trkpt><trkpt lat="40.6333849" lon="15.0301268"><ele>348.0</ele><time>2026-05-02T07:59:55.319Z</time></trkpt><trkpt lat="40.6334705" lon="15.0301505"><ele>348.0</ele><time>2026-05-02T07:59:56.32Z</time></trkpt><trkpt lat="40.6335549" lon="15.0301799"><ele>348.0</ele><time>2026-05-02T07:59:57.319Z</time></trkpt><trkpt lat="40.6336362" lon="15.0302257"><ele>348.0</ele><time>2026-05-02T07:59:58.32Z</time></trkpt><trkpt lat="40.6337092" lon="15.0302888"><ele>348.0</ele><time>2026-05-02T07:59:59.32Z</time></trkpt><trkpt lat="40.6337868" lon="15.0303579"><ele>348.0</ele><time>2026-05-02T08:00:00.32Z</time></trkpt><trkpt lat="40.6338601" lon="15.0304289"><ele>348.0</ele><time>2026-05-02T08:00:01.32Z</time></trkpt><trkpt lat="40.6339372" lon="15.0304995"><ele>347.0</ele><time>2026-05-02T08:00:02.319Z</time></trkpt><trkpt lat="40.6340163" lon="15.0305737"><ele>346.0</ele><time>2026-05-02T08:00:03.318Z</time></trkpt><trkpt lat="40.6340947" lon="15.0306427"><ele>345.0</ele><time>2026-05-02T08:00:04.32Z</time></trkpt><trkpt lat="40.634174" lon="15.0307147"><ele>344.0</ele><time>2026-05-02T08:00:05.319Z</time></trkpt><trkpt lat="40.6342571" lon="15.0307905"><ele>343.0</ele><time>2026-05-02T08:00:06.319Z</time></trkpt><trkpt lat="40.634339" lon="15.030865"><ele>343.0</ele><time>2026-05-02T08:00:07.319Z</time></trkpt><trkpt lat="40.634417" lon="15.0309351"><ele>343.0</ele><time>2026-05-02T08:00:08.319Z</time></trkpt><trkpt lat="40.6344933" lon="15.0310069"><ele>343.0</ele><time>2026-05-02T08:00:09.319Z</time></trkpt><trkpt lat="40.6345639" lon="15.0310884"><ele>343.0</ele><time>2026-05-02T08:00:10.32Z</time></trkpt><trkpt lat="40.6346296" lon="15.0311774"><ele>343.0</ele><time>2026-05-02T08:00:11.319Z</time></trkpt><trkpt lat="40.6346887" lon="15.0312718"><ele>341.16666666666663</ele><time>2026-05-02T08:00:12.319Z</time></trkpt><trkpt lat="40.6347473" lon="15.0313639"><ele>339.3333333333333</ele><time>2026-05-02T08:00:13.319Z</time></trkpt><trkpt lat="40.6348103" lon="15.0314553"><ele>337.5</ele><time>2026-05-02T08:00:14.319Z</time></trkpt><trkpt lat="40.6348702" lon="15.0315431"><ele>335.6666666666667</ele><time>2026-05-02T08:00:15.319Z</time></trkpt><trkpt lat="40.6349257" lon="15.0316303"><ele>333.83333333333337</ele><time>2026-05-02T08:00:16.32Z</time></trkpt><trkpt lat="40.6349831" lon="15.0317108"><ele>332.0</ele><time>2026-05-02T08:00:17.32Z</time></trkpt><trkpt lat="40.6350499" lon="15.0317629"><ele>332.0</ele><time>2026-05-02T08:00:18.32Z</time></trkpt><trkpt lat="40.6351199" lon="15.0317807"><ele>332.0</ele><time>2026-05-02T08:00:19.32Z</time></trkpt><trkpt lat="40.6351894" lon="15.0317595"><ele>332.0</ele><time>2026-05-02T08:00:20.32Z</time></trkpt><trkpt lat="40.6352509" lon="15.0317033"><ele>332.0</ele><time>2026-05-02T08:00:21.32Z</time></trkpt><trkpt lat="40.6352901" lon="15.0316185"><ele>332.0</ele><time>2026-05-02T08:00:22.32Z</time></trkpt><trkpt lat="40.6353116" lon="15.0315211"><ele>332.0</ele><time>2026-05-02T08:00:23.319Z</time></trkpt><trkpt lat="40.6353328" lon="15.0314164"><ele>328.40000000000003</ele><time>2026-05-02T08:00:24.319Z</time></trkpt><trkpt lat="40.6353554" lon="15.0313053"><ele>324.8</ele><time>2026-05-02T08:00:25.319Z</time></trkpt><trkpt lat="40.6353794" lon="15.0311845"><ele>321.2</ele><time>2026-05-02T08:00:26.319Z</time></trkpt><trkpt lat="40.6354059" lon="15.031063"><ele>317.6</ele><time>2026-05-02T08:00:27.32Z</time></trkpt><trkpt lat="40.6354303" lon="15.0309501"><ele>314.0</ele><time>2026-05-02T08:00:28.319Z</time></trkpt><trkpt lat="40.635455" lon="15.030836"><ele>312.4</ele><time>2026-05-02T08:00:29.319Z</time></trkpt><trkpt lat="40.6354742" lon="15.0307206"><ele>310.79999999999995</ele><time>2026-05-02T08:00:30.32Z</time></trkpt><trkpt lat="40.6354869" lon="15.0306007"><ele>309.20000000000005</ele><time>2026-05-02T08:00:31.32Z</time></trkpt><trkpt lat="40.6354888" lon="15.0304782"><ele>307.6</ele><time>2026-05-02T08:00:32.319Z</time></trkpt><trkpt lat="40.6354867" lon="15.0303502"><ele>306.0</ele><time>2026-05-02T08:00:33.319Z</time></trkpt><trkpt lat="40.6354822" lon="15.0302144"><ele>306.0</ele><time>2026-05-02T08:00:34.319Z</time></trkpt><trkpt lat="40.6354808" lon="15.0300631"><ele>306.0</ele><time>2026-05-02T08:00:35.32Z</time></trkpt><trkpt lat="40.6354781" lon="15.029898"><ele>306.0</ele><time>2026-05-02T08:00:36.319Z</time></trkpt><trkpt lat="40.635472" lon="15.0297293"><ele>306.0</ele><time>2026-05-02T08:00:37.319Z</time></trkpt><trkpt lat="40.6354686" lon="15.0295635"><ele>304.75</ele><time>2026-05-02T08:00:38.32Z</time></trkpt><trkpt lat="40.6354619" lon="15.0293983"><ele>303.5</ele><time>2026-05-02T08:00:39.32Z</time></trkpt><trkpt lat="40.6354603" lon="15.0292395"><ele>302.25</ele><time>2026-05-02T08:00:40.32Z</time></trkpt><trkpt lat="40.6354594" lon="15.0290829"><ele>301.0</ele><time>2026-05-02T08:00:41.319Z</time></trkpt><trkpt lat="40.6354581" lon="15.0289279"><ele>300.0</ele><time>2026-05-02T08:00:42.32Z</time></trkpt><trkpt lat="40.6354548" lon="15.0287766"><ele>299.0</ele><time>2026-05-02T08:00:43.32Z</time></trkpt><trkpt lat="40.6354511" lon="15.0286292"><ele>298.0</ele><time>2026-05-02T08:00:44.32Z</time></trkpt><trkpt lat="40.6354509" lon="15.0284861"><ele>297.0</ele><time>2026-05-02T08:00:45.32Z</time></trkpt><trkpt lat="40.6354483" lon="15.028351"><ele>296.0</ele><time>2026-05-02T08:00:46.319Z</time></trkpt><trkpt lat="40.6354476" lon="15.0282299"><ele>295.57142857142856</ele><time>2026-05-02T08:00:47.319Z</time></trkpt><trkpt lat="40.6354589" lon="15.028127"><ele>295.1428571428571</ele><time>2026-05-02T08:00:48.319Z</time></trkpt><trkpt lat="40.635488" lon="15.0280428"><ele>294.71428571428567</ele><time>2026-05-02T08:00:49.319Z</time></trkpt><trkpt lat="40.6355337" lon="15.0279772"><ele>294.2857142857143</ele><time>2026-05-02T08:00:50.319Z</time></trkpt><trkpt lat="40.6355967" lon="15.0279408"><ele>293.85714285714283</ele><time>2026-05-02T08:00:51.319Z</time></trkpt><trkpt lat="40.6356768" lon="15.0279319"><ele>293.4285714285714</ele><time>2026-05-02T08:00:52.319Z</time></trkpt><trkpt lat="40.6357582" lon="15.0279558"><ele>293.0</ele><time>2026-05-02T08:00:53.319Z</time></trkpt><trkpt lat="40.6358438" lon="15.0279939"><ele>293.0</ele><time>2026-05-02T08:00:54.319Z</time></trkpt><trkpt lat="40.6359294" lon="15.0280371"><ele>293.0</ele><time>2026-05-02T08:00:55.32Z</time></trkpt><trkpt lat="40.636015" lon="15.0280752"><ele>293.0</ele><time>2026-05-02T08:00:56.319Z</time></trkpt><trkpt lat="40.6360928" lon="15.028115"><ele>293.0</ele><time>2026-05-02T08:00:57.32Z</time></trkpt><trkpt lat="40.6361623" lon="15.0281682"><ele>293.0</ele><time>2026-05-02T08:00:58.32Z</time></trkpt><trkpt lat="40.6362194" lon="15.0282414"><ele>293.0</ele><time>2026-05-02T08:00:59.32Z</time></trkpt><trkpt lat="40.6362663" lon="15.0283346"><ele>291.0</ele><time>2026-05-02T08:01:00.32Z</time></trkpt><trkpt lat="40.6363083" lon="15.0284362"><ele>289.0</ele><time>2026-05-02T08:01:01.32Z</time></trkpt><trkpt lat="40.6363603" lon="15.0285434"><ele>287.0</ele><time>2026-05-02T08:01:02.32Z</time></trkpt><trkpt lat="40.6364141" lon="15.0286675"><ele>285.0</ele><time>2026-05-02T08:01:03.32Z</time></trkpt><trkpt lat="40.636476" lon="15.0288029"><ele>283.0</ele><time>2026-05-02T08:01:04.319Z</time></trkpt><trkpt lat="40.6365401" lon="15.0289341"><ele>283.0</ele><time>2026-05-02T08:01:05.319Z</time></trkpt><trkpt lat="40.6366005" lon="15.0290587"><ele>283.0</ele><time>2026-05-02T08:01:06.319Z</time></trkpt><trkpt lat="40.6366589" lon="15.0291805"><ele>283.0</ele><time>2026-05-02T08:01:07.319Z</time></trkpt><trkpt lat="40.6367151" lon="15.029298"><ele>283.0</ele><time>2026-05-02T08:01:08.319Z</time></trkpt><trkpt lat="40.6367692" lon="15.0294112"><ele>283.0</ele><time>2026-05-02T08:01:09.32Z</time></trkpt><trkpt lat="40.6368255" lon="15.0295186"><ele>283.2</ele><time>2026-05-02T08:01:10.319Z</time></trkpt><trkpt lat="40.6368778" lon="15.0296238"><ele>283.4</ele><time>2026-05-02T08:01:11.32Z</time></trkpt><trkpt lat="40.6369269" lon="15.0297248"><ele>283.59999999999997</ele><time>2026-05-02T08:01:12.319Z</time></trkpt><trkpt lat="40.6369678" lon="15.0298218"><ele>283.8</ele><time>2026-05-02T08:01:13.32Z</time></trkpt><trkpt lat="40.637" lon="15.029931"><ele>284.0</ele><time>2026-05-02T08:01:14.32Z</time></trkpt><trkpt lat="40.6370209" lon="15.0300578"><ele>281.4</ele><time>2026-05-02T08:01:15.32Z</time></trkpt><trkpt lat="40.6370271" lon="15.0301987"><ele>278.79999999999995</ele><time>2026-05-02T08:01:16.32Z</time></trkpt><trkpt lat="40.637022" lon="15.0303524"><ele>276.20000000000005</ele><time>2026-05-02T08:01:17.319Z</time></trkpt><trkpt lat="40.6370144" lon="15.0305037"><ele>273.6</ele><time>2026-05-02T08:01:18.32Z</time></trkpt><trkpt lat="40.6370112" lon="15.0306472"><ele>271.0</ele><time>2026-05-02T08:01:19.32Z</time></trkpt><trkpt lat="40.6370102" lon="15.0307857"><ele>270.8</ele><time>2026-05-02T08:01:20.32Z</time></trkpt><trkpt lat="40.6370075" lon="15.0309202"><ele>270.6</ele><time>2026-05-02T08:01:21.32Z</time></trkpt><trkpt lat="40.6370061" lon="15.0310484"><ele>270.4</ele><time>2026-05-02T08:01:22.32Z</time></trkpt><trkpt lat="40.6369951" lon="15.0311746"><ele>270.2</ele><time>2026-05-02T08:01:23.32Z</time></trkpt><trkpt lat="40.6369731" lon="15.0312876"><ele>270.0</ele><time>2026-05-02T08:01:24.32Z</time></trkpt><trkpt lat="40.6369319" lon="15.0313906"><ele>272.8333333333333</ele><time>2026-05-02T08:01:25.319Z</time></trkpt><trkpt lat="40.6368942" lon="15.0314853"><ele>275.6666666666667</ele><time>2026-05-02T08:01:26.32Z</time></trkpt><trkpt lat="40.6368706" lon="15.0315642"><ele>278.5</ele><time>2026-05-02T08:01:27.319Z</time></trkpt><trkpt lat="40.6368594" lon="15.0317145"><ele>281.33333333333337</ele><time>2026-05-02T08:01:29.319Z</time></trkpt><trkpt lat="40.6368795" lon="15.0317966"><ele>284.1666666666667</ele><time>2026-05-02T08:01:30.319Z</time></trkpt><trkpt lat="40.6369038" lon="15.0318843"><ele>287.0</ele><time>2026-05-02T08:01:31.319Z</time></trkpt><trkpt lat="40.6369383" lon="15.0319862"><ele>284.6666666666667</ele><time>2026-05-02T08:01:32.32Z</time></trkpt><trkpt lat="40.6369811" lon="15.0320865"><ele>282.33333333333337</ele><time>2026-05-02T08:01:33.319Z</time></trkpt><trkpt lat="40.6370277" lon="15.032169"><ele>280.0</ele><time>2026-05-02T08:01:34.319Z</time></trkpt><trkpt lat="40.6370976" lon="15.0322362"><ele>277.6666666666667</ele><time>2026-05-02T08:01:36.32Z</time></trkpt><trkpt lat="40.6371723" lon="15.0322404"><ele>275.3333333333333</ele><time>2026-05-02T08:01:39.32Z</time></trkpt><trkpt lat="40.6372468" lon="15.0322863"><ele>273.0</ele><time>2026-05-02T08:01:42.318Z</time></trkpt><trkpt lat="40.6373121" lon="15.0322813"><ele>273.0</ele><time>2026-05-02T08:01:45.319Z</time></trkpt><trkpt lat="40.6373764" lon="15.0322474"><ele>273.0</ele><time>2026-05-02T08:01:47.32Z</time></trkpt><trkpt lat="40.6374797" lon="15.0321685"><ele>273.0</ele><time>2026-05-02T08:01:49.319Z</time></trkpt><trkpt lat="40.6375466" lon="15.0321289"><ele>273.0</ele><time>2026-05-02T08:01:50.319Z</time></trkpt><trkpt lat="40.6376135" lon="15.0320829"><ele>273.0</ele><time>2026-05-02T08:01:51.32Z</time></trkpt><trkpt lat="40.6376684" lon="15.032029"><ele>273.0</ele><time>2026-05-02T08:01:52.32Z</time></trkpt><trkpt lat="40.637741" lon="15.0319504"><ele>273.0</ele><time>2026-05-02T08:01:54.319Z</time></trkpt><trkpt lat="40.6378115" lon="15.0319677"><ele>273.0</ele><time>2026-05-02T08:01:58.32Z</time></trkpt><trkpt lat="40.6377959" lon="15.0321018"><ele>273.0</ele><time>2026-05-02T08:02:01.32Z</time></trkpt><trkpt lat="40.6377563" lon="15.0322104"><ele>273.0</ele><time>2026-05-02T08:02:03.318Z</time></trkpt><trkpt lat="40.6377357" lon="15.0323283"><ele>273.0</ele><time>2026-05-02T08:02:05.32Z</time></trkpt><trkpt lat="40.6377054" lon="15.0324415"><ele>273.0</ele><time>2026-05-02T08:02:07.32Z</time></trkpt><trkpt lat="40.6376593" lon="15.0325357"><ele>274.2</ele><time>2026-05-02T08:02:09.319Z</time></trkpt><trkpt lat="40.6376019" lon="15.0326277"><ele>275.4</ele><time>2026-05-02T08:02:11.319Z</time></trkpt><trkpt lat="40.6375259" lon="15.0327267"><ele>276.59999999999997</ele><time>2026-05-02T08:02:13.319Z</time></trkpt><trkpt lat="40.6374313" lon="15.0327999"><ele>277.8</ele><time>2026-05-02T08:02:15.319Z</time></trkpt><trkpt lat="40.6373455" lon="15.0328744"><ele>279.0</ele><time>2026-05-02T08:02:17.32Z</time></trkpt><trkpt lat="40.6372941" lon="15.032981"><ele>279.0</ele><time>2026-05-02T08:02:19.32Z</time></trkpt><trkpt lat="40.6372391" lon="15.0330987"><ele>279.0</ele><time>2026-05-02T08:02:21.32Z</time></trkpt><trkpt lat="40.6372018" lon="15.0332377"><ele>279.0</ele><time>2026-05-02T08:02:23.319Z</time></trkpt><trkpt lat="40.6371623" lon="15.0333596"><ele>279.0</ele><time>2026-05-02T08:02:25.319Z</time></trkpt><trkpt lat="40.6371212" lon="15.0334822"><ele>279.0</ele><time>2026-05-02T08:02:27.319Z</time></trkpt><trkpt lat="40.6370816" lon="15.0335964"><ele>278.59999999999997</ele><time>2026-05-02T08:02:29.32Z</time></trkpt><trkpt lat="40.6370575" lon="15.0337069"><ele>278.2</ele><time>2026-05-02T08:02:31.32Z</time></trkpt><trkpt lat="40.6370188" lon="15.0338098"><ele>277.79999999999995</ele><time>2026-05-02T08:02:33.32Z</time></trkpt><trkpt lat="40.6369811" lon="15.0339311"><ele>277.4</ele><time>2026-05-02T08:02:35.32Z</time></trkpt><trkpt lat="40.6369223" lon="15.0340522"><ele>277.0</ele><time>2026-05-02T08:02:37.319Z</time></trkpt><trkpt lat="40.6368693" lon="15.034182"><ele>279.2</ele><time>2026-05-02T08:02:39.319Z</time></trkpt><trkpt lat="40.6368344" lon="15.0343063"><ele>281.4</ele><time>2026-05-02T08:02:41.319Z</time></trkpt><trkpt lat="40.6368091" lon="15.0344372"><ele>283.6</ele><time>2026-05-02T08:02:43.32Z</time></trkpt><trkpt lat="40.6367925" lon="15.0345769"><ele>285.8</ele><time>2026-05-02T08:02:45.32Z</time></trkpt><trkpt lat="40.6367799" lon="15.0347319"><ele>288.0</ele><time>2026-05-02T08:02:47.319Z</time></trkpt><trkpt lat="40.636771" lon="15.0348154"><ele>288.75</ele><time>2026-05-02T08:02:48.319Z</time></trkpt><trkpt lat="40.6367662" lon="15.0349757"><ele>289.5</ele><time>2026-05-02T08:02:50.32Z</time></trkpt><trkpt lat="40.636751" lon="15.0351332"><ele>290.25</ele><time>2026-05-02T08:02:52.319Z</time></trkpt><trkpt lat="40.6367367" lon="15.0352812"><ele>291.0</ele><time>2026-05-02T08:02:54.32Z</time></trkpt><trkpt lat="40.6367241" lon="15.0354258"><ele>291.0</ele><time>2026-05-02T08:02:56.319Z</time></trkpt><trkpt lat="40.6367177" lon="15.0355724"><ele>291.0</ele><time>2026-05-02T08:02:58.319Z</time></trkpt><trkpt lat="40.6367128" lon="15.0357202"><ele>291.0</ele><time>2026-05-02T08:03:00.319Z</time></trkpt><trkpt lat="40.6367094" lon="15.035858"><ele>291.0</ele><time>2026-05-02T08:03:02.32Z</time></trkpt><trkpt lat="40.6367079" lon="15.0360254"><ele>291.5</ele><time>2026-05-02T08:03:04.32Z</time></trkpt><trkpt lat="40.6367078" lon="15.0361779"><ele>292.0</ele><time>2026-05-02T08:03:06.32Z</time></trkpt><trkpt lat="40.6367056" lon="15.0363222"><ele>292.5</ele><time>2026-05-02T08:03:08.319Z</time></trkpt><trkpt lat="40.6367074" lon="15.0364858"><ele>293.0</ele><time>2026-05-02T08:03:10.319Z</time></trkpt><trkpt lat="40.6366864" lon="15.0366454"><ele>293.1428571428571</ele><time>2026-05-02T08:03:12.32Z</time></trkpt><trkpt lat="40.6366748" lon="15.0367364"><ele>293.2857142857143</ele><time>2026-05-02T08:03:13.32Z</time></trkpt><trkpt lat="40.6366667" lon="15.036828"><ele>293.42857142857144</ele><time>2026-05-02T08:03:14.32Z</time></trkpt><trkpt lat="40.6366508" lon="15.0369297"><ele>293.57142857142856</ele><time>2026-05-02T08:03:15.32Z</time></trkpt><trkpt lat="40.6366405" lon="15.037018"><ele>293.7142857142857</ele><time>2026-05-02T08:03:16.32Z</time></trkpt><trkpt lat="40.6366327" lon="15.0371131"><ele>293.85714285714283</ele><time>2026-05-02T08:03:17.319Z</time></trkpt><trkpt lat="40.6366268" lon="15.0372046"><ele>294.0</ele><time>2026-05-02T08:03:18.32Z</time></trkpt><trkpt lat="40.6366219" lon="15.037293"><ele>294.0</ele><time>2026-05-02T08:03:19.32Z</time></trkpt><trkpt lat="40.6366129" lon="15.0373821"><ele>294.0</ele><time>2026-05-02T08:03:20.32Z</time></trkpt><trkpt lat="40.6366075" lon="15.0375478"><ele>294.0</ele><time>2026-05-02T08:03:22.319Z</time></trkpt><trkpt lat="40.6366113" lon="15.0376365"><ele>294.0</ele><time>2026-05-02T08:03:23.319Z</time></trkpt><trkpt lat="40.6366122" lon="15.0377258"><ele>294.0</ele><time>2026-05-02T08:03:24.32Z</time></trkpt><trkpt lat="40.6366109" lon="15.0378111"><ele>294.0</ele><time>2026-05-02T08:03:25.32Z</time></trkpt><trkpt lat="40.6366116" lon="15.0379745"><ele>294.8333333333333</ele><time>2026-05-02T08:03:27.32Z</time></trkpt><trkpt lat="40.6366125" lon="15.0380612"><ele>295.6666666666667</ele><time>2026-05-02T08:03:28.32Z</time></trkpt><trkpt lat="40.6366112" lon="15.0381469"><ele>296.5</ele><time>2026-05-02T08:03:29.32Z</time></trkpt><trkpt lat="40.6366068" lon="15.0382379"><ele>297.33333333333337</ele><time>2026-05-02T08:03:30.319Z</time></trkpt><trkpt lat="40.6365983" lon="15.0383328"><ele>298.1666666666667</ele><time>2026-05-02T08:03:31.319Z</time></trkpt><trkpt lat="40.6365983" lon="15.0384203"><ele>299.0</ele><time>2026-05-02T08:03:32.319Z</time></trkpt><trkpt lat="40.6366044" lon="15.0385801"><ele>299.59999999999997</ele><time>2026-05-02T08:03:34.319Z</time></trkpt><trkpt lat="40.6366043" lon="15.038729"><ele>300.2</ele><time>2026-05-02T08:03:36.32Z</time></trkpt><trkpt lat="40.6365995" lon="15.0388648"><ele>300.79999999999995</ele><time>2026-05-02T08:03:38.319Z</time></trkpt><trkpt lat="40.6365865" lon="15.0389909"><ele>301.4</ele><time>2026-05-02T08:03:40.319Z</time></trkpt><trkpt lat="40.6365906" lon="15.0391047"><ele>302.0</ele><time>2026-05-02T08:03:42.32Z</time></trkpt><trkpt lat="40.6365931" lon="15.0392206"><ele>303.0</ele><time>2026-05-02T08:03:44.32Z</time></trkpt><trkpt lat="40.6366311" lon="15.0393106"><ele>304.0</ele><time>2026-05-02T08:03:46.319Z</time></trkpt><trkpt lat="40.6367184" lon="15.0393665"><ele>305.0</ele><time>2026-05-02T08:03:49.32Z</time></trkpt><trkpt lat="40.6367904" lon="15.0393234"><ele>306.0</ele><time>2026-05-02T08:04:14.32Z</time></trkpt><trkpt lat="40.6368577" lon="15.0392685"><ele>307.0</ele><time>2026-05-02T08:04:16.319Z</time></trkpt><trkpt lat="40.6369637" lon="15.039247"><ele>308.0</ele><time>2026-05-02T08:04:18.319Z</time></trkpt><trkpt lat="40.6370271" lon="15.0392314"><ele>308.33333333333337</ele><time>2026-05-02T08:04:19.319Z</time></trkpt><trkpt lat="40.6370991" lon="15.0392091"><ele>308.6666666666667</ele><time>2026-05-02T08:04:20.319Z</time></trkpt><trkpt lat="40.6371754" lon="15.0391898"><ele>309.0</ele><time>2026-05-02T08:04:21.32Z</time></trkpt><trkpt lat="40.637255" lon="15.0391618"><ele>309.3333333333333</ele><time>2026-05-02T08:04:22.32Z</time></trkpt><trkpt lat="40.6373348" lon="15.0391359"><ele>309.66666666666663</ele><time>2026-05-02T08:04:23.319Z</time></trkpt><trkpt lat="40.6374124" lon="15.0391183"><ele>310.0</ele><time>2026-05-02T08:04:24.32Z</time></trkpt><trkpt lat="40.6374874" lon="15.0391026"><ele>308.16666666666663</ele><time>2026-05-02T08:04:25.319Z</time></trkpt><trkpt lat="40.6375576" lon="15.0390903"><ele>306.3333333333333</ele><time>2026-05-02T08:04:26.32Z</time></trkpt><trkpt lat="40.6376222" lon="15.0390815"><ele>304.5</ele><time>2026-05-02T08:04:27.32Z</time></trkpt><trkpt lat="40.6376861" lon="15.0390774"><ele>302.6666666666667</ele><time>2026-05-02T08:04:28.319Z</time></trkpt><trkpt lat="40.6377528" lon="15.039074"><ele>300.83333333333337</ele><time>2026-05-02T08:04:29.319Z</time></trkpt><trkpt lat="40.6378619" lon="15.0390766"><ele>299.0</ele><time>2026-05-02T08:04:31.319Z</time></trkpt><trkpt lat="40.6379504" lon="15.0390985"><ele>298.5</ele><time>2026-05-02T08:04:33.32Z</time></trkpt><trkpt lat="40.638016" lon="15.0391443"><ele>298.0</ele><time>2026-05-02T08:04:35.32Z</time></trkpt><trkpt lat="40.638086" lon="15.0392112"><ele>297.5</ele><time>2026-05-02T08:04:37.32Z</time></trkpt><trkpt lat="40.6381647" lon="15.0392172"><ele>297.0</ele><time>2026-05-02T08:04:39.319Z</time></trkpt><trkpt lat="40.6382348" lon="15.0391429"><ele>296.5</ele><time>2026-05-02T08:04:41.319Z</time></trkpt><trkpt lat="40.6383042" lon="15.0390411"><ele>296.0</ele><time>2026-05-02T08:04:43.32Z</time></trkpt><trkpt lat="40.6384057" lon="15.0389713"><ele>296.0</ele><time>2026-05-02T08:04:45.319Z</time></trkpt><trkpt lat="40.6385024" lon="15.0389603"><ele>296.0</ele><time>2026-05-02T08:04:47.319Z</time></trkpt><trkpt lat="40.6385902" lon="15.0389717"><ele>296.0</ele><time>2026-05-02T08:04:49.32Z</time></trkpt><trkpt lat="40.6386716" lon="15.0390131"><ele>296.0</ele><time>2026-05-02T08:04:51.32Z</time></trkpt><trkpt lat="40.6387528" lon="15.0390699"><ele>296.0</ele><time>2026-05-02T08:04:53.319Z</time></trkpt><trkpt lat="40.6388273" lon="15.0391363"><ele>298.1666666666667</ele><time>2026-05-02T08:04:55.319Z</time></trkpt><trkpt lat="40.6389016" lon="15.0391545"><ele>300.33333333333337</ele><time>2026-05-02T08:04:57.32Z</time></trkpt><trkpt lat="40.6389767" lon="15.0390818"><ele>302.5</ele><time>2026-05-02T08:05:00.32Z</time></trkpt><trkpt lat="40.6390207" lon="15.0390057"><ele>304.6666666666667</ele><time>2026-05-02T08:05:02.32Z</time></trkpt><trkpt lat="40.6390317" lon="15.0389072"><ele>306.8333333333333</ele><time>2026-05-02T08:05:04.319Z</time></trkpt><trkpt lat="40.6390654" lon="15.0387935"><ele>309.0</ele><time>2026-05-02T08:05:06.319Z</time></trkpt><trkpt lat="40.6391308" lon="15.0387134"><ele>309.0</ele><time>2026-05-02T08:05:08.32Z</time></trkpt><trkpt lat="40.6391906" lon="15.0386222"><ele>309.0</ele><time>2026-05-02T08:05:10.32Z</time></trkpt><trkpt lat="40.6392253" lon="15.0385009"><ele>309.0</ele><time>2026-05-02T08:05:12.32Z</time></trkpt><trkpt lat="40.6392524" lon="15.0383616"><ele>309.0</ele><time>2026-05-02T08:05:14.32Z</time></trkpt><trkpt lat="40.6392537" lon="15.0382213"><ele>309.0</ele><time>2026-05-02T08:05:16.319Z</time></trkpt><trkpt lat="40.6392526" lon="15.0380759"><ele>307.0</ele><time>2026-05-02T08:05:18.32Z</time></trkpt><trkpt lat="40.6392466" lon="15.0379366"><ele>305.0</ele><time>2026-05-02T08:05:20.32Z</time></trkpt><trkpt lat="40.6392384" lon="15.0377934"><ele>303.0</ele><time>2026-05-02T08:05:22.32Z</time></trkpt><trkpt lat="40.6392296" lon="15.0376495"><ele>301.0</ele><time>2026-05-02T08:05:24.32Z</time></trkpt><trkpt lat="40.6392623" lon="15.0375316"><ele>299.0</ele><time>2026-05-02T08:05:26.32Z</time></trkpt><trkpt lat="40.6393353" lon="15.0374585"><ele>296.59999999999997</ele><time>2026-05-02T08:05:28.32Z</time></trkpt><trkpt lat="40.6394231" lon="15.037411"><ele>294.2</ele><time>2026-05-02T08:05:30.319Z</time></trkpt><trkpt lat="40.639515" lon="15.0373495"><ele>291.79999999999995</ele><time>2026-05-02T08:05:32.319Z</time></trkpt><trkpt lat="40.6395966" lon="15.0372674"><ele>289.4</ele><time>2026-05-02T08:05:34.319Z</time></trkpt><trkpt lat="40.6396807" lon="15.0371729"><ele>287.0</ele><time>2026-05-02T08:05:36.319Z</time></trkpt><trkpt lat="40.6397582" lon="15.0370848"><ele>292.0</ele><time>2026-05-02T08:05:38.319Z</time></trkpt><trkpt lat="40.6398571" lon="15.0370186"><ele>297.0</ele><time>2026-05-02T08:05:40.319Z</time></trkpt><trkpt lat="40.639949" lon="15.0369414"><ele>302.0</ele><time>2026-05-02T08:05:42.319Z</time></trkpt><trkpt lat="40.6400199" lon="15.0368725"><ele>307.0</ele><time>2026-05-02T08:05:44.319Z</time></trkpt><trkpt lat="40.6400813" lon="15.0367946"><ele>312.0</ele><time>2026-05-02T08:05:46.32Z</time></trkpt><trkpt lat="40.6401469" lon="15.0367195"><ele>312.0</ele><time>2026-05-02T08:05:48.319Z</time></trkpt><trkpt lat="40.6402271" lon="15.0366384"><ele>312.0</ele><time>2026-05-02T08:05:50.319Z</time></trkpt><trkpt lat="40.6403258" lon="15.036548"><ele>312.0</ele><time>2026-05-02T08:05:52.319Z</time></trkpt><trkpt lat="40.6403852" lon="15.0364933"><ele>312.0</ele><time>2026-05-02T08:05:53.32Z</time></trkpt><trkpt lat="40.640445" lon="15.0364434"><ele>312.0</ele><time>2026-05-02T08:05:54.32Z</time></trkpt><trkpt lat="40.6405517" lon="15.0363707"><ele>313.4</ele><time>2026-05-02T08:05:56.32Z</time></trkpt><trkpt lat="40.6406667" lon="15.0363011"><ele>314.79999999999995</ele><time>2026-05-02T08:05:58.32Z</time></trkpt><trkpt lat="40.6407256" lon="15.0362677"><ele>316.2</ele><time>2026-05-02T08:05:59.32Z</time></trkpt><trkpt lat="40.6408204" lon="15.0362099"><ele>317.59999999999997</ele><time>2026-05-02T08:06:01.32Z</time></trkpt><trkpt lat="40.6408995" lon="15.0361536"><ele>319.0</ele><time>2026-05-02T08:06:03.32Z</time></trkpt><trkpt lat="40.6409556" lon="15.0360848"><ele>319.0</ele><time>2026-05-02T08:06:05.319Z</time></trkpt><trkpt lat="40.6410303" lon="15.0359951"><ele>319.0</ele><time>2026-05-02T08:06:07.32Z</time></trkpt><trkpt lat="40.64112" lon="15.0358907"><ele>319.0</ele><time>2026-05-02T08:06:09.32Z</time></trkpt><trkpt lat="40.6412057" lon="15.0357821"><ele>319.0</ele><time>2026-05-02T08:06:11.318Z</time></trkpt><trkpt lat="40.6412815" lon="15.0356789"><ele>319.0</ele><time>2026-05-02T08:06:13.32Z</time></trkpt><trkpt lat="40.641334" lon="15.0355906"><ele>322.0</ele><time>2026-05-02T08:06:15.319Z</time></trkpt><trkpt lat="40.6414029" lon="15.0354821"><ele>325.0</ele><time>2026-05-02T08:06:17.319Z</time></trkpt><trkpt lat="40.6414718" lon="15.035366"><ele>328.0</ele><time>2026-05-02T08:06:19.32Z</time></trkpt><trkpt lat="40.6415402" lon="15.0352454"><ele>331.0</ele><time>2026-05-02T08:06:21.32Z</time></trkpt><trkpt lat="40.6416153" lon="15.0351303"><ele>334.0</ele><time>2026-05-02T08:06:23.32Z</time></trkpt><trkpt lat="40.6416967" lon="15.0350357"><ele>332.0</ele><time>2026-05-02T08:06:25.319Z</time></trkpt><trkpt lat="40.6417703" lon="15.0349436"><ele>330.0</ele><time>2026-05-02T08:06:27.32Z</time></trkpt><trkpt lat="40.6418318" lon="15.0348755"><ele>328.0</ele><time>2026-05-02T08:06:29.32Z</time></trkpt><trkpt lat="40.6418969" lon="15.0348055"><ele>326.0</ele><time>2026-05-02T08:07:08.319Z</time></trkpt><trkpt lat="40.6419564" lon="15.0347402"><ele>324.0</ele><time>2026-05-02T08:07:10.319Z</time></trkpt><trkpt lat="40.6420145" lon="15.0346786"><ele>322.0</ele><time>2026-05-02T08:07:13.319Z</time></trkpt><trkpt lat="40.6420734" lon="15.0346369"><ele>322.0</ele><time>2026-05-02T08:07:17.319Z</time></trkpt><trkpt lat="40.6421319" lon="15.0346059"><ele>322.0</ele><time>2026-05-02T08:07:20.32Z</time></trkpt><trkpt lat="40.6420453" lon="15.0346679"><ele>322.0</ele><time>2026-05-02T08:07:38.32Z</time></trkpt><trkpt lat="40.6419801" lon="15.0347438"><ele>322.0</ele><time>2026-05-02T08:07:40.32Z</time></trkpt><trkpt lat="40.641927" lon="15.0348021"><ele>322.0</ele><time>2026-05-02T08:07:50.319Z</time></trkpt><trkpt lat="40.6418724" lon="15.0348614"><ele>322.0</ele><time>2026-05-02T08:07:53.32Z</time></trkpt><trkpt lat="40.6418058" lon="15.0349349"><ele>324.0</ele><time>2026-05-02T08:07:56.319Z</time></trkpt><trkpt lat="40.6417339" lon="15.0350034"><ele>326.0</ele><time>2026-05-02T08:07:59.319Z</time></trkpt><trkpt lat="40.6416659" lon="15.0350916"><ele>328.0</ele><time>2026-05-02T08:08:02.32Z</time></trkpt><trkpt lat="40.6416122" lon="15.0351491"><ele>330.0</ele><time>2026-05-02T08:08:04.319Z</time></trkpt><trkpt lat="40.6415708" lon="15.0352188"><ele>332.0</ele><time>2026-05-02T08:08:06.319Z</time></trkpt><trkpt lat="40.6415162" lon="15.0353095"><ele>334.0</ele><time>2026-05-02T08:08:08.32Z</time></trkpt><trkpt lat="40.641463" lon="15.035411"><ele>334.0</ele><time>2026-05-02T08:08:10.319Z</time></trkpt><trkpt lat="40.6414227" lon="15.0354767"><ele>334.0</ele><time>2026-05-02T08:08:12.32Z</time></trkpt><trkpt lat="40.6413747" lon="15.0355417"><ele>334.0</ele><time>2026-05-02T08:08:14.225Z</time></trkpt><trkpt lat="40.6413245" lon="15.0356104"><ele>334.0</ele><time>2026-05-02T08:08:16.319Z</time></trkpt><trkpt lat="40.6412851" lon="15.0356794"><ele>334.0</ele><time>2026-05-02T08:08:18.32Z</time></trkpt><trkpt lat="40.6412462" lon="15.0357462"><ele>334.0</ele><time>2026-05-02T08:08:20.32Z</time></trkpt><trkpt lat="40.6411813" lon="15.0358375"><ele>334.0</ele><time>2026-05-02T08:08:23.32Z</time></trkpt><trkpt lat="40.6411331" lon="15.0359033"><ele>331.85714285714283</ele><time>2026-05-02T08:08:25.32Z</time></trkpt><trkpt lat="40.64108" lon="15.035963"><ele>329.7142857142857</ele><time>2026-05-02T08:08:27.319Z</time></trkpt><trkpt lat="40.6410283" lon="15.0360221"><ele>327.57142857142856</ele><time>2026-05-02T08:08:29.32Z</time></trkpt><trkpt lat="40.64098" lon="15.0360786"><ele>325.42857142857144</ele><time>2026-05-02T08:08:31.319Z</time></trkpt><trkpt lat="40.6409171" lon="15.0361594"><ele>323.2857142857143</ele><time>2026-05-02T08:08:34.325Z</time></trkpt><trkpt lat="40.6408458" lon="15.0362326"><ele>321.14285714285717</ele><time>2026-05-02T08:08:37.286Z</time></trkpt><trkpt lat="40.6407816" lon="15.0362427"><ele>319.0</ele><time>2026-05-02T08:08:39.165Z</time></trkpt><trkpt lat="40.6407161" lon="15.0362693"><ele>319.0</ele><time>2026-05-02T08:08:41.32Z</time></trkpt><trkpt lat="40.6406357" lon="15.0363251"><ele>319.0</ele><time>2026-05-02T08:08:44.32Z</time></trkpt><trkpt lat="40.640549" lon="15.036379"><ele>319.0</ele><time>2026-05-02T08:08:47.319Z</time></trkpt><trkpt lat="40.6404897" lon="15.0364189"><ele>319.0</ele><time>2026-05-02T08:08:49.32Z</time></trkpt><trkpt lat="40.6404303" lon="15.0364638"><ele>319.0</ele><time>2026-05-02T08:08:51.319Z</time></trkpt><trkpt lat="40.6403571" lon="15.036542"><ele>319.0</ele><time>2026-05-02T08:08:54.32Z</time></trkpt><trkpt lat="40.6402775" lon="15.0366071"><ele>318.0</ele><time>2026-05-02T08:08:57.32Z</time></trkpt><trkpt lat="40.6402223" lon="15.0366589"><ele>317.0</ele><time>2026-05-02T08:08:59.32Z</time></trkpt><trkpt lat="40.6401697" lon="15.0367059"><ele>316.0</ele><time>2026-05-02T08:09:01.32Z</time></trkpt><trkpt lat="40.6401193" lon="15.0367612"><ele>315.0</ele><time>2026-05-02T08:09:03.319Z</time></trkpt><trkpt lat="40.6400706" lon="15.0368173"><ele>314.0</ele><time>2026-05-02T08:09:05.32Z</time></trkpt><trkpt lat="40.6400274" lon="15.0368848"><ele>313.0</ele><time>2026-05-02T08:09:07.32Z</time></trkpt><trkpt lat="40.6399775" lon="15.0369399"><ele>312.0</ele><time>2026-05-02T08:09:09.32Z</time></trkpt><trkpt lat="40.6399217" lon="15.0369865"><ele>312.0</ele><time>2026-05-02T08:09:11.319Z</time></trkpt><trkpt lat="40.6398583" lon="15.0370392"><ele>312.0</ele><time>2026-05-02T08:09:14.32Z</time></trkpt><trkpt lat="40.6398589" lon="15.0369358"><ele>312.0</ele><time>2026-05-02T08:10:24.319Z</time></trkpt><trkpt lat="40.6399114" lon="15.0368334"><ele>312.0</ele><time>2026-05-02T08:10:27.319Z</time></trkpt><trkpt lat="40.6399772" lon="15.0367317"><ele>312.0</ele><time>2026-05-02T08:10:29.32Z</time></trkpt><trkpt lat="40.6400586" lon="15.0366074"><ele>313.1666666666667</ele><time>2026-05-02T08:10:31.319Z</time></trkpt><trkpt lat="40.6401077" lon="15.0365337"><ele>314.3333333333333</ele><time>2026-05-02T08:10:32.319Z</time></trkpt><trkpt lat="40.6401614" lon="15.036473"><ele>315.5</ele><time>2026-05-02T08:10:33.319Z</time></trkpt><trkpt lat="40.6402178" lon="15.0364048"><ele>316.66666666666663</ele><time>2026-05-02T08:10:34.319Z</time></trkpt><trkpt lat="40.6402811" lon="15.0363431"><ele>317.8333333333333</ele><time>2026-05-02T08:10:35.319Z</time></trkpt><trkpt lat="40.6403436" lon="15.0362777"><ele>319.0</ele><time>2026-05-02T08:10:36.319Z</time></trkpt><trkpt lat="40.6403997" lon="15.0362085"><ele>319.0</ele><time>2026-05-02T08:10:37.32Z</time></trkpt><trkpt lat="40.6404528" lon="15.0361407"><ele>319.0</ele><time>2026-05-02T08:10:38.32Z</time></trkpt><trkpt lat="40.6405016" lon="15.0360785"><ele>319.0</ele><time>2026-05-02T08:10:39.32Z</time></trkpt><trkpt lat="40.64055" lon="15.0360183"><ele>319.0</ele><time>2026-05-02T08:10:40.319Z</time></trkpt><trkpt lat="40.640595" lon="15.0359586"><ele>319.0</ele><time>2026-05-02T08:10:41.32Z</time></trkpt><trkpt lat="40.6406628" lon="15.0358478"><ele>319.0</ele><time>2026-05-02T08:10:43.32Z</time></trkpt><trkpt lat="40.6407028" lon="15.0357823"><ele>319.0</ele><time>2026-05-02T08:10:45.319Z</time></trkpt><trkpt lat="40.6407428" lon="15.0357132"><ele>319.0</ele><time>2026-05-02T08:11:33.32Z</time></trkpt><trkpt lat="40.6406904" lon="15.0358158"><ele>319.0</ele><time>2026-05-02T08:11:49.319Z</time></trkpt><trkpt lat="40.6406261" lon="15.0359084"><ele>319.0</ele><time>2026-05-02T08:11:51.32Z</time></trkpt><trkpt lat="40.6405569" lon="15.0360031"><ele>319.0</ele><time>2026-05-02T08:11:53.32Z</time></trkpt><trkpt lat="40.6404796" lon="15.036101"><ele>319.0</ele><time>2026-05-02T08:11:55.319Z</time></trkpt><trkpt lat="40.640405" lon="15.0362023"><ele>319.0</ele><time>2026-05-02T08:11:57.319Z</time></trkpt><trkpt lat="40.6403209" lon="15.0363027"><ele>319.0</ele><time>2026-05-02T08:11:59.319Z</time></trkpt><trkpt lat="40.640227" lon="15.036397"><ele>319.0</ele><time>2026-05-02T08:12:01.32Z</time></trkpt><trkpt lat="40.6401356" lon="15.0364939"><ele>319.0</ele><time>2026-05-02T08:12:03.319Z</time></trkpt><trkpt lat="40.6400509" lon="15.0366112"><ele>317.8333333333333</ele><time>2026-05-02T08:12:05.32Z</time></trkpt><trkpt lat="40.640008" lon="15.0366838"><ele>316.66666666666663</ele><time>2026-05-02T08:12:06.32Z</time></trkpt><trkpt lat="40.639963" lon="15.0367521"><ele>315.5</ele><time>2026-05-02T08:12:07.32Z</time></trkpt><trkpt lat="40.6399212" lon="15.0368193"><ele>314.3333333333333</ele><time>2026-05-02T08:12:08.319Z</time></trkpt><trkpt lat="40.6398534" lon="15.0369426"><ele>313.1666666666667</ele><time>2026-05-02T08:12:10.319Z</time></trkpt><trkpt lat="40.6397781" lon="15.0370567"><ele>312.0</ele><time>2026-05-02T08:12:12.319Z</time></trkpt><trkpt lat="40.63973" lon="15.0371161"><ele>312.0</ele><time>2026-05-02T08:12:13.319Z</time></trkpt><trkpt lat="40.6396792" lon="15.0371802"><ele>312.0</ele><time>2026-05-02T08:12:14.319Z</time></trkpt><trkpt lat="40.6396228" lon="15.0372479"><ele>312.0</ele><time>2026-05-02T08:12:15.32Z</time></trkpt><trkpt lat="40.6395552" lon="15.0373168"><ele>312.0</ele><time>2026-05-02T08:12:16.32Z</time></trkpt><trkpt lat="40.6394945" lon="15.0373674"><ele>312.0</ele><time>2026-05-02T08:12:17.32Z</time></trkpt><trkpt lat="40.639435" lon="15.037412"><ele>312.0</ele><time>2026-05-02T08:12:18.32Z</time></trkpt><trkpt lat="40.6393323" lon="15.0374747"><ele>309.8333333333333</ele><time>2026-05-02T08:12:20.32Z</time></trkpt><trkpt lat="40.6392627" lon="15.0375339"><ele>307.6666666666667</ele><time>2026-05-02T08:12:22.32Z</time></trkpt><trkpt lat="40.6391961" lon="15.0375314"><ele>305.5</ele><time>2026-05-02T08:12:34.319Z</time></trkpt><trkpt lat="40.6392351" lon="15.0374308"><ele>303.33333333333337</ele><time>2026-05-02T08:12:38.319Z</time></trkpt><trkpt lat="40.6392796" lon="15.0373505"><ele>301.1666666666667</ele><time>2026-05-02T08:12:40.32Z</time></trkpt><trkpt lat="40.6393302" lon="15.0372838"><ele>299.0</ele><time>2026-05-02T08:12:42.319Z</time></trkpt><trkpt lat="40.6393864" lon="15.0371965"><ele>298.2</ele><time>2026-05-02T08:12:44.32Z</time></trkpt><trkpt lat="40.6394534" lon="15.0371027"><ele>297.4</ele><time>2026-05-02T08:12:46.32Z</time></trkpt><trkpt lat="40.6395071" lon="15.0369807"><ele>296.6</ele><time>2026-05-02T08:12:48.319Z</time></trkpt><trkpt lat="40.6395521" lon="15.0368602"><ele>295.8</ele><time>2026-05-02T08:12:50.319Z</time></trkpt><trkpt lat="40.6395848" lon="15.0367354"><ele>295.0</ele><time>2026-05-02T08:12:52.32Z</time></trkpt><trkpt lat="40.6396265" lon="15.0366066"><ele>295.0</ele><time>2026-05-02T08:12:54.319Z</time></trkpt><trkpt lat="40.6396766" lon="15.0364627"><ele>295.0</ele><time>2026-05-02T08:12:56.32Z</time></trkpt><trkpt lat="40.6397324" lon="15.0363216"><ele>295.0</ele><time>2026-05-02T08:12:58.319Z</time></trkpt><trkpt lat="40.6397901" lon="15.0361969"><ele>295.0</ele><time>2026-05-02T08:13:00.319Z</time></trkpt><trkpt lat="40.6398379" lon="15.0360789"><ele>295.0</ele><time>2026-05-02T08:13:02.319Z</time></trkpt><trkpt lat="40.6398728" lon="15.0359371"><ele>295.0</ele><time>2026-05-02T08:13:04.32Z</time></trkpt><trkpt lat="40.6399116" lon="15.0357948"><ele>295.0</ele><time>2026-05-02T08:13:06.32Z</time></trkpt><trkpt lat="40.6399419" lon="15.0356547"><ele>295.0</ele><time>2026-05-02T08:13:08.32Z</time></trkpt><trkpt lat="40.6399905" lon="15.0355363"><ele>295.0</ele><time>2026-05-02T08:13:10.319Z</time></trkpt><trkpt lat="40.640057" lon="15.0354486"><ele>295.0</ele><time>2026-05-02T08:13:12.319Z</time></trkpt><trkpt lat="40.6401404" lon="15.0353712"><ele>295.0</ele><time>2026-05-02T08:13:14.319Z</time></trkpt><trkpt lat="40.6402156" lon="15.0352778"><ele>295.0</ele><time>2026-05-02T08:13:16.32Z</time></trkpt><trkpt lat="40.6402787" lon="15.03518"><ele>295.0</ele><time>2026-05-02T08:13:18.32Z</time></trkpt><trkpt lat="40.6403122" lon="15.0350653"><ele>295.0</ele><time>2026-05-02T08:13:20.32Z</time></trkpt><trkpt lat="40.6403292" lon="15.0349189"><ele>295.0</ele><time>2026-05-02T08:13:22.32Z</time></trkpt><trkpt lat="40.6403429" lon="15.0347805"><ele>295.0</ele><time>2026-05-02T08:13:24.32Z</time></trkpt><trkpt lat="40.6403726" lon="15.0346436"><ele>295.0</ele><time>2026-05-02T08:13:26.319Z</time></trkpt><trkpt lat="40.6403917" lon="15.0345217"><ele>295.0</ele><time>2026-05-02T08:13:28.319Z</time></trkpt><trkpt lat="40.6403944" lon="15.0344093"><ele>295.0</ele><time>2026-05-02T08:13:30.319Z</time></trkpt><trkpt lat="40.6404228" lon="15.0342964"><ele>295.0</ele><time>2026-05-02T08:13:32.32Z</time></trkpt><trkpt lat="40.6404697" lon="15.0342011"><ele>295.0</ele><time>2026-05-02T08:13:34.32Z</time></trkpt><trkpt lat="40.6405128" lon="15.0341098"><ele>295.0</ele><time>2026-05-02T08:13:36.319Z</time></trkpt><trkpt lat="40.6405463" lon="15.0339962"><ele>295.0</ele><time>2026-05-02T08:13:38.32Z</time></trkpt><trkpt lat="40.6405941" lon="15.033883"><ele>295.0</ele><time>2026-05-02T08:13:40.32Z</time></trkpt><trkpt lat="40.6406463" lon="15.033778"><ele>291.2</ele><time>2026-05-02T08:13:42.32Z</time></trkpt><trkpt lat="40.6407138" lon="15.0336863"><ele>287.4</ele><time>2026-05-02T08:13:44.32Z</time></trkpt><trkpt lat="40.6407934" lon="15.0336027"><ele>283.6</ele><time>2026-05-02T08:13:46.32Z</time></trkpt><trkpt lat="40.6408739" lon="15.0335267"><ele>279.8</ele><time>2026-05-02T08:13:48.32Z</time></trkpt><trkpt lat="40.6409601" lon="15.0334547"><ele>276.0</ele><time>2026-05-02T08:13:50.319Z</time></trkpt><trkpt lat="40.6410505" lon="15.0333811"><ele>278.2</ele><time>2026-05-02T08:13:52.32Z</time></trkpt><trkpt lat="40.6411226" lon="15.0332842"><ele>280.40000000000003</ele><time>2026-05-02T08:13:54.319Z</time></trkpt><trkpt lat="40.641178" lon="15.033173"><ele>282.6</ele><time>2026-05-02T08:13:56.32Z</time></trkpt><trkpt lat="40.6412441" lon="15.0330509"><ele>284.8</ele><time>2026-05-02T08:13:58.319Z</time></trkpt><trkpt lat="40.6413032" lon="15.0329207"><ele>287.0</ele><time>2026-05-02T08:14:00.32Z</time></trkpt><trkpt lat="40.6413607" lon="15.0327981"><ele>287.0</ele><time>2026-05-02T08:14:02.319Z</time></trkpt><trkpt lat="40.6414111" lon="15.0326903"><ele>287.0</ele><time>2026-05-02T08:14:04.32Z</time></trkpt><trkpt lat="40.6414518" lon="15.0326092"><ele>287.0</ele><time>2026-05-02T08:14:06.319Z</time></trkpt><trkpt lat="40.6414918" lon="15.0325329"><ele>287.0</ele><time>2026-05-02T08:14:08.319Z</time></trkpt><trkpt lat="40.6415367" lon="15.0324566"><ele>287.0</ele><time>2026-05-02T08:14:10.32Z</time></trkpt><trkpt lat="40.641595" lon="15.0323872"><ele>287.0</ele><time>2026-05-02T08:14:12.319Z</time></trkpt><trkpt lat="40.6416578" lon="15.0323453"><ele>286.42857142857144</ele><time>2026-05-02T08:14:14.32Z</time></trkpt><trkpt lat="40.6417304" lon="15.0323285"><ele>285.8571428571429</ele><time>2026-05-02T08:14:16.32Z</time></trkpt><trkpt lat="40.6417955" lon="15.0323332"><ele>285.2857142857143</ele><time>2026-05-02T08:14:18.32Z</time></trkpt><trkpt lat="40.6418611" lon="15.032339"><ele>284.7142857142857</ele><time>2026-05-02T08:14:21.32Z</time></trkpt><trkpt lat="40.6419264" lon="15.0323801"><ele>284.14285714285717</ele><time>2026-05-02T08:14:24.32Z</time></trkpt><trkpt lat="40.641985" lon="15.0324243"><ele>283.57142857142856</ele><time>2026-05-02T08:14:26.319Z</time></trkpt><trkpt lat="40.6420366" lon="15.0324811"><ele>283.0</ele><time>2026-05-02T08:14:28.319Z</time></trkpt><trkpt lat="40.6420985" lon="15.0325303"><ele>283.0</ele><time>2026-05-02T08:14:30.32Z</time></trkpt><trkpt lat="40.6421551" lon="15.0325831"><ele>283.0</ele><time>2026-05-02T08:14:32.319Z</time></trkpt><trkpt lat="40.6422258" lon="15.0325802"><ele>283.0</ele><time>2026-05-02T08:14:34.319Z</time></trkpt><trkpt lat="40.6422833" lon="15.0325244"><ele>283.0</ele><time>2026-05-02T08:14:36.319Z</time></trkpt><trkpt lat="40.642277" lon="15.0324112"><ele>283.0</ele><time>2026-05-02T08:14:38.32Z</time></trkpt><trkpt lat="40.6422498" lon="15.0323063"><ele>283.0</ele><time>2026-05-02T08:14:40.32Z</time></trkpt><trkpt lat="40.6422785" lon="15.0321918"><ele>283.0</ele><time>2026-05-02T08:14:42.32Z</time></trkpt><trkpt lat="40.6423324" lon="15.0320965"><ele>283.0</ele><time>2026-05-02T08:14:44.32Z</time></trkpt><trkpt lat="40.64238" lon="15.0320296"><ele>283.0</ele><time>2026-05-02T08:14:46.32Z</time></trkpt><trkpt lat="40.6424486" lon="15.0320102"><ele>283.0</ele><time>2026-05-02T08:14:48.32Z</time></trkpt><trkpt lat="40.6425127" lon="15.0320657"><ele>283.0</ele><time>2026-05-02T08:14:50.225Z</time></trkpt><trkpt lat="40.6425412" lon="15.0321705"><ele>283.0</ele><time>2026-05-02T08:14:52.166Z</time></trkpt><trkpt lat="40.642571" lon="15.0322707"><ele>283.0</ele><time>2026-05-02T08:14:54.264Z</time></trkpt><trkpt lat="40.6426648" lon="15.0323084"><ele>283.0</ele><time>2026-05-02T08:14:56.319Z</time></trkpt><trkpt lat="40.6427319" lon="15.0323511"><ele>283.0</ele><time>2026-05-02T08:14:58.319Z</time></trkpt><trkpt lat="40.6427899" lon="15.0324217"><ele>283.0</ele><time>2026-05-02T08:15:00.245Z</time></trkpt><trkpt lat="40.6428335" lon="15.03251"><ele>283.0</ele><time>2026-05-02T08:15:02.32Z</time></trkpt><trkpt lat="40.642854" lon="15.0326222"><ele>283.0</ele><time>2026-05-02T08:15:04.32Z</time></trkpt><trkpt lat="40.642875" lon="15.0327286"><ele>285.3333333333333</ele><time>2026-05-02T08:15:06.319Z</time></trkpt><trkpt lat="40.642937" lon="15.0328153"><ele>287.66666666666663</ele><time>2026-05-02T08:15:08.319Z</time></trkpt><trkpt lat="40.6429854" lon="15.0329066"><ele>290.0</ele><time>2026-05-02T08:15:10.319Z</time></trkpt><trkpt lat="40.6430433" lon="15.0329907"><ele>292.3333333333333</ele><time>2026-05-02T08:15:12.319Z</time></trkpt><trkpt lat="40.6431038" lon="15.0330591"><ele>294.6666666666667</ele><time>2026-05-02T08:15:14.32Z</time></trkpt><trkpt lat="40.6431814" lon="15.0331115"><ele>297.0</ele><time>2026-05-02T08:15:16.32Z</time></trkpt><trkpt lat="40.6432439" lon="15.0331819"><ele>297.0</ele><time>2026-05-02T08:15:18.319Z</time></trkpt><trkpt lat="40.6432758" lon="15.0332805"><ele>297.0</ele><time>2026-05-02T08:15:20.319Z</time></trkpt><trkpt lat="40.6432739" lon="15.0333782"><ele>297.0</ele><time>2026-05-02T08:15:22.32Z</time></trkpt><trkpt lat="40.6432712" lon="15.0334686"><ele>297.0</ele><time>2026-05-02T08:15:25.32Z</time></trkpt><trkpt lat="40.6432936" lon="15.0335633"><ele>297.0</ele><time>2026-05-02T08:15:35.32Z</time></trkpt><trkpt lat="40.6433219" lon="15.0336588"><ele>297.0</ele><time>2026-05-02T08:15:37.319Z</time></trkpt><trkpt lat="40.6433395" lon="15.0337575"><ele>298.6666666666667</ele><time>2026-05-02T08:15:39.32Z</time></trkpt><trkpt lat="40.6433489" lon="15.033852"><ele>300.3333333333333</ele><time>2026-05-02T08:15:41.32Z</time></trkpt><trkpt lat="40.6433589" lon="15.0339553"><ele>302.0</ele><time>2026-05-02T08:15:43.32Z</time></trkpt><trkpt lat="40.6433597" lon="15.0340636"><ele>303.66666666666663</ele><time>2026-05-02T08:15:45.32Z</time></trkpt><trkpt lat="40.6433688" lon="15.0341593"><ele>305.3333333333333</ele><time>2026-05-02T08:15:47.32Z</time></trkpt><trkpt lat="40.6433685" lon="15.0340667"><ele>307.0</ele><time>2026-05-02T08:16:28.32Z</time></trkpt><trkpt lat="40.6433603" lon="15.0339576"><ele>306.99999999999994</ele><time>2026-05-02T08:16:35.319Z</time></trkpt><trkpt lat="40.6433523" lon="15.0338707"><ele>307.0</ele><time>2026-05-02T08:16:37.32Z</time></trkpt><trkpt lat="40.6433262" lon="15.0337575"><ele>307.0</ele><time>2026-05-02T08:16:40.319Z</time></trkpt><trkpt lat="40.6433223" lon="15.0336664"><ele>307.0</ele><time>2026-05-02T08:16:42.32Z</time></trkpt><trkpt lat="40.6433086" lon="15.0335854"><ele>307.0</ele><time>2026-05-02T08:16:44.32Z</time></trkpt><trkpt lat="40.6432679" lon="15.0334911"><ele>306.99999999999994</ele><time>2026-05-02T08:16:47.32Z</time></trkpt><trkpt lat="40.6432433" lon="15.0334136"><ele>307.0</ele><time>2026-05-02T08:16:52.32Z</time></trkpt><trkpt lat="40.643306" lon="15.0334408"><ele>307.0</ele><time>2026-05-02T08:17:03.32Z</time></trkpt><trkpt lat="40.6433889" lon="15.0335022"><ele>307.0</ele><time>2026-05-02T08:17:54.32Z</time></trkpt><trkpt lat="40.6434425" lon="15.0335644"><ele>307.0</ele><time>2026-05-02T08:17:56.32Z</time></trkpt><trkpt lat="40.6434927" lon="15.0336398"><ele>307.0</ele><time>2026-05-02T08:17:58.32Z</time></trkpt><trkpt lat="40.6435218" lon="15.0337474"><ele>307.0</ele><time>2026-05-02T08:18:00.319Z</time></trkpt><trkpt lat="40.643558" lon="15.0338541"><ele>307.0</ele><time>2026-05-02T08:18:02.32Z</time></trkpt><trkpt lat="40.6435988" lon="15.0339521"><ele>307.0</ele><time>2026-05-02T08:18:04.32Z</time></trkpt><trkpt lat="40.6436611" lon="15.0340393"><ele>307.0</ele><time>2026-05-02T08:18:06.319Z</time></trkpt><trkpt lat="40.6437213" lon="15.0341251"><ele>307.0</ele><time>2026-05-02T08:18:08.32Z</time></trkpt><trkpt lat="40.6437891" lon="15.0342123"><ele>307.0</ele><time>2026-05-02T08:18:10.32Z</time></trkpt><trkpt lat="40.6438732" lon="15.0343058"><ele>307.0</ele><time>2026-05-02T08:18:12.32Z</time></trkpt><trkpt lat="40.6439587" lon="15.0344086"><ele>307.0</ele><time>2026-05-02T08:18:14.319Z</time></trkpt><trkpt lat="40.6440129" lon="15.0345018"><ele>307.0</ele><time>2026-05-02T08:18:16.32Z</time></trkpt><trkpt lat="40.6440742" lon="15.0345908"><ele>307.0</ele><time>2026-05-02T08:18:18.319Z</time></trkpt><trkpt lat="40.6441334" lon="15.0346754"><ele>307.0</ele><time>2026-05-02T08:18:20.319Z</time></trkpt><trkpt lat="40.6441964" lon="15.0347785"><ele>307.0</ele><time>2026-05-02T08:18:22.32Z</time></trkpt><trkpt lat="40.6442529" lon="15.0348536"><ele>307.0</ele><time>2026-05-02T08:18:24.319Z</time></trkpt><trkpt lat="40.6443112" lon="15.0349143"><ele>307.0</ele><time>2026-05-02T08:18:26.319Z</time></trkpt><trkpt lat="40.6443755" lon="15.0349161"><ele>307.0</ele><time>2026-05-02T08:18:28.32Z</time></trkpt><trkpt lat="40.6444196" lon="15.0348509"><ele>307.0</ele><time>2026-05-02T08:18:30.32Z</time></trkpt><trkpt lat="40.644419" lon="15.0347245"><ele>307.0</ele><time>2026-05-02T08:18:32.32Z</time></trkpt><trkpt lat="40.6444043" lon="15.0345852"><ele>307.0</ele><time>2026-05-02T08:18:34.32Z</time></trkpt><trkpt lat="40.6443841" lon="15.0344624"><ele>307.0</ele><time>2026-05-02T08:18:36.32Z</time></trkpt><trkpt lat="40.6443794" lon="15.0343578"><ele>307.0</ele><time>2026-05-02T08:18:38.32Z</time></trkpt><trkpt lat="40.6443848" lon="15.0342518"><ele>307.0</ele><time>2026-05-02T08:18:40.319Z</time></trkpt><trkpt lat="40.6443789" lon="15.0341624"><ele>307.0</ele><time>2026-05-02T08:18:42.32Z</time></trkpt><trkpt lat="40.6443944" lon="15.034069"><ele>307.0</ele><time>2026-05-02T08:18:47.32Z</time></trkpt><trkpt lat="40.6444571" lon="15.0340063"><ele>307.0</ele><time>2026-05-02T08:18:49.32Z</time></trkpt><trkpt lat="40.6445383" lon="15.0339932"><ele>307.0</ele><time>2026-05-02T08:18:51.32Z</time></trkpt><trkpt lat="40.6446191" lon="15.0340539"><ele>306.5</ele><time>2026-05-02T08:18:53.319Z</time></trkpt><trkpt lat="40.6446946" lon="15.0341116"><ele>306.0</ele><time>2026-05-02T08:18:55.32Z</time></trkpt><trkpt lat="40.6447764" lon="15.0341537"><ele>305.5</ele><time>2026-05-02T08:18:57.319Z</time></trkpt><trkpt lat="40.6448634" lon="15.0342063"><ele>305.0</ele><time>2026-05-02T08:18:59.32Z</time></trkpt><trkpt lat="40.6449424" lon="15.034254"><ele>304.5</ele><time>2026-05-02T08:19:01.32Z</time></trkpt><trkpt lat="40.6450149" lon="15.034318"><ele>304.0</ele><time>2026-05-02T08:19:03.32Z</time></trkpt><trkpt lat="40.64507" lon="15.0344019"><ele>304.0</ele><time>2026-05-02T08:19:05.32Z</time></trkpt><trkpt lat="40.6451059" lon="15.0344941"><ele>304.0</ele><time>2026-05-02T08:19:07.319Z</time></trkpt><trkpt lat="40.6451344" lon="15.0345781"><ele>304.0</ele><time>2026-05-02T08:19:09.32Z</time></trkpt><trkpt lat="40.6451747" lon="15.034669"><ele>304.0</ele><time>2026-05-02T08:19:11.319Z</time></trkpt><trkpt lat="40.6452185" lon="15.0347561"><ele>304.0</ele><time>2026-05-02T08:19:13.32Z</time></trkpt><trkpt lat="40.6452703" lon="15.0348342"><ele>304.0</ele><time>2026-05-02T08:19:16.319Z</time></trkpt><trkpt lat="40.6453323" lon="15.0348706"><ele>304.0</ele><time>2026-05-02T08:19:40.32Z</time></trkpt><trkpt lat="40.6453949" lon="15.0348941"><ele>304.0</ele><time>2026-05-02T08:19:42.32Z</time></trkpt><trkpt lat="40.645328" lon="15.0348665"><ele>304.0</ele><time>2026-05-02T08:19:58.319Z</time></trkpt><trkpt lat="40.6452653" lon="15.0348119"><ele>304.0</ele><time>2026-05-02T08:20:00.319Z</time></trkpt><trkpt lat="40.6452019" lon="15.0347297"><ele>304.0</ele><time>2026-05-02T08:20:03.319Z</time></trkpt><trkpt lat="40.645163" lon="15.0346472"><ele>304.0</ele><time>2026-05-02T08:20:05.319Z</time></trkpt><trkpt lat="40.6451176" lon="15.0345426"><ele>304.0</ele><time>2026-05-02T08:20:07.319Z</time></trkpt><trkpt lat="40.6450622" lon="15.0344246"><ele>304.0</ele><time>2026-05-02T08:20:09.32Z</time></trkpt><trkpt lat="40.644998" lon="15.0343289"><ele>304.0</ele><time>2026-05-02T08:20:11.32Z</time></trkpt><trkpt lat="40.6449093" lon="15.0342587"><ele>304.0</ele><time>2026-05-02T08:20:13.319Z</time></trkpt><trkpt lat="40.6448037" lon="15.0342011"><ele>304.0</ele><time>2026-05-02T08:20:15.319Z</time></trkpt><trkpt lat="40.6447337" lon="15.0341458"><ele>304.59999999999997</ele><time>2026-05-02T08:20:17.319Z</time></trkpt><trkpt lat="40.6446503" lon="15.0340764"><ele>305.2</ele><time>2026-05-02T08:20:19.319Z</time></trkpt><trkpt lat="40.6445679" lon="15.0340106"><ele>305.79999999999995</ele><time>2026-05-02T08:20:21.32Z</time></trkpt><trkpt lat="40.6444814" lon="15.0340157"><ele>306.4</ele><time>2026-05-02T08:20:23.319Z</time></trkpt><trkpt lat="40.644412" lon="15.0340941"><ele>307.0</ele><time>2026-05-02T08:20:25.32Z</time></trkpt><trkpt lat="40.6444173" lon="15.0341949"><ele>307.0</ele><time>2026-05-02T08:20:27.32Z</time></trkpt><trkpt lat="40.6444175" lon="15.0342901"><ele>307.0</ele><time>2026-05-02T08:20:30.32Z</time></trkpt><trkpt lat="40.644346" lon="15.0342524"><ele>307.0</ele><time>2026-05-02T08:20:33.319Z</time></trkpt><trkpt lat="40.6443198" lon="15.0341544"><ele>307.0</ele><time>2026-05-02T08:20:35.319Z</time></trkpt><trkpt lat="40.644312" lon="15.0340554"><ele>307.0</ele><time>2026-05-02T08:20:37.32Z</time></trkpt><trkpt lat="40.6443208" lon="15.0339676"><ele>307.0</ele><time>2026-05-02T08:20:39.319Z</time></trkpt><trkpt lat="40.644347" lon="15.0338675"><ele>304.2857142857143</ele><time>2026-05-02T08:20:42.319Z</time></trkpt><trkpt lat="40.6443895" lon="15.0338029"><ele>301.57142857142856</ele><time>2026-05-02T08:20:44.32Z</time></trkpt><trkpt lat="40.6444449" lon="15.0337298"><ele>298.8571428571429</ele><time>2026-05-02T08:20:46.32Z</time></trkpt><trkpt lat="40.6444939" lon="15.0336746"><ele>296.1428571428571</ele><time>2026-05-02T08:20:48.32Z</time></trkpt><trkpt lat="40.6445587" lon="15.0336226"><ele>293.42857142857144</ele><time>2026-05-02T08:20:51.32Z</time></trkpt><trkpt lat="40.6446256" lon="15.0335872"><ele>290.7142857142857</ele><time>2026-05-02T08:20:54.32Z</time></trkpt><trkpt lat="40.6446868" lon="15.0335532"><ele>288.0</ele><time>2026-05-02T08:20:59.319Z</time></trkpt><trkpt lat="40.6447448" lon="15.0335931"><ele>286.7142857142857</ele><time>2026-05-02T08:21:05.296Z</time></trkpt><trkpt lat="40.6448086" lon="15.0336366"><ele>285.42857142857144</ele><time>2026-05-02T08:21:09.32Z</time></trkpt><trkpt lat="40.6448945" lon="15.0336443"><ele>284.1428571428571</ele><time>2026-05-02T08:21:12.325Z</time></trkpt><trkpt lat="40.6449803" lon="15.0336428"><ele>282.8571428571429</ele><time>2026-05-02T08:21:15.32Z</time></trkpt><trkpt lat="40.6450502" lon="15.0336606"><ele>281.57142857142856</ele><time>2026-05-02T08:21:18.319Z</time></trkpt><trkpt lat="40.6451051" lon="15.0337043"><ele>280.2857142857143</ele><time>2026-05-02T08:21:21.319Z</time></trkpt><trkpt lat="40.6451677" lon="15.0337332"><ele>279.0</ele><time>2026-05-02T08:21:24.32Z</time></trkpt><trkpt lat="40.6452406" lon="15.033764"><ele>279.0</ele><time>2026-05-02T08:21:27.32Z</time></trkpt><trkpt lat="40.6452946" lon="15.0338075"><ele>279.0</ele><time>2026-05-02T08:21:30.319Z</time></trkpt><trkpt lat="40.6453723" lon="15.0338448"><ele>279.0</ele><time>2026-05-02T08:21:34.286Z</time></trkpt><trkpt lat="40.645438" lon="15.0339002"><ele>279.0</ele><time>2026-05-02T08:21:37.319Z</time></trkpt><trkpt lat="40.6454972" lon="15.0339765"><ele>279.0</ele><time>2026-05-02T08:21:42.319Z</time></trkpt><trkpt lat="40.6455332" lon="15.034073"><ele>279.0</ele><time>2026-05-02T08:21:46.319Z</time></trkpt><trkpt lat="40.6456018" lon="15.0341088"><ele>275.5</ele><time>2026-05-02T08:21:49.319Z</time></trkpt><trkpt lat="40.6456775" lon="15.0341201"><ele>272.0</ele><time>2026-05-02T08:21:52.32Z</time></trkpt><trkpt lat="40.6457662" lon="15.0341312"><ele>268.5</ele><time>2026-05-02T08:21:55.319Z</time></trkpt><trkpt lat="40.6458538" lon="15.0341079"><ele>265.0</ele><time>2026-05-02T08:21:58.319Z</time></trkpt><trkpt lat="40.6459302" lon="15.0340629"><ele>261.5</ele><time>2026-05-02T08:22:01.32Z</time></trkpt><trkpt lat="40.6460139" lon="15.0340298"><ele>258.0</ele><time>2026-05-02T08:22:04.32Z</time></trkpt><trkpt lat="40.6460947" lon="15.0340391"><ele>257.71428571428567</ele><time>2026-05-02T08:22:08.235Z</time></trkpt><trkpt lat="40.6461463" lon="15.034094"><ele>257.42857142857144</ele><time>2026-05-02T08:22:17.32Z</time></trkpt><trkpt lat="40.6461954" lon="15.0341539"><ele>257.1428571428571</ele><time>2026-05-02T08:22:24.276Z</time></trkpt><trkpt lat="40.6462573" lon="15.0342161"><ele>256.85714285714283</ele><time>2026-05-02T08:22:30.32Z</time></trkpt><trkpt lat="40.6463368" lon="15.0342316"><ele>256.57142857142856</ele><time>2026-05-02T08:22:34.319Z</time></trkpt><trkpt lat="40.6464046" lon="15.0342377"><ele>256.2857142857143</ele><time>2026-05-02T08:22:38.32Z</time></trkpt><trkpt lat="40.64648" lon="15.0342306"><ele>256.0</ele><time>2026-05-02T08:22:42.319Z</time></trkpt><trkpt lat="40.6465458" lon="15.0342447"><ele>256.0</ele><time>2026-05-02T08:22:46.32Z</time></trkpt><trkpt lat="40.6466051" lon="15.0342858"><ele>255.99999999999997</ele><time>2026-05-02T08:22:51.319Z</time></trkpt><trkpt lat="40.6466599" lon="15.0343528"><ele>256.0</ele><time>2026-05-02T08:22:56.32Z</time></trkpt><trkpt lat="40.6467096" lon="15.0344159"><ele>256.0</ele><time>2026-05-02T08:22:59.32Z</time></trkpt><trkpt lat="40.6467548" lon="15.0344738"><ele>255.99999999999997</ele><time>2026-05-02T08:23:05.32Z</time></trkpt><trkpt lat="40.6468274" lon="15.0344813"><ele>256.0</ele><time>2026-05-02T08:23:19.319Z</time></trkpt><trkpt lat="40.6468841" lon="15.0345216"><ele>256.0</ele><time>2026-05-02T08:23:25.32Z</time></trkpt><trkpt lat="40.646922" lon="15.0346151"><ele>256.16666666666663</ele><time>2026-05-02T08:23:33.319Z</time></trkpt><trkpt lat="40.6469717" lon="15.0346841"><ele>256.3333333333333</ele><time>2026-05-02T08:23:51.32Z</time></trkpt><trkpt lat="40.647026" lon="15.0347591"><ele>256.5</ele><time>2026-05-02T08:41:30.32Z</time></trkpt><trkpt lat="40.6470735" lon="15.0348457"><ele>256.6666666666667</ele><time>2026-05-02T08:41:33.32Z</time></trkpt><trkpt lat="40.6471404" lon="15.034926"><ele>256.83333333333337</ele><time>2026-05-02T08:41:36.32Z</time></trkpt><trkpt lat="40.6471809" lon="15.0350158"><ele>257.0</ele><time>2026-05-02T08:41:38.319Z</time></trkpt><trkpt lat="40.6472136" lon="15.0351169"><ele>257.83333333333337</ele><time>2026-05-02T08:41:40.319Z</time></trkpt><trkpt lat="40.647232" lon="15.035221"><ele>258.6666666666667</ele><time>2026-05-02T08:41:42.32Z</time></trkpt><trkpt lat="40.6472618" lon="15.0353086"><ele>259.5</ele><time>2026-05-02T08:41:46.32Z</time></trkpt><trkpt lat="40.6473228" lon="15.0353521"><ele>260.3333333333333</ele><time>2026-05-02T08:41:52.319Z</time></trkpt><trkpt lat="40.647394" lon="15.0352901"><ele>261.16666666666663</ele><time>2026-05-02T08:41:56.32Z</time></trkpt><trkpt lat="40.6474186" lon="15.0352098"><ele>262.0</ele><time>2026-05-02T08:41:58.319Z</time></trkpt><trkpt lat="40.6474396" lon="15.0351049"><ele>262.0</ele><time>2026-05-02T08:42:00.32Z</time></trkpt><trkpt lat="40.6474646" lon="15.0349845"><ele>262.0</ele><time>2026-05-02T08:42:02.319Z</time></trkpt><trkpt lat="40.6474857" lon="15.0348479"><ele>262.0</ele><time>2026-05-02T08:42:04.32Z</time></trkpt><trkpt lat="40.6475132" lon="15.0347132"><ele>262.0</ele><time>2026-05-02T08:42:06.32Z</time></trkpt><trkpt lat="40.6475209" lon="15.0345847"><ele>262.0</ele><time>2026-05-02T08:42:08.32Z</time></trkpt><trkpt lat="40.6475254" lon="15.0344556"><ele>261.0</ele><time>2026-05-02T08:42:10.319Z</time></trkpt><trkpt lat="40.6474997" lon="15.0343256"><ele>260.0</ele><time>2026-05-02T08:42:12.318Z</time></trkpt><trkpt lat="40.647482" lon="15.0341971"><ele>259.0</ele><time>2026-05-02T08:42:14.32Z</time></trkpt><trkpt lat="40.6474727" lon="15.0340735"><ele>258.0</ele><time>2026-05-02T08:42:16.32Z</time></trkpt><trkpt lat="40.6474725" lon="15.0339497"><ele>257.0</ele><time>2026-05-02T08:42:18.32Z</time></trkpt><trkpt lat="40.6475008" lon="15.0338354"><ele>256.7142857142857</ele><time>2026-05-02T08:42:20.32Z</time></trkpt><trkpt lat="40.647501" lon="15.0337244"><ele>256.42857142857144</ele><time>2026-05-02T08:42:22.319Z</time></trkpt><trkpt lat="40.6475046" lon="15.033612"><ele>256.14285714285717</ele><time>2026-05-02T08:42:24.32Z</time></trkpt><trkpt lat="40.6475192" lon="15.0335143"><ele>255.85714285714286</ele><time>2026-05-02T08:42:26.32Z</time></trkpt><trkpt lat="40.6475521" lon="15.0334263"><ele>255.5714285714286</ele><time>2026-05-02T08:42:28.32Z</time></trkpt><trkpt lat="40.647596" lon="15.0333664"><ele>255.2857142857143</ele><time>2026-05-02T08:42:30.319Z</time></trkpt><trkpt lat="40.6476615" lon="15.0333724"><ele>255.0</ele><time>2026-05-02T08:42:36.32Z</time></trkpt><trkpt lat="40.6477383" lon="15.0333546"><ele>254.0</ele><time>2026-05-02T08:42:39.32Z</time></trkpt><trkpt lat="40.6477994" lon="15.0333252"><ele>253.0</ele><time>2026-05-02T08:42:41.32Z</time></trkpt><trkpt lat="40.6478749" lon="15.0332884"><ele>252.0</ele><time>2026-05-02T08:42:43.32Z</time></trkpt><trkpt lat="40.6479545" lon="15.0332434"><ele>251.0</ele><time>2026-05-02T08:42:45.32Z</time></trkpt><trkpt lat="40.6480313" lon="15.0331957"><ele>250.0</ele><time>2026-05-02T08:42:47.32Z</time></trkpt><trkpt lat="40.648113" lon="15.0331541"><ele>249.0</ele><time>2026-05-02T08:42:49.32Z</time></trkpt><trkpt lat="40.6482146" lon="15.0331135"><ele>249.0</ele><time>2026-05-02T08:42:51.319Z</time></trkpt><trkpt lat="40.6483168" lon="15.0330662"><ele>248.99999999999997</ele><time>2026-05-02T08:42:53.319Z</time></trkpt><trkpt lat="40.6484021" lon="15.0330201"><ele>248.99999999999997</ele><time>2026-05-02T08:42:55.319Z</time></trkpt><trkpt lat="40.6484972" lon="15.0329645"><ele>249.0</ele><time>2026-05-02T08:42:57.32Z</time></trkpt><trkpt lat="40.6485892" lon="15.0329127"><ele>249.0</ele><time>2026-05-02T08:42:59.32Z</time></trkpt><trkpt lat="40.648679" lon="15.03286"><ele>248.66666666666666</ele><time>2026-05-02T08:43:01.32Z</time></trkpt><trkpt lat="40.6487591" lon="15.0327939"><ele>248.33333333333331</ele><time>2026-05-02T08:43:03.319Z</time></trkpt><trkpt lat="40.6488268" lon="15.0327291"><ele>248.0</ele><time>2026-05-02T08:43:05.32Z</time></trkpt><trkpt lat="40.6488804" lon="15.0326519"><ele>247.66666666666666</ele><time>2026-05-02T08:43:07.32Z</time></trkpt><trkpt lat="40.648945" lon="15.0325726"><ele>247.33333333333331</ele><time>2026-05-02T08:43:09.319Z</time></trkpt><trkpt lat="40.6490138" lon="15.0325131"><ele>247.0</ele><time>2026-05-02T08:43:11.32Z</time></trkpt><trkpt lat="40.6490963" lon="15.032462"><ele>247.0</ele><time>2026-05-02T08:43:13.32Z</time></trkpt><trkpt lat="40.6491665" lon="15.0324178"><ele>247.0</ele><time>2026-05-02T08:43:15.32Z</time></trkpt><trkpt lat="40.6492384" lon="15.0323825"><ele>247.0</ele><time>2026-05-02T08:43:17.32Z</time></trkpt><trkpt lat="40.6493232" lon="15.0323648"><ele>247.0</ele><time>2026-05-02T08:43:19.32Z</time></trkpt><trkpt lat="40.6494192" lon="15.0323404"><ele>247.0</ele><time>2026-05-02T08:43:21.319Z</time></trkpt><trkpt lat="40.6495289" lon="15.0322961"><ele>245.99999999999997</ele><time>2026-05-02T08:43:23.319Z</time></trkpt><trkpt lat="40.64962" lon="15.0322556"><ele>245.0</ele><time>2026-05-02T08:43:25.319Z</time></trkpt><trkpt lat="40.6496929" lon="15.0322008"><ele>244.0</ele><time>2026-05-02T08:43:27.319Z</time></trkpt><trkpt lat="40.6497424" lon="15.0321323"><ele>243.0</ele><time>2026-05-02T08:43:29.32Z</time></trkpt><trkpt lat="40.6497642" lon="15.0320456"><ele>241.99999999999997</ele><time>2026-05-02T08:43:31.319Z</time></trkpt><trkpt lat="40.6497862" lon="15.0319647"><ele>241.0</ele><time>2026-05-02T08:43:33.32Z</time></trkpt><trkpt lat="40.64987" lon="15.0319554"><ele>240.99999999999997</ele><time>2026-05-02T08:43:36.32Z</time></trkpt><trkpt lat="40.6499097" lon="15.0320316"><ele>241.0</ele><time>2026-05-02T08:43:38.32Z</time></trkpt><trkpt lat="40.6499339" lon="15.0321198"><ele>241.0</ele><time>2026-05-02T08:43:40.32Z</time></trkpt><trkpt lat="40.6499964" lon="15.0321762"><ele>241.0</ele><time>2026-05-02T08:43:42.319Z</time></trkpt><trkpt lat="40.6500964" lon="15.0321591"><ele>240.99999999999997</ele><time>2026-05-02T08:43:44.319Z</time></trkpt><trkpt lat="40.6502051" lon="15.0321589"><ele>241.0</ele><time>2026-05-02T08:43:46.32Z</time></trkpt><trkpt lat="40.6502965" lon="15.0321745"><ele>242.0</ele><time>2026-05-02T08:43:48.319Z</time></trkpt><trkpt lat="40.6503726" lon="15.032206"><ele>243.00000000000003</ele><time>2026-05-02T08:43:50.319Z</time></trkpt><trkpt lat="40.6504502" lon="15.0322527"><ele>244.00000000000003</ele><time>2026-05-02T08:43:52.319Z</time></trkpt><trkpt lat="40.6505443" lon="15.032274"><ele>245.0</ele><time>2026-05-02T08:43:54.32Z</time></trkpt><trkpt lat="40.6506416" lon="15.0322327"><ele>246.0</ele><time>2026-05-02T08:43:56.319Z</time></trkpt><trkpt lat="40.6507232" lon="15.0321503"><ele>246.0</ele><time>2026-05-02T08:43:58.32Z</time></trkpt><trkpt lat="40.6508064" lon="15.0320809"><ele>246.00000000000003</ele><time>2026-05-02T08:44:00.319Z</time></trkpt><trkpt lat="40.6509063" lon="15.0320259"><ele>246.00000000000003</ele><time>2026-05-02T08:44:02.319Z</time></trkpt><trkpt lat="40.6510194" lon="15.0319994"><ele>246.0</ele><time>2026-05-02T08:44:04.319Z</time></trkpt><trkpt lat="40.6511158" lon="15.0319935"><ele>246.0</ele><time>2026-05-02T08:44:06.32Z</time></trkpt><trkpt lat="40.6511951" lon="15.0319857"><ele>246.5714285714286</ele><time>2026-05-02T08:44:08.32Z</time></trkpt><trkpt lat="40.6512542" lon="15.0319454"><ele>247.14285714285717</ele><time>2026-05-02T08:44:10.32Z</time></trkpt><trkpt lat="40.6513012" lon="15.0318772"><ele>247.71428571428572</ele><time>2026-05-02T08:44:12.319Z</time></trkpt><trkpt lat="40.651346" lon="15.0318123"><ele>248.2857142857143</ele><time>2026-05-02T08:44:14.32Z</time></trkpt><trkpt lat="40.6513879" lon="15.0317451"><ele>248.8571428571429</ele><time>2026-05-02T08:44:16.319Z</time></trkpt><trkpt lat="40.6514379" lon="15.0316811"><ele>249.42857142857142</ele><time>2026-05-02T08:44:18.32Z</time></trkpt><trkpt lat="40.6515031" lon="15.0316326"><ele>250.0</ele><time>2026-05-02T08:44:20.319Z</time></trkpt><trkpt lat="40.6515697" lon="15.0315909"><ele>250.0</ele><time>2026-05-02T08:44:22.32Z</time></trkpt><trkpt lat="40.6516337" lon="15.0315768"><ele>250.0</ele><time>2026-05-02T08:44:24.319Z</time></trkpt><trkpt lat="40.6517023" lon="15.0315918"><ele>250.0</ele><time>2026-05-02T08:44:26.319Z</time></trkpt><trkpt lat="40.6517711" lon="15.0316313"><ele>250.0</ele><time>2026-05-02T08:44:28.32Z</time></trkpt><trkpt lat="40.6518309" lon="15.0316884"><ele>250.0</ele><time>2026-05-02T08:44:30.319Z</time></trkpt><trkpt lat="40.6519036" lon="15.0317474"><ele>250.0</ele><time>2026-05-02T08:44:32.319Z</time></trkpt><trkpt lat="40.6519628" lon="15.0318154"><ele>250.0</ele><time>2026-05-02T08:44:34.319Z</time></trkpt><trkpt lat="40.6520118" lon="15.0319104"><ele>248.83333333333331</ele><time>2026-05-02T08:44:36.32Z</time></trkpt><trkpt lat="40.6520445" lon="15.032018"><ele>247.66666666666666</ele><time>2026-05-02T08:44:38.319Z</time></trkpt><trkpt lat="40.6520915" lon="15.0320993"><ele>246.5</ele><time>2026-05-02T08:44:41.32Z</time></trkpt><trkpt lat="40.6521536" lon="15.0321163"><ele>245.33333333333331</ele><time>2026-05-02T08:44:44.318Z</time></trkpt><trkpt lat="40.6522567" lon="15.0320665"><ele>244.16666666666666</ele><time>2026-05-02T08:44:46.319Z</time></trkpt><trkpt lat="40.6523197" lon="15.0320571"><ele>243.0</ele><time>2026-05-02T08:44:47.319Z</time></trkpt><trkpt lat="40.6523831" lon="15.0320523"><ele>243.0</ele><time>2026-05-02T08:44:48.32Z</time></trkpt><trkpt lat="40.6525028" lon="15.0320475"><ele>243.0</ele><time>2026-05-02T08:44:50.319Z</time></trkpt><trkpt lat="40.6526032" lon="15.0320213"><ele>243.0</ele><time>2026-05-02T08:44:52.32Z</time></trkpt><trkpt lat="40.6526761" lon="15.031939"><ele>243.0</ele><time>2026-05-02T08:44:54.32Z</time></trkpt><trkpt lat="40.6527335" lon="15.0318171"><ele>243.0</ele><time>2026-05-02T08:44:56.319Z</time></trkpt><trkpt lat="40.6528255" lon="15.0317378"><ele>243.0</ele><time>2026-05-02T08:44:58.32Z</time></trkpt><trkpt lat="40.6529433" lon="15.0317127"><ele>243.0</ele><time>2026-05-02T08:45:00.32Z</time></trkpt><trkpt lat="40.6530148" lon="15.0317072"><ele>243.0</ele><time>2026-05-02T08:45:01.32Z</time></trkpt><trkpt lat="40.6530867" lon="15.0317043"><ele>243.0</ele><time>2026-05-02T08:45:02.32Z</time></trkpt><trkpt lat="40.6531522" lon="15.0317073"><ele>243.0</ele><time>2026-05-02T08:45:03.32Z</time></trkpt><trkpt lat="40.6532164" lon="15.0317156"><ele>243.0</ele><time>2026-05-02T08:45:04.319Z</time></trkpt><trkpt lat="40.6533306" lon="15.0317132"><ele>243.0</ele><time>2026-05-02T08:45:06.32Z</time></trkpt><trkpt lat="40.653429" lon="15.0316817"><ele>243.0</ele><time>2026-05-02T08:45:08.319Z</time></trkpt><trkpt lat="40.6535075" lon="15.0315994"><ele>243.0</ele><time>2026-05-02T08:45:10.319Z</time></trkpt><trkpt lat="40.65358" lon="15.0315004"><ele>243.0</ele><time>2026-05-02T08:45:12.319Z</time></trkpt><trkpt lat="40.6536828" lon="15.0314293"><ele>243.0</ele><time>2026-05-02T08:45:14.319Z</time></trkpt><trkpt lat="40.6538009" lon="15.0313824"><ele>238.0</ele><time>2026-05-02T08:45:16.319Z</time></trkpt><trkpt lat="40.6539203" lon="15.0313452"><ele>233.0</ele><time>2026-05-02T08:45:18.32Z</time></trkpt><trkpt lat="40.6539816" lon="15.0313169"><ele>228.0</ele><time>2026-05-02T08:45:19.32Z</time></trkpt><trkpt lat="40.6540444" lon="15.0312879"><ele>223.0</ele><time>2026-05-02T08:45:20.32Z</time></trkpt><trkpt lat="40.6541582" lon="15.0312167"><ele>218.0</ele><time>2026-05-02T08:45:22.319Z</time></trkpt><trkpt lat="40.6542667" lon="15.0311515"><ele>218.0</ele><time>2026-05-02T08:45:24.319Z</time></trkpt><trkpt lat="40.6543687" lon="15.0310894"><ele>218.0</ele><time>2026-05-02T08:45:26.319Z</time></trkpt><trkpt lat="40.6544561" lon="15.0310203"><ele>218.0</ele><time>2026-05-02T08:45:28.319Z</time></trkpt><trkpt lat="40.6545171" lon="15.0309176"><ele>218.0</ele><time>2026-05-02T08:45:30.319Z</time></trkpt><trkpt lat="40.6545381" lon="15.0307919"><ele>218.0</ele><time>2026-05-02T08:45:32.319Z</time></trkpt><trkpt lat="40.6545642" lon="15.0306827"><ele>213.16666666666669</ele><time>2026-05-02T08:45:34.319Z</time></trkpt><trkpt lat="40.6546119" lon="15.0306013"><ele>208.33333333333334</ele><time>2026-05-02T08:45:36.319Z</time></trkpt><trkpt lat="40.6546905" lon="15.0305717"><ele>203.5</ele><time>2026-05-02T08:45:38.32Z</time></trkpt><trkpt lat="40.6547738" lon="15.030598"><ele>198.66666666666669</ele><time>2026-05-02T08:45:40.32Z</time></trkpt><trkpt lat="40.654848" lon="15.0306472"><ele>193.83333333333334</ele><time>2026-05-02T08:45:42.32Z</time></trkpt><trkpt lat="40.6549251" lon="15.0306755"><ele>189.0</ele><time>2026-05-02T08:45:44.32Z</time></trkpt><trkpt lat="40.6550006" lon="15.030649"><ele>189.0</ele><time>2026-05-02T08:45:46.319Z</time></trkpt><trkpt lat="40.6550591" lon="15.0305917"><ele>189.0</ele><time>2026-05-02T08:45:48.32Z</time></trkpt><trkpt lat="40.6551118" lon="15.0305209"><ele>189.0</ele><time>2026-05-02T08:45:50.319Z</time></trkpt><trkpt lat="40.6551706" lon="15.0304384"><ele>189.0</ele><time>2026-05-02T08:45:52.32Z</time></trkpt><trkpt lat="40.6552303" lon="15.0303486"><ele>189.0</ele><time>2026-05-02T08:45:54.319Z</time></trkpt><trkpt lat="40.6552951" lon="15.0302609"><ele>189.0</ele><time>2026-05-02T08:45:56.32Z</time></trkpt><trkpt lat="40.65534" lon="15.030193"><ele>187.2</ele><time>2026-05-02T08:45:58.32Z</time></trkpt><trkpt lat="40.6553829" lon="15.0301216"><ele>185.39999999999998</ele><time>2026-05-02T08:46:00.319Z</time></trkpt><trkpt lat="40.6554411" lon="15.0300256"><ele>183.6</ele><time>2026-05-02T08:46:02.32Z</time></trkpt><trkpt lat="40.6554621" lon="15.029894"><ele>181.8</ele><time>2026-05-02T08:46:04.32Z</time></trkpt><trkpt lat="40.6554117" lon="15.0297805"><ele>180.0</ele><time>2026-05-02T08:46:06.32Z</time></trkpt><trkpt lat="40.6553444" lon="15.0296905"><ele>178.66666666666666</ele><time>2026-05-02T08:46:08.319Z</time></trkpt><trkpt lat="40.6552941" lon="15.0296009"><ele>177.33333333333334</ele><time>2026-05-02T08:46:10.32Z</time></trkpt><trkpt lat="40.6552776" lon="15.0294813"><ele>176.0</ele><time>2026-05-02T08:46:12.319Z</time></trkpt><trkpt lat="40.6553322" lon="15.0293339"><ele>174.66666666666669</ele><time>2026-05-02T08:46:14.318Z</time></trkpt><trkpt lat="40.6553759" lon="15.0292627"><ele>173.33333333333334</ele><time>2026-05-02T08:46:15.319Z</time></trkpt><trkpt lat="40.6554164" lon="15.0291924"><ele>172.0</ele><time>2026-05-02T08:46:16.32Z</time></trkpt><trkpt lat="40.6554604" lon="15.0291264"><ele>169.16666666666669</ele><time>2026-05-02T08:46:17.32Z</time></trkpt><trkpt lat="40.6555354" lon="15.028995"><ele>166.33333333333334</ele><time>2026-05-02T08:46:19.32Z</time></trkpt><trkpt lat="40.6555757" lon="15.0289228"><ele>163.5</ele><time>2026-05-02T08:46:20.32Z</time></trkpt><trkpt lat="40.6556158" lon="15.0288502"><ele>160.66666666666666</ele><time>2026-05-02T08:46:21.32Z</time></trkpt><trkpt lat="40.6556574" lon="15.0287788"><ele>157.83333333333331</ele><time>2026-05-02T08:46:22.319Z</time></trkpt><trkpt lat="40.6556994" lon="15.0287084"><ele>155.0</ele><time>2026-05-02T08:46:23.319Z</time></trkpt><trkpt lat="40.6557377" lon="15.02864"><ele>155.0</ele><time>2026-05-02T08:46:24.32Z</time></trkpt><trkpt lat="40.655775" lon="15.0285703"><ele>155.0</ele><time>2026-05-02T08:46:25.32Z</time></trkpt><trkpt lat="40.6558137" lon="15.0285021"><ele>155.0</ele><time>2026-05-02T08:46:26.32Z</time></trkpt><trkpt lat="40.6558571" lon="15.0284387"><ele>155.0</ele><time>2026-05-02T08:46:27.32Z</time></trkpt><trkpt lat="40.6559061" lon="15.0283833"><ele>155.0</ele><time>2026-05-02T08:46:28.32Z</time></trkpt><trkpt lat="40.65596" lon="15.0283365"><ele>155.0</ele><time>2026-05-02T08:46:29.32Z</time></trkpt><trkpt lat="40.6560594" lon="15.0282546"><ele>155.0</ele><time>2026-05-02T08:46:31.32Z</time></trkpt><trkpt lat="40.6561403" lon="15.02817"><ele>154.2</ele><time>2026-05-02T08:46:33.32Z</time></trkpt><trkpt lat="40.6562021" lon="15.0280424"><ele>153.4</ele><time>2026-05-02T08:46:35.319Z</time></trkpt><trkpt lat="40.6562536" lon="15.0279711"><ele>152.6</ele><time>2026-05-02T08:46:37.319Z</time></trkpt><trkpt lat="40.6563454" lon="15.0279694"><ele>151.8</ele><time>2026-05-02T08:46:39.32Z</time></trkpt><trkpt lat="40.6564685" lon="15.0280045"><ele>151.0</ele><time>2026-05-02T08:46:41.32Z</time></trkpt><trkpt lat="40.6565414" lon="15.02803"><ele>151.0</ele><time>2026-05-02T08:46:42.32Z</time></trkpt><trkpt lat="40.6566162" lon="15.0280556"><ele>151.0</ele><time>2026-05-02T08:46:43.32Z</time></trkpt><trkpt lat="40.6566832" lon="15.0280837"><ele>151.0</ele><time>2026-05-02T08:46:44.32Z</time></trkpt><trkpt lat="40.6567833" lon="15.0281267"><ele>151.0</ele><time>2026-05-02T08:46:46.32Z</time></trkpt><trkpt lat="40.6568764" lon="15.0281721"><ele>151.0</ele><time>2026-05-02T08:46:48.319Z</time></trkpt><trkpt lat="40.6569676" lon="15.0282346"><ele>151.4</ele><time>2026-05-02T08:46:50.319Z</time></trkpt><trkpt lat="40.6570583" lon="15.0283214"><ele>151.8</ele><time>2026-05-02T08:46:52.319Z</time></trkpt><trkpt lat="40.6571538" lon="15.0284026"><ele>152.20000000000002</ele><time>2026-05-02T08:46:54.32Z</time></trkpt><trkpt lat="40.6572455" lon="15.0284686"><ele>152.6</ele><time>2026-05-02T08:46:56.32Z</time></trkpt><trkpt lat="40.6573192" lon="15.0285471"><ele>153.0</ele><time>2026-05-02T08:46:58.319Z</time></trkpt><trkpt lat="40.6573933" lon="15.0286365"><ele>153.0</ele><time>2026-05-02T08:47:00.32Z</time></trkpt><trkpt lat="40.6574638" lon="15.0287396"><ele>153.0</ele><time>2026-05-02T08:47:02.32Z</time></trkpt><trkpt lat="40.6575276" lon="15.0288405"><ele>153.0</ele><time>2026-05-02T08:47:04.32Z</time></trkpt><trkpt lat="40.6575863" lon="15.0289467"><ele>153.0</ele><time>2026-05-02T08:47:06.32Z</time></trkpt><trkpt lat="40.6576422" lon="15.029064"><ele>153.0</ele><time>2026-05-02T08:47:08.32Z</time></trkpt><trkpt lat="40.657662" lon="15.0292086"><ele>153.5</ele><time>2026-05-02T08:47:10.319Z</time></trkpt><trkpt lat="40.6576575" lon="15.0292963"><ele>154.0</ele><time>2026-05-02T08:47:11.32Z</time></trkpt><trkpt lat="40.6576434" lon="15.029387"><ele>154.5</ele><time>2026-05-02T08:47:12.319Z</time></trkpt><trkpt lat="40.6576234" lon="15.0294838"><ele>155.0</ele><time>2026-05-02T08:47:13.319Z</time></trkpt><trkpt lat="40.6575935" lon="15.0295873"><ele>155.5</ele><time>2026-05-02T08:47:14.32Z</time></trkpt><trkpt lat="40.657563" lon="15.0296829"><ele>156.0</ele><time>2026-05-02T08:47:15.32Z</time></trkpt><trkpt lat="40.6575363" lon="15.0297736"><ele>156.0</ele><time>2026-05-02T08:47:16.319Z</time></trkpt><trkpt lat="40.6575161" lon="15.029854"><ele>156.0</ele><time>2026-05-02T08:47:17.319Z</time></trkpt><trkpt lat="40.6575424" lon="15.0300123"><ele>156.0</ele><time>2026-05-02T08:47:19.32Z</time></trkpt><trkpt lat="40.6575759" lon="15.0300919"><ele>156.0</ele><time>2026-05-02T08:47:20.32Z</time></trkpt><trkpt lat="40.6576135" lon="15.0301673"><ele>156.0</ele><time>2026-05-02T08:47:21.319Z</time></trkpt><trkpt lat="40.6576574" lon="15.0302341"><ele>156.0</ele><time>2026-05-02T08:47:22.319Z</time></trkpt><trkpt lat="40.6577031" lon="15.0302949"><ele>156.2857142857143</ele><time>2026-05-02T08:47:23.32Z</time></trkpt><trkpt lat="40.6577576" lon="15.0303453"><ele>156.57142857142856</ele><time>2026-05-02T08:47:24.319Z</time></trkpt><trkpt lat="40.6578109" lon="15.0303954"><ele>156.85714285714286</ele><time>2026-05-02T08:47:25.319Z</time></trkpt><trkpt lat="40.6578629" lon="15.0304509"><ele>157.14285714285717</ele><time>2026-05-02T08:47:26.32Z</time></trkpt><trkpt lat="40.6579192" lon="15.0304986"><ele>157.42857142857144</ele><time>2026-05-02T08:47:27.32Z</time></trkpt><trkpt lat="40.6579791" lon="15.0305334"><ele>157.71428571428572</ele><time>2026-05-02T08:47:28.32Z</time></trkpt><trkpt lat="40.6580838" lon="15.0306009"><ele>158.0</ele><time>2026-05-02T08:47:30.32Z</time></trkpt><trkpt lat="40.6581685" lon="15.0306948"><ele>159.83333333333331</ele><time>2026-05-02T08:47:32.319Z</time></trkpt><trkpt lat="40.6582131" lon="15.030863"><ele>161.66666666666666</ele><time>2026-05-02T08:47:34.319Z</time></trkpt><trkpt lat="40.658226" lon="15.0309698"><ele>163.5</ele><time>2026-05-02T08:47:35.32Z</time></trkpt><trkpt lat="40.6582417" lon="15.031079"><ele>165.33333333333334</ele><time>2026-05-02T08:47:36.32Z</time></trkpt><trkpt lat="40.6582604" lon="15.0311747"><ele>167.16666666666669</ele><time>2026-05-02T08:47:37.32Z</time></trkpt><trkpt lat="40.6582881" lon="15.0312542"><ele>169.0</ele><time>2026-05-02T08:47:38.32Z</time></trkpt><trkpt lat="40.658313" lon="15.0313353"><ele>169.0</ele><time>2026-05-02T08:47:39.32Z</time></trkpt><trkpt lat="40.6583371" lon="15.0314193"><ele>169.0</ele><time>2026-05-02T08:47:40.319Z</time></trkpt><trkpt lat="40.6583616" lon="15.0314993"><ele>169.0</ele><time>2026-05-02T08:47:41.319Z</time></trkpt><trkpt lat="40.6583966" lon="15.0315737"><ele>169.0</ele><time>2026-05-02T08:47:42.319Z</time></trkpt><trkpt lat="40.6584434" lon="15.0316416"><ele>169.0</ele><time>2026-05-02T08:47:43.32Z</time></trkpt><trkpt lat="40.6584991" lon="15.0316966"><ele>169.0</ele><time>2026-05-02T08:47:44.319Z</time></trkpt><trkpt lat="40.6585542" lon="15.0317482"><ele>169.0</ele><time>2026-05-02T08:47:45.32Z</time></trkpt><trkpt lat="40.6586092" lon="15.0318034"><ele>168.0</ele><time>2026-05-02T08:47:46.32Z</time></trkpt><trkpt lat="40.6586627" lon="15.0318609"><ele>167.0</ele><time>2026-05-02T08:47:47.32Z</time></trkpt><trkpt lat="40.6587197" lon="15.0319163"><ele>166.0</ele><time>2026-05-02T08:47:48.32Z</time></trkpt><trkpt lat="40.6587803" lon="15.0319665"><ele>165.0</ele><time>2026-05-02T08:47:49.319Z</time></trkpt><trkpt lat="40.6588468" lon="15.0320127"><ele>164.0</ele><time>2026-05-02T08:47:50.319Z</time></trkpt><trkpt lat="40.6589154" lon="15.0320585"><ele>163.0</ele><time>2026-05-02T08:47:51.319Z</time></trkpt><trkpt lat="40.6589864" lon="15.0321007"><ele>162.0</ele><time>2026-05-02T08:47:52.319Z</time></trkpt><trkpt lat="40.659062" lon="15.0321564"><ele>162.0</ele><time>2026-05-02T08:47:53.32Z</time></trkpt><trkpt lat="40.6591447" lon="15.0322134"><ele>162.0</ele><time>2026-05-02T08:47:54.32Z</time></trkpt><trkpt lat="40.6592292" lon="15.0322706"><ele>162.0</ele><time>2026-05-02T08:47:55.319Z</time></trkpt><trkpt lat="40.6593125" lon="15.0323246"><ele>162.0</ele><time>2026-05-02T08:47:56.32Z</time></trkpt><trkpt lat="40.6593906" lon="15.0323742"><ele>162.0</ele><time>2026-05-02T08:47:57.32Z</time></trkpt><trkpt lat="40.6594645" lon="15.0324266"><ele>162.33333333333334</ele><time>2026-05-02T08:47:58.32Z</time></trkpt><trkpt lat="40.6595348" lon="15.0324817"><ele>162.66666666666666</ele><time>2026-05-02T08:47:59.32Z</time></trkpt><trkpt lat="40.6596034" lon="15.0325356"><ele>163.0</ele><time>2026-05-02T08:48:00.319Z</time></trkpt><trkpt lat="40.6596667" lon="15.0325982"><ele>163.33333333333331</ele><time>2026-05-02T08:48:01.32Z</time></trkpt><trkpt lat="40.6597304" lon="15.0326686"><ele>163.66666666666666</ele><time>2026-05-02T08:48:02.32Z</time></trkpt><trkpt lat="40.6597874" lon="15.0327526"><ele>164.0</ele><time>2026-05-02T08:48:03.319Z</time></trkpt><trkpt lat="40.6598427" lon="15.0328449"><ele>164.0</ele><time>2026-05-02T08:48:04.32Z</time></trkpt><trkpt lat="40.6598968" lon="15.0329393"><ele>164.0</ele><time>2026-05-02T08:48:05.32Z</time></trkpt><trkpt lat="40.6599508" lon="15.0330305"><ele>164.0</ele><time>2026-05-02T08:48:06.32Z</time></trkpt><trkpt lat="40.660006" lon="15.0331106"><ele>164.0</ele><time>2026-05-02T08:48:07.32Z</time></trkpt><trkpt lat="40.6600628" lon="15.0331861"><ele>164.0</ele><time>2026-05-02T08:48:08.32Z</time></trkpt><trkpt lat="40.6601177" lon="15.0332614"><ele>164.0</ele><time>2026-05-02T08:48:09.32Z</time></trkpt><trkpt lat="40.6601656" lon="15.0333325"><ele>164.66666666666666</ele><time>2026-05-02T08:48:10.319Z</time></trkpt><trkpt lat="40.6602136" lon="15.0334014"><ele>165.33333333333331</ele><time>2026-05-02T08:48:11.319Z</time></trkpt><trkpt lat="40.6602667" lon="15.0334691"><ele>166.0</ele><time>2026-05-02T08:48:12.319Z</time></trkpt><trkpt lat="40.6603189" lon="15.0335416"><ele>166.66666666666666</ele><time>2026-05-02T08:48:13.32Z</time></trkpt><trkpt lat="40.660371" lon="15.0336148"><ele>167.33333333333334</ele><time>2026-05-02T08:48:14.32Z</time></trkpt><trkpt lat="40.6604281" lon="15.0336941"><ele>168.0</ele><time>2026-05-02T08:48:15.32Z</time></trkpt><trkpt lat="40.6604805" lon="15.0337692"><ele>168.0</ele><time>2026-05-02T08:48:16.32Z</time></trkpt><trkpt lat="40.66053" lon="15.0338398"><ele>168.0</ele><time>2026-05-02T08:48:17.319Z</time></trkpt><trkpt lat="40.6605764" lon="15.0338974"><ele>168.0</ele><time>2026-05-02T08:48:18.319Z</time></trkpt><trkpt lat="40.6606668" lon="15.0339906"><ele>168.0</ele><time>2026-05-02T08:48:20.319Z</time></trkpt><trkpt lat="40.6607303" lon="15.0340848"><ele>168.0</ele><time>2026-05-02T08:48:22.319Z</time></trkpt><trkpt lat="40.6607435" lon="15.034198"><ele>168.0</ele><time>2026-05-02T08:48:24.32Z</time></trkpt><trkpt lat="40.660703" lon="15.0343019"><ele>168.8</ele><time>2026-05-02T08:48:26.32Z</time></trkpt><trkpt lat="40.660673" lon="15.0344196"><ele>169.60000000000002</ele><time>2026-05-02T08:48:28.319Z</time></trkpt><trkpt lat="40.6606859" lon="15.0345418"><ele>170.39999999999998</ele><time>2026-05-02T08:48:30.319Z</time></trkpt><trkpt lat="40.6607065" lon="15.0346626"><ele>171.2</ele><time>2026-05-02T08:48:32.319Z</time></trkpt><trkpt lat="40.6606873" lon="15.034788"><ele>172.0</ele><time>2026-05-02T08:48:35.319Z</time></trkpt><trkpt lat="40.6606395" lon="15.0348782"><ele>174.5</ele><time>2026-05-02T08:48:37.319Z</time></trkpt><trkpt lat="40.660594" lon="15.0349711"><ele>177.0</ele><time>2026-05-02T08:48:39.32Z</time></trkpt><trkpt lat="40.6605592" lon="15.0350488"><ele>179.5</ele><time>2026-05-02T08:48:41.32Z</time></trkpt><trkpt lat="40.6604985" lon="15.0351586"><ele>182.0</ele><time>2026-05-02T08:48:54.319Z</time></trkpt><trkpt lat="40.660448" lon="15.0352354"><ele>184.5</ele><time>2026-05-02T08:48:57.32Z</time></trkpt><trkpt lat="40.6604935" lon="15.0351776"><ele>187.0</ele><time>2026-05-02T08:49:22.319Z</time></trkpt><trkpt lat="40.6605399" lon="15.0351051"><ele>187.0</ele><time>2026-05-02T08:49:26.32Z</time></trkpt><trkpt lat="40.6605763" lon="15.0350277"><ele>187.0</ele><time>2026-05-02T08:49:30.32Z</time></trkpt><trkpt lat="40.6606107" lon="15.0349406"><ele>187.0</ele><time>2026-05-02T08:49:33.32Z</time></trkpt><trkpt lat="40.6606452" lon="15.0348438"><ele>187.0</ele><time>2026-05-02T08:49:37.32Z</time></trkpt><trkpt lat="40.6606943" lon="15.0347828"><ele>187.0</ele><time>2026-05-02T08:49:40.319Z</time></trkpt><trkpt lat="40.6607827" lon="15.0347543"><ele>187.0</ele><time>2026-05-02T08:49:43.319Z</time></trkpt><trkpt lat="40.6608536" lon="15.0346924"><ele>185.8</ele><time>2026-05-02T08:49:45.319Z</time></trkpt><trkpt lat="40.6609266" lon="15.0346273"><ele>184.6</ele><time>2026-05-02T08:49:47.319Z</time></trkpt><trkpt lat="40.660994" lon="15.0346567"><ele>183.4</ele><time>2026-05-02T08:49:49.319Z</time></trkpt><trkpt lat="40.6610378" lon="15.0347544"><ele>182.20000000000002</ele><time>2026-05-02T08:49:51.32Z</time></trkpt><trkpt lat="40.6610606" lon="15.0348812"><ele>181.0</ele><time>2026-05-02T08:49:53.32Z</time></trkpt><trkpt lat="40.6611304" lon="15.034995"><ele>181.0</ele><time>2026-05-02T08:49:55.32Z</time></trkpt><trkpt lat="40.6612093" lon="15.0351179"><ele>181.0</ele><time>2026-05-02T08:49:57.319Z</time></trkpt><trkpt lat="40.6612746" lon="15.035227"><ele>181.0</ele><time>2026-05-02T08:49:59.32Z</time></trkpt><trkpt lat="40.6613382" lon="15.0353033"><ele>181.0</ele><time>2026-05-02T08:50:01.319Z</time></trkpt><trkpt lat="40.661423" lon="15.0353659"><ele>181.0</ele><time>2026-05-02T08:50:03.32Z</time></trkpt><trkpt lat="40.6615099" lon="15.0354202"><ele>181.0</ele><time>2026-05-02T08:50:05.319Z</time></trkpt><trkpt lat="40.6616146" lon="15.0354615"><ele>181.0</ele><time>2026-05-02T08:50:07.32Z</time></trkpt><trkpt lat="40.6617374" lon="15.0354875"><ele>181.0</ele><time>2026-05-02T08:50:09.32Z</time></trkpt><trkpt lat="40.6618641" lon="15.0355006"><ele>181.0</ele><time>2026-05-02T08:50:11.319Z</time></trkpt><trkpt lat="40.6619324" lon="15.0354993"><ele>181.0</ele><time>2026-05-02T08:50:12.319Z</time></trkpt><trkpt lat="40.6619979" lon="15.0355045"><ele>180.4</ele><time>2026-05-02T08:50:13.319Z</time></trkpt><trkpt lat="40.6621104" lon="15.0355261"><ele>179.8</ele><time>2026-05-02T08:50:15.32Z</time></trkpt><trkpt lat="40.6622022" lon="15.0355427"><ele>179.20000000000002</ele><time>2026-05-02T08:50:17.32Z</time></trkpt><trkpt lat="40.6622918" lon="15.0355716"><ele>178.60000000000002</ele><time>2026-05-02T08:50:19.32Z</time></trkpt><trkpt lat="40.6623872" lon="15.0356315"><ele>178.0</ele><time>2026-05-02T08:50:21.32Z</time></trkpt><trkpt lat="40.6624674" lon="15.035699"><ele>178.0</ele><time>2026-05-02T08:50:23.32Z</time></trkpt><trkpt lat="40.6625605" lon="15.0357317"><ele>178.0</ele><time>2026-05-02T08:50:25.319Z</time></trkpt><trkpt lat="40.6626691" lon="15.0357311"><ele>178.0</ele><time>2026-05-02T08:50:27.319Z</time></trkpt><trkpt lat="40.6627552" lon="15.0357406"><ele>178.0</ele><time>2026-05-02T08:50:29.32Z</time></trkpt><trkpt lat="40.6628354" lon="15.0357606"><ele>178.0</ele><time>2026-05-02T08:50:31.319Z</time></trkpt><trkpt lat="40.6629143" lon="15.0358044"><ele>180.4</ele><time>2026-05-02T08:50:33.319Z</time></trkpt><trkpt lat="40.6629845" lon="15.0358637"><ele>182.8</ele><time>2026-05-02T08:50:35.319Z</time></trkpt><trkpt lat="40.6630352" lon="15.0359466"><ele>185.2</ele><time>2026-05-02T08:50:37.319Z</time></trkpt><trkpt lat="40.6630728" lon="15.0360649"><ele>187.6</ele><time>2026-05-02T08:50:39.32Z</time></trkpt><trkpt lat="40.6630854" lon="15.0362012"><ele>190.0</ele><time>2026-05-02T08:50:41.32Z</time></trkpt><trkpt lat="40.6630937" lon="15.036348"><ele>190.0</ele><time>2026-05-02T08:50:43.319Z</time></trkpt><trkpt lat="40.6631047" lon="15.036463"><ele>190.0</ele><time>2026-05-02T08:50:45.318Z</time></trkpt><trkpt lat="40.6631359" lon="15.0365521"><ele>190.0</ele><time>2026-05-02T08:50:47.32Z</time></trkpt><trkpt lat="40.6632007" lon="15.0365968"><ele>190.0</ele><time>2026-05-02T08:50:49.319Z</time></trkpt><trkpt lat="40.6632686" lon="15.0365801"><ele>190.0</ele><time>2026-05-02T08:50:51.32Z</time></trkpt><trkpt lat="40.6633187" lon="15.0364963"><ele>190.0</ele><time>2026-05-02T08:50:53.32Z</time></trkpt><trkpt lat="40.6633832" lon="15.0363769"><ele>190.0</ele><time>2026-05-02T08:50:55.32Z</time></trkpt><trkpt lat="40.6634578" lon="15.0362578"><ele>190.0</ele><time>2026-05-02T08:50:57.32Z</time></trkpt><trkpt lat="40.6635188" lon="15.0361501"><ele>190.0</ele><time>2026-05-02T08:50:59.32Z</time></trkpt><trkpt lat="40.6635792" lon="15.0360789"><ele>190.0</ele><time>2026-05-02T08:51:01.32Z</time></trkpt><trkpt lat="40.6636732" lon="15.0360579"><ele>190.0</ele><time>2026-05-02T08:51:03.319Z</time></trkpt><trkpt lat="40.6637478" lon="15.0360751"><ele>191.16666666666669</ele><time>2026-05-02T08:51:04.319Z</time></trkpt><trkpt lat="40.663832" lon="15.0361025"><ele>192.33333333333334</ele><time>2026-05-02T08:51:05.32Z</time></trkpt><trkpt lat="40.6639132" lon="15.0361445"><ele>193.5</ele><time>2026-05-02T08:51:06.32Z</time></trkpt><trkpt lat="40.6640007" lon="15.036202"><ele>194.66666666666669</ele><time>2026-05-02T08:51:07.319Z</time></trkpt><trkpt lat="40.664069" lon="15.0362317"><ele>195.83333333333334</ele><time>2026-05-02T08:51:08.32Z</time></trkpt><trkpt lat="40.6641475" lon="15.0362697"><ele>197.0</ele><time>2026-05-02T08:51:10.32Z</time></trkpt><trkpt lat="40.6642209" lon="15.036321"><ele>197.00000000000003</ele><time>2026-05-02T08:51:12.32Z</time></trkpt><trkpt lat="40.6642994" lon="15.0363979"><ele>197.0</ele><time>2026-05-02T08:51:14.32Z</time></trkpt><trkpt lat="40.6643794" lon="15.0364596"><ele>197.0</ele><time>2026-05-02T08:51:16.319Z</time></trkpt><trkpt lat="40.6644567" lon="15.0364876"><ele>197.0</ele><time>2026-05-02T08:51:18.319Z</time></trkpt><trkpt lat="40.6645295" lon="15.0364905"><ele>197.00000000000003</ele><time>2026-05-02T08:51:20.32Z</time></trkpt><trkpt lat="40.6645953" lon="15.0364313"><ele>197.0</ele><time>2026-05-02T08:51:22.319Z</time></trkpt><trkpt lat="40.664659" lon="15.036351"><ele>198.00000000000003</ele><time>2026-05-02T08:51:24.32Z</time></trkpt><trkpt lat="40.6647493" lon="15.0363185"><ele>199.0</ele><time>2026-05-02T08:51:26.32Z</time></trkpt><trkpt lat="40.6648274" lon="15.0363402"><ele>200.0</ele><time>2026-05-02T08:51:28.32Z</time></trkpt><trkpt lat="40.6648993" lon="15.0363677"><ele>201.0</ele><time>2026-05-02T08:52:20.319Z</time></trkpt><trkpt lat="40.664984" lon="15.0363881"><ele>202.00000000000003</ele><time>2026-05-02T08:52:23.32Z</time></trkpt><trkpt lat="40.6650524" lon="15.0364067"><ele>203.0</ele><time>2026-05-02T08:52:25.319Z</time></trkpt><trkpt lat="40.6651307" lon="15.0364372"><ele>203.00000000000003</ele><time>2026-05-02T08:52:27.319Z</time></trkpt><trkpt lat="40.6652138" lon="15.0364689"><ele>203.0</ele><time>2026-05-02T08:52:29.319Z</time></trkpt><trkpt lat="40.6652947" lon="15.0364941"><ele>203.0</ele><time>2026-05-02T08:52:31.32Z</time></trkpt><trkpt lat="40.6653721" lon="15.0365098"><ele>203.0</ele><time>2026-05-02T08:52:33.319Z</time></trkpt><trkpt lat="40.6654326" lon="15.0365369"><ele>203.00000000000003</ele><time>2026-05-02T08:52:35.319Z</time></trkpt><trkpt lat="40.6655156" lon="15.0365873"><ele>203.0</ele><time>2026-05-02T08:52:38.319Z</time></trkpt><trkpt lat="40.6656039" lon="15.0366016"><ele>201.66666666666669</ele><time>2026-05-02T08:52:41.319Z</time></trkpt><trkpt lat="40.6656706" lon="15.0366158"><ele>200.33333333333334</ele><time>2026-05-02T08:52:43.319Z</time></trkpt><trkpt lat="40.6657309" lon="15.0366671"><ele>199.0</ele><time>2026-05-02T08:52:45.319Z</time></trkpt><trkpt lat="40.6657947" lon="15.0367317"><ele>197.66666666666669</ele><time>2026-05-02T08:52:47.32Z</time></trkpt><trkpt lat="40.6658659" lon="15.0367997"><ele>196.33333333333334</ele><time>2026-05-02T08:52:49.32Z</time></trkpt><trkpt lat="40.6659522" lon="15.036827"><ele>195.0</ele><time>2026-05-02T08:52:51.32Z</time></trkpt><trkpt lat="40.666034" lon="15.0368261"><ele>195.5</ele><time>2026-05-02T08:52:53.32Z</time></trkpt><trkpt lat="40.6661067" lon="15.0368034"><ele>196.0</ele><time>2026-05-02T08:52:55.319Z</time></trkpt><trkpt lat="40.6661807" lon="15.0368228"><ele>196.5</ele><time>2026-05-02T08:52:57.319Z</time></trkpt><trkpt lat="40.6662243" lon="15.0369084"><ele>197.0</ele><time>2026-05-02T08:52:59.32Z</time></trkpt><trkpt lat="40.6662009" lon="15.0370302"><ele>197.5</ele><time>2026-05-02T08:53:01.32Z</time></trkpt><trkpt lat="40.6661893" lon="15.0371438"><ele>198.0</ele><time>2026-05-02T08:53:03.32Z</time></trkpt><trkpt lat="40.6662197" lon="15.0372385"><ele>198.0</ele><time>2026-05-02T08:53:05.32Z</time></trkpt><trkpt lat="40.6662844" lon="15.0373042"><ele>198.0</ele><time>2026-05-02T08:53:07.319Z</time></trkpt><trkpt lat="40.6663703" lon="15.0373226"><ele>198.0</ele><time>2026-05-02T08:53:09.32Z</time></trkpt><trkpt lat="40.6664616" lon="15.0372971"><ele>198.0</ele><time>2026-05-02T08:53:11.319Z</time></trkpt><trkpt lat="40.6665414" lon="15.0372457"><ele>198.0</ele><time>2026-05-02T08:53:13.32Z</time></trkpt><trkpt lat="40.6666347" lon="15.0372171"><ele>198.0</ele><time>2026-05-02T08:53:15.32Z</time></trkpt><trkpt lat="40.6667523" lon="15.0372442"><ele>198.0</ele><time>2026-05-02T08:53:17.319Z</time></trkpt><trkpt lat="40.6668695" lon="15.03727"><ele>198.0</ele><time>2026-05-02T08:53:19.319Z</time></trkpt><trkpt lat="40.6669819" lon="15.0372632"><ele>198.0</ele><time>2026-05-02T08:53:21.32Z</time></trkpt><trkpt lat="40.6671018" lon="15.0372661"><ele>198.0</ele><time>2026-05-02T08:53:23.319Z</time></trkpt><trkpt lat="40.6672029" lon="15.0372893"><ele>199.0</ele><time>2026-05-02T08:53:25.319Z</time></trkpt><trkpt lat="40.6673073" lon="15.0373501"><ele>200.0</ele><time>2026-05-02T08:53:27.32Z</time></trkpt><trkpt lat="40.6673779" lon="15.0374599"><ele>201.0</ele><time>2026-05-02T08:53:29.32Z</time></trkpt><trkpt lat="40.6674381" lon="15.0375906"><ele>202.0</ele><time>2026-05-02T08:53:31.32Z</time></trkpt><trkpt lat="40.6675002" lon="15.0376675"><ele>203.0</ele><time>2026-05-02T08:53:33.319Z</time></trkpt><trkpt lat="40.6675898" lon="15.0376797"><ele>203.60000000000002</ele><time>2026-05-02T08:53:35.32Z</time></trkpt><trkpt lat="40.6676849" lon="15.0376341"><ele>204.20000000000002</ele><time>2026-05-02T08:53:37.32Z</time></trkpt><trkpt lat="40.6677946" lon="15.0376317"><ele>204.8</ele><time>2026-05-02T08:53:39.32Z</time></trkpt><trkpt lat="40.6679109" lon="15.0376754"><ele>205.4</ele><time>2026-05-02T08:53:41.32Z</time></trkpt><trkpt lat="40.6679722" lon="15.0376962"><ele>206.0</ele><time>2026-05-02T08:53:42.319Z</time></trkpt><trkpt lat="40.6680489" lon="15.037702"><ele>206.0</ele><time>2026-05-02T08:53:43.32Z</time></trkpt><trkpt lat="40.6681343" lon="15.0376955"><ele>206.0</ele><time>2026-05-02T08:53:44.32Z</time></trkpt><trkpt lat="40.6682096" lon="15.037687"><ele>206.0</ele><time>2026-05-02T08:53:45.319Z</time></trkpt><trkpt lat="40.6682741" lon="15.0376836"><ele>206.0</ele><time>2026-05-02T08:53:46.319Z</time></trkpt><trkpt lat="40.6683933" lon="15.0377043"><ele>206.0</ele><time>2026-05-02T08:53:48.32Z</time></trkpt><trkpt lat="40.6685077" lon="15.0377541"><ele>206.0</ele><time>2026-05-02T08:53:50.319Z</time></trkpt><trkpt lat="40.6685611" lon="15.0378034"><ele>206.0</ele><time>2026-05-02T08:53:51.319Z</time></trkpt><trkpt lat="40.6686568" lon="15.0378998"><ele>206.0</ele><time>2026-05-02T08:53:53.32Z</time></trkpt><trkpt lat="40.6687146" lon="15.0380078"><ele>206.0</ele><time>2026-05-02T08:53:55.319Z</time></trkpt><trkpt lat="40.6687381" lon="15.0381281"><ele>206.0</ele><time>2026-05-02T08:53:57.32Z</time></trkpt><trkpt lat="40.6687696" lon="15.0382311"><ele>206.4</ele><time>2026-05-02T08:53:59.319Z</time></trkpt><trkpt lat="40.6688269" lon="15.0383148"><ele>206.8</ele><time>2026-05-02T08:54:01.32Z</time></trkpt><trkpt lat="40.6689107" lon="15.0383084"><ele>207.20000000000002</ele><time>2026-05-02T08:54:03.32Z</time></trkpt><trkpt lat="40.6690024" lon="15.0382494"><ele>207.60000000000002</ele><time>2026-05-02T08:54:05.32Z</time></trkpt><trkpt lat="40.6690958" lon="15.0382468"><ele>208.0</ele><time>2026-05-02T08:54:07.319Z</time></trkpt><trkpt lat="40.6691835" lon="15.0382562"><ele>208.0</ele><time>2026-05-02T08:54:09.32Z</time></trkpt><trkpt lat="40.6692632" lon="15.038286"><ele>208.0</ele><time>2026-05-02T08:54:11.32Z</time></trkpt><trkpt lat="40.6693469" lon="15.0382984"><ele>208.0</ele><time>2026-05-02T08:54:13.32Z</time></trkpt><trkpt lat="40.6694513" lon="15.0382997"><ele>208.0</ele><time>2026-05-02T08:54:15.32Z</time></trkpt><trkpt lat="40.6695493" lon="15.0382991"><ele>208.0</ele><time>2026-05-02T08:54:17.32Z</time></trkpt><trkpt lat="40.6696368" lon="15.038317"><ele>212.8</ele><time>2026-05-02T08:54:19.32Z</time></trkpt><trkpt lat="40.6697287" lon="15.0383285"><ele>217.60000000000002</ele><time>2026-05-02T08:54:21.32Z</time></trkpt><trkpt lat="40.6698317" lon="15.0383599"><ele>222.39999999999998</ele><time>2026-05-02T08:54:23.32Z</time></trkpt><trkpt lat="40.6699298" lon="15.038411"><ele>227.2</ele><time>2026-05-02T08:54:25.319Z</time></trkpt><trkpt lat="40.6700161" lon="15.0384741"><ele>232.0</ele><time>2026-05-02T08:54:27.319Z</time></trkpt><trkpt lat="40.6700845" lon="15.0385742"><ele>232.00000000000003</ele><time>2026-05-02T08:54:29.32Z</time></trkpt><trkpt lat="40.6701242" lon="15.0386555"><ele>232.0</ele><time>2026-05-02T08:54:31.319Z</time></trkpt><trkpt lat="40.670159" lon="15.0387655"><ele>232.00000000000003</ele><time>2026-05-02T08:54:34.32Z</time></trkpt><trkpt lat="40.6701902" lon="15.0388454"><ele>232.00000000000003</ele><time>2026-05-02T08:54:37.32Z</time></trkpt><trkpt lat="40.6702231" lon="15.0389297"><ele>232.0</ele><time>2026-05-02T08:54:40.32Z</time></trkpt><trkpt lat="40.6702447" lon="15.0390275"><ele>232.00000000000003</ele><time>2026-05-02T08:54:43.32Z</time></trkpt><trkpt lat="40.6702472" lon="15.039115"><ele>232.00000000000003</ele><time>2026-05-02T08:54:45.32Z</time></trkpt><trkpt lat="40.6702726" lon="15.0391977"><ele>232.16666666666666</ele><time>2026-05-02T08:54:47.32Z</time></trkpt><trkpt lat="40.6703419" lon="15.0392374"><ele>232.33333333333331</ele><time>2026-05-02T08:54:50.32Z</time></trkpt><trkpt lat="40.6704286" lon="15.0392218"><ele>232.5</ele><time>2026-05-02T08:54:53.319Z</time></trkpt><trkpt lat="40.6705026" lon="15.0391887"><ele>232.66666666666669</ele><time>2026-05-02T08:54:55.32Z</time></trkpt><trkpt lat="40.6705783" lon="15.0391811"><ele>232.83333333333334</ele><time>2026-05-02T08:54:57.32Z</time></trkpt><trkpt lat="40.6706592" lon="15.0392029"><ele>233.0</ele><time>2026-05-02T08:54:59.32Z</time></trkpt><trkpt lat="40.6707356" lon="15.039239"><ele>233.0</ele><time>2026-05-02T08:55:01.32Z</time></trkpt><trkpt lat="40.6708277" lon="15.0392469"><ele>233.0</ele><time>2026-05-02T08:55:03.32Z</time></trkpt><trkpt lat="40.6709179" lon="15.0392283"><ele>233.0</ele><time>2026-05-02T08:55:05.319Z</time></trkpt><trkpt lat="40.6710155" lon="15.0391924"><ele>233.0</ele><time>2026-05-02T08:55:07.319Z</time></trkpt><trkpt lat="40.6711179" lon="15.0391323"><ele>233.0</ele><time>2026-05-02T08:55:09.32Z</time></trkpt><trkpt lat="40.6712335" lon="15.0390836"><ele>229.50000000000003</ele><time>2026-05-02T08:55:11.32Z</time></trkpt><trkpt lat="40.6713048" lon="15.0390675"><ele>226.0</ele><time>2026-05-02T08:55:12.32Z</time></trkpt><trkpt lat="40.6713751" lon="15.039049"><ele>222.5</ele><time>2026-05-02T08:55:13.32Z</time></trkpt><trkpt lat="40.671441" lon="15.0390267"><ele>219.0</ele><time>2026-05-02T08:55:14.32Z</time></trkpt><trkpt lat="40.6715066" lon="15.0390141"><ele>215.50000000000003</ele><time>2026-05-02T08:55:15.319Z</time></trkpt><trkpt lat="40.6716169" lon="15.0390128"><ele>212.0</ele><time>2026-05-02T08:55:17.319Z</time></trkpt><trkpt lat="40.6717369" lon="15.0390279"><ele>212.0</ele><time>2026-05-02T08:55:19.32Z</time></trkpt><trkpt lat="40.6718493" lon="15.0390602"><ele>212.0</ele><time>2026-05-02T08:55:21.32Z</time></trkpt><trkpt lat="40.6719666" lon="15.0391049"><ele>212.0</ele><time>2026-05-02T08:55:23.319Z</time></trkpt><trkpt lat="40.6720276" lon="15.0391296"><ele>212.0</ele><time>2026-05-02T08:55:24.32Z</time></trkpt><trkpt lat="40.6721422" lon="15.0391775"><ele>212.0</ele><time>2026-05-02T08:55:26.32Z</time></trkpt><trkpt lat="40.6722462" lon="15.0392502"><ele>214.6</ele><time>2026-05-02T08:55:28.319Z</time></trkpt><trkpt lat="40.6723423" lon="15.0393485"><ele>217.2</ele><time>2026-05-02T08:55:30.319Z</time></trkpt><trkpt lat="40.6724396" lon="15.039422"><ele>219.8</ele><time>2026-05-02T08:55:32.32Z</time></trkpt><trkpt lat="40.6725299" lon="15.0394606"><ele>222.4</ele><time>2026-05-02T08:55:34.32Z</time></trkpt><trkpt lat="40.6726262" lon="15.039498"><ele>225.0</ele><time>2026-05-02T08:55:36.319Z</time></trkpt><trkpt lat="40.6727297" lon="15.0395389"><ele>224.25</ele><time>2026-05-02T08:55:38.32Z</time></trkpt><trkpt lat="40.6728243" lon="15.0396147"><ele>223.5</ele><time>2026-05-02T08:55:40.32Z</time></trkpt><trkpt lat="40.6728835" lon="15.0397424"><ele>222.75</ele><time>2026-05-02T08:55:42.319Z</time></trkpt><trkpt lat="40.6729475" lon="15.0398674"><ele>222.0</ele><time>2026-05-02T08:55:44.319Z</time></trkpt><trkpt lat="40.6730206" lon="15.0399805"><ele>223.6</ele><time>2026-05-02T08:55:46.319Z</time></trkpt><trkpt lat="40.6731303" lon="15.0400594"><ele>225.2</ele><time>2026-05-02T08:55:48.319Z</time></trkpt><trkpt lat="40.6731864" lon="15.0401008"><ele>226.8</ele><time>2026-05-02T08:55:49.32Z</time></trkpt><trkpt lat="40.6732818" lon="15.040205"><ele>228.4</ele><time>2026-05-02T08:55:51.32Z</time></trkpt><trkpt lat="40.6733623" lon="15.0403206"><ele>230.0</ele><time>2026-05-02T08:55:53.32Z</time></trkpt><trkpt lat="40.6734291" lon="15.0404604"><ele>230.0</ele><time>2026-05-02T08:55:55.32Z</time></trkpt><trkpt lat="40.6734563" lon="15.0405364"><ele>230.0</ele><time>2026-05-02T08:55:56.32Z</time></trkpt><trkpt lat="40.6735129" lon="15.0406739"><ele>230.0</ele><time>2026-05-02T08:55:58.319Z</time></trkpt><trkpt lat="40.6735842" lon="15.0407893"><ele>230.0</ele><time>2026-05-02T08:56:00.32Z</time></trkpt><trkpt lat="40.6736602" lon="15.0408894"><ele>230.0</ele><time>2026-05-02T08:56:02.319Z</time></trkpt><trkpt lat="40.6737142" lon="15.0409675"><ele>229.00000000000003</ele><time>2026-05-02T08:56:04.32Z</time></trkpt><trkpt lat="40.6737331" lon="15.0410733"><ele>228.0</ele><time>2026-05-02T08:56:06.32Z</time></trkpt><trkpt lat="40.6737255" lon="15.0411994"><ele>227.0</ele><time>2026-05-02T08:56:08.32Z</time></trkpt><trkpt lat="40.6737314" lon="15.04131"><ele>226.0</ele><time>2026-05-02T08:56:10.319Z</time></trkpt><trkpt lat="40.6737742" lon="15.0413942"><ele>225.00000000000003</ele><time>2026-05-02T08:56:12.32Z</time></trkpt><trkpt lat="40.673854" lon="15.041421"><ele>224.0</ele><time>2026-05-02T08:56:15.32Z</time></trkpt><trkpt lat="40.6739406" lon="15.0414483"><ele>224.00000000000003</ele><time>2026-05-02T08:56:17.319Z</time></trkpt><trkpt lat="40.6740127" lon="15.0415098"><ele>224.0</ele><time>2026-05-02T08:56:19.319Z</time></trkpt><trkpt lat="40.6740635" lon="15.041605"><ele>224.0</ele><time>2026-05-02T08:56:21.32Z</time></trkpt><trkpt lat="40.674125" lon="15.0416925"><ele>224.0</ele><time>2026-05-02T08:56:23.319Z</time></trkpt><trkpt lat="40.6741993" lon="15.0417278"><ele>224.00000000000003</ele><time>2026-05-02T08:56:25.319Z</time></trkpt><trkpt lat="40.6742934" lon="15.04176"><ele>224.0</ele><time>2026-05-02T08:56:27.319Z</time></trkpt><trkpt lat="40.6743859" lon="15.0417929"><ele>226.50000000000003</ele><time>2026-05-02T08:56:29.319Z</time></trkpt><trkpt lat="40.6744757" lon="15.041828"><ele>229.0</ele><time>2026-05-02T08:56:31.319Z</time></trkpt><trkpt lat="40.6745499" lon="15.0418877"><ele>231.5</ele><time>2026-05-02T08:56:33.319Z</time></trkpt><trkpt lat="40.6746309" lon="15.0419426"><ele>234.0</ele><time>2026-05-02T08:56:35.32Z</time></trkpt><trkpt lat="40.6747171" lon="15.0419625"><ele>236.50000000000003</ele><time>2026-05-02T08:56:37.319Z</time></trkpt><trkpt lat="40.6747945" lon="15.0420059"><ele>239.0</ele><time>2026-05-02T08:56:39.319Z</time></trkpt><trkpt lat="40.6748628" lon="15.0420473"><ele>239.00000000000003</ele><time>2026-05-02T08:56:41.319Z</time></trkpt><trkpt lat="40.6749304" lon="15.0421165"><ele>239.0</ele><time>2026-05-02T08:56:43.32Z</time></trkpt><trkpt lat="40.6749836" lon="15.0422037"><ele>239.0</ele><time>2026-05-02T08:56:45.319Z</time></trkpt><trkpt lat="40.6749981" lon="15.0423223"><ele>239.0</ele><time>2026-05-02T08:56:47.32Z</time></trkpt><trkpt lat="40.6750119" lon="15.0424387"><ele>239.00000000000003</ele><time>2026-05-02T08:56:49.32Z</time></trkpt><trkpt lat="40.6750227" lon="15.0425474"><ele>239.0</ele><time>2026-05-02T08:56:51.319Z</time></trkpt><trkpt lat="40.6750372" lon="15.0426458"><ele>241.00000000000003</ele><time>2026-05-02T08:56:53.319Z</time></trkpt><trkpt lat="40.6750791" lon="15.0427078"><ele>243.0</ele><time>2026-05-02T08:56:55.319Z</time></trkpt><trkpt lat="40.6751708" lon="15.0427017"><ele>245.0</ele><time>2026-05-02T08:56:57.32Z</time></trkpt><trkpt lat="40.675265" lon="15.0426733"><ele>247.0</ele><time>2026-05-02T08:56:59.319Z</time></trkpt><trkpt lat="40.6753451" lon="15.0426919"><ele>249.00000000000003</ele><time>2026-05-02T08:57:01.319Z</time></trkpt><trkpt lat="40.6754187" lon="15.0427349"><ele>251.0</ele><time>2026-05-02T08:57:03.32Z</time></trkpt><trkpt lat="40.6754822" lon="15.0427898"><ele>251.00000000000003</ele><time>2026-05-02T08:57:05.319Z</time></trkpt><trkpt lat="40.6755383" lon="15.0428444"><ele>251.0</ele><time>2026-05-02T08:57:07.319Z</time></trkpt><trkpt lat="40.6755854" lon="15.0429023"><ele>251.0</ele><time>2026-05-02T08:57:09.32Z</time></trkpt><trkpt lat="40.6756402" lon="15.0429602"><ele>251.0</ele><time>2026-05-02T08:57:11.319Z</time></trkpt><trkpt lat="40.6756988" lon="15.0430219"><ele>251.00000000000003</ele><time>2026-05-02T08:57:13.319Z</time></trkpt><trkpt lat="40.675787" lon="15.043077"><ele>251.0</ele><time>2026-05-02T08:57:16.32Z</time></trkpt><trkpt lat="40.6758616" lon="15.0431075"><ele>250.99999999999997</ele><time>2026-05-02T08:57:18.319Z</time></trkpt><trkpt lat="40.6759183" lon="15.0431618"><ele>251.0</ele><time>2026-05-02T08:57:20.319Z</time></trkpt><trkpt lat="40.6759745" lon="15.0432134"><ele>250.99999999999997</ele><time>2026-05-02T08:57:22.319Z</time></trkpt><trkpt lat="40.6760296" lon="15.043276"><ele>250.99999999999997</ele><time>2026-05-02T08:57:24.32Z</time></trkpt><trkpt lat="40.6760769" lon="15.0433397"><ele>251.0</ele><time>2026-05-02T08:57:26.319Z</time></trkpt><trkpt lat="40.6761484" lon="15.0434009"><ele>250.99999999999997</ele><time>2026-05-02T08:57:28.319Z</time></trkpt><trkpt lat="40.6762223" lon="15.0434369"><ele>250.99999999999997</ele><time>2026-05-02T08:57:30.32Z</time></trkpt><trkpt lat="40.6762871" lon="15.0434363"><ele>251.83333333333334</ele><time>2026-05-02T08:57:31.32Z</time></trkpt><trkpt lat="40.6763847" lon="15.043467"><ele>252.66666666666669</ele><time>2026-05-02T08:57:33.319Z</time></trkpt><trkpt lat="40.6764797" lon="15.0434885"><ele>253.5</ele><time>2026-05-02T08:57:35.32Z</time></trkpt><trkpt lat="40.6765424" lon="15.0435142"><ele>254.33333333333331</ele><time>2026-05-02T08:57:37.32Z</time></trkpt><trkpt lat="40.6766032" lon="15.0435416"><ele>255.16666666666666</ele><time>2026-05-02T08:57:39.319Z</time></trkpt><trkpt lat="40.6766682" lon="15.0435881"><ele>256.0</ele><time>2026-05-02T08:57:41.32Z</time></trkpt><trkpt lat="40.6767304" lon="15.0436323"><ele>256.0</ele><time>2026-05-02T08:57:43.319Z</time></trkpt><trkpt lat="40.6767823" lon="15.0436856"><ele>255.99999999999997</ele><time>2026-05-02T08:57:45.32Z</time></trkpt><trkpt lat="40.6768632" lon="15.0436969"><ele>256.0</ele><time>2026-05-02T08:58:13.319Z</time></trkpt><trkpt lat="40.6769289" lon="15.0437168"><ele>256.0</ele><time>2026-05-02T08:58:15.319Z</time></trkpt><trkpt lat="40.6769968" lon="15.0437334"><ele>255.99999999999997</ele><time>2026-05-02T08:58:17.319Z</time></trkpt><trkpt lat="40.6770621" lon="15.0437341"><ele>256.0</ele><time>2026-05-02T08:58:19.32Z</time></trkpt><trkpt lat="40.6771418" lon="15.0437359"><ele>256.0</ele><time>2026-05-02T08:58:22.32Z</time></trkpt><trkpt lat="40.677213" lon="15.0437394"><ele>255.85714285714283</ele><time>2026-05-02T08:58:24.32Z</time></trkpt><trkpt lat="40.6772854" lon="15.0437347"><ele>255.7142857142857</ele><time>2026-05-02T08:58:26.32Z</time></trkpt><trkpt lat="40.6773565" lon="15.0437301"><ele>255.57142857142856</ele><time>2026-05-02T08:58:28.32Z</time></trkpt><trkpt lat="40.6774265" lon="15.0437411"><ele>255.42857142857144</ele><time>2026-05-02T08:58:30.32Z</time></trkpt><trkpt lat="40.6774975" lon="15.0437659"><ele>255.2857142857143</ele><time>2026-05-02T08:58:32.319Z</time></trkpt><trkpt lat="40.6775718" lon="15.0437846"><ele>255.14285714285717</ele><time>2026-05-02T08:58:34.319Z</time></trkpt><trkpt lat="40.6776444" lon="15.0437893"><ele>255.0</ele><time>2026-05-02T08:58:36.32Z</time></trkpt><trkpt lat="40.6777161" lon="15.0437883"><ele>257.0</ele><time>2026-05-02T08:58:38.32Z</time></trkpt><trkpt lat="40.6778072" lon="15.0437794"><ele>259.0</ele><time>2026-05-02T08:58:41.32Z</time></trkpt><trkpt lat="40.6778905" lon="15.0437616"><ele>261.0</ele><time>2026-05-02T08:58:44.32Z</time></trkpt><trkpt lat="40.6779617" lon="15.0437257"><ele>263.0</ele><time>2026-05-02T08:59:17.319Z</time></trkpt><trkpt lat="40.6780208" lon="15.0436723"><ele>265.0</ele><time>2026-05-02T08:59:23.319Z</time></trkpt><trkpt lat="40.6780825" lon="15.0436253"><ele>267.0</ele><time>2026-05-02T08:59:26.319Z</time></trkpt><trkpt lat="40.6781386" lon="15.0435786"><ele>267.0</ele><time>2026-05-02T08:59:30.32Z</time></trkpt><trkpt lat="40.6782149" lon="15.0435195"><ele>267.0</ele><time>2026-05-02T09:00:37.32Z</time></trkpt><trkpt lat="40.6782794" lon="15.0435099"><ele>267.0</ele><time>2026-05-02T09:00:39.32Z</time></trkpt><trkpt lat="40.6783452" lon="15.0435306"><ele>267.0</ele><time>2026-05-02T09:00:41.319Z</time></trkpt><trkpt lat="40.6784112" lon="15.0435714"><ele>267.0</ele><time>2026-05-02T09:00:43.319Z</time></trkpt><trkpt lat="40.6784919" lon="15.0436465"><ele>267.0</ele><time>2026-05-02T09:00:45.32Z</time></trkpt><trkpt lat="40.6785784" lon="15.0437109"><ele>268.8</ele><time>2026-05-02T09:00:47.318Z</time></trkpt><trkpt lat="40.6786662" lon="15.0437668"><ele>270.6</ele><time>2026-05-02T09:00:49.32Z</time></trkpt><trkpt lat="40.6787492" lon="15.0438121"><ele>272.40000000000003</ele><time>2026-05-02T09:00:51.32Z</time></trkpt><trkpt lat="40.6788402" lon="15.0438402"><ele>274.2</ele><time>2026-05-02T09:00:53.319Z</time></trkpt><trkpt lat="40.6789425" lon="15.0438607"><ele>276.0</ele><time>2026-05-02T09:00:55.319Z</time></trkpt><trkpt lat="40.6790438" lon="15.0438735"><ele>276.0</ele><time>2026-05-02T09:00:57.32Z</time></trkpt><trkpt lat="40.6791526" lon="15.0438781"><ele>276.0</ele><time>2026-05-02T09:00:59.319Z</time></trkpt><trkpt lat="40.6792469" lon="15.0438812"><ele>276.0</ele><time>2026-05-02T09:01:01.319Z</time></trkpt><trkpt lat="40.6793373" lon="15.0438634"><ele>276.0</ele><time>2026-05-02T09:01:03.319Z</time></trkpt><trkpt lat="40.679407" lon="15.0438021"><ele>276.0</ele><time>2026-05-02T09:01:05.32Z</time></trkpt><trkpt lat="40.6794265" lon="15.0437222"><ele>276.0</ele><time>2026-05-02T09:01:07.32Z</time></trkpt><trkpt lat="40.6794015" lon="15.0436314"><ele>276.0</ele><time>2026-05-02T09:01:09.32Z</time></trkpt><trkpt lat="40.6793133" lon="15.0435796"><ele>276.0</ele><time>2026-05-02T09:01:11.32Z</time></trkpt><trkpt lat="40.6792225" lon="15.0435356"><ele>276.0</ele><time>2026-05-02T09:01:13.32Z</time></trkpt><trkpt lat="40.6791299" lon="15.0435074"><ele>276.0</ele><time>2026-05-02T09:01:15.319Z</time></trkpt><trkpt lat="40.6790372" lon="15.0434977"><ele>276.0</ele><time>2026-05-02T09:01:17.319Z</time></trkpt><trkpt lat="40.6789702" lon="15.0434799"><ele>276.0</ele><time>2026-05-02T09:01:19.32Z</time></trkpt><trkpt lat="40.6789883" lon="15.0433619"><ele>276.0</ele><time>2026-05-02T09:01:22.32Z</time></trkpt><trkpt lat="40.6790533" lon="15.0433485"><ele>276.0</ele><time>2026-05-02T09:01:24.319Z</time></trkpt><trkpt lat="40.679154" lon="15.0433679"><ele>276.0</ele><time>2026-05-02T09:01:28.32Z</time></trkpt><trkpt lat="40.6792512" lon="15.0433423"><ele>276.0</ele><time>2026-05-02T09:01:30.32Z</time></trkpt><trkpt lat="40.679363" lon="15.0433109"><ele>284.3333333333333</ele><time>2026-05-02T09:01:32.319Z</time></trkpt><trkpt lat="40.6794604" lon="15.043287"><ele>292.6666666666667</ele><time>2026-05-02T09:01:34.32Z</time></trkpt><trkpt lat="40.6795808" lon="15.0432753"><ele>301.0</ele><time>2026-05-02T09:01:38.32Z</time></trkpt><trkpt lat="40.6796523" lon="15.0432501"><ele>309.33333333333337</ele><time>2026-05-02T09:01:39.32Z</time></trkpt><trkpt lat="40.6797191" lon="15.0432286"><ele>317.6666666666667</ele><time>2026-05-02T09:01:40.32Z</time></trkpt><trkpt lat="40.6797813" lon="15.0432049"><ele>326.0</ele><time>2026-05-02T09:01:41.319Z</time></trkpt><trkpt lat="40.6799047" lon="15.0431532"><ele>326.0</ele><time>2026-05-02T09:01:43.319Z</time></trkpt><trkpt lat="40.6799682" lon="15.0431261"><ele>326.0</ele><time>2026-05-02T09:01:44.32Z</time></trkpt><trkpt lat="40.6800737" lon="15.0430814"><ele>326.0</ele><time>2026-05-02T09:01:46.319Z</time></trkpt><trkpt lat="40.6801655" lon="15.0430466"><ele>326.0</ele><time>2026-05-02T09:01:48.32Z</time></trkpt><trkpt lat="40.6802712" lon="15.0430154"><ele>326.0</ele><time>2026-05-02T09:01:50.32Z</time></trkpt><trkpt lat="40.6803841" lon="15.0430078"><ele>325.0</ele><time>2026-05-02T09:01:52.319Z</time></trkpt><trkpt lat="40.680496" lon="15.0429962"><ele>324.0</ele><time>2026-05-02T09:01:54.319Z</time></trkpt><trkpt lat="40.6805977" lon="15.0429897"><ele>323.0</ele><time>2026-05-02T09:01:56.32Z</time></trkpt><trkpt lat="40.6806771" lon="15.0429716"><ele>322.0</ele><time>2026-05-02T09:01:58.32Z</time></trkpt><trkpt lat="40.6807644" lon="15.0429604"><ele>321.0</ele><time>2026-05-02T09:02:00.319Z</time></trkpt><trkpt lat="40.6808409" lon="15.0429547"><ele>321.0</ele><time>2026-05-02T09:02:02.32Z</time></trkpt><trkpt lat="40.6809403" lon="15.0429204"><ele>321.0</ele><time>2026-05-02T09:02:04.32Z</time></trkpt><trkpt lat="40.6810366" lon="15.0428863"><ele>321.0</ele><time>2026-05-02T09:02:06.319Z</time></trkpt><trkpt lat="40.6811402" lon="15.0428506"><ele>321.0</ele><time>2026-05-02T09:02:08.319Z</time></trkpt><trkpt lat="40.6812349" lon="15.0428187"><ele>321.0</ele><time>2026-05-02T09:02:10.32Z</time></trkpt><trkpt lat="40.681318" lon="15.0427982"><ele>319.40000000000003</ele><time>2026-05-02T09:02:12.32Z</time></trkpt><trkpt lat="40.6814149" lon="15.0427586"><ele>317.8</ele><time>2026-05-02T09:02:14.32Z</time></trkpt><trkpt lat="40.6815095" lon="15.0427341"><ele>316.20000000000005</ele><time>2026-05-02T09:02:16.32Z</time></trkpt><trkpt lat="40.6815963" lon="15.0427113"><ele>314.6</ele><time>2026-05-02T09:02:18.32Z</time></trkpt><trkpt lat="40.6816843" lon="15.0426478"><ele>313.0</ele><time>2026-05-02T09:02:20.319Z</time></trkpt><trkpt lat="40.6817257" lon="15.0425677"><ele>313.0</ele><time>2026-05-02T09:02:22.319Z</time></trkpt><trkpt lat="40.6816901" lon="15.0424921"><ele>313.0</ele><time>2026-05-02T09:02:24.319Z</time></trkpt><trkpt lat="40.6816171" lon="15.0424933"><ele>313.0</ele><time>2026-05-02T09:02:26.32Z</time></trkpt><trkpt lat="40.6815567" lon="15.0425427"><ele>313.0</ele><time>2026-05-02T09:02:28.319Z</time></trkpt><trkpt lat="40.6814678" lon="15.0425556"><ele>313.0</ele><time>2026-05-02T09:02:30.32Z</time></trkpt><trkpt lat="40.68136" lon="15.0425357"><ele>313.0</ele><time>2026-05-02T09:02:32.32Z</time></trkpt><trkpt lat="40.6812463" lon="15.0425108"><ele>313.0</ele><time>2026-05-02T09:02:34.319Z</time></trkpt><trkpt lat="40.6811276" lon="15.0425045"><ele>313.0</ele><time>2026-05-02T09:02:36.32Z</time></trkpt><trkpt lat="40.6810166" lon="15.0425129"><ele>313.0</ele><time>2026-05-02T09:02:38.32Z</time></trkpt><trkpt lat="40.6809028" lon="15.0425328"><ele>313.0</ele><time>2026-05-02T09:02:40.319Z</time></trkpt><trkpt lat="40.6807903" lon="15.0425243"><ele>314.6</ele><time>2026-05-02T09:02:42.319Z</time></trkpt><trkpt lat="40.6806686" lon="15.0425114"><ele>316.20000000000005</ele><time>2026-05-02T09:02:44.32Z</time></trkpt><trkpt lat="40.6805419" lon="15.0424858"><ele>317.8</ele><time>2026-05-02T09:02:46.319Z</time></trkpt><trkpt lat="40.6804162" lon="15.042454"><ele>319.40000000000003</ele><time>2026-05-02T09:02:48.32Z</time></trkpt><trkpt lat="40.6803521" lon="15.0424457"><ele>321.0</ele><time>2026-05-02T09:02:49.32Z</time></trkpt><trkpt lat="40.6802369" lon="15.04244"><ele>334.5</ele><time>2026-05-02T09:02:51.319Z</time></trkpt><trkpt lat="40.6801159" lon="15.0424227"><ele>348.0</ele><time>2026-05-02T09:02:53.319Z</time></trkpt><trkpt lat="40.6799975" lon="15.0424056"><ele>361.5</ele><time>2026-05-02T09:02:55.319Z</time></trkpt><trkpt lat="40.67988" lon="15.0424016"><ele>375.0</ele><time>2026-05-02T09:02:57.319Z</time></trkpt><trkpt lat="40.679783" lon="15.0423668"><ele>375.0</ele><time>2026-05-02T09:02:59.319Z</time></trkpt><trkpt lat="40.6796882" lon="15.042303"><ele>375.0</ele><time>2026-05-02T09:03:01.319Z</time></trkpt><trkpt lat="40.6796021" lon="15.0422326"><ele>375.0</ele><time>2026-05-02T09:03:03.32Z</time></trkpt><trkpt lat="40.6795084" lon="15.0422044"><ele>375.0</ele><time>2026-05-02T09:03:05.319Z</time></trkpt><trkpt lat="40.6794044" lon="15.0421888"><ele>375.0</ele><time>2026-05-02T09:03:07.32Z</time></trkpt><trkpt lat="40.6793068" lon="15.0421939"><ele>373.2</ele><time>2026-05-02T09:03:09.32Z</time></trkpt><trkpt lat="40.679225" lon="15.0421604"><ele>371.4</ele><time>2026-05-02T09:03:11.319Z</time></trkpt><trkpt lat="40.6791278" lon="15.0421387"><ele>369.6</ele><time>2026-05-02T09:03:13.319Z</time></trkpt><trkpt lat="40.6790379" lon="15.0421588"><ele>367.8</ele><time>2026-05-02T09:03:15.32Z</time></trkpt><trkpt lat="40.6789421" lon="15.0421747"><ele>366.0</ele><time>2026-05-02T09:03:17.319Z</time></trkpt><trkpt lat="40.6788574" lon="15.0421397"><ele>366.0</ele><time>2026-05-02T09:03:19.32Z</time></trkpt><trkpt lat="40.6787804" lon="15.0420579"><ele>366.0</ele><time>2026-05-02T09:03:21.32Z</time></trkpt><trkpt lat="40.678693" lon="15.0419846"><ele>366.0</ele><time>2026-05-02T09:03:23.32Z</time></trkpt><trkpt lat="40.6785992" lon="15.0419041"><ele>366.0</ele><time>2026-05-02T09:03:25.32Z</time></trkpt><trkpt lat="40.6785051" lon="15.0418196"><ele>366.0</ele><time>2026-05-02T09:03:27.319Z</time></trkpt><trkpt lat="40.6784041" lon="15.0417396"><ele>362.5</ele><time>2026-05-02T09:03:29.32Z</time></trkpt><trkpt lat="40.6783059" lon="15.0416684"><ele>359.0</ele><time>2026-05-02T09:03:31.319Z</time></trkpt><trkpt lat="40.678202" lon="15.0416297"><ele>355.5</ele><time>2026-05-02T09:03:33.319Z</time></trkpt><trkpt lat="40.6780937" lon="15.0416038"><ele>352.0</ele><time>2026-05-02T09:03:35.32Z</time></trkpt><trkpt lat="40.6779697" lon="15.0415586"><ele>353.40000000000003</ele><time>2026-05-02T09:03:37.32Z</time></trkpt><trkpt lat="40.6779062" lon="15.0415345"><ele>354.8</ele><time>2026-05-02T09:03:38.319Z</time></trkpt><trkpt lat="40.6778454" lon="15.0415097"><ele>356.2</ele><time>2026-05-02T09:03:39.32Z</time></trkpt><trkpt lat="40.6777347" lon="15.0414603"><ele>357.6</ele><time>2026-05-02T09:03:41.319Z</time></trkpt><trkpt lat="40.6776337" lon="15.0413924"><ele>359.0</ele><time>2026-05-02T09:03:43.32Z</time></trkpt><trkpt lat="40.6775344" lon="15.0413059"><ele>359.0</ele><time>2026-05-02T09:03:45.319Z</time></trkpt><trkpt lat="40.6774433" lon="15.0412175"><ele>359.0</ele><time>2026-05-02T09:03:47.318Z</time></trkpt><trkpt lat="40.6773687" lon="15.0411239"><ele>359.0</ele><time>2026-05-02T09:03:49.32Z</time></trkpt><trkpt lat="40.6773046" lon="15.0410057"><ele>359.0</ele><time>2026-05-02T09:03:51.319Z</time></trkpt><trkpt lat="40.6772392" lon="15.0408737"><ele>359.0</ele><time>2026-05-02T09:03:53.319Z</time></trkpt><trkpt lat="40.6771693" lon="15.0407297"><ele>356.79999999999995</ele><time>2026-05-02T09:03:55.319Z</time></trkpt><trkpt lat="40.6771341" lon="15.0406582"><ele>354.59999999999997</ele><time>2026-05-02T09:03:56.319Z</time></trkpt><trkpt lat="40.6770767" lon="15.0405212"><ele>352.4</ele><time>2026-05-02T09:03:58.319Z</time></trkpt><trkpt lat="40.6770291" lon="15.0403755"><ele>350.2</ele><time>2026-05-02T09:04:00.319Z</time></trkpt><trkpt lat="40.6770006" lon="15.0402994"><ele>348.0</ele><time>2026-05-02T09:04:01.319Z</time></trkpt><trkpt lat="40.6769305" lon="15.0401791"><ele>348.0</ele><time>2026-05-02T09:04:03.319Z</time></trkpt><trkpt lat="40.676841" lon="15.0400779"><ele>348.0</ele><time>2026-05-02T09:04:05.32Z</time></trkpt><trkpt lat="40.6767425" lon="15.0399823"><ele>348.0</ele><time>2026-05-02T09:04:07.32Z</time></trkpt><trkpt lat="40.6766401" lon="15.0398896"><ele>348.0</ele><time>2026-05-02T09:04:09.319Z</time></trkpt><trkpt lat="40.6765439" lon="15.0398093"><ele>352.4</ele><time>2026-05-02T09:04:11.319Z</time></trkpt><trkpt lat="40.6764791" lon="15.0397369"><ele>356.79999999999995</ele><time>2026-05-02T09:04:13.32Z</time></trkpt><trkpt lat="40.6764559" lon="15.0396344"><ele>361.2</ele><time>2026-05-02T09:04:15.32Z</time></trkpt><trkpt lat="40.6764622" lon="15.039506"><ele>365.6</ele><time>2026-05-02T09:04:17.319Z</time></trkpt><trkpt lat="40.6764565" lon="15.039382"><ele>370.0</ele><time>2026-05-02T09:04:19.32Z</time></trkpt><trkpt lat="40.6764245" lon="15.0392559"><ele>370.0</ele><time>2026-05-02T09:04:21.319Z</time></trkpt><trkpt lat="40.6763834" lon="15.0391393"><ele>370.0</ele><time>2026-05-02T09:04:23.319Z</time></trkpt><trkpt lat="40.6763413" lon="15.0390112"><ele>370.0</ele><time>2026-05-02T09:04:25.32Z</time></trkpt><trkpt lat="40.676321" lon="15.0388571"><ele>370.0</ele><time>2026-05-02T09:04:27.32Z</time></trkpt><trkpt lat="40.6763097" lon="15.0387296"><ele>370.0</ele><time>2026-05-02T09:04:29.319Z</time></trkpt><trkpt lat="40.676306" lon="15.0386086"><ele>373.6</ele><time>2026-05-02T09:04:31.319Z</time></trkpt><trkpt lat="40.6762966" lon="15.0384814"><ele>377.2</ele><time>2026-05-02T09:04:33.319Z</time></trkpt><trkpt lat="40.6762834" lon="15.0383579"><ele>380.79999999999995</ele><time>2026-05-02T09:04:35.32Z</time></trkpt><trkpt lat="40.6762476" lon="15.0382546"><ele>384.4</ele><time>2026-05-02T09:04:37.319Z</time></trkpt><trkpt lat="40.6761935" lon="15.0381588"><ele>388.0</ele><time>2026-05-02T09:04:39.319Z</time></trkpt><trkpt lat="40.6761199" lon="15.0381044"><ele>385.79999999999995</ele><time>2026-05-02T09:04:41.32Z</time></trkpt><trkpt lat="40.6760176" lon="15.0380721"><ele>383.6</ele><time>2026-05-02T09:04:43.32Z</time></trkpt><trkpt lat="40.6759203" lon="15.0380873"><ele>381.4</ele><time>2026-05-02T09:04:45.319Z</time></trkpt><trkpt lat="40.675809" lon="15.0380775"><ele>379.20000000000005</ele><time>2026-05-02T09:04:47.319Z</time></trkpt><trkpt lat="40.6757039" lon="15.038047"><ele>377.0</ele><time>2026-05-02T09:04:49.319Z</time></trkpt><trkpt lat="40.6756202" lon="15.0379781"><ele>377.0</ele><time>2026-05-02T09:04:51.32Z</time></trkpt><trkpt lat="40.6755274" lon="15.0378804"><ele>377.0</ele><time>2026-05-02T09:04:53.319Z</time></trkpt><trkpt lat="40.6754462" lon="15.0377881"><ele>377.0</ele><time>2026-05-02T09:04:55.32Z</time></trkpt><trkpt lat="40.6753939" lon="15.0376493"><ele>377.0</ele><time>2026-05-02T09:04:57.319Z</time></trkpt><trkpt lat="40.6753678" lon="15.0375706"><ele>377.0</ele><time>2026-05-02T09:04:58.319Z</time></trkpt><trkpt lat="40.6753346" lon="15.0374149"><ele>374.40000000000003</ele><time>2026-05-02T09:05:00.319Z</time></trkpt><trkpt lat="40.6753142" lon="15.037273"><ele>371.8</ele><time>2026-05-02T09:05:02.32Z</time></trkpt><trkpt lat="40.6752643" lon="15.0371435"><ele>369.2</ele><time>2026-05-02T09:05:04.319Z</time></trkpt><trkpt lat="40.6751771" lon="15.0370116"><ele>366.6</ele><time>2026-05-02T09:05:06.319Z</time></trkpt><trkpt lat="40.6751251" lon="15.0369508"><ele>364.0</ele><time>2026-05-02T09:05:07.32Z</time></trkpt><trkpt lat="40.6750279" lon="15.0368609"><ele>364.0</ele><time>2026-05-02T09:05:09.32Z</time></trkpt><trkpt lat="40.6749372" lon="15.036786"><ele>364.0</ele><time>2026-05-02T09:05:11.319Z</time></trkpt><trkpt lat="40.674869" lon="15.0366739"><ele>364.0</ele><time>2026-05-02T09:05:13.321Z</time></trkpt><trkpt lat="40.6748421" lon="15.0365523"><ele>364.0</ele><time>2026-05-02T09:05:15.321Z</time></trkpt><trkpt lat="40.6748496" lon="15.0364087"><ele>364.0</ele><time>2026-05-02T09:05:17.32Z</time></trkpt><trkpt lat="40.674823" lon="15.0362591"><ele>368.2857142857143</ele><time>2026-05-02T09:05:19.32Z</time></trkpt><trkpt lat="40.6747921" lon="15.0361785"><ele>372.57142857142856</ele><time>2026-05-02T09:05:20.32Z</time></trkpt><trkpt lat="40.6747689" lon="15.0360991"><ele>376.8571428571429</ele><time>2026-05-02T09:05:21.321Z</time></trkpt><trkpt lat="40.6747331" lon="15.0360087"><ele>381.1428571428571</ele><time>2026-05-02T09:05:22.321Z</time></trkpt><trkpt lat="40.6746878" lon="15.0359177"><ele>385.42857142857144</ele><time>2026-05-02T09:05:23.321Z</time></trkpt><trkpt lat="40.6746392" lon="15.035834"><ele>389.7142857142857</ele><time>2026-05-02T09:05:24.321Z</time></trkpt><trkpt lat="40.6745913" lon="15.0357584"><ele>394.0</ele><time>2026-05-02T09:05:25.32Z</time></trkpt><trkpt lat="40.6744916" lon="15.0356636"><ele>390.50000000000006</ele><time>2026-05-02T09:05:27.32Z</time></trkpt><trkpt lat="40.6743947" lon="15.0356016"><ele>387.0</ele><time>2026-05-02T09:05:29.32Z</time></trkpt><trkpt lat="40.6743414" lon="15.035556"><ele>383.5</ele><time>2026-05-02T09:05:31.32Z</time></trkpt><trkpt lat="40.6742705" lon="15.0355177"><ele>380.0</ele><time>2026-05-02T09:05:33.321Z</time></trkpt><trkpt lat="40.6742082" lon="15.035418"><ele>376.5</ele><time>2026-05-02T09:05:36.32Z</time></trkpt><trkpt lat="40.6741971" lon="15.0353083"><ele>373.0</ele><time>2026-05-02T09:05:38.321Z</time></trkpt><trkpt lat="40.6741824" lon="15.0352137"><ele>373.0</ele><time>2026-05-02T09:05:40.32Z</time></trkpt><trkpt lat="40.6741356" lon="15.0351062"><ele>373.0</ele><time>2026-05-02T09:05:42.32Z</time></trkpt><trkpt lat="40.6740698" lon="15.0349888"><ele>373.0</ele><time>2026-05-02T09:05:44.32Z</time></trkpt><trkpt lat="40.6740332" lon="15.0348928"><ele>373.0</ele><time>2026-05-02T09:05:46.32Z</time></trkpt><trkpt lat="40.6740237" lon="15.0347921"><ele>373.0</ele><time>2026-05-02T09:05:48.321Z</time></trkpt><trkpt lat="40.6740509" lon="15.0346887"><ele>373.0</ele><time>2026-05-02T09:05:50.32Z</time></trkpt><trkpt lat="40.6741113" lon="15.0345737"><ele>375.2</ele><time>2026-05-02T09:05:52.321Z</time></trkpt><trkpt lat="40.6741784" lon="15.0344529"><ele>377.4</ele><time>2026-05-02T09:05:54.321Z</time></trkpt><trkpt lat="40.6742423" lon="15.0343439"><ele>379.59999999999997</ele><time>2026-05-02T09:05:56.321Z</time></trkpt><trkpt lat="40.6742986" lon="15.0342439"><ele>381.79999999999995</ele><time>2026-05-02T09:05:58.32Z</time></trkpt><trkpt lat="40.6743334" lon="15.0341207"><ele>384.0</ele><time>2026-05-02T09:06:00.321Z</time></trkpt><trkpt lat="40.6743468" lon="15.0339954"><ele>386.3333333333333</ele><time>2026-05-02T09:06:02.321Z</time></trkpt><trkpt lat="40.6743027" lon="15.0339121"><ele>388.66666666666663</ele><time>2026-05-02T09:06:04.321Z</time></trkpt><trkpt lat="40.6742412" lon="15.0338273"><ele>391.0</ele><time>2026-05-02T09:06:06.32Z</time></trkpt><trkpt lat="40.6742027" lon="15.033712"><ele>393.3333333333333</ele><time>2026-05-02T09:06:08.32Z</time></trkpt><trkpt lat="40.6741765" lon="15.0336044"><ele>395.66666666666663</ele><time>2026-05-02T09:06:10.321Z</time></trkpt><trkpt lat="40.6741548" lon="15.0334985"><ele>398.0</ele><time>2026-05-02T09:06:12.32Z</time></trkpt><trkpt lat="40.6741383" lon="15.0333922"><ele>400.99999999999994</ele><time>2026-05-02T09:06:14.321Z</time></trkpt><trkpt lat="40.6741301" lon="15.0332794"><ele>404.0</ele><time>2026-05-02T09:06:16.32Z</time></trkpt><trkpt lat="40.6741299" lon="15.0331765"><ele>407.0</ele><time>2026-05-02T09:06:18.321Z</time></trkpt><trkpt lat="40.6741319" lon="15.033059"><ele>410.0</ele><time>2026-05-02T09:06:20.32Z</time></trkpt><trkpt lat="40.6741424" lon="15.0329301"><ele>412.99999999999994</ele><time>2026-05-02T09:06:22.321Z</time></trkpt><trkpt lat="40.6741529" lon="15.0328079"><ele>416.0</ele><time>2026-05-02T09:06:24.321Z</time></trkpt><trkpt lat="40.6741516" lon="15.0327151"><ele>415.99999999999994</ele><time>2026-05-02T09:06:26.321Z</time></trkpt><trkpt lat="40.6741099" lon="15.0326347"><ele>416.0</ele><time>2026-05-02T09:06:33.321Z</time></trkpt><trkpt lat="40.6740151" lon="15.0326496"><ele>416.0</ele><time>2026-05-02T09:06:36.32Z</time></trkpt><trkpt lat="40.6739327" lon="15.0326809"><ele>416.0</ele><time>2026-05-02T09:06:38.321Z</time></trkpt><trkpt lat="40.6738502" lon="15.0326709"><ele>415.99999999999994</ele><time>2026-05-02T09:06:40.321Z</time></trkpt><trkpt lat="40.6737475" lon="15.0326254"><ele>416.0</ele><time>2026-05-02T09:06:42.321Z</time></trkpt><trkpt lat="40.6736499" lon="15.0325543"><ele>415.8</ele><time>2026-05-02T09:06:44.321Z</time></trkpt><trkpt lat="40.6735528" lon="15.0325098"><ele>415.6</ele><time>2026-05-02T09:06:46.32Z</time></trkpt><trkpt lat="40.6734668" lon="15.0324725"><ele>415.4</ele><time>2026-05-02T09:06:48.321Z</time></trkpt><trkpt lat="40.6733879" lon="15.0324222"><ele>415.2</ele><time>2026-05-02T09:06:50.321Z</time></trkpt><trkpt lat="40.6733145" lon="15.0323606"><ele>415.0</ele><time>2026-05-02T09:06:52.321Z</time></trkpt><trkpt lat="40.6732255" lon="15.0323613"><ele>415.00000000000006</ele><time>2026-05-02T09:06:54.321Z</time></trkpt><trkpt lat="40.6731625" lon="15.0324294"><ele>415.0</ele><time>2026-05-02T09:06:56.321Z</time></trkpt><trkpt lat="40.6731099" lon="15.0325353"><ele>415.0</ele><time>2026-05-02T09:06:58.32Z</time></trkpt><trkpt lat="40.6730254" lon="15.0326468"><ele>415.0</ele><time>2026-05-02T09:07:00.32Z</time></trkpt><trkpt lat="40.6729721" lon="15.0327026"><ele>415.00000000000006</ele><time>2026-05-02T09:07:01.32Z</time></trkpt><trkpt lat="40.6729097" lon="15.0327523"><ele>415.0</ele><time>2026-05-02T09:07:02.32Z</time></trkpt><trkpt lat="40.6728497" lon="15.032797"><ele>415.00000000000006</ele><time>2026-05-02T09:07:03.321Z</time></trkpt><trkpt lat="40.6727928" lon="15.0328341"><ele>415.0</ele><time>2026-05-02T09:07:04.321Z</time></trkpt><trkpt lat="40.6726719" lon="15.0328637"><ele>415.0</ele><time>2026-05-02T09:07:06.321Z</time></trkpt><trkpt lat="40.6726068" lon="15.032858"><ele>415.0</ele><time>2026-05-02T09:07:07.321Z</time></trkpt><trkpt lat="40.6725436" lon="15.0328394"><ele>415.00000000000006</ele><time>2026-05-02T09:07:08.321Z</time></trkpt><trkpt lat="40.6724439" lon="15.0327792"><ele>415.0</ele><time>2026-05-02T09:07:10.321Z</time></trkpt><trkpt lat="40.672351" lon="15.0326924"><ele>417.6666666666667</ele><time>2026-05-02T09:07:12.32Z</time></trkpt><trkpt lat="40.6722346" lon="15.0326596"><ele>420.33333333333337</ele><time>2026-05-02T09:07:14.32Z</time></trkpt><trkpt lat="40.672144" lon="15.0326682"><ele>423.0</ele><time>2026-05-02T09:07:16.32Z</time></trkpt><trkpt lat="40.6720821" lon="15.0326435"><ele>425.66666666666663</ele><time>2026-05-02T09:07:18.32Z</time></trkpt><trkpt lat="40.6720846" lon="15.0325452"><ele>428.3333333333333</ele><time>2026-05-02T09:07:21.321Z</time></trkpt><trkpt lat="40.6721586" lon="15.0325197"><ele>431.0</ele><time>2026-05-02T09:07:23.321Z</time></trkpt><trkpt lat="40.6722498" lon="15.0325348"><ele>430.99999999999994</ele><time>2026-05-02T09:07:25.321Z</time></trkpt><trkpt lat="40.6723477" lon="15.032534"><ele>431.0</ele><time>2026-05-02T09:07:27.32Z</time></trkpt><trkpt lat="40.6724409" lon="15.0325329"><ele>431.0</ele><time>2026-05-02T09:07:29.321Z</time></trkpt><trkpt lat="40.6725321" lon="15.0325157"><ele>431.0</ele><time>2026-05-02T09:07:31.321Z</time></trkpt><trkpt lat="40.6726092" lon="15.0324977"><ele>430.99999999999994</ele><time>2026-05-02T09:07:33.321Z</time></trkpt><trkpt lat="40.6726853" lon="15.0324463"><ele>431.0</ele><time>2026-05-02T09:07:35.321Z</time></trkpt><trkpt lat="40.6727727" lon="15.0323913"><ele>435.0</ele><time>2026-05-02T09:07:37.32Z</time></trkpt><trkpt lat="40.6728365" lon="15.0323073"><ele>439.0</ele><time>2026-05-02T09:07:39.321Z</time></trkpt><trkpt lat="40.6728955" lon="15.0322025"><ele>443.0</ele><time>2026-05-02T09:07:41.321Z</time></trkpt><trkpt lat="40.6729238" lon="15.0320858"><ele>447.0</ele><time>2026-05-02T09:07:43.32Z</time></trkpt><trkpt lat="40.6729537" lon="15.0319659"><ele>451.0</ele><time>2026-05-02T09:07:45.32Z</time></trkpt><trkpt lat="40.6729971" lon="15.0318566"><ele>451.0</ele><time>2026-05-02T09:07:47.321Z</time></trkpt><trkpt lat="40.6730734" lon="15.0317894"><ele>451.0</ele><time>2026-05-02T09:07:49.321Z</time></trkpt><trkpt lat="40.6731555" lon="15.031775"><ele>451.0</ele><time>2026-05-02T09:07:51.32Z</time></trkpt><trkpt lat="40.6732489" lon="15.0317912"><ele>451.0</ele><time>2026-05-02T09:07:53.321Z</time></trkpt><trkpt lat="40.6733387" lon="15.0318076"><ele>451.0</ele><time>2026-05-02T09:07:55.321Z</time></trkpt><trkpt lat="40.6734291" lon="15.0318187"><ele>451.0</ele><time>2026-05-02T09:07:57.32Z</time></trkpt><trkpt lat="40.6735229" lon="15.0318021"><ele>451.0</ele><time>2026-05-02T09:07:59.32Z</time></trkpt><trkpt lat="40.6736076" lon="15.0317965"><ele>451.0</ele><time>2026-05-02T09:08:01.321Z</time></trkpt><trkpt lat="40.6736948" lon="15.0317803"><ele>451.0</ele><time>2026-05-02T09:08:03.32Z</time></trkpt><trkpt lat="40.673781" lon="15.0317342"><ele>451.0</ele><time>2026-05-02T09:08:05.321Z</time></trkpt><trkpt lat="40.6738598" lon="15.0316673"><ele>453.6</ele><time>2026-05-02T09:08:07.32Z</time></trkpt><trkpt lat="40.673932" lon="15.0315686"><ele>456.20000000000005</ele><time>2026-05-02T09:08:09.32Z</time></trkpt><trkpt lat="40.6740013" lon="15.031461"><ele>458.79999999999995</ele><time>2026-05-02T09:08:11.32Z</time></trkpt><trkpt lat="40.6740614" lon="15.0313627"><ele>461.4</ele><time>2026-05-02T09:08:13.321Z</time></trkpt><trkpt lat="40.6741275" lon="15.0312605"><ele>464.0</ele><time>2026-05-02T09:08:15.321Z</time></trkpt><trkpt lat="40.6742089" lon="15.0311365"><ele>464.0</ele><time>2026-05-02T09:08:17.321Z</time></trkpt><trkpt lat="40.6742582" lon="15.031067"><ele>464.0</ele><time>2026-05-02T09:08:18.321Z</time></trkpt><trkpt lat="40.6743075" lon="15.0310059"><ele>464.0</ele><time>2026-05-02T09:08:19.32Z</time></trkpt><trkpt lat="40.674391" lon="15.0308899"><ele>464.0</ele><time>2026-05-02T09:08:21.321Z</time></trkpt><trkpt lat="40.674446" lon="15.0307347"><ele>464.0</ele><time>2026-05-02T09:08:23.321Z</time></trkpt><trkpt lat="40.6744644" lon="15.0306495"><ele>463.4</ele><time>2026-05-02T09:08:24.32Z</time></trkpt><trkpt lat="40.6745036" lon="15.0304994"><ele>462.79999999999995</ele><time>2026-05-02T09:08:26.32Z</time></trkpt><trkpt lat="40.6745778" lon="15.030372"><ele>462.20000000000005</ele><time>2026-05-02T09:08:28.321Z</time></trkpt><trkpt lat="40.6746493" lon="15.0302463"><ele>461.6</ele><time>2026-05-02T09:08:30.321Z</time></trkpt><trkpt lat="40.6746806" lon="15.0301684"><ele>461.0</ele><time>2026-05-02T09:08:31.321Z</time></trkpt><trkpt lat="40.6747052" lon="15.0300763"><ele>460.99999999999994</ele><time>2026-05-02T09:08:32.32Z</time></trkpt><trkpt lat="40.6747252" lon="15.0299938"><ele>461.0</ele><time>2026-05-02T09:08:33.32Z</time></trkpt><trkpt lat="40.6747473" lon="15.0299119"><ele>461.0</ele><time>2026-05-02T09:08:34.321Z</time></trkpt><trkpt lat="40.6747883" lon="15.0297572"><ele>461.0</ele><time>2026-05-02T09:08:36.321Z</time></trkpt><trkpt lat="40.6748068" lon="15.029675"><ele>460.99999999999994</ele><time>2026-05-02T09:08:37.321Z</time></trkpt><trkpt lat="40.6748267" lon="15.029587"><ele>461.0</ele><time>2026-05-02T09:08:38.321Z</time></trkpt><trkpt lat="40.6748544" lon="15.0294345"><ele>462.99999999999994</ele><time>2026-05-02T09:08:40.32Z</time></trkpt><trkpt lat="40.6748945" lon="15.0293049"><ele>465.0</ele><time>2026-05-02T09:08:42.321Z</time></trkpt><trkpt lat="40.6749485" lon="15.0291569"><ele>467.0</ele><time>2026-05-02T09:08:44.321Z</time></trkpt><trkpt lat="40.6749776" lon="15.0290611"><ele>469.0</ele><time>2026-05-02T09:08:45.321Z</time></trkpt><trkpt lat="40.6750051" lon="15.0289725"><ele>470.99999999999994</ele><time>2026-05-02T09:08:46.32Z</time></trkpt><trkpt lat="40.6750308" lon="15.0288946"><ele>473.0</ele><time>2026-05-02T09:08:47.32Z</time></trkpt><trkpt lat="40.6751073" lon="15.0287619"><ele>474.66666666666663</ele><time>2026-05-02T09:08:49.32Z</time></trkpt><trkpt lat="40.6751903" lon="15.0286743"><ele>476.3333333333333</ele><time>2026-05-02T09:08:51.321Z</time></trkpt><trkpt lat="40.6752656" lon="15.0286"><ele>478.0</ele><time>2026-05-02T09:08:53.321Z</time></trkpt><trkpt lat="40.6753424" lon="15.0285319"><ele>479.66666666666663</ele><time>2026-05-02T09:08:55.321Z</time></trkpt><trkpt lat="40.6753991" lon="15.0284523"><ele>481.3333333333333</ele><time>2026-05-02T09:08:57.321Z</time></trkpt><trkpt lat="40.6754202" lon="15.0283647"><ele>483.0</ele><time>2026-05-02T09:08:59.32Z</time></trkpt><trkpt lat="40.675359" lon="15.0283402"><ele>483.0</ele><time>2026-05-02T09:10:25.321Z</time></trkpt><trkpt lat="40.6753293" lon="15.0284371"><ele>483.0</ele><time>2026-05-02T09:10:28.321Z</time></trkpt><trkpt lat="40.6752695" lon="15.0285156"><ele>483.0</ele><time>2026-05-02T09:10:31.32Z</time></trkpt><trkpt lat="40.6752115" lon="15.0285569"><ele>483.0</ele><time>2026-05-02T09:10:34.321Z</time></trkpt><trkpt lat="40.6751804" lon="15.0286345"><ele>483.0</ele><time>2026-05-02T09:23:34.32Z</time></trkpt><trkpt lat="40.6752462" lon="15.0286893"><ele>483.0</ele><time>2026-05-02T09:23:38.32Z</time></trkpt><trkpt lat="40.6753075" lon="15.0286518"><ele>483.0</ele><time>2026-05-02T09:23:40.321Z</time></trkpt><trkpt lat="40.6753553" lon="15.0285878"><ele>483.0</ele><time>2026-05-02T09:23:42.32Z</time></trkpt><trkpt lat="40.6753935" lon="15.0285181"><ele>483.0</ele><time>2026-05-02T09:23:44.32Z</time></trkpt><trkpt lat="40.6753943" lon="15.0284321"><ele>483.0</ele><time>2026-05-02T09:23:46.321Z</time></trkpt><trkpt lat="40.6753882" lon="15.0283451"><ele>483.0</ele><time>2026-05-02T09:23:48.321Z</time></trkpt><trkpt lat="40.675372" lon="15.0282546"><ele>483.0</ele><time>2026-05-02T09:23:50.32Z</time></trkpt><trkpt lat="40.675356" lon="15.0281609"><ele>483.0</ele><time>2026-05-02T09:23:52.32Z</time></trkpt><trkpt lat="40.6753395" lon="15.0280712"><ele>483.0</ele><time>2026-05-02T09:23:54.32Z</time></trkpt><trkpt lat="40.6753207" lon="15.0279835"><ele>481.6666666666667</ele><time>2026-05-02T09:23:56.321Z</time></trkpt><trkpt lat="40.6752933" lon="15.0278904"><ele>480.33333333333337</ele><time>2026-05-02T09:23:58.32Z</time></trkpt><trkpt lat="40.6752573" lon="15.0277756"><ele>479.0</ele><time>2026-05-02T09:24:00.321Z</time></trkpt><trkpt lat="40.6752086" lon="15.0276886"><ele>477.6666666666667</ele><time>2026-05-02T09:24:02.321Z</time></trkpt><trkpt lat="40.6751542" lon="15.0276209"><ele>476.33333333333337</ele><time>2026-05-02T09:24:04.321Z</time></trkpt><trkpt lat="40.675098" lon="15.0275643"><ele>475.0</ele><time>2026-05-02T09:24:06.32Z</time></trkpt><trkpt lat="40.6750226" lon="15.0274828"><ele>470.5</ele><time>2026-05-02T09:24:08.321Z</time></trkpt><trkpt lat="40.6749413" lon="15.0273991"><ele>466.0</ele><time>2026-05-02T09:24:10.321Z</time></trkpt><trkpt lat="40.6748636" lon="15.0272966"><ele>461.5</ele><time>2026-05-02T09:24:12.321Z</time></trkpt><trkpt lat="40.6747861" lon="15.0271716"><ele>457.0</ele><time>2026-05-02T09:24:14.321Z</time></trkpt><trkpt lat="40.6747232" lon="15.0270404"><ele>457.0</ele><time>2026-05-02T09:24:16.32Z</time></trkpt><trkpt lat="40.6746495" lon="15.02691"><ele>457.00000000000006</ele><time>2026-05-02T09:24:18.32Z</time></trkpt><trkpt lat="40.67457" lon="15.0267939"><ele>457.00000000000006</ele><time>2026-05-02T09:24:20.32Z</time></trkpt><trkpt lat="40.6744894" lon="15.0267003"><ele>457.0</ele><time>2026-05-02T09:24:22.32Z</time></trkpt><trkpt lat="40.6744274" lon="15.0266056"><ele>457.0</ele><time>2026-05-02T09:24:24.32Z</time></trkpt><trkpt lat="40.6744145" lon="15.0264927"><ele>455.6</ele><time>2026-05-02T09:24:26.32Z</time></trkpt><trkpt lat="40.6744145" lon="15.0263712"><ele>454.20000000000005</ele><time>2026-05-02T09:24:28.32Z</time></trkpt><trkpt lat="40.674414" lon="15.0262293"><ele>452.8</ele><time>2026-05-02T09:24:30.321Z</time></trkpt><trkpt lat="40.6744066" lon="15.0260665"><ele>451.4</ele><time>2026-05-02T09:24:32.32Z</time></trkpt><trkpt lat="40.6744091" lon="15.0259725"><ele>450.0</ele><time>2026-05-02T09:24:33.32Z</time></trkpt><trkpt lat="40.6744096" lon="15.0258732"><ele>446.1666666666667</ele><time>2026-05-02T09:24:34.32Z</time></trkpt><trkpt lat="40.6744085" lon="15.0257746"><ele>442.33333333333337</ele><time>2026-05-02T09:24:35.32Z</time></trkpt><trkpt lat="40.6744014" lon="15.0256833"><ele>438.5</ele><time>2026-05-02T09:24:36.32Z</time></trkpt><trkpt lat="40.6743909" lon="15.0255928"><ele>434.6666666666667</ele><time>2026-05-02T09:24:37.32Z</time></trkpt><trkpt lat="40.6743782" lon="15.0255103"><ele>430.83333333333337</ele><time>2026-05-02T09:24:38.32Z</time></trkpt><trkpt lat="40.6743216" lon="15.0253868"><ele>427.0</ele><time>2026-05-02T09:24:40.32Z</time></trkpt><trkpt lat="40.6742914" lon="15.025268"><ele>427.0</ele><time>2026-05-02T09:24:42.321Z</time></trkpt><trkpt lat="40.6743585" lon="15.0251562"><ele>427.0</ele><time>2026-05-02T09:24:44.32Z</time></trkpt><trkpt lat="40.6744672" lon="15.0251573"><ele>427.0</ele><time>2026-05-02T09:24:46.32Z</time></trkpt><trkpt lat="40.6745599" lon="15.0252616"><ele>427.0</ele><time>2026-05-02T09:24:48.32Z</time></trkpt><trkpt lat="40.6746268" lon="15.0254081"><ele>424.50000000000006</ele><time>2026-05-02T09:24:50.32Z</time></trkpt><trkpt lat="40.6746536" lon="15.0254864"><ele>422.0</ele><time>2026-05-02T09:24:51.321Z</time></trkpt><trkpt lat="40.6746771" lon="15.0255637"><ele>419.5</ele><time>2026-05-02T09:24:52.321Z</time></trkpt><trkpt lat="40.6747207" lon="15.0256947"><ele>417.0</ele><time>2026-05-02T09:24:54.321Z</time></trkpt><trkpt lat="40.6747928" lon="15.0257403"><ele>414.50000000000006</ele><time>2026-05-02T09:24:56.321Z</time></trkpt><trkpt lat="40.6748539" lon="15.0256691"><ele>412.0</ele><time>2026-05-02T09:24:58.321Z</time></trkpt><trkpt lat="40.6748424" lon="15.0255613"><ele>412.0</ele><time>2026-05-02T09:25:00.321Z</time></trkpt><trkpt lat="40.6747764" lon="15.0254844"><ele>412.0</ele><time>2026-05-02T09:25:02.32Z</time></trkpt><trkpt lat="40.6747583" lon="15.0253455"><ele>412.0</ele><time>2026-05-02T09:25:04.321Z</time></trkpt><trkpt lat="40.6747628" lon="15.0251932"><ele>412.0</ele><time>2026-05-02T09:25:06.321Z</time></trkpt><trkpt lat="40.6747392" lon="15.0250417"><ele>412.0</ele><time>2026-05-02T09:25:08.321Z</time></trkpt><trkpt lat="40.6746606" lon="15.0249268"><ele>411.00000000000006</ele><time>2026-05-02T09:25:10.32Z</time></trkpt><trkpt lat="40.6745635" lon="15.0248367"><ele>410.0</ele><time>2026-05-02T09:25:12.32Z</time></trkpt><trkpt lat="40.6744743" lon="15.0247521"><ele>409.0</ele><time>2026-05-02T09:25:14.32Z</time></trkpt><trkpt lat="40.674436" lon="15.02467"><ele>408.0</ele><time>2026-05-02T09:25:16.32Z</time></trkpt><trkpt lat="40.6745059" lon="15.0246649"><ele>407.00000000000006</ele><time>2026-05-02T09:25:19.32Z</time></trkpt><trkpt lat="40.674559" lon="15.0247282"><ele>406.0</ele><time>2026-05-02T09:25:21.321Z</time></trkpt><trkpt lat="40.6746493" lon="15.0247742"><ele>404.0</ele><time>2026-05-02T09:25:23.321Z</time></trkpt><trkpt lat="40.6747136" lon="15.0247993"><ele>402.0</ele><time>2026-05-02T09:25:24.321Z</time></trkpt><trkpt lat="40.6748189" lon="15.0248325"><ele>400.0</ele><time>2026-05-02T09:25:26.321Z</time></trkpt><trkpt lat="40.6749195" lon="15.0248304"><ele>398.0</ele><time>2026-05-02T09:25:28.32Z</time></trkpt><trkpt lat="40.6750161" lon="15.0247592"><ele>396.0</ele><time>2026-05-02T09:25:30.32Z</time></trkpt><trkpt lat="40.6751143" lon="15.0246681"><ele>396.0</ele><time>2026-05-02T09:25:32.32Z</time></trkpt><trkpt lat="40.6751575" lon="15.024602"><ele>396.0</ele><time>2026-05-02T09:25:33.32Z</time></trkpt><trkpt lat="40.6752029" lon="15.02447"><ele>396.0</ele><time>2026-05-02T09:25:35.321Z</time></trkpt><trkpt lat="40.675235" lon="15.0243555"><ele>396.0</ele><time>2026-05-02T09:25:37.32Z</time></trkpt><trkpt lat="40.6752964" lon="15.0242867"><ele>396.0</ele><time>2026-05-02T09:25:39.32Z</time></trkpt><trkpt lat="40.6753635" lon="15.0242591"><ele>396.0</ele><time>2026-05-02T09:25:41.32Z</time></trkpt><trkpt lat="40.6754345" lon="15.0242143"><ele>396.0</ele><time>2026-05-02T09:25:44.321Z</time></trkpt><trkpt lat="40.6754939" lon="15.0242516"><ele>396.0</ele><time>2026-05-02T09:26:03.32Z</time></trkpt><trkpt lat="40.6755315" lon="15.0243379"><ele>396.0</ele><time>2026-05-02T09:26:05.321Z</time></trkpt><trkpt lat="40.675594" lon="15.0244403"><ele>396.0</ele><time>2026-05-02T09:26:07.32Z</time></trkpt><trkpt lat="40.6756709" lon="15.0245396"><ele>396.0</ele><time>2026-05-02T09:26:09.321Z</time></trkpt><trkpt lat="40.6757517" lon="15.0246453"><ele>396.0</ele><time>2026-05-02T09:26:11.32Z</time></trkpt><trkpt lat="40.6757963" lon="15.0247088"><ele>396.0</ele><time>2026-05-02T09:26:12.32Z</time></trkpt><trkpt lat="40.675872" lon="15.0248195"><ele>396.0</ele><time>2026-05-02T09:26:14.32Z</time></trkpt><trkpt lat="40.6759385" lon="15.0249137"><ele>396.0</ele><time>2026-05-02T09:26:16.32Z</time></trkpt><trkpt lat="40.6759998" lon="15.0250384"><ele>396.0</ele><time>2026-05-02T09:26:18.321Z</time></trkpt><trkpt lat="40.6760389" lon="15.0251075"><ele>398.0</ele><time>2026-05-02T09:26:19.32Z</time></trkpt><trkpt lat="40.6760854" lon="15.0251759"><ele>400.0</ele><time>2026-05-02T09:26:20.32Z</time></trkpt><trkpt lat="40.6761136" lon="15.0252603"><ele>402.0</ele><time>2026-05-02T09:26:21.32Z</time></trkpt><trkpt lat="40.6761325" lon="15.0253486"><ele>404.0</ele><time>2026-05-02T09:26:22.32Z</time></trkpt><trkpt lat="40.6761528" lon="15.025434"><ele>406.0</ele><time>2026-05-02T09:26:23.321Z</time></trkpt><trkpt lat="40.6761886" lon="15.0255923"><ele>408.0</ele><time>2026-05-02T09:26:25.32Z</time></trkpt><trkpt lat="40.6762313" lon="15.0257426"><ele>411.0</ele><time>2026-05-02T09:26:27.32Z</time></trkpt><trkpt lat="40.6763198" lon="15.0258603"><ele>414.0</ele><time>2026-05-02T09:26:29.321Z</time></trkpt><trkpt lat="40.6763662" lon="15.025924"><ele>417.0</ele><time>2026-05-02T09:26:30.321Z</time></trkpt><trkpt lat="40.6764407" lon="15.0260243"><ele>420.0</ele><time>2026-05-02T09:26:32.321Z</time></trkpt><trkpt lat="40.6765209" lon="15.0261197"><ele>423.0</ele><time>2026-05-02T09:26:34.32Z</time></trkpt><trkpt lat="40.6765717" lon="15.0261799"><ele>423.0</ele><time>2026-05-02T09:26:35.32Z</time></trkpt><trkpt lat="40.6766504" lon="15.026273"><ele>423.0</ele><time>2026-05-02T09:26:37.321Z</time></trkpt><trkpt lat="40.676737" lon="15.0263122"><ele>423.0</ele><time>2026-05-02T09:26:39.321Z</time></trkpt><trkpt lat="40.6768268" lon="15.0263685"><ele>423.0</ele><time>2026-05-02T09:26:41.32Z</time></trkpt><trkpt lat="40.6769043" lon="15.0263354"><ele>423.0</ele><time>2026-05-02T09:26:43.32Z</time></trkpt><trkpt lat="40.6769815" lon="15.0263785"><ele>423.3333333333333</ele><time>2026-05-02T09:26:45.321Z</time></trkpt><trkpt lat="40.6770416" lon="15.0264521"><ele>423.66666666666663</ele><time>2026-05-02T09:26:47.32Z</time></trkpt><trkpt lat="40.6771361" lon="15.0264932"><ele>424.0</ele><time>2026-05-02T09:26:49.32Z</time></trkpt><trkpt lat="40.6772012" lon="15.0264601"><ele>424.3333333333333</ele><time>2026-05-02T09:26:51.321Z</time></trkpt><trkpt lat="40.6772731" lon="15.0264057"><ele>424.66666666666663</ele><time>2026-05-02T09:26:53.32Z</time></trkpt><trkpt lat="40.6773647" lon="15.0264307"><ele>425.0</ele><time>2026-05-02T09:26:55.321Z</time></trkpt><trkpt lat="40.677444" lon="15.026441"><ele>424.99999999999994</ele><time>2026-05-02T09:26:57.321Z</time></trkpt><trkpt lat="40.6775242" lon="15.0264435"><ele>425.0</ele><time>2026-05-02T09:26:59.321Z</time></trkpt><trkpt lat="40.6776453" lon="15.0264848"><ele>425.0</ele><time>2026-05-02T09:27:01.32Z</time></trkpt><trkpt lat="40.6777174" lon="15.0265167"><ele>425.0</ele><time>2026-05-02T09:27:02.321Z</time></trkpt><trkpt lat="40.6777847" lon="15.0265605"><ele>424.99999999999994</ele><time>2026-05-02T09:27:03.321Z</time></trkpt><trkpt lat="40.677841" lon="15.0266144"><ele>425.0</ele><time>2026-05-02T09:27:04.321Z</time></trkpt><trkpt lat="40.6778887" lon="15.0266761"><ele>426.0</ele><time>2026-05-02T09:27:05.321Z</time></trkpt><trkpt lat="40.6779338" lon="15.0267545"><ele>427.0</ele><time>2026-05-02T09:27:06.321Z</time></trkpt><trkpt lat="40.6779809" lon="15.0268413"><ele>428.0</ele><time>2026-05-02T09:27:07.32Z</time></trkpt><trkpt lat="40.6780208" lon="15.0269237"><ele>429.0</ele><time>2026-05-02T09:27:08.32Z</time></trkpt><trkpt lat="40.6780595" lon="15.0270014"><ele>430.0</ele><time>2026-05-02T09:27:09.321Z</time></trkpt><trkpt lat="40.6780976" lon="15.0270753"><ele>431.0</ele><time>2026-05-02T09:27:10.321Z</time></trkpt><trkpt lat="40.6781425" lon="15.0271431"><ele>432.0</ele><time>2026-05-02T09:27:11.321Z</time></trkpt><trkpt lat="40.6781859" lon="15.0272076"><ele>432.0</ele><time>2026-05-02T09:27:12.32Z</time></trkpt><trkpt lat="40.6782277" lon="15.0272733"><ele>432.0</ele><time>2026-05-02T09:27:13.32Z</time></trkpt><trkpt lat="40.678305" lon="15.0273963"><ele>432.0</ele><time>2026-05-02T09:27:15.321Z</time></trkpt><trkpt lat="40.6783723" lon="15.0275088"><ele>432.0</ele><time>2026-05-02T09:27:17.321Z</time></trkpt><trkpt lat="40.6784261" lon="15.0275979"><ele>432.0</ele><time>2026-05-02T09:27:19.321Z</time></trkpt><trkpt lat="40.6784744" lon="15.0276614"><ele>432.0</ele><time>2026-05-02T09:27:21.32Z</time></trkpt><trkpt lat="40.6785669" lon="15.0276735"><ele>432.0</ele><time>2026-05-02T09:27:24.32Z</time></trkpt><trkpt lat="40.6785883" lon="15.0275732"><ele>432.0</ele><time>2026-05-02T09:27:26.321Z</time></trkpt><trkpt lat="40.6785685" lon="15.0274498"><ele>432.0</ele><time>2026-05-02T09:27:28.32Z</time></trkpt><trkpt lat="40.6785478" lon="15.0272903"><ele>432.0</ele><time>2026-05-02T09:27:30.321Z</time></trkpt><trkpt lat="40.6785352" lon="15.0272056"><ele>432.0</ele><time>2026-05-02T09:27:31.321Z</time></trkpt><trkpt lat="40.6785181" lon="15.0271244"><ele>432.0</ele><time>2026-05-02T09:27:32.321Z</time></trkpt><trkpt lat="40.678479" lon="15.0269643"><ele>432.0</ele><time>2026-05-02T09:27:34.321Z</time></trkpt><trkpt lat="40.6784539" lon="15.0268822"><ele>432.0</ele><time>2026-05-02T09:27:35.321Z</time></trkpt><trkpt lat="40.6784278" lon="15.0267972"><ele>432.0</ele><time>2026-05-02T09:27:36.321Z</time></trkpt><trkpt lat="40.678401" lon="15.026711"><ele>432.0</ele><time>2026-05-02T09:27:37.32Z</time></trkpt><trkpt lat="40.6783721" lon="15.0266214"><ele>432.0</ele><time>2026-05-02T09:27:38.32Z</time></trkpt><trkpt lat="40.6783431" lon="15.026533"><ele>432.0</ele><time>2026-05-02T09:27:39.32Z</time></trkpt><trkpt lat="40.6783129" lon="15.0264461"><ele>432.0</ele><time>2026-05-02T09:27:40.321Z</time></trkpt><trkpt lat="40.6782849" lon="15.0263645"><ele>429.2857142857143</ele><time>2026-05-02T09:27:41.321Z</time></trkpt><trkpt lat="40.6782562" lon="15.0262814"><ele>426.57142857142856</ele><time>2026-05-02T09:27:42.321Z</time></trkpt><trkpt lat="40.67823" lon="15.0261931"><ele>423.8571428571429</ele><time>2026-05-02T09:27:43.321Z</time></trkpt><trkpt lat="40.6782062" lon="15.0261001"><ele>421.1428571428571</ele><time>2026-05-02T09:27:44.321Z</time></trkpt><trkpt lat="40.6781866" lon="15.0260086"><ele>418.42857142857144</ele><time>2026-05-02T09:27:45.321Z</time></trkpt><trkpt lat="40.6781665" lon="15.0259198"><ele>415.7142857142857</ele><time>2026-05-02T09:27:46.321Z</time></trkpt><trkpt lat="40.6781435" lon="15.0258392"><ele>413.0</ele><time>2026-05-02T09:27:47.321Z</time></trkpt><trkpt lat="40.6780893" lon="15.0257052"><ele>411.16666666666663</ele><time>2026-05-02T09:27:49.321Z</time></trkpt><trkpt lat="40.6780303" lon="15.0255719"><ele>409.3333333333333</ele><time>2026-05-02T09:27:51.321Z</time></trkpt><trkpt lat="40.6779921" lon="15.0254973"><ele>407.5</ele><time>2026-05-02T09:27:52.32Z</time></trkpt><trkpt lat="40.6779497" lon="15.0254221"><ele>405.66666666666663</ele><time>2026-05-02T09:27:53.32Z</time></trkpt><trkpt lat="40.6779033" lon="15.0253495"><ele>403.8333333333333</ele><time>2026-05-02T09:27:54.32Z</time></trkpt><trkpt lat="40.6778543" lon="15.0252766"><ele>402.0</ele><time>2026-05-02T09:27:55.32Z</time></trkpt><trkpt lat="40.6778058" lon="15.0252005"><ele>402.20000000000005</ele><time>2026-05-02T09:27:56.32Z</time></trkpt><trkpt lat="40.6777574" lon="15.0251203"><ele>402.4</ele><time>2026-05-02T09:27:57.32Z</time></trkpt><trkpt lat="40.6777081" lon="15.0250486"><ele>402.6</ele><time>2026-05-02T09:27:58.321Z</time></trkpt><trkpt lat="40.6776617" lon="15.024986"><ele>402.79999999999995</ele><time>2026-05-02T09:27:59.321Z</time></trkpt><trkpt lat="40.6775761" lon="15.0248842"><ele>403.0</ele><time>2026-05-02T09:28:01.321Z</time></trkpt><trkpt lat="40.677486" lon="15.0247636"><ele>401.0</ele><time>2026-05-02T09:28:03.321Z</time></trkpt><trkpt lat="40.677437" lon="15.0246959"><ele>399.0</ele><time>2026-05-02T09:28:04.321Z</time></trkpt><trkpt lat="40.6773879" lon="15.0246282"><ele>397.0</ele><time>2026-05-02T09:28:05.321Z</time></trkpt><trkpt lat="40.6773423" lon="15.0245663"><ele>395.0</ele><time>2026-05-02T09:28:06.321Z</time></trkpt><trkpt lat="40.6772543" lon="15.0244523"><ele>393.0</ele><time>2026-05-02T09:28:08.321Z</time></trkpt><trkpt lat="40.6771726" lon="15.0243339"><ele>393.0</ele><time>2026-05-02T09:28:10.32Z</time></trkpt><trkpt lat="40.6770693" lon="15.0242435"><ele>393.0</ele><time>2026-05-02T09:28:12.319Z</time></trkpt><trkpt lat="40.6770083" lon="15.0242132"><ele>393.0</ele><time>2026-05-02T09:28:13.321Z</time></trkpt><trkpt lat="40.6769462" lon="15.0241875"><ele>393.0</ele><time>2026-05-02T09:28:14.321Z</time></trkpt><trkpt lat="40.676827" lon="15.0241436"><ele>393.0</ele><time>2026-05-02T09:28:16.321Z</time></trkpt><trkpt lat="40.6767347" lon="15.0241102"><ele>391.0</ele><time>2026-05-02T09:28:18.32Z</time></trkpt><trkpt lat="40.6766462" lon="15.024082"><ele>389.0</ele><time>2026-05-02T09:28:20.32Z</time></trkpt><trkpt lat="40.6765585" lon="15.0240632"><ele>387.0</ele><time>2026-05-02T09:28:22.321Z</time></trkpt><trkpt lat="40.6764816" lon="15.0240334"><ele>385.0</ele><time>2026-05-02T09:28:24.321Z</time></trkpt><trkpt lat="40.6764111" lon="15.0240188"><ele>383.0</ele><time>2026-05-02T09:28:26.321Z</time></trkpt><trkpt lat="40.6763213" lon="15.0240174"><ele>381.0</ele><time>2026-05-02T09:28:29.321Z</time></trkpt><trkpt lat="40.6762514" lon="15.0240169"><ele>381.0</ele><time>2026-05-02T09:28:31.321Z</time></trkpt><trkpt lat="40.6761759" lon="15.0239984"><ele>381.0</ele><time>2026-05-02T09:28:33.321Z</time></trkpt><trkpt lat="40.6760975" lon="15.0239646"><ele>381.0</ele><time>2026-05-02T09:28:35.32Z</time></trkpt><trkpt lat="40.6760182" lon="15.0238969"><ele>381.0</ele><time>2026-05-02T09:28:37.321Z</time></trkpt><trkpt lat="40.6759415" lon="15.0238111"><ele>381.0</ele><time>2026-05-02T09:28:39.321Z</time></trkpt><trkpt lat="40.6758638" lon="15.0237075"><ele>381.6</ele><time>2026-05-02T09:28:41.321Z</time></trkpt><trkpt lat="40.675783" lon="15.0235966"><ele>382.20000000000005</ele><time>2026-05-02T09:28:43.321Z</time></trkpt><trkpt lat="40.675683" lon="15.0234876"><ele>382.79999999999995</ele><time>2026-05-02T09:28:45.321Z</time></trkpt><trkpt lat="40.6756136" lon="15.0234261"><ele>383.4</ele><time>2026-05-02T09:28:46.321Z</time></trkpt><trkpt lat="40.6755317" lon="15.0233517"><ele>384.0</ele><time>2026-05-02T09:28:47.321Z</time></trkpt><trkpt lat="40.6754304" lon="15.0232679"><ele>382.2</ele><time>2026-05-02T09:28:48.321Z</time></trkpt><trkpt lat="40.675328" lon="15.0232101"><ele>380.4</ele><time>2026-05-02T09:28:49.321Z</time></trkpt><trkpt lat="40.6752311" lon="15.0231953"><ele>378.6</ele><time>2026-05-02T09:28:50.32Z</time></trkpt><trkpt lat="40.6751417" lon="15.023198"><ele>376.8</ele><time>2026-05-02T09:28:51.32Z</time></trkpt><trkpt lat="40.675061" lon="15.0232139"><ele>375.0</ele><time>2026-05-02T09:28:52.32Z</time></trkpt><trkpt lat="40.6749824" lon="15.0232252"><ele>374.8571428571429</ele><time>2026-05-02T09:28:53.321Z</time></trkpt><trkpt lat="40.6749072" lon="15.0232378"><ele>374.71428571428567</ele><time>2026-05-02T09:28:54.321Z</time></trkpt><trkpt lat="40.6748386" lon="15.0232571"><ele>374.57142857142856</ele><time>2026-05-02T09:28:55.321Z</time></trkpt><trkpt lat="40.6747833" lon="15.0233066"><ele>374.42857142857144</ele><time>2026-05-02T09:28:56.321Z</time></trkpt><trkpt lat="40.6747537" lon="15.0233822"><ele>374.28571428571433</ele><time>2026-05-02T09:28:57.321Z</time></trkpt><trkpt lat="40.674731" lon="15.0234607"><ele>374.1428571428571</ele><time>2026-05-02T09:28:58.322Z</time></trkpt><trkpt lat="40.6746819" lon="15.023515"><ele>374.0</ele><time>2026-05-02T09:28:59.321Z</time></trkpt><trkpt lat="40.6746163" lon="15.0235288"><ele>374.0</ele><time>2026-05-02T09:29:00.321Z</time></trkpt><trkpt lat="40.6745486" lon="15.0234921"><ele>374.0</ele><time>2026-05-02T09:29:01.321Z</time></trkpt><trkpt lat="40.6745037" lon="15.0234114"><ele>374.0</ele><time>2026-05-02T09:29:02.321Z</time></trkpt><trkpt lat="40.6744719" lon="15.023295"><ele>374.0</ele><time>2026-05-02T09:29:03.322Z</time></trkpt><trkpt lat="40.6744275" lon="15.0231581"><ele>374.0</ele><time>2026-05-02T09:29:04.322Z</time></trkpt><trkpt lat="40.6743517" lon="15.0230263"><ele>373.5</ele><time>2026-05-02T09:29:05.322Z</time></trkpt><trkpt lat="40.6742578" lon="15.0229082"><ele>373.0</ele><time>2026-05-02T09:29:06.322Z</time></trkpt><trkpt lat="40.6741826" lon="15.0227842"><ele>372.5</ele><time>2026-05-02T09:29:07.322Z</time></trkpt><trkpt lat="40.6741258" lon="15.0226496"><ele>372.0</ele><time>2026-05-02T09:29:08.322Z</time></trkpt><trkpt lat="40.6740849" lon="15.0225176"><ele>369.20000000000005</ele><time>2026-05-02T09:29:09.322Z</time></trkpt><trkpt lat="40.6740505" lon="15.022396"><ele>366.4</ele><time>2026-05-02T09:29:10.321Z</time></trkpt><trkpt lat="40.6739866" lon="15.0222977"><ele>363.6</ele><time>2026-05-02T09:29:11.321Z</time></trkpt><trkpt lat="40.6739046" lon="15.0222451"><ele>360.79999999999995</ele><time>2026-05-02T09:29:12.321Z</time></trkpt><trkpt lat="40.6738077" lon="15.0222444"><ele>358.0</ele><time>2026-05-02T09:29:13.322Z</time></trkpt><trkpt lat="40.6737056" lon="15.022275"><ele>358.0</ele><time>2026-05-02T09:29:14.322Z</time></trkpt><trkpt lat="40.673609" lon="15.02231"><ele>358.0</ele><time>2026-05-02T09:29:15.322Z</time></trkpt><trkpt lat="40.6735129" lon="15.0223285"><ele>358.0</ele><time>2026-05-02T09:29:16.322Z</time></trkpt><trkpt lat="40.6734213" lon="15.0223119"><ele>358.0</ele><time>2026-05-02T09:29:17.322Z</time></trkpt><trkpt lat="40.673344" lon="15.0222738"><ele>358.0</ele><time>2026-05-02T09:29:18.321Z</time></trkpt><trkpt lat="40.6732739" lon="15.0222236"><ele>358.3333333333333</ele><time>2026-05-02T09:29:19.321Z</time></trkpt><trkpt lat="40.6732043" lon="15.0221638"><ele>358.66666666666663</ele><time>2026-05-02T09:29:20.321Z</time></trkpt><trkpt lat="40.6731333" lon="15.0220924"><ele>359.0</ele><time>2026-05-02T09:29:21.321Z</time></trkpt><trkpt lat="40.6730714" lon="15.0220108"><ele>359.3333333333333</ele><time>2026-05-02T09:29:22.321Z</time></trkpt><trkpt lat="40.6730237" lon="15.0219209"><ele>359.6666666666667</ele><time>2026-05-02T09:29:23.322Z</time></trkpt><trkpt lat="40.672979" lon="15.0218198"><ele>360.0</ele><time>2026-05-02T09:29:24.322Z</time></trkpt><trkpt lat="40.6729386" lon="15.0217126"><ele>358.4</ele><time>2026-05-02T09:29:25.322Z</time></trkpt><trkpt lat="40.6729006" lon="15.0215981"><ele>356.8</ele><time>2026-05-02T09:29:26.322Z</time></trkpt><trkpt lat="40.6728655" lon="15.0214773"><ele>355.20000000000005</ele><time>2026-05-02T09:29:27.321Z</time></trkpt><trkpt lat="40.6728385" lon="15.0213515"><ele>353.6</ele><time>2026-05-02T09:29:28.322Z</time></trkpt><trkpt lat="40.6728194" lon="15.0212231"><ele>352.0</ele><time>2026-05-02T09:29:29.321Z</time></trkpt><trkpt lat="40.6728009" lon="15.0211001"><ele>352.0</ele><time>2026-05-02T09:29:30.321Z</time></trkpt><trkpt lat="40.6727859" lon="15.0209811"><ele>352.0</ele><time>2026-05-02T09:29:31.321Z</time></trkpt></trkseg></trk></gpx>